<?xml version='1.0' encoding='UTF-8'?><gpx version="1.1" creator="JPX - https://github.com/jenetics/jpx" xmlns="http://www.topografix.com/GPX/1/1"><trk><trkseg><trkpt lat="41.07668014502334" lon="14.542769431112028"><ele>271.0</ele><time>2026-04-26T11:04:15.999Z</time></trkpt><trkpt lat="41.076614953425405" lon="14.542761939285404"><ele>271.0</ele><time>2026-04-26T11:04:16.999Z</time></trkpt><trkpt lat="41.07654582263097" lon="14.542763654656572"><ele>271.0</ele><time>2026-04-26T11:04:17.999Z</time></trkpt><trkpt lat="41.07642733458101" lon="14.542783172079327"><ele>271.0</ele><time>2026-04-26T11:04:19.999Z</time></trkpt><trkpt lat="41.076315999211246" lon="14.542783799914243"><ele>271.0</ele><time>2026-04-26T11:04:21.999Z</time></trkpt><trkpt lat="41.07623927354341" lon="14.542827709961776"><ele>271.0</ele><time>2026-04-26T11:04:23.999Z</time></trkpt><trkpt lat="41.07626271642568" lon="14.542930170197213"><ele>270.8</ele><time>2026-04-26T11:04:25.999Z</time></trkpt><trkpt lat="41.07635005159569" lon="14.542959117120759"><ele>270.6</ele><time>2026-04-26T11:04:27.999Z</time></trkpt><trkpt lat="41.076429883243364" lon="14.54291009887289"><ele>270.4</ele><time>2026-04-26T11:04:29.999Z</time></trkpt><trkpt lat="41.076458414297" lon="14.54281919879469"><ele>270.2</ele><time>2026-04-26T11:04:32.998Z</time></trkpt><trkpt lat="41.0764834896671" lon="14.542974123728683"><ele>270.0</ele><time>2026-04-26T11:04:33.998Z</time></trkpt><trkpt lat="41.07653178821241" lon="14.542821063387194"><ele>270.1666666666667</ele><time>2026-04-26T11:04:34.998Z</time></trkpt><trkpt lat="41.07664009201898" lon="14.542818667534174"><ele>270.3333333333333</ele><time>2026-04-26T11:04:36.998Z</time></trkpt><trkpt lat="41.07674448754334" lon="14.54282689795261"><ele>270.5</ele><time>2026-04-26T11:04:38.998Z</time></trkpt><trkpt lat="41.07681508456739" lon="14.542829381315805"><ele>270.66666666666663</ele><time>2026-04-26T11:04:39.998Z</time></trkpt><trkpt lat="41.07688998744885" lon="14.542835188228151"><ele>270.8333333333333</ele><time>2026-04-26T11:04:40.998Z</time></trkpt><trkpt lat="41.076964766132605" lon="14.542840901651392"><ele>271.0</ele><time>2026-04-26T11:04:41.998Z</time></trkpt><trkpt lat="41.07703526065133" lon="14.542843683151006"><ele>271.0</ele><time>2026-04-26T11:04:42.998Z</time></trkpt><trkpt lat="41.0771137265063" lon="14.54284698742057"><ele>271.0</ele><time>2026-04-26T11:04:43.998Z</time></trkpt><trkpt lat="41.07719566488354" lon="14.542867211355489"><ele>271.0</ele><time>2026-04-26T11:04:44.998Z</time></trkpt><trkpt lat="41.077289848700644" lon="14.542910234993963"><ele>271.0</ele><time>2026-04-26T11:04:45.998Z</time></trkpt><trkpt lat="41.07737259835076" lon="14.542956510934047"><ele>271.0</ele><time>2026-04-26T11:04:46.998Z</time></trkpt><trkpt lat="41.07744855959666" lon="14.543022293514777"><ele>271.0</ele><time>2026-04-26T11:04:47.998Z</time></trkpt><trkpt lat="41.07752940413063" lon="14.543101338266709"><ele>271.0</ele><time>2026-04-26T11:04:48.998Z</time></trkpt><trkpt lat="41.077608480575165" lon="14.543190462984972"><ele>271.0</ele><time>2026-04-26T11:04:49.998Z</time></trkpt><trkpt lat="41.07768195382069" lon="14.543274139652942"><ele>271.0</ele><time>2026-04-26T11:04:50.998Z</time></trkpt><trkpt lat="41.07776308376587" lon="14.543346371140412"><ele>271.0</ele><time>2026-04-26T11:04:51.998Z</time></trkpt><trkpt lat="41.07785179089561" lon="14.543421913626375"><ele>271.0</ele><time>2026-04-26T11:04:52.998Z</time></trkpt><trkpt lat="41.077944111935324" lon="14.543473592075092"><ele>271.0</ele><time>2026-04-26T11:04:53.998Z</time></trkpt><trkpt lat="41.07803684292748" lon="14.54350917864132"><ele>271.0</ele><time>2026-04-26T11:04:54.998Z</time></trkpt><trkpt lat="41.07813385334876" lon="14.543547999384863"><ele>271.0</ele><time>2026-04-26T11:04:55.998Z</time></trkpt><trkpt lat="41.07821984472923" lon="14.54358168903455"><ele>271.0</ele><time>2026-04-26T11:04:56.998Z</time></trkpt><trkpt lat="41.0782919127281" lon="14.543615734473851"><ele>271.0</ele><time>2026-04-26T11:04:57.998Z</time></trkpt><trkpt lat="41.07835659626013" lon="14.543635162397308"><ele>271.0</ele><time>2026-04-26T11:04:58.998Z</time></trkpt><trkpt lat="41.07842224641502" lon="14.543654880613815"><ele>270.8333333333333</ele><time>2026-04-26T11:04:59.998Z</time></trkpt><trkpt lat="41.078508201562194" lon="14.543730359536207"><ele>270.66666666666663</ele><time>2026-04-26T11:05:01.998Z</time></trkpt><trkpt lat="41.07862766679607" lon="14.543688391348306"><ele>270.5</ele><time>2026-04-26T11:05:07.998Z</time></trkpt><trkpt lat="41.078683905773616" lon="14.543644674729526"><ele>270.3333333333333</ele><time>2026-04-26T11:05:08.998Z</time></trkpt><trkpt lat="41.07874067593589" lon="14.543587494487879"><ele>270.1666666666667</ele><time>2026-04-26T11:05:09.998Z</time></trkpt><trkpt lat="41.078802789362925" lon="14.543537114863902"><ele>270.0</ele><time>2026-04-26T11:05:10.998Z</time></trkpt><trkpt lat="41.078881857187845" lon="14.54349793564535"><ele>270.0</ele><time>2026-04-26T11:05:11.998Z</time></trkpt><trkpt lat="41.07895965238676" lon="14.54343432016761"><ele>270.0</ele><time>2026-04-26T11:05:12.998Z</time></trkpt><trkpt lat="41.07903162682739" lon="14.543370967996404"><ele>270.0</ele><time>2026-04-26T11:05:13.998Z</time></trkpt><trkpt lat="41.07910700837136" lon="14.543308146192746"><ele>270.0</ele><time>2026-04-26T11:05:14.998Z</time></trkpt><trkpt lat="41.079192455192356" lon="14.543240463795632"><ele>270.0</ele><time>2026-04-26T11:05:15.998Z</time></trkpt><trkpt lat="41.07927217370856" lon="14.543186205295227"><ele>269.8</ele><time>2026-04-26T11:05:16.998Z</time></trkpt><trkpt lat="41.07934705978574" lon="14.543133915635952"><ele>269.6</ele><time>2026-04-26T11:05:17.998Z</time></trkpt><trkpt lat="41.07941878795645" lon="14.543062698063626"><ele>269.4</ele><time>2026-04-26T11:05:18.998Z</time></trkpt><trkpt lat="41.07952340860955" lon="14.54305655852754"><ele>269.2</ele><time>2026-04-26T11:05:19.998Z</time></trkpt><trkpt lat="41.07961762014501" lon="14.543039628991528"><ele>269.0</ele><time>2026-04-26T11:05:20.998Z</time></trkpt><trkpt lat="41.07971613228715" lon="14.543039492214131"><ele>269.0</ele><time>2026-04-26T11:05:21.998Z</time></trkpt><trkpt lat="41.07980489608982" lon="14.54304304668056"><ele>269.0</ele><time>2026-04-26T11:05:22.998Z</time></trkpt><trkpt lat="41.079895819036864" lon="14.54304373852283"><ele>269.0</ele><time>2026-04-26T11:05:23.998Z</time></trkpt><trkpt lat="41.07998485185725" lon="14.543049738506687"><ele>269.0</ele><time>2026-04-26T11:05:24.998Z</time></trkpt><trkpt lat="41.08007697681267" lon="14.543050215811615"><ele>269.0</ele><time>2026-04-26T11:05:25.998Z</time></trkpt><trkpt lat="41.080172084871734" lon="14.54304427332346"><ele>268.59999999999997</ele><time>2026-04-26T11:05:26.998Z</time></trkpt><trkpt lat="41.08027301063719" lon="14.543042237607787"><ele>268.2</ele><time>2026-04-26T11:05:27.998Z</time></trkpt><trkpt lat="41.08037373268283" lon="14.543041976656244"><ele>267.79999999999995</ele><time>2026-04-26T11:05:28.998Z</time></trkpt><trkpt lat="41.08047324193667" lon="14.543043011002517"><ele>267.4</ele><time>2026-04-26T11:05:29.998Z</time></trkpt><trkpt lat="41.08057378081748" lon="14.543043109531016"><ele>267.0</ele><time>2026-04-26T11:05:30.998Z</time></trkpt><trkpt lat="41.08067801587705" lon="14.543033137921784"><ele>267.0</ele><time>2026-04-26T11:05:31.998Z</time></trkpt><trkpt lat="41.080780600063285" lon="14.543023255311034"><ele>267.0</ele><time>2026-04-26T11:05:32.999Z</time></trkpt><trkpt lat="41.080879228604346" lon="14.543016607868065"><ele>267.0</ele><time>2026-04-26T11:05:33.999Z</time></trkpt><trkpt lat="41.080968291505464" lon="14.542999998155429"><ele>267.0</ele><time>2026-04-26T11:05:34.999Z</time></trkpt><trkpt lat="41.08106031859629" lon="14.542993347086746"><ele>267.0</ele><time>2026-04-26T11:05:35.999Z</time></trkpt><trkpt lat="41.08114761474051" lon="14.542979142369745"><ele>267.0</ele><time>2026-04-26T11:05:36.999Z</time></trkpt><trkpt lat="41.08122952895552" lon="14.54296178238476"><ele>267.0</ele><time>2026-04-26T11:05:37.999Z</time></trkpt><trkpt lat="41.08130299128381" lon="14.542946037517403"><ele>267.0</ele><time>2026-04-26T11:05:38.999Z</time></trkpt><trkpt lat="41.08138227789387" lon="14.542927654644375"><ele>267.0</ele><time>2026-04-26T11:05:40.999Z</time></trkpt><trkpt lat="41.08142286348666" lon="14.54305925934693"><ele>267.0</ele><time>2026-04-26T11:05:43.999Z</time></trkpt><trkpt lat="41.08143719676112" lon="14.543209114573632"><ele>267.0</ele><time>2026-04-26T11:05:45.999Z</time></trkpt><trkpt lat="41.08143094421267" lon="14.543305109528553"><ele>267.0</ele><time>2026-04-26T11:05:46.999Z</time></trkpt><trkpt lat="41.08145243016191" lon="14.543409420469947"><ele>267.0</ele><time>2026-04-26T11:05:47.999Z</time></trkpt><trkpt lat="41.081461099782466" lon="14.543514081883682"><ele>267.0</ele><time>2026-04-26T11:05:48.999Z</time></trkpt><trkpt lat="41.08145529379504" lon="14.54361317692885"><ele>267.0</ele><time>2026-04-26T11:05:49.999Z</time></trkpt><trkpt lat="41.081466181599474" lon="14.543710887431644"><ele>267.0</ele><time>2026-04-26T11:05:50.999Z</time></trkpt><trkpt lat="41.081481854587146" lon="14.543814260185947"><ele>267.0</ele><time>2026-04-26T11:05:51.999Z</time></trkpt><trkpt lat="41.08149845693644" lon="14.543932660392002"><ele>267.0</ele><time>2026-04-26T11:05:52.999Z</time></trkpt><trkpt lat="41.081507676884165" lon="14.54406330777421"><ele>267.0</ele><time>2026-04-26T11:05:53.999Z</time></trkpt><trkpt lat="41.08152258333905" lon="14.544194409428563"><ele>267.0</ele><time>2026-04-26T11:05:54.999Z</time></trkpt><trkpt lat="41.081539941262896" lon="14.544324595253029"><ele>267.0</ele><time>2026-04-26T11:05:55.999Z</time></trkpt><trkpt lat="41.08154632112415" lon="14.54443898894492"><ele>266.6666666666667</ele><time>2026-04-26T11:05:56.999Z</time></trkpt><trkpt lat="41.08156119394843" lon="14.544566329658915"><ele>266.3333333333333</ele><time>2026-04-26T11:05:57.999Z</time></trkpt><trkpt lat="41.08156085360757" lon="14.544685495733386"><ele>266.0</ele><time>2026-04-26T11:05:58.999Z</time></trkpt><trkpt lat="41.081557794129886" lon="14.544787622703431"><ele>265.66666666666663</ele><time>2026-04-26T11:05:59.999Z</time></trkpt><trkpt lat="41.081547422614975" lon="14.544874586818093"><ele>265.3333333333333</ele><time>2026-04-26T11:06:00.999Z</time></trkpt><trkpt lat="41.081534014974096" lon="14.544969722426815"><ele>265.0</ele><time>2026-04-26T11:06:02.999Z</time></trkpt><trkpt lat="41.08155885984851" lon="14.545053988649569"><ele>264.8</ele><time>2026-04-26T11:06:05.999Z</time></trkpt><trkpt lat="41.081705063547986" lon="14.545119568882393"><ele>264.6</ele><time>2026-04-26T11:06:07.999Z</time></trkpt><trkpt lat="41.08176877040801" lon="14.545202917362115"><ele>264.4</ele><time>2026-04-26T11:06:08.999Z</time></trkpt><trkpt lat="41.081810138041746" lon="14.545291568993127"><ele>264.2</ele><time>2026-04-26T11:06:09.999Z</time></trkpt><trkpt lat="41.08184745962222" lon="14.545388237381445"><ele>264.0</ele><time>2026-04-26T11:06:10.999Z</time></trkpt><trkpt lat="41.081873295557095" lon="14.54549380069087"><ele>263.8</ele><time>2026-04-26T11:06:11.999Z</time></trkpt><trkpt lat="41.08189431859744" lon="14.545575948999083"><ele>263.59999999999997</ele><time>2026-04-26T11:06:12.999Z</time></trkpt><trkpt lat="41.08192859493039" lon="14.545719643750653"><ele>263.4</ele><time>2026-04-26T11:06:14.999Z</time></trkpt><trkpt lat="41.081964637871586" lon="14.545821049657247"><ele>263.2</ele><time>2026-04-26T11:06:17.999Z</time></trkpt><trkpt lat="41.082084196119936" lon="14.545874851739342"><ele>263.0</ele><time>2026-04-26T11:06:19.999Z</time></trkpt><trkpt lat="41.0821434260893" lon="14.545907460779597"><ele>263.0</ele><time>2026-04-26T11:06:20.999Z</time></trkpt><trkpt lat="41.08220640313247" lon="14.54595071655067"><ele>263.0</ele><time>2026-04-26T11:06:21.999Z</time></trkpt><trkpt lat="41.08227008804413" lon="14.546012628301952"><ele>263.0</ele><time>2026-04-26T11:06:22.999Z</time></trkpt><trkpt lat="41.082337871531124" lon="14.546074169811869"><ele>263.0</ele><time>2026-04-26T11:06:23.999Z</time></trkpt><trkpt lat="41.0824080122966" lon="14.546151076607575"><ele>263.0</ele><time>2026-04-26T11:06:24.999Z</time></trkpt><trkpt lat="41.08245385006969" lon="14.546226052723869"><ele>263.0</ele><time>2026-04-26T11:06:25.999Z</time></trkpt><trkpt lat="41.082530309274304" lon="14.546329209327544"><ele>262.5</ele><time>2026-04-26T11:06:27.999Z</time></trkpt><trkpt lat="41.08259391492173" lon="14.546447008586759"><ele>262.0</ele><time>2026-04-26T11:06:29.999Z</time></trkpt><trkpt lat="41.08264427880463" lon="14.546548852518306"><ele>261.5</ele><time>2026-04-26T11:06:31.999Z</time></trkpt><trkpt lat="41.082689692309266" lon="14.546610207099926"><ele>261.0</ele><time>2026-04-26T11:06:32.999Z</time></trkpt><trkpt lat="41.08275800637872" lon="14.546660782254651"><ele>260.5</ele><time>2026-04-26T11:06:33.999Z</time></trkpt><trkpt lat="41.08283193024579" lon="14.546701605035134"><ele>260.0</ele><time>2026-04-26T11:06:34.999Z</time></trkpt><trkpt lat="41.082918442521205" lon="14.546740720718134"><ele>260.0</ele><time>2026-04-26T11:06:35.999Z</time></trkpt><trkpt lat="41.08301135704576" lon="14.546784090585964"><ele>260.0</ele><time>2026-04-26T11:06:36.999Z</time></trkpt><trkpt lat="41.083107589875475" lon="14.546838649396046"><ele>260.0</ele><time>2026-04-26T11:06:37.999Z</time></trkpt><trkpt lat="41.083205444043266" lon="14.546894217207127"><ele>260.0</ele><time>2026-04-26T11:06:38.999Z</time></trkpt><trkpt lat="41.083306360768454" lon="14.546940872931748"><ele>260.0</ele><time>2026-04-26T11:06:39.999Z</time></trkpt><trkpt lat="41.08341068048948" lon="14.546980256431999"><ele>259.6</ele><time>2026-04-26T11:06:40.999Z</time></trkpt><trkpt lat="41.08350830431169" lon="14.547030885063995"><ele>259.2</ele><time>2026-04-26T11:06:41.999Z</time></trkpt><trkpt lat="41.083607447088546" lon="14.547089151848537"><ele>258.8</ele><time>2026-04-26T11:06:42.999Z</time></trkpt><trkpt lat="41.08368175377909" lon="14.547178769611222"><ele>258.4</ele><time>2026-04-26T11:06:43.999Z</time></trkpt><trkpt lat="41.083777147681914" lon="14.54727955815178"><ele>258.0</ele><time>2026-04-26T11:06:44.999Z</time></trkpt><trkpt lat="41.083847117598125" lon="14.547380791572122"><ele>258.0</ele><time>2026-04-26T11:06:45.999Z</time></trkpt><trkpt lat="41.08393236459677" lon="14.547483956283049"><ele>258.0</ele><time>2026-04-26T11:06:46.999Z</time></trkpt><trkpt lat="41.08402311634344" lon="14.547588485282882"><ele>258.0</ele><time>2026-04-26T11:06:47.999Z</time></trkpt><trkpt lat="41.08411854329081" lon="14.547704235270322"><ele>258.0</ele><time>2026-04-26T11:06:48.999Z</time></trkpt><trkpt lat="41.084200374179126" lon="14.547819141063764"><ele>255.75</ele><time>2026-04-26T11:06:49.999Z</time></trkpt><trkpt lat="41.0842798472877" lon="14.547922365135706"><ele>253.5</ele><time>2026-04-26T11:06:50.999Z</time></trkpt><trkpt lat="41.084384899746524" lon="14.548014505825147"><ele>251.25</ele><time>2026-04-26T11:06:51.999Z</time></trkpt><trkpt lat="41.08450563564869" lon="14.54805839177037"><ele>249.0</ele><time>2026-04-26T11:06:52.999Z</time></trkpt><trkpt lat="41.08464461858272" lon="14.54805511885808"><ele>249.0</ele><time>2026-04-26T11:06:53.999Z</time></trkpt><trkpt lat="41.084778477821686" lon="14.548054239553057"><ele>249.0</ele><time>2026-04-26T11:06:54.999Z</time></trkpt><trkpt lat="41.08490843910036" lon="14.54807312603724"><ele>249.0</ele><time>2026-04-26T11:06:55.999Z</time></trkpt><trkpt lat="41.08503400971038" lon="14.54809163568737"><ele>249.0</ele><time>2026-04-26T11:06:56.999Z</time></trkpt><trkpt lat="41.085171555225195" lon="14.548108830349918"><ele>247.5</ele><time>2026-04-26T11:06:57.999Z</time></trkpt><trkpt lat="41.08530274026664" lon="14.548133521825081"><ele>246.0</ele><time>2026-04-26T11:06:58.999Z</time></trkpt><trkpt lat="41.08543239542181" lon="14.548172531454762"><ele>244.5</ele><time>2026-04-26T11:06:59.999Z</time></trkpt><trkpt lat="41.08555483600461" lon="14.548237656764885"><ele>243.0</ele><time>2026-04-26T11:07:00.999Z</time></trkpt><trkpt lat="41.085673204267124" lon="14.54832049741561"><ele>242.0</ele><time>2026-04-26T11:07:01.999Z</time></trkpt><trkpt lat="41.08579140710733" lon="14.548405216283617"><ele>241.0</ele><time>2026-04-26T11:07:02.999Z</time></trkpt><trkpt lat="41.085909267342274" lon="14.548485791773956"><ele>240.0</ele><time>2026-04-26T11:07:03.999Z</time></trkpt><trkpt lat="41.0860256835901" lon="14.548565666537467"><ele>239.0</ele><time>2026-04-26T11:07:04.998Z</time></trkpt><trkpt lat="41.08613608154544" lon="14.54865399097428"><ele>239.0</ele><time>2026-04-26T11:07:05.998Z</time></trkpt><trkpt lat="41.08622775208094" lon="14.548770486615112"><ele>239.0</ele><time>2026-04-26T11:07:06.998Z</time></trkpt><trkpt lat="41.08629465116713" lon="14.548915377785614"><ele>239.0</ele><time>2026-04-26T11:07:07.998Z</time></trkpt><trkpt lat="41.08633262282254" lon="14.549083302997595"><ele>239.0</ele><time>2026-04-26T11:07:08.998Z</time></trkpt><trkpt lat="41.08635681801674" lon="14.549259063004465"><ele>239.0</ele><time>2026-04-26T11:07:09.998Z</time></trkpt><trkpt lat="41.08636968137145" lon="14.549435508446582"><ele>239.0</ele><time>2026-04-26T11:07:10.998Z</time></trkpt><trkpt lat="41.086365925272865" lon="14.549612131271969"><ele>239.0</ele><time>2026-04-26T11:07:11.998Z</time></trkpt><trkpt lat="41.08632666656412" lon="14.549784716466874"><ele>239.0</ele><time>2026-04-26T11:07:12.998Z</time></trkpt><trkpt lat="41.08627613373388" lon="14.54995358995641"><ele>240.0</ele><time>2026-04-26T11:07:13.998Z</time></trkpt><trkpt lat="41.086220973098065" lon="14.550124359065949"><ele>241.0</ele><time>2026-04-26T11:07:14.998Z</time></trkpt><trkpt lat="41.08616544756049" lon="14.55029686532149"><ele>242.0</ele><time>2026-04-26T11:07:15.998Z</time></trkpt><trkpt lat="41.08611219298994" lon="14.550469730226665"><ele>243.0</ele><time>2026-04-26T11:07:16.998Z</time></trkpt><trkpt lat="41.08606161315088" lon="14.550643491804042"><ele>244.5</ele><time>2026-04-26T11:07:17.998Z</time></trkpt><trkpt lat="41.0860104429974" lon="14.550823793941642"><ele>246.0</ele><time>2026-04-26T11:07:18.998Z</time></trkpt><trkpt lat="41.08596457086712" lon="14.551010302129843"><ele>247.5</ele><time>2026-04-26T11:07:19.998Z</time></trkpt><trkpt lat="41.08593164772983" lon="14.551201008781876"><ele>249.0</ele><time>2026-04-26T11:07:20.998Z</time></trkpt><trkpt lat="41.08591650327476" lon="14.55140048334115"><ele>249.0</ele><time>2026-04-26T11:07:21.998Z</time></trkpt><trkpt lat="41.08591621474234" lon="14.551603039791358"><ele>249.0</ele><time>2026-04-26T11:07:22.998Z</time></trkpt><trkpt lat="41.0859250571407" lon="14.551809829029756"><ele>249.0</ele><time>2026-04-26T11:07:23.998Z</time></trkpt><trkpt lat="41.085934401221074" lon="14.552019031050316"><ele>249.33333333333331</ele><time>2026-04-26T11:07:24.998Z</time></trkpt><trkpt lat="41.08594212948713" lon="14.552223723492059"><ele>249.66666666666666</ele><time>2026-04-26T11:07:25.998Z</time></trkpt><trkpt lat="41.08594793545194" lon="14.552428797254652"><ele>250.0</ele><time>2026-04-26T11:07:26.998Z</time></trkpt><trkpt lat="41.085952133162074" lon="14.552630080690768"><ele>250.0</ele><time>2026-04-26T11:07:27.998Z</time></trkpt><trkpt lat="41.08595636181766" lon="14.552830244637295"><ele>250.0</ele><time>2026-04-26T11:07:28.998Z</time></trkpt><trkpt lat="41.08596427126861" lon="14.553029965006266"><ele>250.0</ele><time>2026-04-26T11:07:29.998Z</time></trkpt><trkpt lat="41.08597259119807" lon="14.553227413645347"><ele>250.0</ele><time>2026-04-26T11:07:30.998Z</time></trkpt><trkpt lat="41.08597744385982" lon="14.55342862972257"><ele>250.0</ele><time>2026-04-26T11:07:31.998Z</time></trkpt><trkpt lat="41.086000590828796" lon="14.553622372857053"><ele>250.0</ele><time>2026-04-26T11:07:32.998Z</time></trkpt><trkpt lat="41.08605980322365" lon="14.553794023391198"><ele>250.0</ele><time>2026-04-26T11:07:33.998Z</time></trkpt><trkpt lat="41.0861493497679" lon="14.553937339157297"><ele>250.0</ele><time>2026-04-26T11:07:34.998Z</time></trkpt><trkpt lat="41.08626095234865" lon="14.554064809420986"><ele>250.0</ele><time>2026-04-26T11:07:35.998Z</time></trkpt><trkpt lat="41.086374314258684" lon="14.554178607097747"><ele>250.0</ele><time>2026-04-26T11:07:36.998Z</time></trkpt><trkpt lat="41.086494802637276" lon="14.554291515060347"><ele>250.0</ele><time>2026-04-26T11:07:37.998Z</time></trkpt><trkpt lat="41.086608319979135" lon="14.554411567404193"><ele>251.5</ele><time>2026-04-26T11:07:38.998Z</time></trkpt><trkpt lat="41.08672089238452" lon="14.554534498241203"><ele>253.0</ele><time>2026-04-26T11:07:39.998Z</time></trkpt><trkpt lat="41.0868309272326" lon="14.554651371633827"><ele>254.5</ele><time>2026-04-26T11:07:40.998Z</time></trkpt><trkpt lat="41.086948918339125" lon="14.55476354203851"><ele>256.0</ele><time>2026-04-26T11:07:41.998Z</time></trkpt><trkpt lat="41.08706182126497" lon="14.554877193157594"><ele>256.0</ele><time>2026-04-26T11:07:42.998Z</time></trkpt><trkpt lat="41.08717545797853" lon="14.554988812971734"><ele>256.0</ele><time>2026-04-26T11:07:43.998Z</time></trkpt><trkpt lat="41.08729134174173" lon="14.555094488323748"><ele>256.0</ele><time>2026-04-26T11:07:44.998Z</time></trkpt><trkpt lat="41.08740447622576" lon="14.55520583706215"><ele>256.0</ele><time>2026-04-26T11:07:45.998Z</time></trkpt><trkpt lat="41.08750004196736" lon="14.555283502497995"><ele>257.0</ele><time>2026-04-26T11:07:46.999Z</time></trkpt><trkpt lat="41.087587094306514" lon="14.555362377035689"><ele>258.0</ele><time>2026-04-26T11:07:47.999Z</time></trkpt><trkpt lat="41.08765669078447" lon="14.555425960526117"><ele>259.0</ele><time>2026-04-26T11:07:48.999Z</time></trkpt><trkpt lat="41.087725269169574" lon="14.555486830347778"><ele>260.0</ele><time>2026-04-26T11:07:49.999Z</time></trkpt><trkpt lat="41.087767988035104" lon="14.55555173047658"><ele>261.0</ele><time>2026-04-26T11:07:50.999Z</time></trkpt><trkpt lat="41.08780822688571" lon="14.555624011595729"><ele>262.0</ele><time>2026-04-26T11:07:53.999Z</time></trkpt><trkpt lat="41.08795937637235" lon="14.555503273476253"><ele>262.0</ele><time>2026-04-26T11:07:55.999Z</time></trkpt><trkpt lat="41.08802788497899" lon="14.555433155112336"><ele>262.0</ele><time>2026-04-26T11:07:56.999Z</time></trkpt><trkpt lat="41.08810036310253" lon="14.555360935205428"><ele>262.0</ele><time>2026-04-26T11:07:57.999Z</time></trkpt><trkpt lat="41.088189621921" lon="14.55528421665908"><ele>262.0</ele><time>2026-04-26T11:07:58.999Z</time></trkpt><trkpt lat="41.0882888504219" lon="14.555207501650658"><ele>262.0</ele><time>2026-04-26T11:07:59.999Z</time></trkpt><trkpt lat="41.08839203387393" lon="14.555140680987645"><ele>264.0</ele><time>2026-04-26T11:08:00.999Z</time></trkpt><trkpt lat="41.088501354413246" lon="14.55507283210786"><ele>266.0</ele><time>2026-04-26T11:08:01.999Z</time></trkpt><trkpt lat="41.088617311869406" lon="14.55500688341847"><ele>268.0</ele><time>2026-04-26T11:08:02.999Z</time></trkpt><trkpt lat="41.08873865680383" lon="14.554934319519043"><ele>270.0</ele><time>2026-04-26T11:08:03.999Z</time></trkpt><trkpt lat="41.088865547804076" lon="14.554860201024836"><ele>270.0</ele><time>2026-04-26T11:08:04.999Z</time></trkpt><trkpt lat="41.088991676223415" lon="14.554784249918406"><ele>270.0</ele><time>2026-04-26T11:08:05.999Z</time></trkpt><trkpt lat="41.08912289135614" lon="14.554706786697544"><ele>270.0</ele><time>2026-04-26T11:08:06.999Z</time></trkpt><trkpt lat="41.08925652667191" lon="14.554627633060926"><ele>270.0</ele><time>2026-04-26T11:08:07.999Z</time></trkpt><trkpt lat="41.089385712514" lon="14.554556783476922"><ele>270.5</ele><time>2026-04-26T11:08:08.999Z</time></trkpt><trkpt lat="41.08951598956341" lon="14.554484054912903"><ele>271.0</ele><time>2026-04-26T11:08:09.999Z</time></trkpt><trkpt lat="41.08964476620477" lon="14.554405043578576"><ele>271.5</ele><time>2026-04-26T11:08:10.999Z</time></trkpt><trkpt lat="41.08976850966371" lon="14.5543181898308"><ele>272.0</ele><time>2026-04-26T11:08:11.999Z</time></trkpt><trkpt lat="41.0898890477135" lon="14.554216996486186"><ele>273.75</ele><time>2026-04-26T11:08:12.999Z</time></trkpt><trkpt lat="41.09000587549202" lon="14.554099211932181"><ele>275.5</ele><time>2026-04-26T11:08:13.999Z</time></trkpt><trkpt lat="41.09011204950858" lon="14.553968045498335"><ele>277.25</ele><time>2026-04-26T11:08:14.999Z</time></trkpt><trkpt lat="41.09021358173626" lon="14.553823357460448"><ele>279.0</ele><time>2026-04-26T11:08:15.999Z</time></trkpt><trkpt lat="41.09031546996832" lon="14.553679177236582"><ele>279.6666666666667</ele><time>2026-04-26T11:08:16.999Z</time></trkpt><trkpt lat="41.09042026043386" lon="14.55353554179214"><ele>280.33333333333337</ele><time>2026-04-26T11:08:17.999Z</time></trkpt><trkpt lat="41.09052200827051" lon="14.553394376196964"><ele>281.0</ele><time>2026-04-26T11:08:18.999Z</time></trkpt><trkpt lat="41.09062128036793" lon="14.553242049693676"><ele>281.0</ele><time>2026-04-26T11:08:19.999Z</time></trkpt><trkpt lat="41.09071117156284" lon="14.553090785054591"><ele>281.0</ele><time>2026-04-26T11:08:20.999Z</time></trkpt><trkpt lat="41.09079354769773" lon="14.552971389615694"><ele>281.0</ele><time>2026-04-26T11:08:21.999Z</time></trkpt><trkpt lat="41.090861652633514" lon="14.55285852721383"><ele>281.0</ele><time>2026-04-26T11:08:22.999Z</time></trkpt><trkpt lat="41.09094344935287" lon="14.55276642542612"><ele>282.6</ele><time>2026-04-26T11:08:23.999Z</time></trkpt><trkpt lat="41.091047790347474" lon="14.552696691234896"><ele>284.20000000000005</ele><time>2026-04-26T11:08:24.999Z</time></trkpt><trkpt lat="41.091112090911025" lon="14.55258380478954"><ele>285.79999999999995</ele><time>2026-04-26T11:08:25.999Z</time></trkpt><trkpt lat="41.09118170834961" lon="14.552479826336283"><ele>287.4</ele><time>2026-04-26T11:08:26.999Z</time></trkpt><trkpt lat="41.09125585530241" lon="14.552385975532959"><ele>289.0</ele><time>2026-04-26T11:08:27.999Z</time></trkpt><trkpt lat="41.091342177515685" lon="14.552314794626433"><ele>289.0</ele><time>2026-04-26T11:08:28.999Z</time></trkpt><trkpt lat="41.0914377965189" lon="14.552273011970467"><ele>289.0</ele><time>2026-04-26T11:08:29.999Z</time></trkpt><trkpt lat="41.09153748701206" lon="14.552267905411751"><ele>289.0</ele><time>2026-04-26T11:08:30.999Z</time></trkpt><trkpt lat="41.09162539802747" lon="14.552340004371493"><ele>289.0</ele><time>2026-04-26T11:08:31.999Z</time></trkpt><trkpt lat="41.09172922847624" lon="14.552400085742041"><ele>289.0</ele><time>2026-04-26T11:08:32.999Z</time></trkpt><trkpt lat="41.09183097319046" lon="14.552472335093164"><ele>291.0</ele><time>2026-04-26T11:08:33.999Z</time></trkpt><trkpt lat="41.09193822571228" lon="14.552536865093986"><ele>293.0</ele><time>2026-04-26T11:08:34.999Z</time></trkpt><trkpt lat="41.09204773894862" lon="14.55260183683384"><ele>295.0</ele><time>2026-04-26T11:08:35.999Z</time></trkpt><trkpt lat="41.09215283948405" lon="14.552680163269994"><ele>297.0</ele><time>2026-04-26T11:08:36.999Z</time></trkpt><trkpt lat="41.09225321429701" lon="14.552770871832083"><ele>297.75</ele><time>2026-04-26T11:08:37.999Z</time></trkpt><trkpt lat="41.09234233089956" lon="14.55287930167554"><ele>298.5</ele><time>2026-04-26T11:08:38.999Z</time></trkpt><trkpt lat="41.092434346560744" lon="14.552981017232085"><ele>299.25</ele><time>2026-04-26T11:08:39.999Z</time></trkpt><trkpt lat="41.09253479807529" lon="14.55307652759073"><ele>300.0</ele><time>2026-04-26T11:08:40.999Z</time></trkpt><trkpt lat="41.09263840241595" lon="14.553164316041729"><ele>303.75</ele><time>2026-04-26T11:08:41.999Z</time></trkpt><trkpt lat="41.09274467416038" lon="14.553245104611825"><ele>307.5</ele><time>2026-04-26T11:08:42.999Z</time></trkpt><trkpt lat="41.092856129935996" lon="14.553302908041923"><ele>311.25</ele><time>2026-04-26T11:08:43.999Z</time></trkpt><trkpt lat="41.09298123778129" lon="14.553338454397206"><ele>315.0</ele><time>2026-04-26T11:08:44.999Z</time></trkpt><trkpt lat="41.09310876907155" lon="14.553383853044046"><ele>315.0</ele><time>2026-04-26T11:08:45.999Z</time></trkpt><trkpt lat="41.093243052422984" lon="14.553437287145542"><ele>315.0</ele><time>2026-04-26T11:08:46.999Z</time></trkpt><trkpt lat="41.09337375097676" lon="14.553484081742782"><ele>315.0</ele><time>2026-04-26T11:08:47.999Z</time></trkpt><trkpt lat="41.09349599512559" lon="14.553504680911681"><ele>315.0</ele><time>2026-04-26T11:08:48.999Z</time></trkpt><trkpt lat="41.093607431451204" lon="14.553512271325857"><ele>317.0</ele><time>2026-04-26T11:08:49.999Z</time></trkpt><trkpt lat="41.09370650487332" lon="14.553530989080205"><ele>319.0</ele><time>2026-04-26T11:08:50.999Z</time></trkpt><trkpt lat="41.093772571389664" lon="14.553563900216144"><ele>321.0</ele><time>2026-04-26T11:08:51.999Z</time></trkpt><trkpt lat="41.09383982101165" lon="14.553620984568104"><ele>323.0</ele><time>2026-04-26T11:08:52.999Z</time></trkpt><trkpt lat="41.09390659031348" lon="14.553687883300627"><ele>325.0</ele><time>2026-04-26T11:08:53.999Z</time></trkpt><trkpt lat="41.09397380253048" lon="14.553761418489657"><ele>327.0</ele><time>2026-04-26T11:08:54.999Z</time></trkpt><trkpt lat="41.09404990966427" lon="14.553841555141751"><ele>329.6666666666667</ele><time>2026-04-26T11:08:55.999Z</time></trkpt><trkpt lat="41.094111869502015" lon="14.553909831901766"><ele>332.3333333333333</ele><time>2026-04-26T11:08:56.999Z</time></trkpt><trkpt lat="41.09418522829703" lon="14.553992268114605"><ele>335.0</ele><time>2026-04-26T11:08:58.999Z</time></trkpt><trkpt lat="41.09426129154296" lon="14.554061890755142"><ele>337.66666666666663</ele><time>2026-04-26T11:09:12.999Z</time></trkpt><trkpt lat="41.0943249925428" lon="14.554105114962242"><ele>340.3333333333333</ele><time>2026-04-26T11:09:13.999Z</time></trkpt><trkpt lat="41.09439811444537" lon="14.554154916295879"><ele>343.0</ele><time>2026-04-26T11:09:14.999Z</time></trkpt><trkpt lat="41.094474468273326" lon="14.554203789215808"><ele>343.0</ele><time>2026-04-26T11:09:15.999Z</time></trkpt><trkpt lat="41.0945624414329" lon="14.554266074984225"><ele>343.0</ele><time>2026-04-26T11:09:16.999Z</time></trkpt><trkpt lat="41.09464956915062" lon="14.554354467263918"><ele>343.0</ele><time>2026-04-26T11:09:17.999Z</time></trkpt><trkpt lat="41.09473522597882" lon="14.554453342540452"><ele>343.0</ele><time>2026-04-26T11:09:18.999Z</time></trkpt><trkpt lat="41.09483482600374" lon="14.554568675753464"><ele>347.5</ele><time>2026-04-26T11:09:19.999Z</time></trkpt><trkpt lat="41.09493077568107" lon="14.5546856211004"><ele>352.0</ele><time>2026-04-26T11:09:20.999Z</time></trkpt><trkpt lat="41.09501382530414" lon="14.55478945293178"><ele>356.5</ele><time>2026-04-26T11:09:21.999Z</time></trkpt><trkpt lat="41.095082369497234" lon="14.55490328094187"><ele>361.0</ele><time>2026-04-26T11:09:22.999Z</time></trkpt><trkpt lat="41.095123727723816" lon="14.555024364295441"><ele>361.0</ele><time>2026-04-26T11:09:23.999Z</time></trkpt><trkpt lat="41.095174171371895" lon="14.555148368317651"><ele>361.0</ele><time>2026-04-26T11:09:24.999Z</time></trkpt><trkpt lat="41.09521068952468" lon="14.555226359295512"><ele>361.0</ele><time>2026-04-26T11:09:25.999Z</time></trkpt><trkpt lat="41.09529686520524" lon="14.555249341436426"><ele>361.0</ele><time>2026-04-26T11:09:27.999Z</time></trkpt><trkpt lat="41.09532797862719" lon="14.555176106183707"><ele>361.0</ele><time>2026-04-26T11:09:28.999Z</time></trkpt><trkpt lat="41.09532268992256" lon="14.555065882682724"><ele>361.0</ele><time>2026-04-26T11:09:29.999Z</time></trkpt><trkpt lat="41.09533068110892" lon="14.554969662378262"><ele>361.0</ele><time>2026-04-26T11:09:30.999Z</time></trkpt><trkpt lat="41.09543468872894" lon="14.55495156698988"><ele>361.0</ele><time>2026-04-26T11:09:32.999Z</time></trkpt><trkpt lat="41.095512628725196" lon="14.555010561145652"><ele>361.0</ele><time>2026-04-26T11:09:33.999Z</time></trkpt><trkpt lat="41.09562236020419" lon="14.5550257415247"><ele>361.0</ele><time>2026-04-26T11:09:34.999Z</time></trkpt><trkpt lat="41.095734705119455" lon="14.555067622866797"><ele>361.0</ele><time>2026-04-26T11:09:35.999Z</time></trkpt><trkpt lat="41.09583097866419" lon="14.555133153029034"><ele>364.75</ele><time>2026-04-26T11:09:36.999Z</time></trkpt><trkpt lat="41.09591233837274" lon="14.555266363432674"><ele>368.5</ele><time>2026-04-26T11:09:37.999Z</time></trkpt><trkpt lat="41.095994130822056" lon="14.555395148698773"><ele>372.25</ele><time>2026-04-26T11:09:38.999Z</time></trkpt><trkpt lat="41.09607280091305" lon="14.555499454173953"><ele>376.0</ele><time>2026-04-26T11:09:39.999Z</time></trkpt><trkpt lat="41.09613320119194" lon="14.555602307287097"><ele>376.0</ele><time>2026-04-26T11:09:40.999Z</time></trkpt><trkpt lat="41.09621489507025" lon="14.555677617295176"><ele>376.0</ele><time>2026-04-26T11:09:41.999Z</time></trkpt><trkpt lat="41.09628184050877" lon="14.555712633397711"><ele>376.0</ele><time>2026-04-26T11:09:42.999Z</time></trkpt><trkpt lat="41.09637021201601" lon="14.55572466482654"><ele>376.0</ele><time>2026-04-26T11:09:44.999Z</time></trkpt><trkpt lat="41.09638802644431" lon="14.55551655510903"><ele>376.0</ele><time>2026-04-26T11:09:48.999Z</time></trkpt><trkpt lat="41.09640650846725" lon="14.55536677738016"><ele>376.0</ele><time>2026-04-26T11:09:49.999Z</time></trkpt><trkpt lat="41.09644057139817" lon="14.55524529701528"><ele>376.0</ele><time>2026-04-26T11:09:50.999Z</time></trkpt><trkpt lat="41.09649202910161" lon="14.555117416608365"><ele>376.0</ele><time>2026-04-26T11:09:51.999Z</time></trkpt><trkpt lat="41.09656492603763" lon="14.555023259722056"><ele>376.0</ele><time>2026-04-26T11:09:52.999Z</time></trkpt><trkpt lat="41.09664930815251" lon="14.554903096965706"><ele>376.0</ele><time>2026-04-26T11:09:53.999Z</time></trkpt><trkpt lat="41.09676780039308" lon="14.55486464805613"><ele>376.20000000000005</ele><time>2026-04-26T11:09:54.999Z</time></trkpt><trkpt lat="41.096872988478346" lon="14.554795514665257"><ele>376.40000000000003</ele><time>2026-04-26T11:09:55.999Z</time></trkpt><trkpt lat="41.09696716189492" lon="14.554719150850438"><ele>376.6</ele><time>2026-04-26T11:09:56.999Z</time></trkpt><trkpt lat="41.09704942977089" lon="14.554630408763135"><ele>376.8</ele><time>2026-04-26T11:09:57.999Z</time></trkpt><trkpt lat="41.097121515624565" lon="14.554523056679503"><ele>377.0</ele><time>2026-04-26T11:09:58.999Z</time></trkpt><trkpt lat="41.09718628072265" lon="14.554395825828491"><ele>377.0</ele><time>2026-04-26T11:09:59.999Z</time></trkpt><trkpt lat="41.09724815579724" lon="14.554256883280132"><ele>377.0</ele><time>2026-04-26T11:10:00.999Z</time></trkpt><trkpt lat="41.09730967160222" lon="14.55410908581915"><ele>377.0</ele><time>2026-04-26T11:10:01.999Z</time></trkpt><trkpt lat="41.097372747895115" lon="14.55395462838587"><ele>377.0</ele><time>2026-04-26T11:10:02.999Z</time></trkpt><trkpt lat="41.097434687349434" lon="14.553807460015081"><ele>377.0</ele><time>2026-04-26T11:10:03.999Z</time></trkpt><trkpt lat="41.09749326350902" lon="14.553665781172759"><ele>377.0</ele><time>2026-04-26T11:10:04.999Z</time></trkpt><trkpt lat="41.09757443628319" lon="14.553530219255501"><ele>377.0</ele><time>2026-04-26T11:10:05.999Z</time></trkpt><trkpt lat="41.09765599187445" lon="14.553387311821274"><ele>377.0</ele><time>2026-04-26T11:10:06.999Z</time></trkpt><trkpt lat="41.09774669881658" lon="14.553240869687647"><ele>377.0</ele><time>2026-04-26T11:10:07.999Z</time></trkpt><trkpt lat="41.097839671669334" lon="14.55309520666123"><ele>377.0</ele><time>2026-04-26T11:10:08.999Z</time></trkpt><trkpt lat="41.097933026961414" lon="14.552950680694675"><ele>377.0</ele><time>2026-04-26T11:10:09.999Z</time></trkpt><trkpt lat="41.09802549820791" lon="14.55279706279847"><ele>377.0</ele><time>2026-04-26T11:10:10.999Z</time></trkpt><trkpt lat="41.09812728171428" lon="14.552662293087572"><ele>377.5</ele><time>2026-04-26T11:10:11.999Z</time></trkpt><trkpt lat="41.09823294671917" lon="14.5525303236463"><ele>378.0</ele><time>2026-04-26T11:10:12.999Z</time></trkpt><trkpt lat="41.09832329549042" lon="14.55240488182873"><ele>378.5</ele><time>2026-04-26T11:10:13.999Z</time></trkpt><trkpt lat="41.09840042083337" lon="14.552274909522893"><ele>379.0</ele><time>2026-04-26T11:10:14.999Z</time></trkpt><trkpt lat="41.098483196446004" lon="14.552147025923071"><ele>375.75</ele><time>2026-04-26T11:10:15.999Z</time></trkpt><trkpt lat="41.09856790075318" lon="14.552005965667353"><ele>372.5</ele><time>2026-04-26T11:10:16.999Z</time></trkpt><trkpt lat="41.09865080919685" lon="14.551863925942774"><ele>369.25</ele><time>2026-04-26T11:10:17.999Z</time></trkpt><trkpt lat="41.098736244342426" lon="14.551716416862934"><ele>366.0</ele><time>2026-04-26T11:10:18.999Z</time></trkpt><trkpt lat="41.09880113915412" lon="14.551569022752721"><ele>366.0</ele><time>2026-04-26T11:10:19.999Z</time></trkpt><trkpt lat="41.09888003755444" lon="14.551441836261397"><ele>366.0</ele><time>2026-04-26T11:10:20.999Z</time></trkpt><trkpt lat="41.09895027517305" lon="14.551308261521518"><ele>366.0</ele><time>2026-04-26T11:10:21.999Z</time></trkpt><trkpt lat="41.09902115691072" lon="14.551165474558537"><ele>366.0</ele><time>2026-04-26T11:10:22.999Z</time></trkpt><trkpt lat="41.09908391557782" lon="14.551004681081393"><ele>367.25</ele><time>2026-04-26T11:10:23.999Z</time></trkpt><trkpt lat="41.09916202575368" lon="14.550839977529053"><ele>368.5</ele><time>2026-04-26T11:10:24.999Z</time></trkpt><trkpt lat="41.099220892551955" lon="14.550661331651089"><ele>369.75</ele><time>2026-04-26T11:10:25.999Z</time></trkpt><trkpt lat="41.099272771423465" lon="14.550484943835961"><ele>371.0</ele><time>2026-04-26T11:10:26.999Z</time></trkpt><trkpt lat="41.099329162710696" lon="14.55029716512373"><ele>367.5</ele><time>2026-04-26T11:10:27.999Z</time></trkpt><trkpt lat="41.0993941760361" lon="14.550115136073071"><ele>364.0</ele><time>2026-04-26T11:10:28.999Z</time></trkpt><trkpt lat="41.099470925507525" lon="14.54993994595447"><ele>360.5</ele><time>2026-04-26T11:10:29.999Z</time></trkpt><trkpt lat="41.09954610310532" lon="14.54978694041912"><ele>357.0</ele><time>2026-04-26T11:10:30.999Z</time></trkpt><trkpt lat="41.09963081894052" lon="14.549629071309377"><ele>352.0</ele><time>2026-04-26T11:10:31.999Z</time></trkpt><trkpt lat="41.099706693272" lon="14.549454532280073"><ele>347.0</ele><time>2026-04-26T11:10:32.999Z</time></trkpt><trkpt lat="41.099829572899644" lon="14.549313176923734"><ele>342.0</ele><time>2026-04-26T11:10:33.999Z</time></trkpt><trkpt lat="41.099910478018174" lon="14.549155883196857"><ele>344.0</ele><time>2026-04-26T11:10:34.999Z</time></trkpt><trkpt lat="41.09999676012077" lon="14.549000227452867"><ele>346.0</ele><time>2026-04-26T11:10:35.999Z</time></trkpt><trkpt lat="41.10008356734621" lon="14.548843871989392"><ele>348.0</ele><time>2026-04-26T11:10:36.999Z</time></trkpt><trkpt lat="41.10017610761739" lon="14.548688870754832"><ele>350.0</ele><time>2026-04-26T11:10:37.999Z</time></trkpt><trkpt lat="41.100244637997235" lon="14.54850402425164"><ele>350.0</ele><time>2026-04-26T11:10:38.999Z</time></trkpt><trkpt lat="41.1003430869059" lon="14.548346238248405"><ele>350.0</ele><time>2026-04-26T11:10:39.999Z</time></trkpt><trkpt lat="41.10043589045462" lon="14.548187779035676"><ele>350.0</ele><time>2026-04-26T11:10:40.999Z</time></trkpt><trkpt lat="41.10052129650657" lon="14.548041906328862"><ele>350.0</ele><time>2026-04-26T11:10:41.999Z</time></trkpt><trkpt lat="41.10059856351409" lon="14.547909934781602"><ele>353.6666666666667</ele><time>2026-04-26T11:10:42.999Z</time></trkpt><trkpt lat="41.10075959501474" lon="14.547620093103344"><ele>357.3333333333333</ele><time>2026-04-26T11:10:44.999Z</time></trkpt><trkpt lat="41.10083119163017" lon="14.54747446047468"><ele>361.0</ele><time>2026-04-26T11:10:45.999Z</time></trkpt><trkpt lat="41.10090043531853" lon="14.547309296456591"><ele>361.0</ele><time>2026-04-26T11:10:46.999Z</time></trkpt><trkpt lat="41.100965473436375" lon="14.547140512948973"><ele>361.0</ele><time>2026-04-26T11:10:47.999Z</time></trkpt><trkpt lat="41.101029713124596" lon="14.546975579646698"><ele>361.0</ele><time>2026-04-26T11:10:48.999Z</time></trkpt><trkpt lat="41.101105653342735" lon="14.546808529252592"><ele>361.0</ele><time>2026-04-26T11:10:49.999Z</time></trkpt><trkpt lat="41.10118520337615" lon="14.546670703496494"><ele>359.25</ele><time>2026-04-26T11:10:50.999Z</time></trkpt><trkpt lat="41.10127743766126" lon="14.546537570948528"><ele>357.5</ele><time>2026-04-26T11:10:51.999Z</time></trkpt><trkpt lat="41.10137130767206" lon="14.546417301900787"><ele>355.75</ele><time>2026-04-26T11:10:52.999Z</time></trkpt><trkpt lat="41.10147654415623" lon="14.546290977817026"><ele>354.0</ele><time>2026-04-26T11:10:53.999Z</time></trkpt><trkpt lat="41.101581104130545" lon="14.54616372640453"><ele>357.0</ele><time>2026-04-26T11:10:54.999Z</time></trkpt><trkpt lat="41.10167745234032" lon="14.54605197896125"><ele>360.0</ele><time>2026-04-26T11:10:55.999Z</time></trkpt><trkpt lat="41.101782008006026" lon="14.545947404315669"><ele>363.0</ele><time>2026-04-26T11:10:56.999Z</time></trkpt><trkpt lat="41.10187345141887" lon="14.54585468199696"><ele>366.0</ele><time>2026-04-26T11:10:57.999Z</time></trkpt><trkpt lat="41.101952391953375" lon="14.545756332651703"><ele>366.0</ele><time>2026-04-26T11:10:58.999Z</time></trkpt><trkpt lat="41.1020071668496" lon="14.54565925861198"><ele>366.0</ele><time>2026-04-26T11:10:59.999Z</time></trkpt><trkpt lat="41.10203285922075" lon="14.545562747802421"><ele>366.0</ele><time>2026-04-26T11:11:00.999Z</time></trkpt><trkpt lat="41.10203414579041" lon="14.54545227872826"><ele>366.0</ele><time>2026-04-26T11:11:01.999Z</time></trkpt><trkpt lat="41.102010745419264" lon="14.545338047160408"><ele>366.0</ele><time>2026-04-26T11:11:02.999Z</time></trkpt><trkpt lat="41.10196583080376" lon="14.545176557144726"><ele>364.0</ele><time>2026-04-26T11:11:03.999Z</time></trkpt><trkpt lat="41.101915384918534" lon="14.545007120335402"><ele>362.0</ele><time>2026-04-26T11:11:04.999Z</time></trkpt><trkpt lat="41.10188319517767" lon="14.544869215122844"><ele>360.0</ele><time>2026-04-26T11:11:05.999Z</time></trkpt><trkpt lat="41.101853601323356" lon="14.544729217528412"><ele>358.0</ele><time>2026-04-26T11:11:06.999Z</time></trkpt><trkpt lat="41.10182590902532" lon="14.544602041213915"><ele>357.0</ele><time>2026-04-26T11:11:07.999Z</time></trkpt><trkpt lat="41.10179934661322" lon="14.54448420318309"><ele>356.0</ele><time>2026-04-26T11:11:08.999Z</time></trkpt><trkpt lat="41.10177599957212" lon="14.544380629491986"><ele>355.0</ele><time>2026-04-26T11:11:09.999Z</time></trkpt><trkpt lat="41.10176831795061" lon="14.54426944419643"><ele>354.0</ele><time>2026-04-26T11:11:11.999Z</time></trkpt><trkpt lat="41.10187551604634" lon="14.544293330235297"><ele>353.0</ele><time>2026-04-26T11:11:13.999Z</time></trkpt><trkpt lat="41.10195230421129" lon="14.544279923566187"><ele>352.0</ele><time>2026-04-26T11:11:14.999Z</time></trkpt><trkpt lat="41.102024889140615" lon="14.544289586278813"><ele>352.0</ele><time>2026-04-26T11:11:15.999Z</time></trkpt><trkpt lat="41.10213857645198" lon="14.544172005727788"><ele>352.0</ele><time>2026-04-26T11:11:17.999Z</time></trkpt><trkpt lat="41.10215643902314" lon="14.54402074950396"><ele>352.0</ele><time>2026-04-26T11:11:18.999Z</time></trkpt><trkpt lat="41.1021839035375" lon="14.543862209348825"><ele>352.0</ele><time>2026-04-26T11:11:19.999Z</time></trkpt><trkpt lat="41.10220610957709" lon="14.543691445759427"><ele>349.0</ele><time>2026-04-26T11:11:20.999Z</time></trkpt><trkpt lat="41.102256527624526" lon="14.54346797546781"><ele>346.0</ele><time>2026-04-26T11:11:21.999Z</time></trkpt><trkpt lat="41.102257674665566" lon="14.543229713410991"><ele>343.0</ele><time>2026-04-26T11:11:22.999Z</time></trkpt><trkpt lat="41.10226085787422" lon="14.542994249612482"><ele>340.3333333333333</ele><time>2026-04-26T11:11:23.999Z</time></trkpt><trkpt lat="41.102249950329686" lon="14.54276288689027"><ele>337.6666666666667</ele><time>2026-04-26T11:11:24.999Z</time></trkpt><trkpt lat="41.10221826514104" lon="14.542566639141768"><ele>335.0</ele><time>2026-04-26T11:11:25.999Z</time></trkpt><trkpt lat="41.10218712737347" lon="14.542395315854098"><ele>335.0</ele><time>2026-04-26T11:11:26.999Z</time></trkpt><trkpt lat="41.10218946058492" lon="14.5422266345716"><ele>335.0</ele><time>2026-04-26T11:11:27.999Z</time></trkpt><trkpt lat="41.10220219935934" lon="14.542086924538165"><ele>335.0</ele><time>2026-04-26T11:11:28.999Z</time></trkpt><trkpt lat="41.10224667847542" lon="14.541983504714297"><ele>335.0</ele><time>2026-04-26T11:11:29.999Z</time></trkpt><trkpt lat="41.102318280526575" lon="14.541921072206064"><ele>335.0</ele><time>2026-04-26T11:11:30.999Z</time></trkpt><trkpt lat="41.10243025470537" lon="14.54186097410263"><ele>335.75</ele><time>2026-04-26T11:11:31.999Z</time></trkpt><trkpt lat="41.10254272806989" lon="14.541797273741333"><ele>336.5</ele><time>2026-04-26T11:11:32.999Z</time></trkpt><trkpt lat="41.10266919773277" lon="14.541705810193882"><ele>337.25</ele><time>2026-04-26T11:11:33.999Z</time></trkpt><trkpt lat="41.102797063262706" lon="14.541575411251184"><ele>338.0</ele><time>2026-04-26T11:11:34.999Z</time></trkpt><trkpt lat="41.10289944560549" lon="14.541464337676507"><ele>338.0</ele><time>2026-04-26T11:11:35.999Z</time></trkpt><trkpt lat="41.10299722541501" lon="14.541362864907548"><ele>338.0</ele><time>2026-04-26T11:11:36.999Z</time></trkpt><trkpt lat="41.103111785286046" lon="14.541264352916345"><ele>338.0</ele><time>2026-04-26T11:11:37.999Z</time></trkpt><trkpt lat="41.10321330264697" lon="14.541155862293925"><ele>338.0</ele><time>2026-04-26T11:11:38.999Z</time></trkpt><trkpt lat="41.10331383473001" lon="14.541066304723442"><ele>335.75</ele><time>2026-04-26T11:11:39.999Z</time></trkpt><trkpt lat="41.103398645747646" lon="14.540959995938337"><ele>333.5</ele><time>2026-04-26T11:11:40.999Z</time></trkpt><trkpt lat="41.103492148674064" lon="14.540817955391491"><ele>331.25</ele><time>2026-04-26T11:11:41.999Z</time></trkpt><trkpt lat="41.10357483954146" lon="14.540657409414905"><ele>329.0</ele><time>2026-04-26T11:11:42.999Z</time></trkpt><trkpt lat="41.10368552099657" lon="14.540534341987922"><ele>329.0</ele><time>2026-04-26T11:11:43.999Z</time></trkpt><trkpt lat="41.10377355129396" lon="14.540394207858037"><ele>329.0</ele><time>2026-04-26T11:11:44.999Z</time></trkpt><trkpt lat="41.10387921445424" lon="14.540278529195586"><ele>329.0</ele><time>2026-04-26T11:11:45.999Z</time></trkpt><trkpt lat="41.10398423082076" lon="14.54017138585064"><ele>329.0</ele><time>2026-04-26T11:11:46.999Z</time></trkpt><trkpt lat="41.104096678112896" lon="14.54009223612346"><ele>327.5</ele><time>2026-04-26T11:11:47.999Z</time></trkpt><trkpt lat="41.10419333200537" lon="14.539989110284518"><ele>326.0</ele><time>2026-04-26T11:11:48.999Z</time></trkpt><trkpt lat="41.10430466938097" lon="14.53993280443018"><ele>324.5</ele><time>2026-04-26T11:11:49.999Z</time></trkpt><trkpt lat="41.10441026893291" lon="14.539868203998271"><ele>323.0</ele><time>2026-04-26T11:11:50.999Z</time></trkpt><trkpt lat="41.10451584315872" lon="14.539818296097065"><ele>323.0</ele><time>2026-04-26T11:11:51.999Z</time></trkpt><trkpt lat="41.10460291930144" lon="14.539752156042868"><ele>323.0</ele><time>2026-04-26T11:11:52.999Z</time></trkpt><trkpt lat="41.10467316754048" lon="14.539710675974334"><ele>323.0</ele><time>2026-04-26T11:11:54Z</time></trkpt><trkpt lat="41.10472895742235" lon="14.53964844135489"><ele>323.0</ele><time>2026-04-26T11:11:55Z</time></trkpt><trkpt lat="41.10474794231899" lon="14.539502274267344"><ele>323.0</ele><time>2026-04-26T11:11:56Z</time></trkpt><trkpt lat="41.10472517481926" lon="14.53934401526238"><ele>321.2</ele><time>2026-04-26T11:11:57Z</time></trkpt><trkpt lat="41.10469796416516" lon="14.539209598478028"><ele>319.4</ele><time>2026-04-26T11:11:58Z</time></trkpt><trkpt lat="41.10465223337489" lon="14.539092810289636"><ele>317.59999999999997</ele><time>2026-04-26T11:11:59Z</time></trkpt><trkpt lat="41.10459225486655" lon="14.539007343137918"><ele>315.79999999999995</ele><time>2026-04-26T11:12:00Z</time></trkpt><trkpt lat="41.10454745751831" lon="14.538884678108001"><ele>314.0</ele><time>2026-04-26T11:12:01Z</time></trkpt><trkpt lat="41.10449545561327" lon="14.538781410886852"><ele>313.0</ele><time>2026-04-26T11:12:02Z</time></trkpt><trkpt lat="41.10444614454646" lon="14.538673663109305"><ele>312.0</ele><time>2026-04-26T11:12:03Z</time></trkpt><trkpt lat="41.104412804822225" lon="14.53858606510614"><ele>311.0</ele><time>2026-04-26T11:12:04Z</time></trkpt><trkpt lat="41.10436499661525" lon="14.538502514649947"><ele>310.0</ele><time>2026-04-26T11:12:05Z</time></trkpt><trkpt lat="41.10438081352835" lon="14.538411709291928"><ele>309.0</ele><time>2026-04-26T11:12:06Z</time></trkpt><trkpt lat="41.10439391392235" lon="14.538317472554803"><ele>308.0</ele><time>2026-04-26T11:12:07Z</time></trkpt><trkpt lat="41.10442247896108" lon="14.538197929516341"><ele>308.0</ele><time>2026-04-26T11:12:08Z</time></trkpt><trkpt lat="41.104449176249105" lon="14.538053105053189"><ele>308.0</ele><time>2026-04-26T11:12:09Z</time></trkpt><trkpt lat="41.104459535412545" lon="14.53789675674372"><ele>308.0</ele><time>2026-04-26T11:12:10Z</time></trkpt><trkpt lat="41.104448809698624" lon="14.537738936059931"><ele>308.0</ele><time>2026-04-26T11:12:11Z</time></trkpt><trkpt lat="41.10443512449345" lon="14.537585738960013"><ele>306.8</ele><time>2026-04-26T11:12:12Z</time></trkpt><trkpt lat="41.104414067296275" lon="14.537443948859629"><ele>305.6</ele><time>2026-04-26T11:12:13Z</time></trkpt><trkpt lat="41.10439663275902" lon="14.537305749302181"><ele>304.4</ele><time>2026-04-26T11:12:14Z</time></trkpt><trkpt lat="41.10439555974332" lon="14.537132175082071"><ele>303.2</ele><time>2026-04-26T11:12:15Z</time></trkpt><trkpt lat="41.10438724292393" lon="14.537003511687752"><ele>302.0</ele><time>2026-04-26T11:12:16Z</time></trkpt><trkpt lat="41.10438546728283" lon="14.536877893960597"><ele>300.6</ele><time>2026-04-26T11:12:17Z</time></trkpt><trkpt lat="41.10439693610418" lon="14.53674820489467"><ele>299.2</ele><time>2026-04-26T11:12:18Z</time></trkpt><trkpt lat="41.10442233045146" lon="14.536615668211933"><ele>297.8</ele><time>2026-04-26T11:12:19Z</time></trkpt><trkpt lat="41.10445151057834" lon="14.536479599959154"><ele>296.4</ele><time>2026-04-26T11:12:20Z</time></trkpt><trkpt lat="41.10447971681426" lon="14.536341031548247"><ele>295.0</ele><time>2026-04-26T11:12:21Z</time></trkpt><trkpt lat="41.10451460675809" lon="14.536218502114666"><ele>292.5</ele><time>2026-04-26T11:12:22Z</time></trkpt><trkpt lat="41.104547764321296" lon="14.536114466907405"><ele>290.0</ele><time>2026-04-26T11:12:23Z</time></trkpt><trkpt lat="41.10461751917508" lon="14.536027442190065"><ele>287.5</ele><time>2026-04-26T11:12:24Z</time></trkpt><trkpt lat="41.10467049729941" lon="14.535910289626985"><ele>285.0</ele><time>2026-04-26T11:12:25Z</time></trkpt><trkpt lat="41.10492453227732" lon="14.535943606297717"><ele>284.4</ele><time>2026-04-26T11:12:26Z</time></trkpt><trkpt lat="41.10504743735329" lon="14.535913882155361"><ele>283.8</ele><time>2026-04-26T11:12:27Z</time></trkpt><trkpt lat="41.105146204960995" lon="14.535858808044246"><ele>283.2</ele><time>2026-04-26T11:12:28Z</time></trkpt><trkpt lat="41.10522238575624" lon="14.535774452242626"><ele>282.6</ele><time>2026-04-26T11:12:29Z</time></trkpt><trkpt lat="41.105278955788556" lon="14.535659860176544"><ele>282.0</ele><time>2026-04-26T11:12:30Z</time></trkpt><trkpt lat="41.10530328191735" lon="14.535526725678562"><ele>282.0</ele><time>2026-04-26T11:12:31Z</time></trkpt><trkpt lat="41.10532117536706" lon="14.535388086442454"><ele>282.0</ele><time>2026-04-26T11:12:32Z</time></trkpt><trkpt lat="41.10536656983509" lon="14.535265832863407"><ele>282.0</ele><time>2026-04-26T11:12:33Z</time></trkpt><trkpt lat="41.105450800158906" lon="14.535156318853875"><ele>282.0</ele><time>2026-04-26T11:12:34Z</time></trkpt><trkpt lat="41.10557661444386" lon="14.535037272569872"><ele>282.3333333333333</ele><time>2026-04-26T11:12:35Z</time></trkpt><trkpt lat="41.10574555065127" lon="14.534907741753424"><ele>282.66666666666663</ele><time>2026-04-26T11:12:36Z</time></trkpt><trkpt lat="41.10595696407483" lon="14.53483496608287"><ele>283.0</ele><time>2026-04-26T11:12:37Z</time></trkpt><trkpt lat="41.10615355317668" lon="14.53472013051955"><ele>283.0</ele><time>2026-04-26T11:12:38Z</time></trkpt><trkpt lat="41.106366663468144" lon="14.534604901098149"><ele>283.0</ele><time>2026-04-26T11:12:39Z</time></trkpt><trkpt lat="41.10660401906328" lon="14.53447888297567"><ele>282.0</ele><time>2026-04-26T11:12:40Z</time></trkpt><trkpt lat="41.10681397241397" lon="14.534356561066712"><ele>281.0</ele><time>2026-04-26T11:12:41Z</time></trkpt><trkpt lat="41.10706092715422" lon="14.534216412138283"><ele>281.0</ele><time>2026-04-26T11:12:42Z</time></trkpt><trkpt lat="41.107267569443344" lon="14.534092974683517"><ele>281.0</ele><time>2026-04-26T11:12:43Z</time></trkpt><trkpt lat="41.10744598159769" lon="14.533951036768185"><ele>281.0</ele><time>2026-04-26T11:12:44Z</time></trkpt><trkpt lat="41.107605459233405" lon="14.533751229424205"><ele>278.5</ele><time>2026-04-26T11:12:45Z</time></trkpt><trkpt lat="41.10775086301472" lon="14.533502328802097"><ele>276.0</ele><time>2026-04-26T11:12:46Z</time></trkpt><trkpt lat="41.10789429886542" lon="14.533228472775544"><ele>276.0</ele><time>2026-04-26T11:12:47Z</time></trkpt><trkpt lat="41.10805516507811" lon="14.533004735292256"><ele>276.0</ele><time>2026-04-26T11:12:48Z</time></trkpt><trkpt lat="41.108175146089295" lon="14.532773288565265"><ele>276.0</ele><time>2026-04-26T11:12:49Z</time></trkpt><trkpt lat="41.1083086188475" lon="14.532567186896168"><ele>278.0</ele><time>2026-04-26T11:12:50Z</time></trkpt><trkpt lat="41.10844692683978" lon="14.532384190316481"><ele>280.0</ele><time>2026-04-26T11:12:51Z</time></trkpt><trkpt lat="41.108573948704375" lon="14.532233635449785"><ele>282.0</ele><time>2026-04-26T11:12:52Z</time></trkpt><trkpt lat="41.10870050375825" lon="14.532126154569054"><ele>282.3333333333333</ele><time>2026-04-26T11:12:53Z</time></trkpt><trkpt lat="41.10882522529447" lon="14.53205412425173"><ele>282.66666666666663</ele><time>2026-04-26T11:12:54Z</time></trkpt><trkpt lat="41.108974245493144" lon="14.531977753197687"><ele>283.0</ele><time>2026-04-26T11:12:55Z</time></trkpt><trkpt lat="41.1091703833064" lon="14.531882322972479"><ele>283.0</ele><time>2026-04-26T11:12:56Z</time></trkpt><trkpt lat="41.10941814311015" lon="14.53176543481823"><ele>283.0</ele><time>2026-04-26T11:12:57Z</time></trkpt><trkpt lat="41.10966133754157" lon="14.531644978663659"><ele>287.0</ele><time>2026-04-26T11:12:58Z</time></trkpt><trkpt lat="41.10991690888258" lon="14.531511320766885"><ele>291.0</ele><time>2026-04-26T11:12:59Z</time></trkpt><trkpt lat="41.110188183787294" lon="14.531402976369467"><ele>291.0</ele><time>2026-04-26T11:13:00Z</time></trkpt><trkpt lat="41.110428285343126" lon="14.531287234585983"><ele>291.0</ele><time>2026-04-26T11:13:01Z</time></trkpt><trkpt lat="41.11065599499972" lon="14.531175699065983"><ele>287.0</ele><time>2026-04-26T11:13:02Z</time></trkpt><trkpt lat="41.11086393727442" lon="14.531054125790343"><ele>283.0</ele><time>2026-04-26T11:13:03Z</time></trkpt><trkpt lat="41.11106503966965" lon="14.53098866457842"><ele>279.0</ele><time>2026-04-26T11:13:04Z</time></trkpt><trkpt lat="41.11121638307291" lon="14.530904157588383"><ele>279.0</ele><time>2026-04-26T11:13:05Z</time></trkpt><trkpt lat="41.11135488653381" lon="14.530824914667294"><ele>279.0</ele><time>2026-04-26T11:13:06Z</time></trkpt><trkpt lat="41.11148895841699" lon="14.530687228761654"><ele>279.0</ele><time>2026-04-26T11:13:07Z</time></trkpt><trkpt lat="41.111602094370284" lon="14.53046440680042"><ele>278.0</ele><time>2026-04-26T11:13:08Z</time></trkpt><trkpt lat="41.11171170221542" lon="14.530203047724251"><ele>277.0</ele><time>2026-04-26T11:13:09Z</time></trkpt><trkpt lat="41.11186073570143" lon="14.529948699065113"><ele>277.0</ele><time>2026-04-26T11:13:10Z</time></trkpt><trkpt lat="41.1120097680852" lon="14.529737223222838"><ele>277.0</ele><time>2026-04-26T11:13:11Z</time></trkpt><trkpt lat="41.11217796018345" lon="14.529545879535455"><ele>277.0</ele><time>2026-04-26T11:13:12Z</time></trkpt><trkpt lat="41.11233093107278" lon="14.529400337890372"><ele>276.0</ele><time>2026-04-26T11:13:13Z</time></trkpt><trkpt lat="41.112471995959" lon="14.529299944895953"><ele>275.0</ele><time>2026-04-26T11:13:14Z</time></trkpt><trkpt lat="41.11261020160272" lon="14.529227053649318"><ele>274.0</ele><time>2026-04-26T11:13:15Z</time></trkpt><trkpt lat="41.11275252322914" lon="14.529225724364036"><ele>274.0</ele><time>2026-04-26T11:13:16Z</time></trkpt><trkpt lat="41.11292601070633" lon="14.529261510399214"><ele>274.0</ele><time>2026-04-26T11:13:17Z</time></trkpt><trkpt lat="41.113120577903466" lon="14.529310421277938"><ele>274.0</ele><time>2026-04-26T11:13:18Z</time></trkpt><trkpt lat="41.113294838764304" lon="14.529346889097065"><ele>274.0</ele><time>2026-04-26T11:13:19Z</time></trkpt><trkpt lat="41.113459140495365" lon="14.529371513833267"><ele>274.0</ele><time>2026-04-26T11:13:20Z</time></trkpt><trkpt lat="41.11363224082304" lon="14.529340125082868"><ele>274.0</ele><time>2026-04-26T11:13:21Z</time></trkpt><trkpt lat="41.11381401602961" lon="14.529274289737417"><ele>274.0</ele><time>2026-04-26T11:13:22Z</time></trkpt><trkpt lat="41.11400514048426" lon="14.529239941610788"><ele>274.0</ele><time>2026-04-26T11:13:23Z</time></trkpt><trkpt lat="41.11416000428652" lon="14.529185695078102"><ele>274.0</ele><time>2026-04-26T11:13:24Z</time></trkpt><trkpt lat="41.114284310337666" lon="14.529166626935924"><ele>274.5</ele><time>2026-04-26T11:13:25Z</time></trkpt><trkpt lat="41.114364278942254" lon="14.529130585360601"><ele>275.0</ele><time>2026-04-26T11:13:26Z</time></trkpt><trkpt lat="41.11443643170639" lon="14.529084703303134"><ele>275.5</ele><time>2026-04-26T11:13:27Z</time></trkpt><trkpt lat="41.114478956666275" lon="14.528931621683386"><ele>276.0</ele><time>2026-04-26T11:13:28Z</time></trkpt><trkpt lat="41.114460140484894" lon="14.528716192619614"><ele>276.0</ele><time>2026-04-26T11:13:29Z</time></trkpt><trkpt lat="41.11443366536999" lon="14.528522728655357"><ele>276.0</ele><time>2026-04-26T11:13:30Z</time></trkpt><trkpt lat="41.11431759785228" lon="14.528351492872995"><ele>276.0</ele><time>2026-04-26T11:13:31Z</time></trkpt><trkpt lat="41.114197787218025" lon="14.528187713304263"><ele>276.0</ele><time>2026-04-26T11:13:32Z</time></trkpt><trkpt lat="41.114092994630326" lon="14.528011493489512"><ele>276.0</ele><time>2026-04-26T11:13:33Z</time></trkpt><trkpt lat="41.11404171389344" lon="14.527855321430687"><ele>276.0</ele><time>2026-04-26T11:13:34Z</time></trkpt><trkpt lat="41.114044920903794" lon="14.52770035928196"><ele>276.0</ele><time>2026-04-26T11:13:35Z</time></trkpt><trkpt lat="41.11411006405809" lon="14.52755366605571"><ele>277.0</ele><time>2026-04-26T11:13:36Z</time></trkpt><trkpt lat="41.11423820488104" lon="14.527421886283655"><ele>278.0</ele><time>2026-04-26T11:13:37Z</time></trkpt><trkpt lat="41.11438395217723" lon="14.527233955920808"><ele>279.0</ele><time>2026-04-26T11:13:38Z</time></trkpt><trkpt lat="41.114567654295584" lon="14.526999387390136"><ele>285.0</ele><time>2026-04-26T11:13:39Z</time></trkpt><trkpt lat="41.11476774280973" lon="14.52674873627532"><ele>291.0</ele><time>2026-04-26T11:13:40Z</time></trkpt><trkpt lat="41.11500044205992" lon="14.526519245016091"><ele>291.0</ele><time>2026-04-26T11:13:41Z</time></trkpt><trkpt lat="41.11526873802023" lon="14.526348679045194"><ele>291.0</ele><time>2026-04-26T11:13:42Z</time></trkpt><trkpt lat="41.11556542754537" lon="14.526204948284603"><ele>287.5</ele><time>2026-04-26T11:13:43Z</time></trkpt><trkpt lat="41.115858497438175" lon="14.52607114267146"><ele>284.0</ele><time>2026-04-26T11:13:44Z</time></trkpt><trkpt lat="41.11611502021746" lon="14.525935838596876"><ele>284.0</ele><time>2026-04-26T11:13:45Z</time></trkpt><trkpt lat="41.11635364419614" lon="14.525821878282855"><ele>284.0</ele><time>2026-04-26T11:13:46Z</time></trkpt><trkpt lat="41.11656564504326" lon="14.52563169085768"><ele>282.5</ele><time>2026-04-26T11:13:47Z</time></trkpt><trkpt lat="41.11678088085367" lon="14.525442347978997"><ele>281.0</ele><time>2026-04-26T11:13:48Z</time></trkpt><trkpt lat="41.11697619812641" lon="14.52531971288232"><ele>281.0</ele><time>2026-04-26T11:13:49Z</time></trkpt><trkpt lat="41.117149899956274" lon="14.525215670399168"><ele>281.0</ele><time>2026-04-26T11:13:50Z</time></trkpt><trkpt lat="41.117280651194946" lon="14.525079897976553"><ele>281.0</ele><time>2026-04-26T11:13:51Z</time></trkpt><trkpt lat="41.11737772239944" lon="14.52492017839345"><ele>284.0</ele><time>2026-04-26T11:13:52Z</time></trkpt><trkpt lat="41.11742883915148" lon="14.524686363237373"><ele>287.0</ele><time>2026-04-26T11:13:53Z</time></trkpt><trkpt lat="41.11750684114648" lon="14.524458520055992"><ele>290.0</ele><time>2026-04-26T11:13:54Z</time></trkpt><trkpt lat="41.11760902387076" lon="14.524320920409075"><ele>290.0</ele><time>2026-04-26T11:13:55Z</time></trkpt><trkpt lat="41.117754653201175" lon="14.524185882134272"><ele>290.0</ele><time>2026-04-26T11:13:56Z</time></trkpt><trkpt lat="41.11795632211717" lon="14.524046489042929"><ele>290.0</ele><time>2026-04-26T11:13:57Z</time></trkpt><trkpt lat="41.11817277077809" lon="14.52394190899033"><ele>289.33333333333337</ele><time>2026-04-26T11:13:58Z</time></trkpt><trkpt lat="41.11837022654871" lon="14.523834526220629"><ele>288.6666666666667</ele><time>2026-04-26T11:13:59Z</time></trkpt><trkpt lat="41.11852352551123" lon="14.523632726837636"><ele>288.0</ele><time>2026-04-26T11:14:00Z</time></trkpt><trkpt lat="41.11865438653915" lon="14.523414244216573"><ele>288.0</ele><time>2026-04-26T11:14:01Z</time></trkpt><trkpt lat="41.11882622701685" lon="14.523197281726619"><ele>288.0</ele><time>2026-04-26T11:14:02Z</time></trkpt><trkpt lat="41.11901993096614" lon="14.522968939096925"><ele>290.3333333333333</ele><time>2026-04-26T11:14:03Z</time></trkpt><trkpt lat="41.11920670066106" lon="14.522764225536248"><ele>292.66666666666663</ele><time>2026-04-26T11:14:04Z</time></trkpt><trkpt lat="41.119360889364884" lon="14.522581935820272"><ele>295.0</ele><time>2026-04-26T11:14:05Z</time></trkpt><trkpt lat="41.11948523725742" lon="14.522387497966283"><ele>295.0</ele><time>2026-04-26T11:14:06Z</time></trkpt><trkpt lat="41.11962999260891" lon="14.52224229528126"><ele>295.0</ele><time>2026-04-26T11:14:07Z</time></trkpt><trkpt lat="41.11977594414888" lon="14.522136113707706"><ele>295.0</ele><time>2026-04-26T11:14:08Z</time></trkpt><trkpt lat="41.11991977256593" lon="14.522053587049278"><ele>296.25</ele><time>2026-04-26T11:14:09Z</time></trkpt><trkpt lat="41.120040895719384" lon="14.521960849431547"><ele>297.5</ele><time>2026-04-26T11:14:10Z</time></trkpt><trkpt lat="41.12012285078354" lon="14.521843741891411"><ele>298.75</ele><time>2026-04-26T11:14:11Z</time></trkpt><trkpt lat="41.120181631918705" lon="14.521707318255771"><ele>300.0</ele><time>2026-04-26T11:14:12Z</time></trkpt><trkpt lat="41.1202428079292" lon="14.52158272541774"><ele>300.0</ele><time>2026-04-26T11:14:13Z</time></trkpt><trkpt lat="41.12029706472554" lon="14.521419735681818"><ele>300.0</ele><time>2026-04-26T11:14:14Z</time></trkpt><trkpt lat="41.1203307188801" lon="14.521273344152071"><ele>300.0</ele><time>2026-04-26T11:14:15Z</time></trkpt><trkpt lat="41.12036685253408" lon="14.521150933300397"><ele>300.0</ele><time>2026-04-26T11:14:16Z</time></trkpt><trkpt lat="41.12040559659946" lon="14.52102178571836"><ele>299.6</ele><time>2026-04-26T11:14:17Z</time></trkpt><trkpt lat="41.1204463861577" lon="14.520910220318791"><ele>299.2</ele><time>2026-04-26T11:14:18Z</time></trkpt><trkpt lat="41.120471465419485" lon="14.52079440568002"><ele>298.8</ele><time>2026-04-26T11:14:19Z</time></trkpt><trkpt lat="41.120532707039736" lon="14.520695473216238"><ele>298.4</ele><time>2026-04-26T11:14:20Z</time></trkpt><trkpt lat="41.12066744578011" lon="14.520658637754128"><ele>298.0</ele><time>2026-04-26T11:14:21Z</time></trkpt><trkpt lat="41.12082012386074" lon="14.520642217845278"><ele>300.3333333333333</ele><time>2026-04-26T11:14:22Z</time></trkpt><trkpt lat="41.12098768561322" lon="14.520695122420271"><ele>302.6666666666667</ele><time>2026-04-26T11:14:23Z</time></trkpt><trkpt lat="41.121188625310175" lon="14.520763452798239"><ele>305.0</ele><time>2026-04-26T11:14:24Z</time></trkpt><trkpt lat="41.12139822884525" lon="14.52085885493668"><ele>305.0</ele><time>2026-04-26T11:14:25Z</time></trkpt><trkpt lat="41.12159358575625" lon="14.520951859113328"><ele>305.0</ele><time>2026-04-26T11:14:26Z</time></trkpt><trkpt lat="41.12176757194099" lon="14.52102669463683"><ele>305.0</ele><time>2026-04-26T11:14:27Z</time></trkpt><trkpt lat="41.12194268611735" lon="14.52105115050187"><ele>305.0</ele><time>2026-04-26T11:14:28Z</time></trkpt><trkpt lat="41.12213807481024" lon="14.521008388599284"><ele>305.0</ele><time>2026-04-26T11:14:29Z</time></trkpt><trkpt lat="41.12236103026244" lon="14.52091866566817"><ele>305.0</ele><time>2026-04-26T11:14:30Z</time></trkpt><trkpt lat="41.12261861181824" lon="14.520843084116212"><ele>306.5</ele><time>2026-04-26T11:14:31Z</time></trkpt><trkpt lat="41.12286599713471" lon="14.520739480696406"><ele>308.0</ele><time>2026-04-26T11:14:32Z</time></trkpt><trkpt lat="41.12309656885395" lon="14.520655445891574"><ele>309.6666666666667</ele><time>2026-04-26T11:14:33Z</time></trkpt><trkpt lat="41.123320850119995" lon="14.520580807411601"><ele>311.3333333333333</ele><time>2026-04-26T11:14:34Z</time></trkpt><trkpt lat="41.123511271111354" lon="14.520499023604707"><ele>313.0</ele><time>2026-04-26T11:14:35Z</time></trkpt><trkpt lat="41.123701928420935" lon="14.520455920506889"><ele>313.0</ele><time>2026-04-26T11:14:36Z</time></trkpt><trkpt lat="41.123878466958494" lon="14.520432081331913"><ele>313.0</ele><time>2026-04-26T11:14:37Z</time></trkpt><trkpt lat="41.124053646630486" lon="14.520494539087464"><ele>313.0</ele><time>2026-04-26T11:14:38Z</time></trkpt><trkpt lat="41.12419865455959" lon="14.52065170466888"><ele>314.3333333333333</ele><time>2026-04-26T11:14:39Z</time></trkpt><trkpt lat="41.12437285967243" lon="14.520847518304885"><ele>315.6666666666667</ele><time>2026-04-26T11:14:40Z</time></trkpt><trkpt lat="41.12451059453156" lon="14.521069493374062"><ele>317.0</ele><time>2026-04-26T11:14:41Z</time></trkpt><trkpt lat="41.12464918654959" lon="14.521260754559835"><ele>318.33333333333337</ele><time>2026-04-26T11:14:42Z</time></trkpt><trkpt lat="41.12479843658905" lon="14.521433141337134"><ele>319.6666666666667</ele><time>2026-04-26T11:14:43Z</time></trkpt><trkpt lat="41.12500572669617" lon="14.521569285122492"><ele>321.0</ele><time>2026-04-26T11:14:44Z</time></trkpt><trkpt lat="41.1252035045272" lon="14.521701274006528"><ele>321.0</ele><time>2026-04-26T11:14:45Z</time></trkpt><trkpt lat="41.12538327330868" lon="14.5218178886978"><ele>321.0</ele><time>2026-04-26T11:14:46Z</time></trkpt><trkpt lat="41.12554009806254" lon="14.521938602566257"><ele>321.0</ele><time>2026-04-26T11:14:47Z</time></trkpt><trkpt lat="41.125677708279625" lon="14.522030481271594"><ele>320.0</ele><time>2026-04-26T11:14:48Z</time></trkpt><trkpt lat="41.12581412642912" lon="14.522086376071732"><ele>319.0</ele><time>2026-04-26T11:14:49Z</time></trkpt><trkpt lat="41.1259468089291" lon="14.522088326884822"><ele>318.0</ele><time>2026-04-26T11:14:50Z</time></trkpt><trkpt lat="41.126053685250376" lon="14.5220422311442"><ele>317.0</ele><time>2026-04-26T11:14:51Z</time></trkpt><trkpt lat="41.12614869681599" lon="14.521962973958525"><ele>317.0</ele><time>2026-04-26T11:14:52Z</time></trkpt><trkpt lat="41.126185809402116" lon="14.52178009724017"><ele>317.0</ele><time>2026-04-26T11:14:53Z</time></trkpt><trkpt lat="41.12620711132135" lon="14.52157325303396"><ele>317.0</ele><time>2026-04-26T11:14:54Z</time></trkpt><trkpt lat="41.12625698070631" lon="14.52134393815429"><ele>318.33333333333337</ele><time>2026-04-26T11:14:55Z</time></trkpt><trkpt lat="41.12633359275981" lon="14.521141780890565"><ele>319.6666666666667</ele><time>2026-04-26T11:14:56Z</time></trkpt><trkpt lat="41.12643913057773" lon="14.520962864460165"><ele>321.0</ele><time>2026-04-26T11:14:57Z</time></trkpt><trkpt lat="41.12658910150318" lon="14.520882667180844"><ele>321.0</ele><time>2026-04-26T11:14:58Z</time></trkpt><trkpt lat="41.126777089658226" lon="14.520788301587755"><ele>321.0</ele><time>2026-04-26T11:14:59Z</time></trkpt><trkpt lat="41.12698705951208" lon="14.520678600190543"><ele>321.0</ele><time>2026-04-26T11:15:00Z</time></trkpt><trkpt lat="41.12720255545011" lon="14.520550457462528"><ele>322.6666666666667</ele><time>2026-04-26T11:15:01Z</time></trkpt><trkpt lat="41.1274138353553" lon="14.520446217530152"><ele>324.33333333333337</ele><time>2026-04-26T11:15:02Z</time></trkpt><trkpt lat="41.12759276465876" lon="14.520351211577871"><ele>326.0</ele><time>2026-04-26T11:15:03Z</time></trkpt><trkpt lat="41.127762396356815" lon="14.520240149710883"><ele>322.33333333333337</ele><time>2026-04-26T11:15:04Z</time></trkpt><trkpt lat="41.127925490185845" lon="14.520176110902181"><ele>318.6666666666667</ele><time>2026-04-26T11:15:05Z</time></trkpt><trkpt lat="41.12808898354718" lon="14.520130556945276"><ele>315.0</ele><time>2026-04-26T11:15:06Z</time></trkpt><trkpt lat="41.12824333672892" lon="14.52014691391428"><ele>315.0</ele><time>2026-04-26T11:15:07Z</time></trkpt><trkpt lat="41.12840126313158" lon="14.520184523595734"><ele>315.0</ele><time>2026-04-26T11:15:08Z</time></trkpt><trkpt lat="41.12854269941236" lon="14.520268395684383"><ele>315.0</ele><time>2026-04-26T11:15:09Z</time></trkpt><trkpt lat="41.12865955462692" lon="14.52031957521649"><ele>315.0</ele><time>2026-04-26T11:15:10Z</time></trkpt><trkpt lat="41.12876469464461" lon="14.520324926162516"><ele>315.0</ele><time>2026-04-26T11:15:11Z</time></trkpt><trkpt lat="41.12886207094203" lon="14.520259139121272"><ele>315.0</ele><time>2026-04-26T11:15:12Z</time></trkpt><trkpt lat="41.128934611646606" lon="14.520142474450925"><ele>315.0</ele><time>2026-04-26T11:15:13Z</time></trkpt><trkpt lat="41.128948141856824" lon="14.519964238005409"><ele>315.0</ele><time>2026-04-26T11:15:14Z</time></trkpt><trkpt lat="41.128934772952555" lon="14.519769900911538"><ele>311.3333333333333</ele><time>2026-04-26T11:15:15Z</time></trkpt><trkpt lat="41.1288825745837" lon="14.519548564322994"><ele>307.66666666666663</ele><time>2026-04-26T11:15:16Z</time></trkpt><trkpt lat="41.12888921163085" lon="14.51933513566435"><ele>304.0</ele><time>2026-04-26T11:15:17Z</time></trkpt><trkpt lat="41.12892441723992" lon="14.519169157392083"><ele>304.0</ele><time>2026-04-26T11:15:18Z</time></trkpt><trkpt lat="41.128946291945" lon="14.5189809391995"><ele>304.0</ele><time>2026-04-26T11:15:19Z</time></trkpt><trkpt lat="41.12902574411785" lon="14.518798274119657"><ele>304.0</ele><time>2026-04-26T11:15:20Z</time></trkpt><trkpt lat="41.12905502868893" lon="14.51858232358437"><ele>302.0</ele><time>2026-04-26T11:15:21Z</time></trkpt><trkpt lat="41.12902863978154" lon="14.518320448872524"><ele>300.0</ele><time>2026-04-26T11:15:22Z</time></trkpt><trkpt lat="41.1289878512594" lon="14.518066332004407"><ele>298.0</ele><time>2026-04-26T11:15:23Z</time></trkpt><trkpt lat="41.12896161519623" lon="14.51784843724977"><ele>296.0</ele><time>2026-04-26T11:15:24Z</time></trkpt><trkpt lat="41.12896075009802" lon="14.517641645962808"><ele>294.0</ele><time>2026-04-26T11:15:25Z</time></trkpt><trkpt lat="41.12904433111313" lon="14.517431000055385"><ele>292.0</ele><time>2026-04-26T11:15:26Z</time></trkpt><trkpt lat="41.129143304489105" lon="14.517203000946381"><ele>296.0</ele><time>2026-04-26T11:15:27Z</time></trkpt><trkpt lat="41.129252700551206" lon="14.516964338637212"><ele>300.0</ele><time>2026-04-26T11:15:28Z</time></trkpt><trkpt lat="41.12934648217679" lon="14.51677082373311"><ele>304.0</ele><time>2026-04-26T11:15:29Z</time></trkpt><trkpt lat="41.12943865344205" lon="14.516620506014323"><ele>304.0</ele><time>2026-04-26T11:15:30Z</time></trkpt><trkpt lat="41.12953058690927" lon="14.516494494782915"><ele>304.0</ele><time>2026-04-26T11:15:31Z</time></trkpt><trkpt lat="41.129672937815755" lon="14.516485696549998"><ele>304.0</ele><time>2026-04-26T11:15:32Z</time></trkpt><trkpt lat="41.12985650830956" lon="14.51652067406075"><ele>301.0</ele><time>2026-04-26T11:15:33Z</time></trkpt><trkpt lat="41.130043513551044" lon="14.516485928829818"><ele>298.0</ele><time>2026-04-26T11:15:34Z</time></trkpt><trkpt lat="41.13020620281812" lon="14.51639401174963"><ele>295.0</ele><time>2026-04-26T11:15:35Z</time></trkpt><trkpt lat="41.13040627459416" lon="14.516212598962047"><ele>295.0</ele><time>2026-04-26T11:15:36Z</time></trkpt><trkpt lat="41.13058418655337" lon="14.516081200751245"><ele>295.0</ele><time>2026-04-26T11:15:37Z</time></trkpt><trkpt lat="41.13072087902468" lon="14.51596616823787"><ele>295.0</ele><time>2026-04-26T11:15:38Z</time></trkpt><trkpt lat="41.1308484111024" lon="14.51589745091065"><ele>298.0</ele><time>2026-04-26T11:15:39Z</time></trkpt><trkpt lat="41.130978082077036" lon="14.51590631951389"><ele>301.0</ele><time>2026-04-26T11:15:40Z</time></trkpt><trkpt lat="41.13110201079055" lon="14.515990714484701"><ele>304.0</ele><time>2026-04-26T11:15:41Z</time></trkpt><trkpt lat="41.13125548822234" lon="14.516137675887716"><ele>307.66666666666663</ele><time>2026-04-26T11:15:42Z</time></trkpt><trkpt lat="41.13141204475265" lon="14.516309947695456"><ele>311.3333333333333</ele><time>2026-04-26T11:15:43Z</time></trkpt><trkpt lat="41.13159387669613" lon="14.516426325930082"><ele>315.0</ele><time>2026-04-26T11:15:44Z</time></trkpt><trkpt lat="41.13180436835528" lon="14.516481228146166"><ele>315.0</ele><time>2026-04-26T11:15:45Z</time></trkpt><trkpt lat="41.132005464559974" lon="14.516513695149968"><ele>315.0</ele><time>2026-04-26T11:15:46Z</time></trkpt><trkpt lat="41.13216024721894" lon="14.516573070454587"><ele>315.0</ele><time>2026-04-26T11:15:47Z</time></trkpt><trkpt lat="41.13228170767069" lon="14.516730345987119"><ele>314.6666666666667</ele><time>2026-04-26T11:15:48Z</time></trkpt><trkpt lat="41.1323963570083" lon="14.516938721534737"><ele>314.33333333333337</ele><time>2026-04-26T11:15:49Z</time></trkpt><trkpt lat="41.13251753519141" lon="14.517190853754185"><ele>314.0</ele><time>2026-04-26T11:15:50Z</time></trkpt><trkpt lat="41.132610424262964" lon="14.517391392648275"><ele>314.0</ele><time>2026-04-26T11:15:51Z</time></trkpt><trkpt lat="41.13268598503627" lon="14.517578554570855"><ele>314.0</ele><time>2026-04-26T11:15:52Z</time></trkpt><trkpt lat="41.13274961435877" lon="14.517706816920947"><ele>314.0</ele><time>2026-04-26T11:15:53Z</time></trkpt><trkpt lat="41.13281910192204" lon="14.517792134651842"><ele>314.0</ele><time>2026-04-26T11:15:54Z</time></trkpt><trkpt lat="41.132919488773254" lon="14.517837433894831"><ele>314.0</ele><time>2026-04-26T11:15:55Z</time></trkpt><trkpt lat="41.13304509106637" lon="14.517803882524188"><ele>314.0</ele><time>2026-04-26T11:15:56Z</time></trkpt><trkpt lat="41.1332101459844" lon="14.517720493404918"><ele>314.0</ele><time>2026-04-26T11:15:57Z</time></trkpt><trkpt lat="41.133404383555636" lon="14.517612448091812"><ele>311.5</ele><time>2026-04-26T11:15:58Z</time></trkpt><trkpt lat="41.13360837818863" lon="14.517516462537229"><ele>309.0</ele><time>2026-04-26T11:15:59.001Z</time></trkpt><trkpt lat="41.13383904906873" lon="14.51742736831835"><ele>311.5</ele><time>2026-04-26T11:16:00.001Z</time></trkpt><trkpt lat="41.13406356132686" lon="14.517332000839037"><ele>314.0</ele><time>2026-04-26T11:16:01.001Z</time></trkpt><trkpt lat="41.13427098355544" lon="14.517222743813454"><ele>314.0</ele><time>2026-04-26T11:16:02.001Z</time></trkpt><trkpt lat="41.134484433363276" lon="14.517120937005279"><ele>314.0</ele><time>2026-04-26T11:16:03.001Z</time></trkpt><trkpt lat="41.13469950305449" lon="14.517049259709959"><ele>314.0</ele><time>2026-04-26T11:16:04.001Z</time></trkpt><trkpt lat="41.134919289359296" lon="14.516983287620123"><ele>312.0</ele><time>2026-04-26T11:16:05.001Z</time></trkpt><trkpt lat="41.135146304309494" lon="14.516935020404704"><ele>310.0</ele><time>2026-04-26T11:16:06.001Z</time></trkpt><trkpt lat="41.13538025640375" lon="14.516875429308527"><ele>310.0</ele><time>2026-04-26T11:16:07.001Z</time></trkpt><trkpt lat="41.13561636016338" lon="14.516832092561257"><ele>310.0</ele><time>2026-04-26T11:16:08.001Z</time></trkpt><trkpt lat="41.13584289737749" lon="14.516787092174606"><ele>310.66666666666663</ele><time>2026-04-26T11:16:09.001Z</time></trkpt><trkpt lat="41.1360279021714" lon="14.516701947362234"><ele>311.3333333333333</ele><time>2026-04-26T11:16:10.001Z</time></trkpt><trkpt lat="41.13619519105734" lon="14.516638669261098"><ele>312.0</ele><time>2026-04-26T11:16:11.001Z</time></trkpt><trkpt lat="41.13637072002603" lon="14.51660057447959"><ele>313.0</ele><time>2026-04-26T11:16:12.001Z</time></trkpt><trkpt lat="41.136556673441945" lon="14.516612400969972"><ele>314.0</ele><time>2026-04-26T11:16:13Z</time></trkpt><trkpt lat="41.1367431255635" lon="14.516670911072497"><ele>315.0</ele><time>2026-04-26T11:16:14Z</time></trkpt><trkpt lat="41.13691282598533" lon="14.516687576223939"><ele>315.0</ele><time>2026-04-26T11:16:15Z</time></trkpt><trkpt lat="41.137076040315954" lon="14.516705804138898"><ele>315.0</ele><time>2026-04-26T11:16:16Z</time></trkpt><trkpt lat="41.137247441868325" lon="14.516673462738728"><ele>315.0</ele><time>2026-04-26T11:16:17Z</time></trkpt><trkpt lat="41.13743320938104" lon="14.516561056021065"><ele>315.6666666666667</ele><time>2026-04-26T11:16:18Z</time></trkpt><trkpt lat="41.13763617520914" lon="14.51640056859062"><ele>316.33333333333337</ele><time>2026-04-26T11:16:19Z</time></trkpt><trkpt lat="41.13781725918916" lon="14.516266249738658"><ele>317.0</ele><time>2026-04-26T11:16:20Z</time></trkpt><trkpt lat="41.13796378911563" lon="14.516146535344157"><ele>316.25</ele><time>2026-04-26T11:16:21Z</time></trkpt><trkpt lat="41.138079372272294" lon="14.516058970258218"><ele>315.5</ele><time>2026-04-26T11:16:22Z</time></trkpt><trkpt lat="41.138179995571726" lon="14.515972489751977"><ele>314.75</ele><time>2026-04-26T11:16:23Z</time></trkpt><trkpt lat="41.138292031898224" lon="14.51596298908475"><ele>314.0</ele><time>2026-04-26T11:16:24Z</time></trkpt><trkpt lat="41.138375290759" lon="14.51603395030644"><ele>314.0</ele><time>2026-04-26T11:16:25Z</time></trkpt><trkpt lat="41.1384152708197" lon="14.5161474458271"><ele>314.0</ele><time>2026-04-26T11:16:26Z</time></trkpt><trkpt lat="41.13841539830337" lon="14.516264382051878"><ele>314.0</ele><time>2026-04-26T11:16:27Z</time></trkpt><trkpt lat="41.13841040542134" lon="14.516350399834032"><ele>314.0</ele><time>2026-04-26T11:16:28Z</time></trkpt><trkpt lat="41.13857317846231" lon="14.516347821409017"><ele>314.0</ele><time>2026-04-26T11:16:31Z</time></trkpt><trkpt lat="41.13868283264498" lon="14.516286434337148"><ele>314.0</ele><time>2026-04-26T11:16:32Z</time></trkpt><trkpt lat="41.13883167385403" lon="14.516170992487968"><ele>314.0</ele><time>2026-04-26T11:16:33Z</time></trkpt><trkpt lat="41.13898467961945" lon="14.516033154990046"><ele>314.0</ele><time>2026-04-26T11:16:34Z</time></trkpt><trkpt lat="41.139102134250415" lon="14.515903150793108"><ele>314.5</ele><time>2026-04-26T11:16:35Z</time></trkpt><trkpt lat="41.13915021457044" lon="14.515831416204241"><ele>315.0</ele><time>2026-04-26T11:16:36Z</time></trkpt><trkpt lat="41.13918836067516" lon="14.515653530375321"><ele>315.5</ele><time>2026-04-26T11:16:38Z</time></trkpt><trkpt lat="41.13909345319301" lon="14.515488955949412"><ele>316.0</ele><time>2026-04-26T11:16:39Z</time></trkpt><trkpt lat="41.13899806988654" lon="14.515307629666106"><ele>313.0</ele><time>2026-04-26T11:16:40Z</time></trkpt><trkpt lat="41.138883607589534" lon="14.515144171483128"><ele>310.0</ele><time>2026-04-26T11:16:41Z</time></trkpt><trkpt lat="41.13881197049753" lon="14.514987141910522"><ele>307.0</ele><time>2026-04-26T11:16:42Z</time></trkpt><trkpt lat="41.13874453730336" lon="14.514879866957257"><ele>304.0</ele><time>2026-04-26T11:16:43Z</time></trkpt><trkpt lat="41.13870453372647" lon="14.514795586376904"><ele>304.0</ele><time>2026-04-26T11:16:44Z</time></trkpt><trkpt lat="41.13870511861676" lon="14.514639736029364"><ele>304.0</ele><time>2026-04-26T11:16:46Z</time></trkpt><trkpt lat="41.13884209244539" lon="14.514569755472722"><ele>304.0</ele><time>2026-04-26T11:16:47Z</time></trkpt><trkpt lat="41.13899378617736" lon="14.514454119629988"><ele>304.0</ele><time>2026-04-26T11:16:48Z</time></trkpt><trkpt lat="41.139136222755006" lon="14.514328456108027"><ele>303.66666666666663</ele><time>2026-04-26T11:16:49Z</time></trkpt><trkpt lat="41.139283817951274" lon="14.514198123668848"><ele>303.3333333333333</ele><time>2026-04-26T11:16:50Z</time></trkpt><trkpt lat="41.139422330338746" lon="14.514057864546078"><ele>303.0</ele><time>2026-04-26T11:16:51Z</time></trkpt><trkpt lat="41.13955325427028" lon="14.513877021377512"><ele>301.3333333333333</ele><time>2026-04-26T11:16:52Z</time></trkpt><trkpt lat="41.139673891375864" lon="14.513699585959623"><ele>299.66666666666663</ele><time>2026-04-26T11:16:53Z</time></trkpt><trkpt lat="41.1398020533594" lon="14.51355373141626"><ele>298.0</ele><time>2026-04-26T11:16:54Z</time></trkpt><trkpt lat="41.13991112207768" lon="14.51346921805061"><ele>300.2</ele><time>2026-04-26T11:16:55Z</time></trkpt><trkpt lat="41.14001528050423" lon="14.513397129368478"><ele>302.4</ele><time>2026-04-26T11:16:56Z</time></trkpt><trkpt lat="41.14011239558693" lon="14.513365010987027"><ele>304.59999999999997</ele><time>2026-04-26T11:16:57Z</time></trkpt><trkpt lat="41.140190765321734" lon="14.513383685328359"><ele>306.8</ele><time>2026-04-26T11:16:58Z</time></trkpt><trkpt lat="41.14030891631054" lon="14.513395361452632"><ele>309.0</ele><time>2026-04-26T11:16:59Z</time></trkpt><trkpt lat="41.14041417082609" lon="14.513458941877012"><ele>309.0</ele><time>2026-04-26T11:17:00Z</time></trkpt><trkpt lat="41.14051191808889" lon="14.51348785420745"><ele>309.0</ele><time>2026-04-26T11:17:01Z</time></trkpt><trkpt lat="41.14060962884892" lon="14.513492553792346"><ele>309.0</ele><time>2026-04-26T11:17:02Z</time></trkpt><trkpt lat="41.14071965751423" lon="14.513467042488891"><ele>309.0</ele><time>2026-04-26T11:17:03Z</time></trkpt><trkpt lat="41.1408253528485" lon="14.513396934272258"><ele>309.0</ele><time>2026-04-26T11:17:04Z</time></trkpt><trkpt lat="41.14095584656403" lon="14.513323520352435"><ele>308.0</ele><time>2026-04-26T11:17:05Z</time></trkpt><trkpt lat="41.14109642198692" lon="14.513205387513496"><ele>307.0</ele><time>2026-04-26T11:17:06Z</time></trkpt><trkpt lat="41.14122407747358" lon="14.513084898969973"><ele>306.0</ele><time>2026-04-26T11:17:07Z</time></trkpt><trkpt lat="41.14135971442089" lon="14.512956173048131"><ele>307.0</ele><time>2026-04-26T11:17:08Z</time></trkpt><trkpt lat="41.14148561694062" lon="14.51283742501215"><ele>308.0</ele><time>2026-04-26T11:17:09Z</time></trkpt><trkpt lat="41.141602781564075" lon="14.512723669081039"><ele>309.0</ele><time>2026-04-26T11:17:10Z</time></trkpt><trkpt lat="41.14172786345993" lon="14.512589343763691"><ele>305.0</ele><time>2026-04-26T11:17:11Z</time></trkpt><trkpt lat="41.141843206034416" lon="14.51243932079228"><ele>301.0</ele><time>2026-04-26T11:17:12Z</time></trkpt><trkpt lat="41.14194707314632" lon="14.512262720789272"><ele>297.0</ele><time>2026-04-26T11:17:13Z</time></trkpt><trkpt lat="41.14202019777261" lon="14.512096825017593"><ele>298.5</ele><time>2026-04-26T11:17:14Z</time></trkpt><trkpt lat="41.14207929142946" lon="14.511931318732815"><ele>300.0</ele><time>2026-04-26T11:17:15Z</time></trkpt><trkpt lat="41.14212609519697" lon="14.511761260682825"><ele>301.5</ele><time>2026-04-26T11:17:16Z</time></trkpt><trkpt lat="41.14216850616076" lon="14.511593987497045"><ele>303.0</ele><time>2026-04-26T11:17:17Z</time></trkpt><trkpt lat="41.14221971113156" lon="14.511419468242915"><ele>302.75</ele><time>2026-04-26T11:17:18Z</time></trkpt><trkpt lat="41.14225000899757" lon="14.511236935798957"><ele>302.5</ele><time>2026-04-26T11:17:19Z</time></trkpt><trkpt lat="41.14227431620485" lon="14.511038681773051"><ele>302.25</ele><time>2026-04-26T11:17:20Z</time></trkpt><trkpt lat="41.142300806852454" lon="14.510839763119751"><ele>302.0</ele><time>2026-04-26T11:17:21Z</time></trkpt><trkpt lat="41.142325718594336" lon="14.510664997596464"><ele>302.0</ele><time>2026-04-26T11:17:22Z</time></trkpt><trkpt lat="41.142354640639205" lon="14.510471506682041"><ele>302.0</ele><time>2026-04-26T11:17:23Z</time></trkpt><trkpt lat="41.14237828654138" lon="14.51023561223792"><ele>302.0</ele><time>2026-04-26T11:17:24Z</time></trkpt><trkpt lat="41.14243886471759" lon="14.510045501499967"><ele>297.75</ele><time>2026-04-26T11:17:25Z</time></trkpt><trkpt lat="41.142476157729604" lon="14.50987044298749"><ele>293.5</ele><time>2026-04-26T11:17:26Z</time></trkpt><trkpt lat="41.14253434622323" lon="14.509735571079661"><ele>289.25</ele><time>2026-04-26T11:17:27Z</time></trkpt><trkpt lat="41.142615773666655" lon="14.509629259505674"><ele>285.0</ele><time>2026-04-26T11:17:28Z</time></trkpt><trkpt lat="41.142722707973505" lon="14.50959148317093"><ele>285.2</ele><time>2026-04-26T11:17:29Z</time></trkpt><trkpt lat="41.142816537175165" lon="14.509571706148478"><ele>285.4</ele><time>2026-04-26T11:17:30Z</time></trkpt><trkpt lat="41.14292437771302" lon="14.50955329420474"><ele>285.6</ele><time>2026-04-26T11:17:31Z</time></trkpt><trkpt lat="41.14303901613496" lon="14.509552939718962"><ele>285.8</ele><time>2026-04-26T11:17:32Z</time></trkpt><trkpt lat="41.1431510141932" lon="14.50952896084387"><ele>286.0</ele><time>2026-04-26T11:17:33Z</time></trkpt><trkpt lat="41.14324212525346" lon="14.509454717707431"><ele>285.0</ele><time>2026-04-26T11:17:34Z</time></trkpt><trkpt lat="41.1433571005547" lon="14.509359996563013"><ele>284.0</ele><time>2026-04-26T11:17:35Z</time></trkpt><trkpt lat="41.143483581138476" lon="14.509189507184479"><ele>283.0</ele><time>2026-04-26T11:17:36Z</time></trkpt><trkpt lat="41.14359870601565" lon="14.509027230700559"><ele>283.0</ele><time>2026-04-26T11:17:37Z</time></trkpt><trkpt lat="41.14370051256332" lon="14.508892538324146"><ele>283.0</ele><time>2026-04-26T11:17:38Z</time></trkpt><trkpt lat="41.143802571349696" lon="14.508766255273038"><ele>283.0</ele><time>2026-04-26T11:17:39Z</time></trkpt><trkpt lat="41.14389662543482" lon="14.508651269552509"><ele>283.0</ele><time>2026-04-26T11:17:40Z</time></trkpt><trkpt lat="41.143968686989886" lon="14.50856182046766"><ele>283.5</ele><time>2026-04-26T11:17:41Z</time></trkpt><trkpt lat="41.1440059135883" lon="14.50848757775529"><ele>284.0</ele><time>2026-04-26T11:17:42Z</time></trkpt><trkpt lat="41.14412275466662" lon="14.508674991912486"><ele>284.5</ele><time>2026-04-26T11:17:45Z</time></trkpt><trkpt lat="41.14414530807295" lon="14.50884870444075"><ele>285.0</ele><time>2026-04-26T11:17:46Z</time></trkpt><trkpt lat="41.144177691254534" lon="14.508961372238092"><ele>283.3333333333333</ele><time>2026-04-26T11:17:47Z</time></trkpt><trkpt lat="41.1441990600572" lon="14.50908280004218"><ele>281.6666666666667</ele><time>2026-04-26T11:17:48Z</time></trkpt><trkpt lat="41.1442200705327" lon="14.509205162917667"><ele>280.0</ele><time>2026-04-26T11:17:49Z</time></trkpt><trkpt lat="41.14423500472045" lon="14.5093304785956"><ele>278.33333333333337</ele><time>2026-04-26T11:17:50Z</time></trkpt><trkpt lat="41.14423699465112" lon="14.50943938140275"><ele>276.6666666666667</ele><time>2026-04-26T11:17:51Z</time></trkpt><trkpt lat="41.144232262980324" lon="14.509533483432516"><ele>275.0</ele><time>2026-04-26T11:17:53Z</time></trkpt><trkpt lat="41.144437892991725" lon="14.509499204915402"><ele>275.0</ele><time>2026-04-26T11:17:56Z</time></trkpt><trkpt lat="41.14453171026064" lon="14.509421540957046"><ele>275.0</ele><time>2026-04-26T11:17:57Z</time></trkpt><trkpt lat="41.144648764432" lon="14.509327899068355"><ele>275.0</ele><time>2026-04-26T11:17:58Z</time></trkpt><trkpt lat="41.144735012029436" lon="14.509176994983601"><ele>275.0</ele><time>2026-04-26T11:17:59Z</time></trkpt><trkpt lat="41.14484732335288" lon="14.50903489567218"><ele>274.33333333333337</ele><time>2026-04-26T11:18:00Z</time></trkpt><trkpt lat="41.14498716391769" lon="14.508924809530997"><ele>273.6666666666667</ele><time>2026-04-26T11:18:01Z</time></trkpt><trkpt lat="41.14513844896332" lon="14.50880024551744"><ele>273.0</ele><time>2026-04-26T11:18:02Z</time></trkpt><trkpt lat="41.14531329771032" lon="14.508641246398197"><ele>273.0</ele><time>2026-04-26T11:18:03Z</time></trkpt><trkpt lat="41.14548425876592" lon="14.50846658387553"><ele>273.0</ele><time>2026-04-26T11:18:04Z</time></trkpt><trkpt lat="41.1456742569127" lon="14.508288767257994"><ele>273.0</ele><time>2026-04-26T11:18:05.001Z</time></trkpt><trkpt lat="41.145836811012856" lon="14.508136871549942"><ele>271.0</ele><time>2026-04-26T11:18:06.001Z</time></trkpt><trkpt lat="41.14599869487886" lon="14.508034062536488"><ele>269.0</ele><time>2026-04-26T11:18:07.001Z</time></trkpt><trkpt lat="41.146152892643315" lon="14.507961596588121"><ele>267.0</ele><time>2026-04-26T11:18:08.001Z</time></trkpt><trkpt lat="41.146281617687876" lon="14.507877494430552"><ele>267.0</ele><time>2026-04-26T11:18:09.001Z</time></trkpt><trkpt lat="41.14640108512448" lon="14.507770084399148"><ele>267.0</ele><time>2026-04-26T11:18:10.001Z</time></trkpt><trkpt lat="41.14649977876403" lon="14.507598351686724"><ele>267.0</ele><time>2026-04-26T11:18:11.001Z</time></trkpt><trkpt lat="41.14656013625112" lon="14.50738664084132"><ele>264.0</ele><time>2026-04-26T11:18:12.001Z</time></trkpt><trkpt lat="41.146585157147214" lon="14.507153639445837"><ele>261.0</ele><time>2026-04-26T11:18:13.001Z</time></trkpt><trkpt lat="41.14657972680824" lon="14.506910159415456"><ele>258.0</ele><time>2026-04-26T11:18:14.001Z</time></trkpt><trkpt lat="41.146593391103245" lon="14.506675564765864"><ele>258.0</ele><time>2026-04-26T11:18:15.001Z</time></trkpt><trkpt lat="41.146609730469734" lon="14.506447633394233"><ele>258.0</ele><time>2026-04-26T11:18:16.001Z</time></trkpt><trkpt lat="41.14664031519113" lon="14.506258054186654"><ele>258.0</ele><time>2026-04-26T11:18:17.001Z</time></trkpt><trkpt lat="41.14671264705693" lon="14.506084065598024"><ele>258.0</ele><time>2026-04-26T11:18:18.001Z</time></trkpt><trkpt lat="41.146825485945094" lon="14.505907298187632"><ele>258.0</ele><time>2026-04-26T11:18:19.001Z</time></trkpt><trkpt lat="41.14691941638862" lon="14.505716323407455"><ele>258.0</ele><time>2026-04-26T11:18:20.001Z</time></trkpt><trkpt lat="41.14699684808065" lon="14.505513075369455"><ele>257.3333333333333</ele><time>2026-04-26T11:18:21.001Z</time></trkpt><trkpt lat="41.147022262243446" lon="14.505277959609566"><ele>256.66666666666663</ele><time>2026-04-26T11:18:22Z</time></trkpt><trkpt lat="41.14702819532788" lon="14.505050967471462"><ele>256.0</ele><time>2026-04-26T11:18:23Z</time></trkpt><trkpt lat="41.14705635854885" lon="14.50486390866364"><ele>256.0</ele><time>2026-04-26T11:18:24Z</time></trkpt><trkpt lat="41.147058257941765" lon="14.504762616485557"><ele>256.0</ele><time>2026-04-26T11:18:25Z</time></trkpt><trkpt lat="41.147103645368674" lon="14.50457680027278"><ele>256.0</ele><time>2026-04-26T11:18:27Z</time></trkpt><trkpt lat="41.1471084675732" lon="14.504385874167614"><ele>256.0</ele><time>2026-04-26T11:18:28Z</time></trkpt><trkpt lat="41.14711368589937" lon="14.504200898571835"><ele>253.66666666666666</ele><time>2026-04-26T11:18:29Z</time></trkpt><trkpt lat="41.14712531614441" lon="14.503987323221141"><ele>251.33333333333331</ele><time>2026-04-26T11:18:30Z</time></trkpt><trkpt lat="41.14714152232513" lon="14.50375043045028"><ele>249.0</ele><time>2026-04-26T11:18:31Z</time></trkpt><trkpt lat="41.147164835257584" lon="14.503486251680393"><ele>247.0</ele><time>2026-04-26T11:18:32Z</time></trkpt><trkpt lat="41.14717932960576" lon="14.503216423324378"><ele>245.0</ele><time>2026-04-26T11:18:33Z</time></trkpt><trkpt lat="41.147173173647154" lon="14.502935675214415"><ele>243.0</ele><time>2026-04-26T11:18:34Z</time></trkpt><trkpt lat="41.1471485033465" lon="14.502642906495783"><ele>241.0</ele><time>2026-04-26T11:18:35Z</time></trkpt><trkpt lat="41.14711663426112" lon="14.502384003609759"><ele>239.0</ele><time>2026-04-26T11:18:36Z</time></trkpt><trkpt lat="41.147082480633095" lon="14.502145365603612"><ele>237.0</ele><time>2026-04-26T11:18:37Z</time></trkpt><trkpt lat="41.14707490235503" lon="14.501921746138672"><ele>236.0</ele><time>2026-04-26T11:18:38Z</time></trkpt><trkpt lat="41.14708635596456" lon="14.50171966272234"><ele>235.0</ele><time>2026-04-26T11:18:39Z</time></trkpt><trkpt lat="41.14712460654403" lon="14.50151759395808"><ele>234.0</ele><time>2026-04-26T11:18:40Z</time></trkpt><trkpt lat="41.14721493322214" lon="14.501311296003752"><ele>232.0</ele><time>2026-04-26T11:18:41Z</time></trkpt><trkpt lat="41.14732564602081" lon="14.501082666283747"><ele>230.0</ele><time>2026-04-26T11:18:42Z</time></trkpt><trkpt lat="41.147422160702476" lon="14.500867358489025"><ele>228.0</ele><time>2026-04-26T11:18:43Z</time></trkpt><trkpt lat="41.14746986240778" lon="14.500615724707638"><ele>235.0</ele><time>2026-04-26T11:18:44Z</time></trkpt><trkpt lat="41.14749932415869" lon="14.500316202643617"><ele>242.0</ele><time>2026-04-26T11:18:45Z</time></trkpt><trkpt lat="41.14754168358988" lon="14.500011531241281"><ele>242.0</ele><time>2026-04-26T11:18:46Z</time></trkpt><trkpt lat="41.14759016293335" lon="14.499713989627772"><ele>242.0</ele><time>2026-04-26T11:18:47Z</time></trkpt><trkpt lat="41.14764343010419" lon="14.499427274354947"><ele>239.66666666666669</ele><time>2026-04-26T11:18:48Z</time></trkpt><trkpt lat="41.14767038066017" lon="14.499180249504457"><ele>237.33333333333331</ele><time>2026-04-26T11:18:49Z</time></trkpt><trkpt lat="41.14766381868447" lon="14.49893696363874"><ele>235.0</ele><time>2026-04-26T11:18:50Z</time></trkpt><trkpt lat="41.14762271388991" lon="14.498682035629702"><ele>235.0</ele><time>2026-04-26T11:18:51Z</time></trkpt><trkpt lat="41.14756729945099" lon="14.498392102273069"><ele>235.0</ele><time>2026-04-26T11:18:52Z</time></trkpt><trkpt lat="41.14754050950028" lon="14.49807628530241"><ele>234.66666666666666</ele><time>2026-04-26T11:18:53Z</time></trkpt><trkpt lat="41.14750997368504" lon="14.497768635279703"><ele>234.33333333333331</ele><time>2026-04-26T11:18:54Z</time></trkpt><trkpt lat="41.14748196174538" lon="14.497484988265724"><ele>234.0</ele><time>2026-04-26T11:18:55Z</time></trkpt><trkpt lat="41.147455179031105" lon="14.497231960336334"><ele>233.0</ele><time>2026-04-26T11:18:56Z</time></trkpt><trkpt lat="41.147441988001965" lon="14.497000510213045"><ele>232.0</ele><time>2026-04-26T11:18:57Z</time></trkpt><trkpt lat="41.147455470359226" lon="14.496794184852561"><ele>231.0</ele><time>2026-04-26T11:18:58Z</time></trkpt><trkpt lat="41.14752028614927" lon="14.496624382635186"><ele>231.0</ele><time>2026-04-26T11:18:59Z</time></trkpt><trkpt lat="41.147627484245774" lon="14.496470575563189"><ele>231.0</ele><time>2026-04-26T11:19:00Z</time></trkpt><trkpt lat="41.14776143174669" lon="14.496290677918145"><ele>231.0</ele><time>2026-04-26T11:19:01Z</time></trkpt><trkpt lat="41.14789932230413" lon="14.496090196331625"><ele>227.66666666666669</ele><time>2026-04-26T11:19:02Z</time></trkpt><trkpt lat="41.14802005378621" lon="14.495907186425665"><ele>224.33333333333334</ele><time>2026-04-26T11:19:03Z</time></trkpt><trkpt lat="41.148110770038826" lon="14.495707106255766"><ele>221.0</ele><time>2026-04-26T11:19:04Z</time></trkpt><trkpt lat="41.14818270461098" lon="14.495510165597057"><ele>220.66666666666669</ele><time>2026-04-26T11:19:05Z</time></trkpt><trkpt lat="41.148285008566575" lon="14.495369754634325"><ele>220.33333333333331</ele><time>2026-04-26T11:19:06Z</time></trkpt><trkpt lat="41.14840090882828" lon="14.495264332374466"><ele>220.0</ele><time>2026-04-26T11:19:07Z</time></trkpt><trkpt lat="41.14856604698878" lon="14.495201188396958"><ele>220.0</ele><time>2026-04-26T11:19:08Z</time></trkpt><trkpt lat="41.14876083911399" lon="14.495133939984422"><ele>220.0</ele><time>2026-04-26T11:19:09Z</time></trkpt><trkpt lat="41.148938004941115" lon="14.495080891307373"><ele>220.0</ele><time>2026-04-26T11:19:10Z</time></trkpt><trkpt lat="41.14911240772318" lon="14.495116839979355"><ele>221.0</ele><time>2026-04-26T11:19:11Z</time></trkpt><trkpt lat="41.149273023246344" lon="14.495141030671668"><ele>222.0</ele><time>2026-04-26T11:19:12Z</time></trkpt><trkpt lat="41.14942061088406" lon="14.49518330518195"><ele>223.0</ele><time>2026-04-26T11:19:13Z</time></trkpt><trkpt lat="41.14956134761302" lon="14.495183820818218"><ele>223.0</ele><time>2026-04-26T11:19:14Z</time></trkpt><trkpt lat="41.14966406710504" lon="14.495137231577866"><ele>223.0</ele><time>2026-04-26T11:19:15Z</time></trkpt><trkpt lat="41.14973175671751" lon="14.495008139851857"><ele>223.0</ele><time>2026-04-26T11:19:16Z</time></trkpt><trkpt lat="41.1497579519533" lon="14.494832078600801"><ele>223.0</ele><time>2026-04-26T11:19:17Z</time></trkpt><trkpt lat="41.14973411394066" lon="14.49462863758992"><ele>220.66666666666666</ele><time>2026-04-26T11:19:18Z</time></trkpt><trkpt lat="41.14963863799964" lon="14.494445750177228"><ele>218.33333333333331</ele><time>2026-04-26T11:19:19Z</time></trkpt><trkpt lat="41.149500523454094" lon="14.494277112764834"><ele>216.0</ele><time>2026-04-26T11:19:20Z</time></trkpt><trkpt lat="41.14933937641987" lon="14.494079092342888"><ele>216.0</ele><time>2026-04-26T11:19:21Z</time></trkpt><trkpt lat="41.14919774571841" lon="14.493882484840308"><ele>216.0</ele><time>2026-04-26T11:19:22Z</time></trkpt><trkpt lat="41.14908086689529" lon="14.493691373825444"><ele>216.0</ele><time>2026-04-26T11:19:23Z</time></trkpt><trkpt lat="41.14896879994988" lon="14.493533964232448"><ele>212.75</ele><time>2026-04-26T11:19:24Z</time></trkpt><trkpt lat="41.14887797444466" lon="14.493377652108553"><ele>209.5</ele><time>2026-04-26T11:19:25Z</time></trkpt><trkpt lat="41.148813366548126" lon="14.493215567852262"><ele>206.25</ele><time>2026-04-26T11:19:26Z</time></trkpt><trkpt lat="41.14879485899769" lon="14.493058453803906"><ele>203.0</ele><time>2026-04-26T11:19:27Z</time></trkpt><trkpt lat="41.14881873021572" lon="14.4929077826378"><ele>203.0</ele><time>2026-04-26T11:19:28Z</time></trkpt><trkpt lat="41.148859506325465" lon="14.492734084125935"><ele>203.0</ele><time>2026-04-26T11:19:29Z</time></trkpt><trkpt lat="41.1488986790053" lon="14.492514053612501"><ele>203.0</ele><time>2026-04-26T11:19:30Z</time></trkpt><trkpt lat="41.14894976388706" lon="14.492286399133247"><ele>201.66666666666669</ele><time>2026-04-26T11:19:31Z</time></trkpt><trkpt lat="41.14900079577567" lon="14.49205512666895"><ele>200.33333333333331</ele><time>2026-04-26T11:19:32Z</time></trkpt><trkpt lat="41.14906114859302" lon="14.49182155347637"><ele>199.0</ele><time>2026-04-26T11:19:33Z</time></trkpt><trkpt lat="41.14911115936132" lon="14.491557417067659"><ele>201.0</ele><time>2026-04-26T11:19:34Z</time></trkpt><trkpt lat="41.14912080871343" lon="14.491283008630624"><ele>203.0</ele><time>2026-04-26T11:19:35Z</time></trkpt><trkpt lat="41.149124669011414" lon="14.491036811645023"><ele>205.0</ele><time>2026-04-26T11:19:36Z</time></trkpt><trkpt lat="41.1491362195675" lon="14.490802847341616"><ele>205.0</ele><time>2026-04-26T11:19:37Z</time></trkpt><trkpt lat="41.149164050533095" lon="14.490578716271662"><ele>205.0</ele><time>2026-04-26T11:19:38Z</time></trkpt><trkpt lat="41.14921330199059" lon="14.490333189618264"><ele>205.0</ele><time>2026-04-26T11:19:39Z</time></trkpt><trkpt lat="41.14929381974284" lon="14.49011662431299"><ele>203.0</ele><time>2026-04-26T11:19:40Z</time></trkpt><trkpt lat="41.149359116945874" lon="14.489849595772139"><ele>201.0</ele><time>2026-04-26T11:19:41Z</time></trkpt><trkpt lat="41.14943519653969" lon="14.489599056594647"><ele>199.0</ele><time>2026-04-26T11:19:42Z</time></trkpt><trkpt lat="41.14949836020647" lon="14.489373075435074"><ele>198.0</ele><time>2026-04-26T11:19:43Z</time></trkpt><trkpt lat="41.14955877314714" lon="14.489163900944936"><ele>197.0</ele><time>2026-04-26T11:19:44Z</time></trkpt><trkpt lat="41.149620332566876" lon="14.488965258105623"><ele>196.0</ele><time>2026-04-26T11:19:45Z</time></trkpt><trkpt lat="41.149707313818936" lon="14.488805549768664"><ele>194.33333333333331</ele><time>2026-04-26T11:19:46Z</time></trkpt><trkpt lat="41.14985742026489" lon="14.48871317393424"><ele>192.66666666666666</ele><time>2026-04-26T11:19:47Z</time></trkpt><trkpt lat="41.15003032927006" lon="14.488628140704142"><ele>191.0</ele><time>2026-04-26T11:19:48Z</time></trkpt><trkpt lat="41.150230976953495" lon="14.488520265343858"><ele>191.0</ele><time>2026-04-26T11:19:49Z</time></trkpt><trkpt lat="41.15042988091971" lon="14.488452586911079"><ele>191.0</ele><time>2026-04-26T11:19:50Z</time></trkpt><trkpt lat="41.15064586746585" lon="14.488347633976913"><ele>191.0</ele><time>2026-04-26T11:19:51Z</time></trkpt><trkpt lat="41.15087423822212" lon="14.488246932899655"><ele>191.33333333333331</ele><time>2026-04-26T11:19:52Z</time></trkpt><trkpt lat="41.15105695687828" lon="14.488155105979615"><ele>191.66666666666666</ele><time>2026-04-26T11:19:53Z</time></trkpt><trkpt lat="41.15121123861053" lon="14.488061856683816"><ele>192.0</ele><time>2026-04-26T11:19:54Z</time></trkpt><trkpt lat="41.151346279248436" lon="14.48792342624802"><ele>190.33333333333334</ele><time>2026-04-26T11:19:55Z</time></trkpt><trkpt lat="41.15146017998881" lon="14.487724148633161"><ele>188.66666666666669</ele><time>2026-04-26T11:19:56Z</time></trkpt><trkpt lat="41.15154031805893" lon="14.487443638755671"><ele>187.0</ele><time>2026-04-26T11:19:57Z</time></trkpt><trkpt lat="41.151635500594686" lon="14.487192389557606"><ele>184.66666666666669</ele><time>2026-04-26T11:19:58Z</time></trkpt><trkpt lat="41.15173626112825" lon="14.486979918672299"><ele>182.33333333333334</ele><time>2026-04-26T11:19:59Z</time></trkpt><trkpt lat="41.151863340170685" lon="14.486825548831682"><ele>180.0</ele><time>2026-04-26T11:20:00Z</time></trkpt><trkpt lat="41.152001266817535" lon="14.486705640316293"><ele>180.0</ele><time>2026-04-26T11:20:01Z</time></trkpt><trkpt lat="41.15217576466061" lon="14.486616685161394"><ele>180.0</ele><time>2026-04-26T11:20:02Z</time></trkpt><trkpt lat="41.152377662762255" lon="14.486579188109747"><ele>180.0</ele><time>2026-04-26T11:20:03Z</time></trkpt><trkpt lat="41.152609443317616" lon="14.48654553471017"><ele>181.0</ele><time>2026-04-26T11:20:04Z</time></trkpt><trkpt lat="41.15284444922334" lon="14.486487619511687"><ele>182.0</ele><time>2026-04-26T11:20:05Z</time></trkpt><trkpt lat="41.153086277828" lon="14.486457719840336"><ele>178.66666666666666</ele><time>2026-04-26T11:20:06Z</time></trkpt><trkpt lat="41.15325812405639" lon="14.486414014837283"><ele>175.33333333333334</ele><time>2026-04-26T11:20:07Z</time></trkpt><trkpt lat="41.15342024560386" lon="14.486371986311184"><ele>172.0</ele><time>2026-04-26T11:20:08Z</time></trkpt><trkpt lat="41.15355434563882" lon="14.486314798694648"><ele>172.33333333333334</ele><time>2026-04-26T11:20:09Z</time></trkpt><trkpt lat="41.153656691896515" lon="14.486189747871276"><ele>172.66666666666666</ele><time>2026-04-26T11:20:10Z</time></trkpt><trkpt lat="41.153734247110066" lon="14.486022992797773"><ele>173.0</ele><time>2026-04-26T11:20:11.001Z</time></trkpt><trkpt lat="41.15379521479" lon="14.485822379042144"><ele>173.0</ele><time>2026-04-26T11:20:12.001Z</time></trkpt><trkpt lat="41.15387334523025" lon="14.485625719964878"><ele>173.0</ele><time>2026-04-26T11:20:13.001Z</time></trkpt><trkpt lat="41.15398679597823" lon="14.485453439509342"><ele>173.0</ele><time>2026-04-26T11:20:14.001Z</time></trkpt><trkpt lat="41.15415283404579" lon="14.485323995435675"><ele>171.0</ele><time>2026-04-26T11:20:15.001Z</time></trkpt><trkpt lat="41.15434734508178" lon="14.48515494105109"><ele>169.0</ele><time>2026-04-26T11:20:16.001Z</time></trkpt><trkpt lat="41.15451710350986" lon="14.485000568717687"><ele>167.0</ele><time>2026-04-26T11:20:17.001Z</time></trkpt><trkpt lat="41.15464987456243" lon="14.484871836629026"><ele>167.0</ele><time>2026-04-26T11:20:18.001Z</time></trkpt><trkpt lat="41.1547570307999" lon="14.48475592172995"><ele>167.0</ele><time>2026-04-26T11:20:19.001Z</time></trkpt><trkpt lat="41.154826895524934" lon="14.484629867779"><ele>167.0</ele><time>2026-04-26T11:20:20.001Z</time></trkpt><trkpt lat="41.154845247277315" lon="14.484480167055834"><ele>167.0</ele><time>2026-04-26T11:20:21.001Z</time></trkpt><trkpt lat="41.15482209506416" lon="14.484307124107602"><ele>165.33333333333331</ele><time>2026-04-26T11:20:22.001Z</time></trkpt><trkpt lat="41.15473803740092" lon="14.484145606493096"><ele>163.66666666666666</ele><time>2026-04-26T11:20:23.001Z</time></trkpt><trkpt lat="41.154604535749854" lon="14.484022255037315"><ele>162.0</ele><time>2026-04-26T11:20:24.001Z</time></trkpt><trkpt lat="41.15448389331706" lon="14.483917368615275"><ele>162.0</ele><time>2026-04-26T11:20:25.001Z</time></trkpt><trkpt lat="41.15438780114527" lon="14.483832152169732"><ele>162.0</ele><time>2026-04-26T11:20:26.001Z</time></trkpt><trkpt lat="41.154315778113656" lon="14.483767796706369"><ele>162.0</ele><time>2026-04-26T11:20:27Z</time></trkpt><trkpt lat="41.154253853815256" lon="14.483692354167871"><ele>162.0</ele><time>2026-04-26T11:20:29Z</time></trkpt><trkpt lat="41.15438258774135" lon="14.483515832052523"><ele>159.75</ele><time>2026-04-26T11:20:31Z</time></trkpt><trkpt lat="41.15445141293346" lon="14.483375510048976"><ele>157.5</ele><time>2026-04-26T11:20:32Z</time></trkpt><trkpt lat="41.154538764547524" lon="14.483236136993632"><ele>155.25</ele><time>2026-04-26T11:20:33Z</time></trkpt><trkpt lat="41.15459915182476" lon="14.483079444011445"><ele>153.0</ele><time>2026-04-26T11:20:34Z</time></trkpt><trkpt lat="41.15462740093373" lon="14.482912640234897"><ele>150.75</ele><time>2026-04-26T11:20:35Z</time></trkpt><trkpt lat="41.15466202669106" lon="14.48272968374712"><ele>148.5</ele><time>2026-04-26T11:20:36Z</time></trkpt><trkpt lat="41.154722610541214" lon="14.482545742419159"><ele>146.25</ele><time>2026-04-26T11:20:37Z</time></trkpt><trkpt lat="41.15477456903963" lon="14.482364195226166"><ele>144.0</ele><time>2026-04-26T11:20:38Z</time></trkpt><trkpt lat="41.154826114623695" lon="14.482194212582261"><ele>143.75</ele><time>2026-04-26T11:20:39Z</time></trkpt><trkpt lat="41.15488390739745" lon="14.482014613139755"><ele>143.5</ele><time>2026-04-26T11:20:40Z</time></trkpt><trkpt lat="41.15493192063775" lon="14.481844259568017"><ele>143.25</ele><time>2026-04-26T11:20:41Z</time></trkpt><trkpt lat="41.15501239414775" lon="14.481697949831824"><ele>143.0</ele><time>2026-04-26T11:20:42Z</time></trkpt><trkpt lat="41.15507869892043" lon="14.481538191512621"><ele>143.0</ele><time>2026-04-26T11:20:43Z</time></trkpt><trkpt lat="41.15513573701544" lon="14.48139879257987"><ele>143.0</ele><time>2026-04-26T11:20:44Z</time></trkpt><trkpt lat="41.155189231235916" lon="14.481268053951636"><ele>143.0</ele><time>2026-04-26T11:20:45Z</time></trkpt><trkpt lat="41.15524407177126" lon="14.481132088593341"><ele>143.0</ele><time>2026-04-26T11:20:46Z</time></trkpt><trkpt lat="41.15528022785013" lon="14.481046708533658"><ele>143.0</ele><time>2026-04-26T11:20:47Z</time></trkpt><trkpt lat="41.15534421339084" lon="14.480977270839684"><ele>142.8</ele><time>2026-04-26T11:20:49Z</time></trkpt><trkpt lat="41.1554167236466" lon="14.480996239589397"><ele>142.60000000000002</ele><time>2026-04-26T11:20:50Z</time></trkpt><trkpt lat="41.155481094148925" lon="14.48105337118101"><ele>142.39999999999998</ele><time>2026-04-26T11:20:51Z</time></trkpt><trkpt lat="41.155588461578795" lon="14.481145679625604"><ele>142.2</ele><time>2026-04-26T11:20:52Z</time></trkpt><trkpt lat="41.15572659888463" lon="14.481249004155972"><ele>142.0</ele><time>2026-04-26T11:20:53Z</time></trkpt><trkpt lat="41.1558286568109" lon="14.481346839403669"><ele>142.0</ele><time>2026-04-26T11:20:54Z</time></trkpt><trkpt lat="41.15590175041118" lon="14.481406200661777"><ele>142.0</ele><time>2026-04-26T11:20:55Z</time></trkpt><trkpt lat="41.15596661057386" lon="14.481465530115667"><ele>142.0</ele><time>2026-04-26T11:20:56Z</time></trkpt><trkpt lat="41.156015979818704" lon="14.481522624141112"><ele>142.0</ele><time>2026-04-26T11:20:57Z</time></trkpt><trkpt lat="41.1561118422773" lon="14.481607458349943"><ele>142.0</ele><time>2026-04-26T11:20:59Z</time></trkpt><trkpt lat="41.156211494557276" lon="14.481669491412339"><ele>142.0</ele><time>2026-04-26T11:21:01Z</time></trkpt><trkpt lat="41.15631248557423" lon="14.481740280644203"><ele>142.0</ele><time>2026-04-26T11:21:03Z</time></trkpt><trkpt lat="41.15637898199235" lon="14.481764141617514"><ele>142.0</ele><time>2026-04-26T11:21:04Z</time></trkpt><trkpt lat="41.15645513850059" lon="14.481763666948186"><ele>142.0</ele><time>2026-04-26T11:21:05Z</time></trkpt><trkpt lat="41.15653042178443" lon="14.481740071549122"><ele>142.0</ele><time>2026-04-26T11:21:06Z</time></trkpt><trkpt lat="41.15661508414557" lon="14.481726945741173"><ele>142.0</ele><time>2026-04-26T11:21:07Z</time></trkpt><trkpt lat="41.15670180590034" lon="14.481693525438722"><ele>141.66666666666669</ele><time>2026-04-26T11:21:08Z</time></trkpt><trkpt lat="41.15678409958027" lon="14.481641606496034"><ele>141.33333333333334</ele><time>2026-04-26T11:21:09Z</time></trkpt><trkpt lat="41.15687128576466" lon="14.481615250594388"><ele>141.0</ele><time>2026-04-26T11:21:10Z</time></trkpt><trkpt lat="41.156956817018575" lon="14.481575533169787"><ele>140.66666666666666</ele><time>2026-04-26T11:21:11Z</time></trkpt><trkpt lat="41.157039194312425" lon="14.481554934798368"><ele>140.33333333333331</ele><time>2026-04-26T11:21:12Z</time></trkpt><trkpt lat="41.15710444992515" lon="14.481527192184396"><ele>140.0</ele><time>2026-04-26T11:21:13Z</time></trkpt><trkpt lat="41.1571679178972" lon="14.481505141022442"><ele>140.0</ele><time>2026-04-26T11:21:14Z</time></trkpt><trkpt lat="41.15726355524608" lon="14.481465928557446"><ele>140.0</ele><time>2026-04-26T11:21:16Z</time></trkpt><trkpt lat="41.15737318781832" lon="14.481426400544784"><ele>140.0</ele><time>2026-04-26T11:21:18Z</time></trkpt><trkpt lat="41.15744766501447" lon="14.481391124997256"><ele>140.0</ele><time>2026-04-26T11:21:19Z</time></trkpt><trkpt lat="41.157525816037825" lon="14.481362382184296"><ele>140.0</ele><time>2026-04-26T11:21:20Z</time></trkpt><trkpt lat="41.15758958404786" lon="14.48131306351965"><ele>140.0</ele><time>2026-04-26T11:21:21Z</time></trkpt><trkpt lat="41.15765342657654" lon="14.481273748728855"><ele>139.8</ele><time>2026-04-26T11:21:22Z</time></trkpt><trkpt lat="41.157741076649586" lon="14.48122140508971"><ele>139.6</ele><time>2026-04-26T11:21:24Z</time></trkpt><trkpt lat="41.157849259930835" lon="14.48115017245715"><ele>139.4</ele><time>2026-04-26T11:21:26Z</time></trkpt><trkpt lat="41.15794917132018" lon="14.481086647342671"><ele>139.2</ele><time>2026-04-26T11:21:28Z</time></trkpt><trkpt lat="41.15802491167896" lon="14.481011215878056"><ele>139.0</ele><time>2026-04-26T11:21:30Z</time></trkpt><trkpt lat="41.158130096903704" lon="14.480967299956399"><ele>138.0</ele><time>2026-04-26T11:21:32Z</time></trkpt><trkpt lat="41.15823336294623" lon="14.480917961366064"><ele>137.0</ele><time>2026-04-26T11:21:34Z</time></trkpt><trkpt lat="41.15835037070417" lon="14.480919540313991"><ele>136.0</ele><time>2026-04-26T11:21:36Z</time></trkpt><trkpt lat="41.15842508037674" lon="14.480918623114547"><ele>135.0</ele><time>2026-04-26T11:21:37Z</time></trkpt><trkpt lat="41.15849323214183" lon="14.480915118199219"><ele>134.0</ele><time>2026-04-26T11:21:38Z</time></trkpt><trkpt lat="41.158557093853176" lon="14.480914882924985"><ele>133.0</ele><time>2026-04-26T11:21:39Z</time></trkpt><trkpt lat="41.158675583648716" lon="14.480904056565448"><ele>133.0</ele><time>2026-04-26T11:21:41Z</time></trkpt><trkpt lat="41.15875653242213" lon="14.48090594476486"><ele>133.0</ele><time>2026-04-26T11:21:42Z</time></trkpt><trkpt lat="41.158830954481786" lon="14.480897227879625"><ele>133.0</ele><time>2026-04-26T11:21:43Z</time></trkpt><trkpt lat="41.15891237692747" lon="14.480901607086707"><ele>133.0</ele><time>2026-04-26T11:21:44Z</time></trkpt><trkpt lat="41.15898877318407" lon="14.480917683108558"><ele>133.0</ele><time>2026-04-26T11:21:45Z</time></trkpt><trkpt lat="41.1590591076814" lon="14.480944807768598"><ele>133.0</ele><time>2026-04-26T11:21:46Z</time></trkpt><trkpt lat="41.15914779947921" lon="14.480984055921859"><ele>131.0</ele><time>2026-04-26T11:21:47Z</time></trkpt><trkpt lat="41.159228487678895" lon="14.481018918334518"><ele>129.0</ele><time>2026-04-26T11:21:48Z</time></trkpt><trkpt lat="41.15930869627678" lon="14.481058999637428"><ele>127.0</ele><time>2026-04-26T11:21:49Z</time></trkpt><trkpt lat="41.15938670708527" lon="14.481100790693283"><ele>125.0</ele><time>2026-04-26T11:21:50Z</time></trkpt><trkpt lat="41.15946446275597" lon="14.481141061706387"><ele>123.00000000000001</ele><time>2026-04-26T11:21:51Z</time></trkpt><trkpt lat="41.159543784376574" lon="14.481177474166678"><ele>121.0</ele><time>2026-04-26T11:21:52Z</time></trkpt><trkpt lat="41.15961523209549" lon="14.481207287926333"><ele>121.00000000000001</ele><time>2026-04-26T11:21:53Z</time></trkpt><trkpt lat="41.15967885500079" lon="14.481230163645202"><ele>121.0</ele><time>2026-04-26T11:21:54Z</time></trkpt><trkpt lat="41.15974355197332" lon="14.481257417158808"><ele>121.0</ele><time>2026-04-26T11:21:56Z</time></trkpt><trkpt lat="41.15980911187085" lon="14.481281466617713"><ele>121.0</ele><time>2026-04-26T11:21:59Z</time></trkpt><trkpt lat="41.159882682960635" lon="14.48133838709998"><ele>121.00000000000001</ele><time>2026-04-26T11:22:02Z</time></trkpt><trkpt lat="41.159893828616646" lon="14.481435578694391"><ele>121.0</ele><time>2026-04-26T11:22:03Z</time></trkpt><trkpt lat="41.1599798606002" lon="14.48149500820629"><ele>119.25</ele><time>2026-04-26T11:22:05Z</time></trkpt><trkpt lat="41.1600618928458" lon="14.481505558020393"><ele>117.5</ele><time>2026-04-26T11:22:06Z</time></trkpt><trkpt lat="41.16016948300381" lon="14.481533617929164"><ele>115.75</ele><time>2026-04-26T11:22:07Z</time></trkpt><trkpt lat="41.16030989455742" lon="14.48156358936383"><ele>114.0</ele><time>2026-04-26T11:22:07.999Z</time></trkpt><trkpt lat="41.16046070585372" lon="14.481595001318787"><ele>114.0</ele><time>2026-04-26T11:22:08.999Z</time></trkpt><trkpt lat="41.16063395752524" lon="14.481627454471177"><ele>114.0</ele><time>2026-04-26T11:22:09.999Z</time></trkpt><trkpt lat="41.160846078424804" lon="14.481667592170222"><ele>114.0</ele><time>2026-04-26T11:22:10.999Z</time></trkpt><trkpt lat="41.16106869869534" lon="14.481718069821294"><ele>112.33333333333334</ele><time>2026-04-26T11:22:11.999Z</time></trkpt><trkpt lat="41.16125955498981" lon="14.481763893307392"><ele>110.66666666666667</ele><time>2026-04-26T11:22:12.999Z</time></trkpt><trkpt lat="41.16142443547427" lon="14.481810863514925"><ele>109.0</ele><time>2026-04-26T11:22:13.999Z</time></trkpt><trkpt lat="41.161573018086465" lon="14.481862309677465"><ele>108.2</ele><time>2026-04-26T11:22:14.999Z</time></trkpt><trkpt lat="41.16171258791598" lon="14.48191894737942"><ele>107.4</ele><time>2026-04-26T11:22:15.999Z</time></trkpt><trkpt lat="41.16182853314768" lon="14.481977080614199"><ele>106.6</ele><time>2026-04-26T11:22:17Z</time></trkpt><trkpt lat="41.1619227893296" lon="14.482024005286267"><ele>105.8</ele><time>2026-04-26T11:22:18Z</time></trkpt><trkpt lat="41.16199803164789" lon="14.482046326629005"><ele>105.0</ele><time>2026-04-26T11:22:19Z</time></trkpt><trkpt lat="41.1620949395276" lon="14.482016327632504"><ele>105.0</ele><time>2026-04-26T11:22:21Z</time></trkpt><trkpt lat="41.162157596122675" lon="14.481974507179782"><ele>105.0</ele><time>2026-04-26T11:22:22Z</time></trkpt><trkpt lat="41.162183818808316" lon="14.48179793192444"><ele>105.0</ele><time>2026-04-26T11:22:23Z</time></trkpt><trkpt lat="41.162220161788326" lon="14.481650740302353"><ele>105.0</ele><time>2026-04-26T11:22:24Z</time></trkpt><trkpt lat="41.16225908350187" lon="14.481467734620775"><ele>105.0</ele><time>2026-04-26T11:22:25Z</time></trkpt><trkpt lat="41.162296373906656" lon="14.48127862984877"><ele>105.0</ele><time>2026-04-26T11:22:26Z</time></trkpt><trkpt lat="41.16233451911751" lon="14.481083433646551"><ele>105.0</ele><time>2026-04-26T11:22:27Z</time></trkpt><trkpt lat="41.16235690146951" lon="14.48088135372663"><ele>105.25</ele><time>2026-04-26T11:22:28Z</time></trkpt><trkpt lat="41.16238143217973" lon="14.480687265927948"><ele>105.5</ele><time>2026-04-26T11:22:29Z</time></trkpt><trkpt lat="41.16238501607558" lon="14.480491810460844"><ele>105.75</ele><time>2026-04-26T11:22:30Z</time></trkpt><trkpt lat="41.16237396909825" lon="14.480305032214089"><ele>106.0</ele><time>2026-04-26T11:22:31Z</time></trkpt><trkpt lat="41.162362623646" lon="14.480135179990807"><ele>105.5</ele><time>2026-04-26T11:22:32Z</time></trkpt><trkpt lat="41.1623251171019" lon="14.479962179407874"><ele>105.0</ele><time>2026-04-26T11:22:33Z</time></trkpt><trkpt lat="41.16231170629868" lon="14.479787460517048"><ele>104.5</ele><time>2026-04-26T11:22:34Z</time></trkpt><trkpt lat="41.162303325779625" lon="14.479643412514909"><ele>104.0</ele><time>2026-04-26T11:22:35Z</time></trkpt><trkpt lat="41.16229168975857" lon="14.479520191433025"><ele>104.4</ele><time>2026-04-26T11:22:36Z</time></trkpt><trkpt lat="41.162291313223896" lon="14.47941276084303"><ele>104.80000000000001</ele><time>2026-04-26T11:22:37Z</time></trkpt><trkpt lat="41.1623438936372" lon="14.479286054569862"><ele>105.19999999999999</ele><time>2026-04-26T11:22:39Z</time></trkpt><trkpt lat="41.162480131690664" lon="14.479267734758443"><ele>105.6</ele><time>2026-04-26T11:22:41Z</time></trkpt><trkpt lat="41.16257723631786" lon="14.479288670119532"><ele>106.0</ele><time>2026-04-26T11:22:42Z</time></trkpt><trkpt lat="41.16268960788243" lon="14.479284203276503"><ele>106.0</ele><time>2026-04-26T11:22:43Z</time></trkpt><trkpt lat="41.16280610023508" lon="14.479314679990228"><ele>106.0</ele><time>2026-04-26T11:22:44Z</time></trkpt><trkpt lat="41.16290495235449" lon="14.479335638970923"><ele>106.0</ele><time>2026-04-26T11:22:45Z</time></trkpt><trkpt lat="41.16299776894747" lon="14.479345866247694"><ele>106.0</ele><time>2026-04-26T11:22:46Z</time></trkpt><trkpt lat="41.163093348197016" lon="14.479336570552103"><ele>106.0</ele><time>2026-04-26T11:22:47Z</time></trkpt><trkpt lat="41.163190959375626" lon="14.47931148313877"><ele>105.19999999999999</ele><time>2026-04-26T11:22:48Z</time></trkpt><trkpt lat="41.163280445541595" lon="14.479236444531484"><ele>104.39999999999999</ele><time>2026-04-26T11:22:49Z</time></trkpt><trkpt lat="41.16336154652853" lon="14.4791286667002"><ele>103.6</ele><time>2026-04-26T11:22:50Z</time></trkpt><trkpt lat="41.16343433427732" lon="14.4790220027228"><ele>102.8</ele><time>2026-04-26T11:22:51Z</time></trkpt><trkpt lat="41.16348228034215" lon="14.478944576607018"><ele>102.0</ele><time>2026-04-26T11:22:52Z</time></trkpt><trkpt lat="41.16353347045424" lon="14.47886191179647"><ele>99.8</ele><time>2026-04-26T11:22:54Z</time></trkpt><trkpt lat="41.16340490366633" lon="14.478727250222104"><ele>97.6</ele><time>2026-04-26T11:22:58Z</time></trkpt><trkpt lat="41.16334922207239" lon="14.478655210077639"><ele>95.39999999999999</ele><time>2026-04-26T11:23:03Z</time></trkpt><trkpt lat="41.16327260067823" lon="14.478587069025878"><ele>93.19999999999999</ele><time>2026-04-26T11:23:05Z</time></trkpt><trkpt lat="41.16321153472977" lon="14.478559245455036"><ele>91.0</ele><time>2026-04-26T11:23:06Z</time></trkpt><trkpt lat="41.16314849590503" lon="14.478478623977663"><ele>90.85714285714286</ele><time>2026-04-26T11:23:07Z</time></trkpt><trkpt lat="41.163074449387985" lon="14.47841854381307"><ele>90.71428571428572</ele><time>2026-04-26T11:23:08Z</time></trkpt><trkpt lat="41.16301343060245" lon="14.47836067155791"><ele>90.57142857142857</ele><time>2026-04-26T11:23:09Z</time></trkpt><trkpt lat="41.162954735696594" lon="14.478303022476393"><ele>90.42857142857143</ele><time>2026-04-26T11:23:10Z</time></trkpt><trkpt lat="41.1629705926914" lon="14.478221703463767"><ele>90.28571428571429</ele><time>2026-04-26T11:23:11Z</time></trkpt><trkpt lat="41.16300304319925" lon="14.478133883159325"><ele>90.14285714285714</ele><time>2026-04-26T11:23:12Z</time></trkpt><trkpt lat="41.163011665663376" lon="14.478035564306104"><ele>90.0</ele><time>2026-04-26T11:23:14Z</time></trkpt><trkpt lat="41.16300166036158" lon="14.478166814457"><ele>90.0</ele><time>2026-04-26T11:23:20Z</time></trkpt><trkpt lat="41.16299334009571" lon="14.478348135431176"><ele>90.0</ele><time>2026-04-26T11:23:22Z</time></trkpt><trkpt lat="41.16306759678093" lon="14.478446359166904"><ele>90.0</ele><time>2026-04-26T11:23:24Z</time></trkpt><trkpt lat="41.163204297496755" lon="14.478531282170804"><ele>90.0</ele><time>2026-04-26T11:23:26Z</time></trkpt><trkpt lat="41.16326390505951" lon="14.478591718531993"><ele>90.25</ele><time>2026-04-26T11:23:27Z</time></trkpt><trkpt lat="41.163319651714154" lon="14.478649769609198"><ele>90.5</ele><time>2026-04-26T11:23:28Z</time></trkpt><trkpt lat="41.16340873301973" lon="14.478706020049948"><ele>90.75</ele><time>2026-04-26T11:23:30Z</time></trkpt><trkpt lat="41.163487756025496" lon="14.47877378396761"><ele>91.0</ele><time>2026-04-26T11:23:32Z</time></trkpt><trkpt lat="41.16361876254332" lon="14.478597467658194"><ele>91.0</ele><time>2026-04-26T11:23:43.999Z</time></trkpt><trkpt lat="41.163666281271425" lon="14.478521201328718"><ele>91.0</ele><time>2026-04-26T11:23:44.999Z</time></trkpt><trkpt lat="41.163729557339906" lon="14.478430461207454"><ele>91.0</ele><time>2026-04-26T11:23:46.999Z</time></trkpt><trkpt lat="41.16380654869628" lon="14.478462837962217"><ele>91.0</ele><time>2026-04-26T11:23:47.999Z</time></trkpt><trkpt lat="41.16374892755481" lon="14.478377735144258"><ele>91.0</ele><time>2026-04-26T11:23:50.999Z</time></trkpt><trkpt lat="41.1636692190266" lon="14.478481257937435"><ele>91.0</ele><time>2026-04-26T11:23:52.999Z</time></trkpt><trkpt lat="41.16361063550279" lon="14.478603070002352"><ele>91.0</ele><time>2026-04-26T11:23:53.999Z</time></trkpt><trkpt lat="41.16355656684559" lon="14.478707414943921"><ele>91.0</ele><time>2026-04-26T11:23:54.999Z</time></trkpt><trkpt lat="41.16352010745678" lon="14.478783921921721"><ele>91.0</ele><time>2026-04-26T11:23:55.999Z</time></trkpt><trkpt lat="41.163452151889416" lon="14.47880829549509"><ele>91.0</ele><time>2026-04-26T11:23:57.999Z</time></trkpt><trkpt lat="41.163367772499946" lon="14.478684510457777"><ele>91.0</ele><time>2026-04-26T11:23:59.999Z</time></trkpt><trkpt lat="41.16344460303265" lon="14.478498816433422"><ele>91.0</ele><time>2026-04-26T11:24:02.999Z</time></trkpt><trkpt lat="41.163513642231194" lon="14.478410652442257"><ele>91.0</ele><time>2026-04-26T11:24:03.999Z</time></trkpt><trkpt lat="41.16358852971423" lon="14.478273875739335"><ele>91.0</ele><time>2026-04-26T11:24:04.999Z</time></trkpt><trkpt lat="41.16363421058118" lon="14.478143042162673"><ele>91.0</ele><time>2026-04-26T11:24:05.999Z</time></trkpt><trkpt lat="41.163689990374046" lon="14.478044560259915"><ele>91.0</ele><time>2026-04-26T11:24:06.999Z</time></trkpt><trkpt lat="41.163739263828624" lon="14.477985986331857"><ele>89.19999999999999</ele><time>2026-04-26T11:24:07.999Z</time></trkpt><trkpt lat="41.16378375963863" lon="14.477918724388001"><ele>87.39999999999999</ele><time>2026-04-26T11:24:08.999Z</time></trkpt><trkpt lat="41.16383250855785" lon="14.477819880104242"><ele>85.6</ele><time>2026-04-26T11:24:10.999Z</time></trkpt><trkpt lat="41.163842622356206" lon="14.47768246817386"><ele>83.8</ele><time>2026-04-26T11:24:13.999Z</time></trkpt><trkpt lat="41.16385558997205" lon="14.477574050636676"><ele>82.0</ele><time>2026-04-26T11:24:14.999Z</time></trkpt><trkpt lat="41.16380286855518" lon="14.477450392635367"><ele>82.0</ele><time>2026-04-26T11:24:15.999Z</time></trkpt><trkpt lat="41.16376645632443" lon="14.477293078871636"><ele>82.0</ele><time>2026-04-26T11:24:17.999Z</time></trkpt><trkpt lat="41.16372006961268" lon="14.47716034426678"><ele>82.0</ele><time>2026-04-26T11:24:19.999Z</time></trkpt><trkpt lat="41.16376319604347" lon="14.477085877238194"><ele>82.0</ele><time>2026-04-26T11:24:23Z</time></trkpt><trkpt lat="41.1639265691994" lon="14.477144911878137"><ele>82.0</ele><time>2026-04-26T11:24:27Z</time></trkpt><trkpt lat="41.16376807538038" lon="14.477069896781872"><ele>82.0</ele><time>2026-04-26T11:24:32Z</time></trkpt><trkpt lat="41.16372301692002" lon="14.477134057246044"><ele>82.0</ele><time>2026-04-26T11:24:35Z</time></trkpt><trkpt lat="41.16372154091907" lon="14.477219417795919"><ele>82.0</ele><time>2026-04-26T11:24:37Z</time></trkpt><trkpt lat="41.16377182831026" lon="14.477351476859535"><ele>82.0</ele><time>2026-04-26T11:24:39Z</time></trkpt><trkpt lat="41.163779006877235" lon="14.477436257291957"><ele>82.0</ele><time>2026-04-26T11:24:40Z</time></trkpt><trkpt lat="41.16378539194954" lon="14.477520755632035"><ele>82.0</ele><time>2026-04-26T11:24:41Z</time></trkpt><trkpt lat="41.16377285418133" lon="14.477638978346258"><ele>82.0</ele><time>2026-04-26T11:24:43Z</time></trkpt><trkpt lat="41.16379269861059" lon="14.477780086060374"><ele>82.0</ele><time>2026-04-26T11:24:45Z</time></trkpt><trkpt lat="41.16372396849079" lon="14.477888238143743"><ele>82.0</ele><time>2026-04-26T11:24:47Z</time></trkpt><trkpt lat="41.163662239423886" lon="14.47798251415566"><ele>83.8</ele><time>2026-04-26T11:24:48Z</time></trkpt><trkpt lat="41.16360697545966" lon="14.478108882716896"><ele>85.6</ele><time>2026-04-26T11:24:49Z</time></trkpt><trkpt lat="41.16355360212921" lon="14.478239738886677"><ele>87.39999999999999</ele><time>2026-04-26T11:24:50Z</time></trkpt><trkpt lat="41.16351519957722" lon="14.478347412897545"><ele>89.19999999999999</ele><time>2026-04-26T11:24:51Z</time></trkpt><trkpt lat="41.16345110081649" lon="14.47844035656443"><ele>91.0</ele><time>2026-04-26T11:24:52Z</time></trkpt><trkpt lat="41.16339694673718" lon="14.478497848073552"><ele>91.0</ele><time>2026-04-26T11:24:53Z</time></trkpt><trkpt lat="41.163351912098804" lon="14.478607261581422"><ele>91.0</ele><time>2026-04-26T11:24:55Z</time></trkpt><trkpt lat="41.16339631948577" lon="14.478712522968364"><ele>91.0</ele><time>2026-04-26T11:24:58Z</time></trkpt><trkpt lat="41.163416149867466" lon="14.478827930454502"><ele>91.0</ele><time>2026-04-26T11:25:00Z</time></trkpt><trkpt lat="41.16347989557288" lon="14.478819562815952"><ele>91.0</ele><time>2026-04-26T11:25:01Z</time></trkpt><trkpt lat="41.16358719193743" lon="14.47877493427624"><ele>91.0</ele><time>2026-04-26T11:25:09Z</time></trkpt><trkpt lat="41.16365377908052" lon="14.478667076326921"><ele>91.0</ele><time>2026-04-26T11:25:10Z</time></trkpt><trkpt lat="41.163721826100165" lon="14.478572671058807"><ele>91.0</ele><time>2026-04-26T11:25:11Z</time></trkpt><trkpt lat="41.16377322891404" lon="14.478500795004335"><ele>91.0</ele><time>2026-04-26T11:25:12Z</time></trkpt><trkpt lat="41.16382792762984" lon="14.478447548765116"><ele>91.0</ele><time>2026-04-26T11:25:14Z</time></trkpt><trkpt lat="41.163977942375475" lon="14.47854241292156"><ele>90.6</ele><time>2026-04-26T11:25:16Z</time></trkpt><trkpt lat="41.164073035171384" lon="14.47861996873243"><ele>90.19999999999999</ele><time>2026-04-26T11:25:17Z</time></trkpt><trkpt lat="41.16415254405001" lon="14.478692179134125"><ele>89.80000000000001</ele><time>2026-04-26T11:25:18Z</time></trkpt><trkpt lat="41.16420903473143" lon="14.47878276835081"><ele>89.4</ele><time>2026-04-26T11:25:19Z</time></trkpt><trkpt lat="41.16424549929956" lon="14.478894637142206"><ele>89.0</ele><time>2026-04-26T11:25:20Z</time></trkpt><trkpt lat="41.164280750113974" lon="14.478992105337174"><ele>89.0</ele><time>2026-04-26T11:25:21Z</time></trkpt><trkpt lat="41.164290374712614" lon="14.479083739615875"><ele>89.0</ele><time>2026-04-26T11:25:22Z</time></trkpt><trkpt lat="41.16428972333806" lon="14.479206610368655"><ele>89.0</ele><time>2026-04-26T11:25:23Z</time></trkpt><trkpt lat="41.16429542977919" lon="14.479313196005538"><ele>89.0</ele><time>2026-04-26T11:25:24Z</time></trkpt><trkpt lat="41.1643086305665" lon="14.479407492748107"><ele>89.0</ele><time>2026-04-26T11:25:25Z</time></trkpt><trkpt lat="41.16438854820983" lon="14.479499807219685"><ele>89.0</ele><time>2026-04-26T11:25:26Z</time></trkpt><trkpt lat="41.16444362503406" lon="14.479616860067159"><ele>89.2</ele><time>2026-04-26T11:25:27Z</time></trkpt><trkpt lat="41.164518041367884" lon="14.479673653846069"><ele>89.4</ele><time>2026-04-26T11:25:28Z</time></trkpt><trkpt lat="41.164601777124965" lon="14.479718706956813"><ele>89.6</ele><time>2026-04-26T11:25:29Z</time></trkpt><trkpt lat="41.164702047799366" lon="14.479748425995112"><ele>89.8</ele><time>2026-04-26T11:25:30Z</time></trkpt><trkpt lat="41.16482098764911" lon="14.479770482186446"><ele>90.0</ele><time>2026-04-26T11:25:31Z</time></trkpt><trkpt lat="41.1649542484944" lon="14.479778165529416"><ele>86.4</ele><time>2026-04-26T11:25:32Z</time></trkpt><trkpt lat="41.16507318482821" lon="14.479774370021333"><ele>82.8</ele><time>2026-04-26T11:25:32.999Z</time></trkpt><trkpt lat="41.16517939738046" lon="14.479749973315194"><ele>79.2</ele><time>2026-04-26T11:25:33.999Z</time></trkpt><trkpt lat="41.16527570470505" lon="14.479730750136799"><ele>75.6</ele><time>2026-04-26T11:25:34.999Z</time></trkpt><trkpt lat="41.165379785596876" lon="14.47972499221424"><ele>72.0</ele><time>2026-04-26T11:25:35.999Z</time></trkpt><trkpt lat="41.16547873398468" lon="14.479694969279121"><ele>72.0</ele><time>2026-04-26T11:25:36.999Z</time></trkpt><trkpt lat="41.16559955697332" lon="14.479647113744143"><ele>72.0</ele><time>2026-04-26T11:25:37.999Z</time></trkpt><trkpt lat="41.16571430056264" lon="14.479586008217629"><ele>72.0</ele><time>2026-04-26T11:25:38.999Z</time></trkpt><trkpt lat="41.16584860295996" lon="14.479508611152085"><ele>72.0</ele><time>2026-04-26T11:25:39.999Z</time></trkpt><trkpt lat="41.16601117154412" lon="14.479482753608094"><ele>70.25</ele><time>2026-04-26T11:25:40.999Z</time></trkpt><trkpt lat="41.166152399333704" lon="14.479451004710638"><ele>68.5</ele><time>2026-04-26T11:25:41.999Z</time></trkpt><trkpt lat="41.16627241124255" lon="14.479400415216283"><ele>66.75</ele><time>2026-04-26T11:25:42.999Z</time></trkpt><trkpt lat="41.166370773218965" lon="14.479372529861775"><ele>65.0</ele><time>2026-04-26T11:25:43.999Z</time></trkpt><trkpt lat="41.16645358686088" lon="14.47939441067338"><ele>63.0</ele><time>2026-04-26T11:25:44.999Z</time></trkpt><trkpt lat="41.166541991729986" lon="14.479429496051871"><ele>61.0</ele><time>2026-04-26T11:25:45.999Z</time></trkpt><trkpt lat="41.166636637713566" lon="14.479514016626046"><ele>59.0</ele><time>2026-04-26T11:25:46.999Z</time></trkpt><trkpt lat="41.16674611158626" lon="14.479584802874147"><ele>57.0</ele><time>2026-04-26T11:25:47.999Z</time></trkpt><trkpt lat="41.16683931910366" lon="14.47966530975964"><ele>55.0</ele><time>2026-04-26T11:25:48.999Z</time></trkpt><trkpt lat="41.16696009623703" lon="14.479739523287023"><ele>54.6</ele><time>2026-04-26T11:25:49.999Z</time></trkpt><trkpt lat="41.16707384321096" lon="14.479792243598464"><ele>54.2</ele><time>2026-04-26T11:25:50.999Z</time></trkpt><trkpt lat="41.1671830653829" lon="14.47980778855631"><ele>53.8</ele><time>2026-04-26T11:25:51.999Z</time></trkpt><trkpt lat="41.16728941914344" lon="14.479821307148155"><ele>53.4</ele><time>2026-04-26T11:25:52.999Z</time></trkpt><trkpt lat="41.16738637640943" lon="14.479798191826545"><ele>53.0</ele><time>2026-04-26T11:25:53.999Z</time></trkpt><trkpt lat="41.16747384567677" lon="14.479775242484267"><ele>54.75</ele><time>2026-04-26T11:25:54.999Z</time></trkpt><trkpt lat="41.16754711450426" lon="14.479740521750399"><ele>56.5</ele><time>2026-04-26T11:25:56.999Z</time></trkpt><trkpt lat="41.16756892672278" lon="14.479576309257089"><ele>58.25</ele><time>2026-04-26T11:25:59.999Z</time></trkpt><trkpt lat="41.16755633439762" lon="14.479395815157503"><ele>60.0</ele><time>2026-04-26T11:26:00.999Z</time></trkpt><trkpt lat="41.16753401220373" lon="14.47922962712227"><ele>60.0</ele><time>2026-04-26T11:26:01.999Z</time></trkpt><trkpt lat="41.1675063725563" lon="14.479026766596364"><ele>60.0</ele><time>2026-04-26T11:26:02.999Z</time></trkpt><trkpt lat="41.167471961609465" lon="14.478787846650405"><ele>60.0</ele><time>2026-04-26T11:26:03.999Z</time></trkpt><trkpt lat="41.16741590507328" lon="14.478500084299101"><ele>60.33333333333333</ele><time>2026-04-26T11:26:04.999Z</time></trkpt><trkpt lat="41.167390267761576" lon="14.478215209891772"><ele>60.666666666666664</ele><time>2026-04-26T11:26:05.999Z</time></trkpt><trkpt lat="41.16736245702722" lon="14.477951779589548"><ele>61.0</ele><time>2026-04-26T11:26:06.999Z</time></trkpt><trkpt lat="41.167367261209" lon="14.477823913926786"><ele>61.0</ele><time>2026-04-26T11:26:07.999Z</time></trkpt><trkpt lat="41.167370462292304" lon="14.47761960377992"><ele>61.0</ele><time>2026-04-26T11:26:08.999Z</time></trkpt><trkpt lat="41.167377704647116" lon="14.477450093029589"><ele>61.0</ele><time>2026-04-26T11:26:09.999Z</time></trkpt><trkpt lat="41.1673953010167" lon="14.477302512785093"><ele>61.0</ele><time>2026-04-26T11:26:10.999Z</time></trkpt><trkpt lat="41.167415162727636" lon="14.47717516598534"><ele>60.25</ele><time>2026-04-26T11:26:11.999Z</time></trkpt><trkpt lat="41.167410264089995" lon="14.477032149559431"><ele>59.5</ele><time>2026-04-26T11:26:12.999Z</time></trkpt><trkpt lat="41.167420226164374" lon="14.476844174515561"><ele>58.75</ele><time>2026-04-26T11:26:13.999Z</time></trkpt><trkpt lat="41.1674333715067" lon="14.476610289458387"><ele>58.0</ele><time>2026-04-26T11:26:14.999Z</time></trkpt><trkpt lat="41.167466072317325" lon="14.476302025436246"><ele>57.0</ele><time>2026-04-26T11:26:15.999Z</time></trkpt><trkpt lat="41.167470904513834" lon="14.476055603262935"><ele>56.0</ele><time>2026-04-26T11:26:16.999Z</time></trkpt><trkpt lat="41.16749005645666" lon="14.475807966037122"><ele>55.0</ele><time>2026-04-26T11:26:17.999Z</time></trkpt><trkpt lat="41.16750042706597" lon="14.475546787562969"><ele>54.33333333333333</ele><time>2026-04-26T11:26:18.999Z</time></trkpt><trkpt lat="41.16751792059846" lon="14.475278944483195"><ele>53.66666666666667</ele><time>2026-04-26T11:26:19.999Z</time></trkpt><trkpt lat="41.16753936906488" lon="14.475013865420227"><ele>53.0</ele><time>2026-04-26T11:26:20.999Z</time></trkpt><trkpt lat="41.16756556802655" lon="14.474759364799855"><ele>52.0</ele><time>2026-04-26T11:26:21.999Z</time></trkpt><trkpt lat="41.16765610048997" lon="14.474281070121508"><ele>51.0</ele><time>2026-04-26T11:26:23.999Z</time></trkpt><trkpt lat="41.16771032097394" lon="14.474043805119981"><ele>51.0</ele><time>2026-04-26T11:26:24.999Z</time></trkpt><trkpt lat="41.167772673855545" lon="14.473808680690391"><ele>51.0</ele><time>2026-04-26T11:26:25.999Z</time></trkpt><trkpt lat="41.16785059986528" lon="14.473583854708686"><ele>51.0</ele><time>2026-04-26T11:26:26.999Z</time></trkpt><trkpt lat="41.167937839964814" lon="14.473376460458404"><ele>49.666666666666664</ele><time>2026-04-26T11:26:27.999Z</time></trkpt><trkpt lat="41.16801112043434" lon="14.473166826948104"><ele>48.33333333333333</ele><time>2026-04-26T11:26:29Z</time></trkpt><trkpt lat="41.16805210798558" lon="14.472967129582825"><ele>47.0</ele><time>2026-04-26T11:26:30Z</time></trkpt><trkpt lat="41.16806104147334" lon="14.472769034955522"><ele>46.33333333333333</ele><time>2026-04-26T11:26:31Z</time></trkpt><trkpt lat="41.1680413290625" lon="14.472566032859904"><ele>45.666666666666664</ele><time>2026-04-26T11:26:32Z</time></trkpt><trkpt lat="41.168019023423426" lon="14.472357706959862"><ele>45.0</ele><time>2026-04-26T11:26:33Z</time></trkpt><trkpt lat="41.16799209632861" lon="14.472163641351711"><ele>45.0</ele><time>2026-04-26T11:26:34Z</time></trkpt><trkpt lat="41.167989887248446" lon="14.471993732090397"><ele>45.0</ele><time>2026-04-26T11:26:35Z</time></trkpt><trkpt lat="41.1680198840654" lon="14.471845342073465"><ele>45.0</ele><time>2026-04-26T11:26:36Z</time></trkpt><trkpt lat="41.168066032682866" lon="14.471712935094915"><ele>45.0</ele><time>2026-04-26T11:26:37Z</time></trkpt><trkpt lat="41.16811308699778" lon="14.471592644386257"><ele>45.0</ele><time>2026-04-26T11:26:38Z</time></trkpt><trkpt lat="41.168136502141024" lon="14.471426231518446"><ele>45.0</ele><time>2026-04-26T11:26:39Z</time></trkpt><trkpt lat="41.16809991579076" lon="14.471243290854384"><ele>45.0</ele><time>2026-04-26T11:26:40Z</time></trkpt><trkpt lat="41.16805757987178" lon="14.47101920600662"><ele>45.0</ele><time>2026-04-26T11:26:41Z</time></trkpt><trkpt lat="41.16800265465825" lon="14.470744036133123"><ele>45.5</ele><time>2026-04-26T11:26:42Z</time></trkpt><trkpt lat="41.16794784821275" lon="14.470462584517493"><ele>46.0</ele><time>2026-04-26T11:26:43Z</time></trkpt><trkpt lat="41.16788889698832" lon="14.470149217434988"><ele>45.0</ele><time>2026-04-26T11:26:44Z</time></trkpt><trkpt lat="41.16783019381523" lon="14.469840352453113"><ele>44.0</ele><time>2026-04-26T11:26:45Z</time></trkpt><trkpt lat="41.16777836169317" lon="14.469572664759136"><ele>43.0</ele><time>2026-04-26T11:26:46Z</time></trkpt><trkpt lat="41.167735890184844" lon="14.469353320095445"><ele>43.0</ele><time>2026-04-26T11:26:47Z</time></trkpt><trkpt lat="41.1676905379852" lon="14.469125002758567"><ele>43.0</ele><time>2026-04-26T11:26:48Z</time></trkpt><trkpt lat="41.167648371854966" lon="14.468925808055674"><ele>43.0</ele><time>2026-04-26T11:26:49Z</time></trkpt><trkpt lat="41.167622382393944" lon="14.468784550080365"><ele>43.0</ele><time>2026-04-26T11:26:50Z</time></trkpt><trkpt lat="41.16761798524598" lon="14.468608079629854"><ele>42.75</ele><time>2026-04-26T11:26:51Z</time></trkpt><trkpt lat="41.167611603621" lon="14.468453943120599"><ele>42.5</ele><time>2026-04-26T11:26:52Z</time></trkpt><trkpt lat="41.167654129304545" lon="14.468308013346222"><ele>42.25</ele><time>2026-04-26T11:26:53Z</time></trkpt><trkpt lat="41.167704181844925" lon="14.468173729253683"><ele>42.0</ele><time>2026-04-26T11:26:54Z</time></trkpt><trkpt lat="41.16778267466243" lon="14.468040382240344"><ele>41.6</ele><time>2026-04-26T11:26:55Z</time></trkpt><trkpt lat="41.167847645509084" lon="14.467924680171892"><ele>41.2</ele><time>2026-04-26T11:26:56Z</time></trkpt><trkpt lat="41.16789805902676" lon="14.46782405190317"><ele>40.8</ele><time>2026-04-26T11:26:57Z</time></trkpt><trkpt lat="41.16794512895932" lon="14.467742125565264"><ele>40.4</ele><time>2026-04-26T11:26:58Z</time></trkpt><trkpt lat="41.16799456377452" lon="14.467676115968132"><ele>40.0</ele><time>2026-04-26T11:27:00Z</time></trkpt><trkpt lat="41.16813923849695" lon="14.467820620750775"><ele>40.0</ele><time>2026-04-26T11:27:02Z</time></trkpt><trkpt lat="41.16825810788022" lon="14.467953510769274"><ele>40.0</ele><time>2026-04-26T11:27:03Z</time></trkpt><trkpt lat="41.16836092892417" lon="14.468065601606401"><ele>40.0</ele><time>2026-04-26T11:27:04Z</time></trkpt><trkpt lat="41.16848912386478" lon="14.468191524602359"><ele>40.0</ele><time>2026-04-26T11:27:05Z</time></trkpt><trkpt lat="41.168634203701" lon="14.468340241149752"><ele>40.0</ele><time>2026-04-26T11:27:06Z</time></trkpt><trkpt lat="41.1687814656843" lon="14.46850216489246"><ele>40.0</ele><time>2026-04-26T11:27:07Z</time></trkpt><trkpt lat="41.16893736622028" lon="14.468681240013266"><ele>40.0</ele><time>2026-04-26T11:27:08Z</time></trkpt><trkpt lat="41.16908558675095" lon="14.468856756492395"><ele>41.0</ele><time>2026-04-26T11:27:09Z</time></trkpt><trkpt lat="41.16922985586322" lon="14.469023618900467"><ele>42.0</ele><time>2026-04-26T11:27:10Z</time></trkpt><trkpt lat="41.16939127921435" lon="14.469207376198854"><ele>43.0</ele><time>2026-04-26T11:27:11Z</time></trkpt><trkpt lat="41.169569457552846" lon="14.469414485663762"><ele>43.0</ele><time>2026-04-26T11:27:12Z</time></trkpt><trkpt lat="41.169764182356786" lon="14.469644172303752"><ele>43.0</ele><time>2026-04-26T11:27:13Z</time></trkpt><trkpt lat="41.16994790885257" lon="14.469865188970081"><ele>43.66666666666667</ele><time>2026-04-26T11:27:14Z</time></trkpt><trkpt lat="41.17013415959748" lon="14.470049388037957"><ele>44.333333333333336</ele><time>2026-04-26T11:27:15Z</time></trkpt><trkpt lat="41.17030628768197" lon="14.470203941897449"><ele>45.0</ele><time>2026-04-26T11:27:16Z</time></trkpt><trkpt lat="41.170481921037805" lon="14.470352936877521"><ele>44.666666666666664</ele><time>2026-04-26T11:27:17Z</time></trkpt><trkpt lat="41.17065451563606" lon="14.470503847939439"><ele>44.33333333333333</ele><time>2026-04-26T11:27:18Z</time></trkpt><trkpt lat="41.17083083634615" lon="14.470657882180058"><ele>44.0</ele><time>2026-04-26T11:27:19Z</time></trkpt><trkpt lat="41.17099370113256" lon="14.470815825359145"><ele>45.666666666666664</ele><time>2026-04-26T11:27:20Z</time></trkpt><trkpt lat="41.171134799834995" lon="14.47097322833479"><ele>47.33333333333333</ele><time>2026-04-26T11:27:21Z</time></trkpt><trkpt lat="41.17125037293382" lon="14.47112401456266"><ele>49.0</ele><time>2026-04-26T11:27:22Z</time></trkpt><trkpt lat="41.17135687739764" lon="14.47126741755215"><ele>49.25</ele><time>2026-04-26T11:27:23Z</time></trkpt><trkpt lat="41.171447166707644" lon="14.47137440424414"><ele>49.5</ele><time>2026-04-26T11:27:24Z</time></trkpt><trkpt lat="41.17151583167192" lon="14.471457655282881"><ele>49.75</ele><time>2026-04-26T11:27:25Z</time></trkpt><trkpt lat="41.17156545473231" lon="14.471526418048326"><ele>50.0</ele><time>2026-04-26T11:27:26Z</time></trkpt><trkpt lat="41.17173293893457" lon="14.471410540800832"><ele>50.0</ele><time>2026-04-26T11:27:28Z</time></trkpt><trkpt lat="41.17178601679979" lon="14.471313242953366"><ele>50.0</ele><time>2026-04-26T11:27:29Z</time></trkpt><trkpt lat="41.17182670854912" lon="14.471196660327365"><ele>50.0</ele><time>2026-04-26T11:27:30Z</time></trkpt><trkpt lat="41.171904671716725" lon="14.471068641778201"><ele>50.0</ele><time>2026-04-26T11:27:31Z</time></trkpt><trkpt lat="41.17202802210393" lon="14.470882308289331"><ele>50.0</ele><time>2026-04-26T11:27:32Z</time></trkpt><trkpt lat="41.172179898393026" lon="14.470689580452909"><ele>50.0</ele><time>2026-04-26T11:27:32.999Z</time></trkpt><trkpt lat="41.17229472509736" lon="14.470452026026607"><ele>50.0</ele><time>2026-04-26T11:27:33.999Z</time></trkpt><trkpt lat="41.172397676632606" lon="14.470250453944594"><ele>49.0</ele><time>2026-04-26T11:27:34.999Z</time></trkpt><trkpt lat="41.172487107314446" lon="14.470059709134759"><ele>48.0</ele><time>2026-04-26T11:27:35.999Z</time></trkpt><trkpt lat="41.17256918333336" lon="14.469880337290766"><ele>47.0</ele><time>2026-04-26T11:27:36.999Z</time></trkpt><trkpt lat="41.17264269448425" lon="14.469721283531598"><ele>46.75</ele><time>2026-04-26T11:27:37.999Z</time></trkpt><trkpt lat="41.172716817661296" lon="14.469584762623905"><ele>46.5</ele><time>2026-04-26T11:27:38.999Z</time></trkpt><trkpt lat="41.17279833598676" lon="14.469471168596103"><ele>46.25</ele><time>2026-04-26T11:27:39.999Z</time></trkpt><trkpt lat="41.17285642427638" lon="14.469353167702884"><ele>46.0</ele><time>2026-04-26T11:27:40.999Z</time></trkpt><trkpt lat="41.17304011826252" lon="14.469356818558504"><ele>44.66666666666667</ele><time>2026-04-26T11:27:41.999Z</time></trkpt><trkpt lat="41.17319624331875" lon="14.46935050740553"><ele>43.333333333333336</ele><time>2026-04-26T11:27:42.999Z</time></trkpt><trkpt lat="41.17334820267636" lon="14.469412356705185"><ele>42.0</ele><time>2026-04-26T11:27:43.999Z</time></trkpt><trkpt lat="41.17350213421496" lon="14.469538629099969"><ele>42.0</ele><time>2026-04-26T11:27:44.999Z</time></trkpt><trkpt lat="41.17368124448293" lon="14.46963304981668"><ele>42.0</ele><time>2026-04-26T11:27:45.999Z</time></trkpt><trkpt lat="41.17387608501862" lon="14.46972699187905"><ele>42.0</ele><time>2026-04-26T11:27:46.999Z</time></trkpt><trkpt lat="41.17405802365262" lon="14.46982350253789"><ele>42.0</ele><time>2026-04-26T11:27:47.999Z</time></trkpt><trkpt lat="41.17424552857073" lon="14.469932794781226"><ele>42.0</ele><time>2026-04-26T11:27:48.999Z</time></trkpt><trkpt lat="41.17443445009555" lon="14.470042093219158"><ele>42.0</ele><time>2026-04-26T11:27:49.999Z</time></trkpt><trkpt lat="41.174621298624864" lon="14.47011647732432"><ele>42.0</ele><time>2026-04-26T11:27:50.999Z</time></trkpt><trkpt lat="41.17480947568219" lon="14.47027781789361"><ele>42.0</ele><time>2026-04-26T11:27:51.999Z</time></trkpt><trkpt lat="41.17500450792953" lon="14.470400935952432"><ele>42.0</ele><time>2026-04-26T11:27:52.999Z</time></trkpt><trkpt lat="41.17520433085156" lon="14.470521581449745"><ele>42.5</ele><time>2026-04-26T11:27:53.999Z</time></trkpt><trkpt lat="41.17541269415002" lon="14.470647699852618"><ele>43.0</ele><time>2026-04-26T11:27:54.999Z</time></trkpt><trkpt lat="41.17562409216856" lon="14.470780401912426"><ele>42.5</ele><time>2026-04-26T11:27:55.999Z</time></trkpt><trkpt lat="41.17585016108112" lon="14.470913753830807"><ele>42.0</ele><time>2026-04-26T11:27:56.999Z</time></trkpt><trkpt lat="41.176330591623135" lon="14.471199103656813"><ele>43.0</ele><time>2026-04-26T11:27:58.999Z</time></trkpt><trkpt lat="41.17657077115763" lon="14.47134311325734"><ele>44.0</ele><time>2026-04-26T11:27:59.999Z</time></trkpt><trkpt lat="41.176801884555054" lon="14.471476441996764"><ele>44.0</ele><time>2026-04-26T11:28:00.999Z</time></trkpt><trkpt lat="41.17702767872395" lon="14.47160496709153"><ele>44.0</ele><time>2026-04-26T11:28:01.999Z</time></trkpt><trkpt lat="41.17725204858088" lon="14.471732427894153"><ele>42.0</ele><time>2026-04-26T11:28:02.999Z</time></trkpt><trkpt lat="41.17746666390357" lon="14.471851116439993"><ele>40.0</ele><time>2026-04-26T11:28:03.999Z</time></trkpt><trkpt lat="41.17766804574275" lon="14.471964666518838"><ele>40.0</ele><time>2026-04-26T11:28:04.999Z</time></trkpt><trkpt lat="41.17785407258855" lon="14.472069940312096"><ele>40.0</ele><time>2026-04-26T11:28:05.999Z</time></trkpt><trkpt lat="41.17802860754688" lon="14.472171303678797"><ele>40.0</ele><time>2026-04-26T11:28:06.999Z</time></trkpt><trkpt lat="41.17819636227225" lon="14.472266572324815"><ele>40.0</ele><time>2026-04-26T11:28:07.999Z</time></trkpt><trkpt lat="41.17834870326066" lon="14.472363814911338"><ele>40.0</ele><time>2026-04-26T11:28:08.999Z</time></trkpt><trkpt lat="41.17852829766381" lon="14.472470289172284"><ele>40.0</ele><time>2026-04-26T11:28:09.999Z</time></trkpt><trkpt lat="41.17872153224303" lon="14.47258215939338"><ele>40.0</ele><time>2026-04-26T11:28:10.999Z</time></trkpt><trkpt lat="41.17892368492999" lon="14.472682647052709"><ele>40.0</ele><time>2026-04-26T11:28:11.999Z</time></trkpt><trkpt lat="41.17910921153474" lon="14.472798600729824"><ele>40.0</ele><time>2026-04-26T11:28:12.999Z</time></trkpt><trkpt lat="41.179301085534966" lon="14.472903094439838"><ele>40.333333333333336</ele><time>2026-04-26T11:28:13.999Z</time></trkpt><trkpt lat="41.179491249454436" lon="14.473003978212079"><ele>40.666666666666664</ele><time>2026-04-26T11:28:14.999Z</time></trkpt><trkpt lat="41.17967946439487" lon="14.473135227007921"><ele>41.0</ele><time>2026-04-26T11:28:15.999Z</time></trkpt><trkpt lat="41.17988190969673" lon="14.473247164187976"><ele>40.33333333333333</ele><time>2026-04-26T11:28:16.999Z</time></trkpt><trkpt lat="41.18008965020088" lon="14.473336924158593"><ele>39.666666666666664</ele><time>2026-04-26T11:28:17.999Z</time></trkpt><trkpt lat="41.18028191880233" lon="14.473430857852597"><ele>39.0</ele><time>2026-04-26T11:28:18.999Z</time></trkpt><trkpt lat="41.18047594600537" lon="14.47350211109367"><ele>39.5</ele><time>2026-04-26T11:28:19.999Z</time></trkpt><trkpt lat="41.18068775566135" lon="14.473587151520048"><ele>40.0</ele><time>2026-04-26T11:28:20.999Z</time></trkpt><trkpt lat="41.18092454410815" lon="14.47362559853229"><ele>40.0</ele><time>2026-04-26T11:28:21.999Z</time></trkpt><trkpt lat="41.181184006605726" lon="14.473681518381433"><ele>40.0</ele><time>2026-04-26T11:28:22.999Z</time></trkpt><trkpt lat="41.18147024983391" lon="14.473711714320144"><ele>39.5</ele><time>2026-04-26T11:28:23.999Z</time></trkpt><trkpt lat="41.18172641220043" lon="14.473704489263548"><ele>39.0</ele><time>2026-04-26T11:28:24.999Z</time></trkpt><trkpt lat="41.18192129764296" lon="14.473677901957657"><ele>39.0</ele><time>2026-04-26T11:28:25.999Z</time></trkpt><trkpt lat="41.18208454411887" lon="14.47366123499506"><ele>39.0</ele><time>2026-04-26T11:28:26.999Z</time></trkpt><trkpt lat="41.182235308611794" lon="14.473635424984431"><ele>39.0</ele><time>2026-04-26T11:28:27.999Z</time></trkpt><trkpt lat="41.18272131940128" lon="14.473519874413094"><ele>39.0</ele><time>2026-04-26T11:28:28.999Z</time></trkpt><trkpt lat="41.18297797339553" lon="14.473449124294858"><ele>39.0</ele><time>2026-04-26T11:28:29.999Z</time></trkpt><trkpt lat="41.18325584624086" lon="14.47337643725065"><ele>37.5</ele><time>2026-04-26T11:28:30.999Z</time></trkpt><trkpt lat="41.18355148912446" lon="14.473297637984793"><ele>36.0</ele><time>2026-04-26T11:28:31.999Z</time></trkpt><trkpt lat="41.183842077382266" lon="14.473222393790206"><ele>37.0</ele><time>2026-04-26T11:28:32.999Z</time></trkpt><trkpt lat="41.18409761100874" lon="14.473137167745218"><ele>38.0</ele><time>2026-04-26T11:28:33.999Z</time></trkpt><trkpt lat="41.184348806012835" lon="14.473077925223494"><ele>38.0</ele><time>2026-04-26T11:28:35Z</time></trkpt><trkpt lat="41.18460074089489" lon="14.47303980628042"><ele>38.0</ele><time>2026-04-26T11:28:36Z</time></trkpt><trkpt lat="41.18484799799224" lon="14.473002174143387"><ele>38.5</ele><time>2026-04-26T11:28:37Z</time></trkpt><trkpt lat="41.18509093326077" lon="14.472981841842229"><ele>39.0</ele><time>2026-04-26T11:28:38Z</time></trkpt><trkpt lat="41.185314966032195" lon="14.472978134068596"><ele>39.0</ele><time>2026-04-26T11:28:39Z</time></trkpt><trkpt lat="41.185520635020794" lon="14.472992190178887"><ele>39.0</ele><time>2026-04-26T11:28:40Z</time></trkpt><trkpt lat="41.18572021104724" lon="14.473019200065869"><ele>39.0</ele><time>2026-04-26T11:28:41Z</time></trkpt><trkpt lat="41.1858971634375" lon="14.473048457486266"><ele>39.333333333333336</ele><time>2026-04-26T11:28:42Z</time></trkpt><trkpt lat="41.186064167150036" lon="14.473086416222072"><ele>39.66666666666667</ele><time>2026-04-26T11:28:43Z</time></trkpt><trkpt lat="41.18622650490313" lon="14.473122640510171"><ele>40.0</ele><time>2026-04-26T11:28:44Z</time></trkpt><trkpt lat="41.18640106119361" lon="14.473150599807287"><ele>39.66666666666667</ele><time>2026-04-26T11:28:45Z</time></trkpt><trkpt lat="41.18657500612194" lon="14.47322997494115"><ele>39.333333333333336</ele><time>2026-04-26T11:28:46Z</time></trkpt><trkpt lat="41.186748930339505" lon="14.473315436061817"><ele>39.0</ele><time>2026-04-26T11:28:47Z</time></trkpt><trkpt lat="41.18691401359303" lon="14.473396231924898"><ele>39.0</ele><time>2026-04-26T11:28:48Z</time></trkpt><trkpt lat="41.1870685014593" lon="14.473478260869527"><ele>39.0</ele><time>2026-04-26T11:28:49Z</time></trkpt><trkpt lat="41.18723300641755" lon="14.473567344425124"><ele>39.0</ele><time>2026-04-26T11:28:50Z</time></trkpt><trkpt lat="41.187393589425454" lon="14.473654358673274"><ele>39.333333333333336</ele><time>2026-04-26T11:28:51Z</time></trkpt><trkpt lat="41.18755013905698" lon="14.473751872364444"><ele>39.66666666666667</ele><time>2026-04-26T11:28:52Z</time></trkpt><trkpt lat="41.1877109755044" lon="14.473840754828219"><ele>40.0</ele><time>2026-04-26T11:28:53Z</time></trkpt><trkpt lat="41.187877211195186" lon="14.47392200385889"><ele>40.333333333333336</ele><time>2026-04-26T11:28:54Z</time></trkpt><trkpt lat="41.188024195902265" lon="14.474025775070452"><ele>40.666666666666664</ele><time>2026-04-26T11:28:55Z</time></trkpt><trkpt lat="41.188187286261424" lon="14.474094585792534"><ele>41.0</ele><time>2026-04-26T11:28:56Z</time></trkpt><trkpt lat="41.18834294059634" lon="14.474170974134722"><ele>41.0</ele><time>2026-04-26T11:28:57Z</time></trkpt><trkpt lat="41.18850120451325" lon="14.474259214054628"><ele>41.0</ele><time>2026-04-26T11:28:58Z</time></trkpt><trkpt lat="41.18866591053616" lon="14.474343334246694"><ele>41.0</ele><time>2026-04-26T11:28:59Z</time></trkpt><trkpt lat="41.18882684260316" lon="14.474426756034513"><ele>41.0</ele><time>2026-04-26T11:29:00Z</time></trkpt><trkpt lat="41.188992129865426" lon="14.474510263557187"><ele>41.0</ele><time>2026-04-26T11:29:01Z</time></trkpt><trkpt lat="41.18915405329991" lon="14.4745932724147"><ele>41.0</ele><time>2026-04-26T11:29:02Z</time></trkpt><trkpt lat="41.18931572355527" lon="14.47467841815606"><ele>40.666666666666664</ele><time>2026-04-26T11:29:03Z</time></trkpt><trkpt lat="41.18947126071965" lon="14.474762847171927"><ele>40.333333333333336</ele><time>2026-04-26T11:29:04Z</time></trkpt><trkpt lat="41.18963533811436" lon="14.474849622346648"><ele>40.0</ele><time>2026-04-26T11:29:05Z</time></trkpt><trkpt lat="41.18979930994955" lon="14.47493265372822"><ele>40.66666666666667</ele><time>2026-04-26T11:29:06Z</time></trkpt><trkpt lat="41.189965032129194" lon="14.47501867794241"><ele>41.333333333333336</ele><time>2026-04-26T11:29:07Z</time></trkpt><trkpt lat="41.190140429972935" lon="14.475105884688524"><ele>42.0</ele><time>2026-04-26T11:29:08Z</time></trkpt><trkpt lat="41.190317602145285" lon="14.47519406127183"><ele>42.0</ele><time>2026-04-26T11:29:09Z</time></trkpt><trkpt lat="41.190493191114335" lon="14.47528085513221"><ele>42.0</ele><time>2026-04-26T11:29:10Z</time></trkpt><trkpt lat="41.19065823682582" lon="14.475363047767946"><ele>42.0</ele><time>2026-04-26T11:29:11Z</time></trkpt><trkpt lat="41.190819258154555" lon="14.475447744260805"><ele>42.0</ele><time>2026-04-26T11:29:12Z</time></trkpt><trkpt lat="41.190995684365035" lon="14.475538661833545"><ele>42.0</ele><time>2026-04-26T11:29:13Z</time></trkpt><trkpt lat="41.1911713428255" lon="14.475627950003524"><ele>42.0</ele><time>2026-04-26T11:29:14Z</time></trkpt><trkpt lat="41.19134899799148" lon="14.475718467114522"><ele>41.333333333333336</ele><time>2026-04-26T11:29:15Z</time></trkpt><trkpt lat="41.19151038056814" lon="14.475810626474845"><ele>40.66666666666667</ele><time>2026-04-26T11:29:16Z</time></trkpt><trkpt lat="41.19167490745752" lon="14.475899245600544"><ele>40.0</ele><time>2026-04-26T11:29:17Z</time></trkpt><trkpt lat="41.191831038697366" lon="14.475993896903582"><ele>40.0</ele><time>2026-04-26T11:29:18Z</time></trkpt><trkpt lat="41.19198177642218" lon="14.476085990766213"><ele>40.0</ele><time>2026-04-26T11:29:19Z</time></trkpt><trkpt lat="41.19214018975858" lon="14.476179919566631"><ele>40.0</ele><time>2026-04-26T11:29:20Z</time></trkpt><trkpt lat="41.19229477647964" lon="14.476283863023765"><ele>40.333333333333336</ele><time>2026-04-26T11:29:21Z</time></trkpt><trkpt lat="41.192442147433454" lon="14.476396618242152"><ele>40.666666666666664</ele><time>2026-04-26T11:29:22Z</time></trkpt><trkpt lat="41.19259898849419" lon="14.476522129308377"><ele>41.0</ele><time>2026-04-26T11:29:23Z</time></trkpt><trkpt lat="41.19275925368949" lon="14.476652468628934"><ele>41.0</ele><time>2026-04-26T11:29:24Z</time></trkpt><trkpt lat="41.192910824928646" lon="14.476788305279786"><ele>41.0</ele><time>2026-04-26T11:29:25Z</time></trkpt><trkpt lat="41.19305760642094" lon="14.47693581139463"><ele>41.0</ele><time>2026-04-26T11:29:26Z</time></trkpt><trkpt lat="41.19320975319247" lon="14.477095045709476"><ele>41.666666666666664</ele><time>2026-04-26T11:29:27Z</time></trkpt><trkpt lat="41.19334660286191" lon="14.47724132758536"><ele>42.333333333333336</ele><time>2026-04-26T11:29:28Z</time></trkpt><trkpt lat="41.19347215392482" lon="14.477386940746191"><ele>43.0</ele><time>2026-04-26T11:29:29Z</time></trkpt><trkpt lat="41.19360359549489" lon="14.477542029685129"><ele>43.0</ele><time>2026-04-26T11:29:30Z</time></trkpt><trkpt lat="41.193724688654" lon="14.477698138788348"><ele>43.0</ele><time>2026-04-26T11:29:31Z</time></trkpt><trkpt lat="41.19383468239913" lon="14.477848593446643"><ele>43.0</ele><time>2026-04-26T11:29:32Z</time></trkpt><trkpt lat="41.19393570952942" lon="14.47800622264002"><ele>43.333333333333336</ele><time>2026-04-26T11:29:33Z</time></trkpt><trkpt lat="41.19406574683658" lon="14.478193538038646"><ele>43.666666666666664</ele><time>2026-04-26T11:29:34Z</time></trkpt><trkpt lat="41.194231062693476" lon="14.478451532331666"><ele>44.0</ele><time>2026-04-26T11:29:35Z</time></trkpt><trkpt lat="41.19439735900096" lon="14.478756215882632"><ele>43.5</ele><time>2026-04-26T11:29:36Z</time></trkpt><trkpt lat="41.19455797185451" lon="14.479119435960442"><ele>43.0</ele><time>2026-04-26T11:29:37Z</time></trkpt><trkpt lat="41.19472449094049" lon="14.479488654118935"><ele>44.0</ele><time>2026-04-26T11:29:38Z</time></trkpt><trkpt lat="41.19488583705211" lon="14.479857112734544"><ele>45.0</ele><time>2026-04-26T11:29:39Z</time></trkpt><trkpt lat="41.19502186550162" lon="14.480163308142863"><ele>44.0</ele><time>2026-04-26T11:29:40Z</time></trkpt><trkpt lat="41.195190232241124" lon="14.480484774497315"><ele>43.0</ele><time>2026-04-26T11:29:41Z</time></trkpt><trkpt lat="41.19538492291243" lon="14.480851121684058"><ele>43.0</ele><time>2026-04-26T11:29:42Z</time></trkpt><trkpt lat="41.19560779190831" lon="14.481194873592084"><ele>43.0</ele><time>2026-04-26T11:29:43Z</time></trkpt><trkpt lat="41.19586661466854" lon="14.481505141386567"><ele>48.0</ele><time>2026-04-26T11:29:44Z</time></trkpt><trkpt lat="41.19614564457757" lon="14.481777128862374"><ele>53.0</ele><time>2026-04-26T11:29:45Z</time></trkpt><trkpt lat="41.19641474479801" lon="14.482009732931129"><ele>56.5</ele><time>2026-04-26T11:29:46Z</time></trkpt><trkpt lat="41.19669165188141" lon="14.482222443019191"><ele>60.0</ele><time>2026-04-26T11:29:47Z</time></trkpt><trkpt lat="41.19697283523905" lon="14.48239041290811"><ele>60.0</ele><time>2026-04-26T11:29:48Z</time></trkpt><trkpt lat="41.19725068897039" lon="14.482512622605709"><ele>60.0</ele><time>2026-04-26T11:29:49Z</time></trkpt><trkpt lat="41.19753100130129" lon="14.482615829852977"><ele>59.0</ele><time>2026-04-26T11:29:50Z</time></trkpt><trkpt lat="41.19780567760732" lon="14.48268952948639"><ele>58.0</ele><time>2026-04-26T11:29:51Z</time></trkpt><trkpt lat="41.198063057240766" lon="14.482731655533817"><ele>57.0</ele><time>2026-04-26T11:29:52Z</time></trkpt><trkpt lat="41.19831315689903" lon="14.482751280570751"><ele>56.0</ele><time>2026-04-26T11:29:53Z</time></trkpt><trkpt lat="41.198549511948514" lon="14.482755999480478"><ele>56.0</ele><time>2026-04-26T11:29:54Z</time></trkpt><trkpt lat="41.198764180353415" lon="14.482743086463088"><ele>56.0</ele><time>2026-04-26T11:29:55Z</time></trkpt><trkpt lat="41.198970154115074" lon="14.482721204300585"><ele>56.0</ele><time>2026-04-26T11:29:56Z</time></trkpt><trkpt lat="41.199160755357816" lon="14.482686155061389"><ele>55.66666666666667</ele><time>2026-04-26T11:29:57Z</time></trkpt><trkpt lat="41.199332352127634" lon="14.482647419390673"><ele>55.33333333333333</ele><time>2026-04-26T11:29:58Z</time></trkpt><trkpt lat="41.19949938707751" lon="14.4826129323298"><ele>55.0</ele><time>2026-04-26T11:29:59Z</time></trkpt><trkpt lat="41.19965135656366" lon="14.482584740214893"><ele>55.0</ele><time>2026-04-26T11:30:00Z</time></trkpt><trkpt lat="41.1998096074084" lon="14.4825586360049"><ele>55.0</ele><time>2026-04-26T11:30:00.999Z</time></trkpt><trkpt lat="41.19996956594697" lon="14.482530547417257"><ele>55.0</ele><time>2026-04-26T11:30:01.999Z</time></trkpt><trkpt lat="41.20013481922844" lon="14.482499374542217"><ele>55.33333333333333</ele><time>2026-04-26T11:30:02.999Z</time></trkpt><trkpt lat="41.20030288721425" lon="14.48246730297056"><ele>55.66666666666667</ele><time>2026-04-26T11:30:03.999Z</time></trkpt><trkpt lat="41.200476624360306" lon="14.482434363411649"><ele>56.0</ele><time>2026-04-26T11:30:04.999Z</time></trkpt><trkpt lat="41.20065013978799" lon="14.482396081553759"><ele>57.333333333333336</ele><time>2026-04-26T11:30:05.999Z</time></trkpt><trkpt lat="41.20082348733878" lon="14.482357705914472"><ele>58.66666666666667</ele><time>2026-04-26T11:30:06.999Z</time></trkpt><trkpt lat="41.2009971336315" lon="14.48232686770262"><ele>60.0</ele><time>2026-04-26T11:30:07.999Z</time></trkpt><trkpt lat="41.201167675182134" lon="14.482290599120175"><ele>60.0</ele><time>2026-04-26T11:30:08.999Z</time></trkpt><trkpt lat="41.20135894610917" lon="14.482272069148596"><ele>60.0</ele><time>2026-04-26T11:30:09.999Z</time></trkpt><trkpt lat="41.201570465053955" lon="14.482237739809625"><ele>60.0</ele><time>2026-04-26T11:30:10.999Z</time></trkpt><trkpt lat="41.20179180232159" lon="14.482216715868883"><ele>61.33333333333333</ele><time>2026-04-26T11:30:11.999Z</time></trkpt><trkpt lat="41.201997950828236" lon="14.48220863586805"><ele>62.666666666666664</ele><time>2026-04-26T11:30:12.999Z</time></trkpt><trkpt lat="41.20221354720474" lon="14.482212391764676"><ele>64.0</ele><time>2026-04-26T11:30:13.999Z</time></trkpt><trkpt lat="41.20245851659509" lon="14.482239248447382"><ele>66.0</ele><time>2026-04-26T11:30:14.999Z</time></trkpt><trkpt lat="41.202723765192424" lon="14.482291022903055"><ele>68.0</ele><time>2026-04-26T11:30:15.999Z</time></trkpt><trkpt lat="41.20299974032089" lon="14.48236601885848"><ele>68.5</ele><time>2026-04-26T11:30:16.999Z</time></trkpt><trkpt lat="41.20330930330437" lon="14.482461141082807"><ele>69.0</ele><time>2026-04-26T11:30:17.999Z</time></trkpt><trkpt lat="41.2036023444062" lon="14.482619987084696"><ele>69.0</ele><time>2026-04-26T11:30:18.999Z</time></trkpt><trkpt lat="41.20389496305972" lon="14.482806200891764"><ele>69.0</ele><time>2026-04-26T11:30:19.999Z</time></trkpt><trkpt lat="41.204182691531116" lon="14.483027688864844"><ele>68.5</ele><time>2026-04-26T11:30:20.999Z</time></trkpt><trkpt lat="41.204453202134204" lon="14.483277628723624"><ele>68.0</ele><time>2026-04-26T11:30:21.999Z</time></trkpt><trkpt lat="41.2047100073548" lon="14.483553827264693"><ele>68.0</ele><time>2026-04-26T11:30:22.999Z</time></trkpt><trkpt lat="41.204918409987044" lon="14.48383202879455"><ele>68.0</ele><time>2026-04-26T11:30:23.999Z</time></trkpt><trkpt lat="41.20511352475287" lon="14.484135415345419"><ele>68.0</ele><time>2026-04-26T11:30:24.999Z</time></trkpt><trkpt lat="41.20531629126379" lon="14.48446599697128"><ele>68.0</ele><time>2026-04-26T11:30:25.999Z</time></trkpt><trkpt lat="41.20550368587695" lon="14.484822901918237"><ele>69.5</ele><time>2026-04-26T11:30:26.999Z</time></trkpt><trkpt lat="41.20569442634769" lon="14.485190093323814"><ele>71.0</ele><time>2026-04-26T11:30:27.999Z</time></trkpt><trkpt lat="41.20587973314244" lon="14.485541855900564"><ele>71.5</ele><time>2026-04-26T11:30:28.999Z</time></trkpt><trkpt lat="41.20607264157501" lon="14.485882054726702"><ele>72.0</ele><time>2026-04-26T11:30:29.999Z</time></trkpt><trkpt lat="41.20628633111109" lon="14.486207823262335"><ele>71.5</ele><time>2026-04-26T11:30:30.999Z</time></trkpt><trkpt lat="41.20651011254019" lon="14.486512687151926"><ele>71.0</ele><time>2026-04-26T11:30:31.999Z</time></trkpt><trkpt lat="41.20672210261391" lon="14.486801677024093"><ele>71.0</ele><time>2026-04-26T11:30:32.999Z</time></trkpt><trkpt lat="41.206968773628844" lon="14.487073717581406"><ele>71.0</ele><time>2026-04-26T11:30:33.999Z</time></trkpt><trkpt lat="41.20722730311359" lon="14.487327116365881"><ele>71.5</ele><time>2026-04-26T11:30:34.999Z</time></trkpt><trkpt lat="41.207505338968" lon="14.487564221339728"><ele>72.0</ele><time>2026-04-26T11:30:35.999Z</time></trkpt><trkpt lat="41.207781204929866" lon="14.48777638460034"><ele>73.0</ele><time>2026-04-26T11:30:36.999Z</time></trkpt><trkpt lat="41.208058953618135" lon="14.487967992213406"><ele>74.0</ele><time>2026-04-26T11:30:37.999Z</time></trkpt><trkpt lat="41.20832357197802" lon="14.488140077169035"><ele>74.0</ele><time>2026-04-26T11:30:38.999Z</time></trkpt><trkpt lat="41.208630633132" lon="14.488289209689318"><ele>74.0</ele><time>2026-04-26T11:30:39.999Z</time></trkpt><trkpt lat="41.20891653640301" lon="14.488442031118645"><ele>73.5</ele><time>2026-04-26T11:30:40.999Z</time></trkpt><trkpt lat="41.20919871503637" lon="14.48856892431016"><ele>73.0</ele><time>2026-04-26T11:30:41.999Z</time></trkpt><trkpt lat="41.20956411268993" lon="14.48777127287866"><ele>73.0</ele><time>2026-04-26T11:30:42.999Z</time></trkpt><trkpt lat="41.2100994863096" lon="14.48858449076781"><ele>73.5</ele><time>2026-04-26T11:30:43.999Z</time></trkpt><trkpt lat="41.21001165180982" lon="14.48889318359616"><ele>74.0</ele><time>2026-04-26T11:30:44.999Z</time></trkpt><trkpt lat="41.210287373345636" lon="14.488958780117967"><ele>74.0</ele><time>2026-04-26T11:30:45.999Z</time></trkpt><trkpt lat="41.21056153899174" lon="14.488990350741956"><ele>74.0</ele><time>2026-04-26T11:30:46.999Z</time></trkpt><trkpt lat="41.210839048268895" lon="14.48900376035159"><ele>74.0</ele><time>2026-04-26T11:30:47.999Z</time></trkpt><trkpt lat="41.211112265495366" lon="14.488995545464537"><ele>74.0</ele><time>2026-04-26T11:30:48.999Z</time></trkpt><trkpt lat="41.21138471249671" lon="14.48897008324411"><ele>74.0</ele><time>2026-04-26T11:30:49.999Z</time></trkpt><trkpt lat="41.21165687887558" lon="14.488923007689245"><ele>74.0</ele><time>2026-04-26T11:30:50.999Z</time></trkpt><trkpt lat="41.21192638152922" lon="14.488858009349698"><ele>74.0</ele><time>2026-04-26T11:30:51.999Z</time></trkpt><trkpt lat="41.21218966237486" lon="14.488767365281902"><ele>74.0</ele><time>2026-04-26T11:30:52.999Z</time></trkpt><trkpt lat="41.21244607805581" lon="14.48865671183659"><ele>75.0</ele><time>2026-04-26T11:30:53.999Z</time></trkpt><trkpt lat="41.21269878696541" lon="14.488520621538937"><ele>76.0</ele><time>2026-04-26T11:30:54.999Z</time></trkpt><trkpt lat="41.21294380936055" lon="14.488369557676922"><ele>76.5</ele><time>2026-04-26T11:30:55.999Z</time></trkpt><trkpt lat="41.21318452480332" lon="14.488202307250024"><ele>77.0</ele><time>2026-04-26T11:30:56.999Z</time></trkpt><trkpt lat="41.213416538154775" lon="14.488009147502531"><ele>77.0</ele><time>2026-04-26T11:30:57.999Z</time></trkpt><trkpt lat="41.213640593811576" lon="14.487799168844278"><ele>77.0</ele><time>2026-04-26T11:30:59Z</time></trkpt><trkpt lat="41.21385673722265" lon="14.48757801534143"><ele>77.0</ele><time>2026-04-26T11:31:00Z</time></trkpt><trkpt lat="41.21406366814121" lon="14.487336898106154"><ele>77.0</ele><time>2026-04-26T11:31:01Z</time></trkpt><trkpt lat="41.21425426483442" lon="14.487082789201942"><ele>77.5</ele><time>2026-04-26T11:31:02Z</time></trkpt><trkpt lat="41.21443835955376" lon="14.486802122198698"><ele>78.0</ele><time>2026-04-26T11:31:03Z</time></trkpt><trkpt lat="41.214607005158115" lon="14.486509226078667"><ele>78.5</ele><time>2026-04-26T11:31:04Z</time></trkpt><trkpt lat="41.21476008601388" lon="14.486204284390602"><ele>79.0</ele><time>2026-04-26T11:31:05Z</time></trkpt><trkpt lat="41.21490572413806" lon="14.485893600312227"><ele>79.0</ele><time>2026-04-26T11:31:06Z</time></trkpt><trkpt lat="41.21504097555145" lon="14.485585588608824"><ele>79.0</ele><time>2026-04-26T11:31:07Z</time></trkpt><trkpt lat="41.21516876358738" lon="14.485282936601731"><ele>79.5</ele><time>2026-04-26T11:31:08Z</time></trkpt><trkpt lat="41.215277360023585" lon="14.485006986151717"><ele>80.0</ele><time>2026-04-26T11:31:09Z</time></trkpt><trkpt lat="41.2153838312351" lon="14.48474865235646"><ele>80.33333333333334</ele><time>2026-04-26T11:31:10Z</time></trkpt><trkpt lat="41.21548074900089" lon="14.484507197136589"><ele>80.66666666666667</ele><time>2026-04-26T11:31:11Z</time></trkpt><trkpt lat="41.21557373676961" lon="14.48427872603468"><ele>81.0</ele><time>2026-04-26T11:31:12Z</time></trkpt><trkpt lat="41.215659601296615" lon="14.484077189884188"><ele>81.0</ele><time>2026-04-26T11:31:13Z</time></trkpt><trkpt lat="41.21574729825757" lon="14.483874498226445"><ele>81.0</ele><time>2026-04-26T11:31:14Z</time></trkpt><trkpt lat="41.21582768000088" lon="14.483680944314116"><ele>81.0</ele><time>2026-04-26T11:31:15Z</time></trkpt><trkpt lat="41.21590721740908" lon="14.483481439066908"><ele>81.33333333333333</ele><time>2026-04-26T11:31:16Z</time></trkpt><trkpt lat="41.215984957532015" lon="14.483288393158738"><ele>81.66666666666666</ele><time>2026-04-26T11:31:17Z</time></trkpt><trkpt lat="41.216058028152396" lon="14.483105609435873"><ele>82.0</ele><time>2026-04-26T11:31:18Z</time></trkpt><trkpt lat="41.21613556617124" lon="14.482917781931446"><ele>82.33333333333333</ele><time>2026-04-26T11:31:19Z</time></trkpt><trkpt lat="41.21621456772155" lon="14.482729983758379"><ele>82.66666666666667</ele><time>2026-04-26T11:31:20Z</time></trkpt><trkpt lat="41.216293180395745" lon="14.482543467281252"><ele>83.0</ele><time>2026-04-26T11:31:21Z</time></trkpt><trkpt lat="41.21636906419045" lon="14.482357363470431"><ele>83.0</ele><time>2026-04-26T11:31:22Z</time></trkpt><trkpt lat="41.216441390469136" lon="14.482188614734774"><ele>83.0</ele><time>2026-04-26T11:31:23Z</time></trkpt><trkpt lat="41.21651457743498" lon="14.48201420653599"><ele>83.0</ele><time>2026-04-26T11:31:24Z</time></trkpt><trkpt lat="41.216585402444665" lon="14.481842393356375"><ele>83.0</ele><time>2026-04-26T11:31:25Z</time></trkpt><trkpt lat="41.216655091140154" lon="14.481675558907975"><ele>83.0</ele><time>2026-04-26T11:31:26Z</time></trkpt><trkpt lat="41.21672444733838" lon="14.481503182949734"><ele>83.0</ele><time>2026-04-26T11:31:27Z</time></trkpt><trkpt lat="41.21679622025787" lon="14.481329956180264"><ele>83.0</ele><time>2026-04-26T11:31:28Z</time></trkpt><trkpt lat="41.21686355145013" lon="14.481162771919685"><ele>83.0</ele><time>2026-04-26T11:31:29Z</time></trkpt><trkpt lat="41.21693125180022" lon="14.480997813738533"><ele>83.25</ele><time>2026-04-26T11:31:30Z</time></trkpt><trkpt lat="41.21699160090003" lon="14.4808465641991"><ele>83.5</ele><time>2026-04-26T11:31:31Z</time></trkpt><trkpt lat="41.217057375610004" lon="14.480701397781473"><ele>83.75</ele><time>2026-04-26T11:31:32Z</time></trkpt><trkpt lat="41.21711857216237" lon="14.480557103914116"><ele>84.0</ele><time>2026-04-26T11:31:33Z</time></trkpt><trkpt lat="41.21717645767537" lon="14.480412287730443"><ele>84.0</ele><time>2026-04-26T11:31:34Z</time></trkpt><trkpt lat="41.21723617670407" lon="14.480262419300589"><ele>84.0</ele><time>2026-04-26T11:31:35Z</time></trkpt><trkpt lat="41.217297339383016" lon="14.480107290806899"><ele>84.0</ele><time>2026-04-26T11:31:36Z</time></trkpt><trkpt lat="41.217357834917266" lon="14.479948728419823"><ele>84.0</ele><time>2026-04-26T11:31:37Z</time></trkpt><trkpt lat="41.21741899056834" lon="14.47979376799114"><ele>84.0</ele><time>2026-04-26T11:31:38Z</time></trkpt><trkpt lat="41.21749657094732" lon="14.47962953430235"><ele>84.0</ele><time>2026-04-26T11:31:39Z</time></trkpt><trkpt lat="41.21756872724132" lon="14.479453443006058"><ele>84.0</ele><time>2026-04-26T11:31:40Z</time></trkpt><trkpt lat="41.217654708876594" lon="14.479238212795083"><ele>83.33333333333333</ele><time>2026-04-26T11:31:41Z</time></trkpt><trkpt lat="41.21775189470941" lon="14.478989406358266"><ele>82.66666666666666</ele><time>2026-04-26T11:31:42Z</time></trkpt><trkpt lat="41.217863506546415" lon="14.47871206882049"><ele>82.0</ele><time>2026-04-26T11:31:43Z</time></trkpt><trkpt lat="41.21800143349403" lon="14.47840307481242"><ele>82.0</ele><time>2026-04-26T11:31:44Z</time></trkpt><trkpt lat="41.2181755638011" lon="14.478021151338684"><ele>82.0</ele><time>2026-04-26T11:31:45Z</time></trkpt><trkpt lat="41.21820949624237" lon="14.477858267890134"><ele>81.5</ele><time>2026-04-26T11:31:46Z</time></trkpt><trkpt lat="41.21835432887156" lon="14.477528192328137"><ele>81.0</ele><time>2026-04-26T11:31:47Z</time></trkpt><trkpt lat="41.21850319244057" lon="14.477200820224464"><ele>80.0</ele><time>2026-04-26T11:31:48Z</time></trkpt><trkpt lat="41.21866685815705" lon="14.476870758226315"><ele>79.0</ele><time>2026-04-26T11:31:49Z</time></trkpt><trkpt lat="41.21884936213346" lon="14.47653478967202"><ele>80.0</ele><time>2026-04-26T11:31:50Z</time></trkpt><trkpt lat="41.21905697722933" lon="14.47620002574533"><ele>81.0</ele><time>2026-04-26T11:31:50.999Z</time></trkpt><trkpt lat="41.21928393160136" lon="14.475874162483024"><ele>81.0</ele><time>2026-04-26T11:31:51.999Z</time></trkpt><trkpt lat="41.21953833666233" lon="14.475607477752092"><ele>81.0</ele><time>2026-04-26T11:31:52.999Z</time></trkpt><trkpt lat="41.219787115236244" lon="14.475320541639983"><ele>81.5</ele><time>2026-04-26T11:31:53.999Z</time></trkpt><trkpt lat="41.220044856638964" lon="14.475048781934555"><ele>82.0</ele><time>2026-04-26T11:31:54.999Z</time></trkpt><trkpt lat="41.22031541902096" lon="14.474796574142513"><ele>83.0</ele><time>2026-04-26T11:31:55.999Z</time></trkpt><trkpt lat="41.22059231248892" lon="14.474566553756135"><ele>84.0</ele><time>2026-04-26T11:31:56.999Z</time></trkpt><trkpt lat="41.220878702994995" lon="14.474355220056289"><ele>84.0</ele><time>2026-04-26T11:31:57.999Z</time></trkpt><trkpt lat="41.22117325788568" lon="14.47416210962875"><ele>84.0</ele><time>2026-04-26T11:31:58.999Z</time></trkpt><trkpt lat="41.22146850265388" lon="14.473993356543803"><ele>84.0</ele><time>2026-04-26T11:31:59.999Z</time></trkpt><trkpt lat="41.22176906551268" lon="14.473841228979758"><ele>84.0</ele><time>2026-04-26T11:32:00.999Z</time></trkpt><trkpt lat="41.222076301325366" lon="14.473715145363958"><ele>83.5</ele><time>2026-04-26T11:32:01.999Z</time></trkpt><trkpt lat="41.22238560387014" lon="14.473605748181484"><ele>83.0</ele><time>2026-04-26T11:32:02.999Z</time></trkpt><trkpt lat="41.22270084047839" lon="14.473521052975228"><ele>83.0</ele><time>2026-04-26T11:32:03.999Z</time></trkpt><trkpt lat="41.223001474941555" lon="14.473461283274231"><ele>83.0</ele><time>2026-04-26T11:32:04.999Z</time></trkpt><trkpt lat="41.22329206130259" lon="14.473419798103944"><ele>83.0</ele><time>2026-04-26T11:32:05.999Z</time></trkpt><trkpt lat="41.22357845440159" lon="14.473394238609988"><ele>83.0</ele><time>2026-04-26T11:32:06.999Z</time></trkpt><trkpt lat="41.22386243234339" lon="14.473387813918768"><ele>82.5</ele><time>2026-04-26T11:32:07.999Z</time></trkpt><trkpt lat="41.2241455113191" lon="14.473396359541216"><ele>82.0</ele><time>2026-04-26T11:32:08.999Z</time></trkpt><trkpt lat="41.22442408855135" lon="14.473399126485369"><ele>82.0</ele><time>2026-04-26T11:32:09.999Z</time></trkpt><trkpt lat="41.22470111856192" lon="14.473426576335942"><ele>82.0</ele><time>2026-04-26T11:32:10.999Z</time></trkpt><trkpt lat="41.224979250854155" lon="14.473464964941094"><ele>83.0</ele><time>2026-04-26T11:32:11.999Z</time></trkpt><trkpt lat="41.22522317141191" lon="14.473505338392398"><ele>84.0</ele><time>2026-04-26T11:32:12.999Z</time></trkpt><trkpt lat="41.22545316243408" lon="14.47355810400778"><ele>83.33333333333333</ele><time>2026-04-26T11:32:13.999Z</time></trkpt><trkpt lat="41.225668936436776" lon="14.47360457908677"><ele>82.66666666666666</ele><time>2026-04-26T11:32:14.999Z</time></trkpt><trkpt lat="41.225865803872686" lon="14.473655773061425"><ele>82.0</ele><time>2026-04-26T11:32:15.999Z</time></trkpt><trkpt lat="41.22604773396914" lon="14.473707673194355"><ele>82.0</ele><time>2026-04-26T11:32:16.999Z</time></trkpt><trkpt lat="41.226216681463214" lon="14.473750972590508"><ele>82.0</ele><time>2026-04-26T11:32:17.999Z</time></trkpt><trkpt lat="41.226365237530324" lon="14.473785118036636"><ele>82.0</ele><time>2026-04-26T11:32:18.999Z</time></trkpt><trkpt lat="41.22649380485517" lon="14.473852325475262"><ele>82.0</ele><time>2026-04-26T11:32:19.999Z</time></trkpt><trkpt lat="41.22659452343902" lon="14.473968873414574"><ele>82.0</ele><time>2026-04-26T11:32:20.999Z</time></trkpt><trkpt lat="41.22665521668467" lon="14.474145569499663"><ele>82.0</ele><time>2026-04-26T11:32:21.999Z</time></trkpt><trkpt lat="41.226660726534156" lon="14.474353435829457"><ele>82.0</ele><time>2026-04-26T11:32:22.999Z</time></trkpt><trkpt lat="41.22661706421614" lon="14.47457548526258"><ele>82.5</ele><time>2026-04-26T11:32:23.999Z</time></trkpt><trkpt lat="41.2265408341157" lon="14.474773878961212"><ele>83.0</ele><time>2026-04-26T11:32:24.999Z</time></trkpt><trkpt lat="41.22648072955933" lon="14.474921486383112"><ele>83.5</ele><time>2026-04-26T11:32:25.999Z</time></trkpt><trkpt lat="41.226470487695394" lon="14.475052982660426"><ele>84.0</ele><time>2026-04-26T11:32:26.999Z</time></trkpt><trkpt lat="41.22650769418895" lon="14.475168219025077"><ele>84.0</ele><time>2026-04-26T11:32:27.999Z</time></trkpt><trkpt lat="41.22658605610621" lon="14.47521083857612"><ele>84.0</ele><time>2026-04-26T11:32:28.999Z</time></trkpt><trkpt lat="41.22665581111672" lon="14.47526143336417"><ele>84.0</ele><time>2026-04-26T11:32:30.999Z</time></trkpt><trkpt lat="41.226727836941954" lon="14.475306615128787"><ele>84.0</ele><time>2026-04-26T11:32:34.999Z</time></trkpt><trkpt lat="41.22683093760599" lon="14.475260415628744"><ele>84.0</ele><time>2026-04-26T11:32:36.999Z</time></trkpt><trkpt lat="41.22688485816539" lon="14.475190334750808"><ele>84.0</ele><time>2026-04-26T11:32:37.999Z</time></trkpt><trkpt lat="41.22692465876549" lon="14.475092647378043"><ele>84.0</ele><time>2026-04-26T11:32:38.999Z</time></trkpt><trkpt lat="41.226939579182094" lon="14.474994557886623"><ele>84.0</ele><time>2026-04-26T11:32:39.999Z</time></trkpt><trkpt lat="41.226941059394065" lon="14.474869942461213"><ele>84.0</ele><time>2026-04-26T11:32:40.999Z</time></trkpt><trkpt lat="41.22693459655757" lon="14.474759374721675"><ele>84.0</ele><time>2026-04-26T11:32:41.999Z</time></trkpt><trkpt lat="41.22692494408361" lon="14.474643045156673"><ele>84.0</ele><time>2026-04-26T11:32:42.999Z</time></trkpt><trkpt lat="41.22693670949532" lon="14.474550574060606"><ele>84.0</ele><time>2026-04-26T11:32:43.999Z</time></trkpt><trkpt lat="41.22696371449619" lon="14.474438011892092"><ele>84.0</ele><time>2026-04-26T11:32:44.999Z</time></trkpt><trkpt lat="41.22699841391826" lon="14.4743203564847"><ele>84.0</ele><time>2026-04-26T11:32:45.999Z</time></trkpt><trkpt lat="41.227033686743404" lon="14.474233852779749"><ele>84.0</ele><time>2026-04-26T11:32:46.999Z</time></trkpt><trkpt lat="41.22699451177553" lon="14.47434020895283"><ele>84.0</ele><time>2026-04-26T11:32:51.999Z</time></trkpt><trkpt lat="41.22692412105018" lon="14.474487094239509"><ele>84.0</ele><time>2026-04-26T11:32:52.999Z</time></trkpt><trkpt lat="41.22689878116215" lon="14.47465697427475"><ele>84.0</ele><time>2026-04-26T11:32:53.999Z</time></trkpt><trkpt lat="41.22690685409511" lon="14.47476517818674"><ele>84.0</ele><time>2026-04-26T11:32:54.999Z</time></trkpt><trkpt lat="41.226952512805404" lon="14.474839977123349"><ele>84.0</ele><time>2026-04-26T11:32:55.999Z</time></trkpt><trkpt lat="41.227022748617756" lon="14.474891200432152"><ele>84.0</ele><time>2026-04-26T11:32:56.999Z</time></trkpt><trkpt lat="41.227126775594186" lon="14.474911068441552"><ele>84.0</ele><time>2026-04-26T11:32:57.999Z</time></trkpt><trkpt lat="41.22726122990621" lon="14.4749396829093"><ele>83.33333333333333</ele><time>2026-04-26T11:32:58.999Z</time></trkpt><trkpt lat="41.227410385520194" lon="14.474981210630883"><ele>82.66666666666666</ele><time>2026-04-26T11:32:59.999Z</time></trkpt><trkpt lat="41.22756403561032" lon="14.475028342417005"><ele>82.0</ele><time>2026-04-26T11:33:00.999Z</time></trkpt><trkpt lat="41.22775051941596" lon="14.475068883294151"><ele>82.0</ele><time>2026-04-26T11:33:01.999Z</time></trkpt><trkpt lat="41.22794192327597" lon="14.475112408038191"><ele>82.0</ele><time>2026-04-26T11:33:02.999Z</time></trkpt><trkpt lat="41.22814280457703" lon="14.47516276022683"><ele>82.0</ele><time>2026-04-26T11:33:03.999Z</time></trkpt><trkpt lat="41.22834073402029" lon="14.475215977950908"><ele>82.0</ele><time>2026-04-26T11:33:04.999Z</time></trkpt><trkpt lat="41.22854468351486" lon="14.475266901956644"><ele>82.0</ele><time>2026-04-26T11:33:05.999Z</time></trkpt><trkpt lat="41.228759745135" lon="14.475319008518271"><ele>82.0</ele><time>2026-04-26T11:33:06.999Z</time></trkpt><trkpt lat="41.22897448673894" lon="14.475366710289315"><ele>84.0</ele><time>2026-04-26T11:33:08Z</time></trkpt><trkpt lat="41.229197225121574" lon="14.475418841881137"><ele>86.0</ele><time>2026-04-26T11:33:09Z</time></trkpt><trkpt lat="41.22942229737882" lon="14.475472849458214"><ele>86.33333333333334</ele><time>2026-04-26T11:33:10Z</time></trkpt><trkpt lat="41.22964648149761" lon="14.475525351858654"><ele>86.66666666666667</ele><time>2026-04-26T11:33:11Z</time></trkpt><trkpt lat="41.22986018319796" lon="14.475582535090567"><ele>87.0</ele><time>2026-04-26T11:33:12Z</time></trkpt><trkpt lat="41.23007776971151" lon="14.475638097454388"><ele>87.33333333333333</ele><time>2026-04-26T11:33:13Z</time></trkpt><trkpt lat="41.23028963888434" lon="14.475687682515312"><ele>87.66666666666666</ele><time>2026-04-26T11:33:14Z</time></trkpt><trkpt lat="41.230504858821725" lon="14.475738640816369"><ele>88.0</ele><time>2026-04-26T11:33:15Z</time></trkpt><trkpt lat="41.23070429851196" lon="14.475782755369854"><ele>88.33333333333333</ele><time>2026-04-26T11:33:16Z</time></trkpt><trkpt lat="41.23088453569018" lon="14.475825233556623"><ele>88.66666666666667</ele><time>2026-04-26T11:33:17Z</time></trkpt><trkpt lat="41.231055457321304" lon="14.475869580801046"><ele>89.0</ele><time>2026-04-26T11:33:18Z</time></trkpt><trkpt lat="41.231215488689244" lon="14.47591269314052"><ele>89.0</ele><time>2026-04-26T11:33:19Z</time></trkpt><trkpt lat="41.231356852414486" lon="14.475953380261558"><ele>89.0</ele><time>2026-04-26T11:33:20Z</time></trkpt><trkpt lat="41.23146902124203" lon="14.475988813455606"><ele>89.0</ele><time>2026-04-26T11:33:21Z</time></trkpt><trkpt lat="41.231549625150286" lon="14.47602183343267"><ele>89.0</ele><time>2026-04-26T11:33:22Z</time></trkpt><trkpt lat="41.23161076903232" lon="14.476053035136813"><ele>89.0</ele><time>2026-04-26T11:33:24Z</time></trkpt><trkpt lat="41.23178465294448" lon="14.475986049067187"><ele>89.4</ele><time>2026-04-26T11:33:27Z</time></trkpt><trkpt lat="41.23186836784516" lon="14.475909623879195"><ele>89.80000000000001</ele><time>2026-04-26T11:33:28Z</time></trkpt><trkpt lat="41.231946958723164" lon="14.47581152518111"><ele>90.19999999999999</ele><time>2026-04-26T11:33:29Z</time></trkpt><trkpt lat="41.23203102687238" lon="14.475733403189974"><ele>90.6</ele><time>2026-04-26T11:33:30Z</time></trkpt><trkpt lat="41.232104692348585" lon="14.475692945738206"><ele>91.0</ele><time>2026-04-26T11:33:31Z</time></trkpt><trkpt lat="41.23216602051385" lon="14.475637768248367"><ele>91.0</ele><time>2026-04-26T11:33:32Z</time></trkpt><trkpt lat="41.23222614663051" lon="14.475585464612061"><ele>91.0</ele><time>2026-04-26T11:33:33Z</time></trkpt><trkpt lat="41.23229377626716" lon="14.475526333511477"><ele>91.0</ele><time>2026-04-26T11:33:34Z</time></trkpt><trkpt lat="41.23235020069458" lon="14.475476999532503"><ele>91.0</ele><time>2026-04-26T11:33:35Z</time></trkpt><trkpt lat="41.232402006047536" lon="14.4754083228774"><ele>91.0</ele><time>2026-04-26T11:33:36Z</time></trkpt><trkpt lat="41.23247351591172" lon="14.475361030854092"><ele>91.0</ele><time>2026-04-26T11:33:37Z</time></trkpt><trkpt lat="41.23254774905961" lon="14.475302985934047"><ele>91.19999999999999</ele><time>2026-04-26T11:33:38Z</time></trkpt><trkpt lat="41.23262548286994" lon="14.475245037053073"><ele>91.39999999999999</ele><time>2026-04-26T11:33:39Z</time></trkpt><trkpt lat="41.23270946369135" lon="14.475185775347313"><ele>91.6</ele><time>2026-04-26T11:33:40Z</time></trkpt><trkpt lat="41.23279106385389" lon="14.475118836880112"><ele>91.8</ele><time>2026-04-26T11:33:41Z</time></trkpt><trkpt lat="41.232876124994334" lon="14.475048933479064"><ele>92.0</ele><time>2026-04-26T11:33:42Z</time></trkpt><trkpt lat="41.23296415989164" lon="14.474972150034926"><ele>92.0</ele><time>2026-04-26T11:33:43Z</time></trkpt><trkpt lat="41.23306373983974" lon="14.474895345646683"><ele>92.0</ele><time>2026-04-26T11:33:44Z</time></trkpt><trkpt lat="41.23317031012668" lon="14.474809516240233"><ele>92.0</ele><time>2026-04-26T11:33:45Z</time></trkpt><trkpt lat="41.2332795151446" lon="14.474711184895913"><ele>92.0</ele><time>2026-04-26T11:33:46Z</time></trkpt><trkpt lat="41.23340000010315" lon="14.474616208491938"><ele>92.25</ele><time>2026-04-26T11:33:47Z</time></trkpt><trkpt lat="41.23352483706728" lon="14.474512369038441"><ele>92.5</ele><time>2026-04-26T11:33:48Z</time></trkpt><trkpt lat="41.2336540076415" lon="14.474413099858104"><ele>92.75</ele><time>2026-04-26T11:33:49Z</time></trkpt><trkpt lat="41.233791818856524" lon="14.474381826936453"><ele>93.0</ele><time>2026-04-26T11:33:50Z</time></trkpt><trkpt lat="41.233922049181274" lon="14.47436542533625"><ele>93.25</ele><time>2026-04-26T11:33:51Z</time></trkpt><trkpt lat="41.234049081236876" lon="14.474337384736229"><ele>93.5</ele><time>2026-04-26T11:33:52Z</time></trkpt><trkpt lat="41.23416743534822" lon="14.47432187515146"><ele>93.75</ele><time>2026-04-26T11:33:53Z</time></trkpt><trkpt lat="41.23428896302973" lon="14.47429067396698"><ele>94.0</ele><time>2026-04-26T11:33:54Z</time></trkpt><trkpt lat="41.23438767530777" lon="14.474181529848412"><ele>94.0</ele><time>2026-04-26T11:33:55Z</time></trkpt><trkpt lat="41.23444183117855" lon="14.47400848166299"><ele>94.0</ele><time>2026-04-26T11:33:56Z</time></trkpt><trkpt lat="41.23449363294872" lon="14.47381171103267"><ele>94.0</ele><time>2026-04-26T11:33:57Z</time></trkpt><trkpt lat="41.23456239806687" lon="14.473623272406972"><ele>93.6</ele><time>2026-04-26T11:33:58Z</time></trkpt><trkpt lat="41.23460553328518" lon="14.473470195004175"><ele>93.2</ele><time>2026-04-26T11:33:59Z</time></trkpt><trkpt lat="41.23463826991775" lon="14.473354019886093"><ele>92.8</ele><time>2026-04-26T11:34:00Z</time></trkpt><trkpt lat="41.23466710138782" lon="14.473251703292037"><ele>92.39999999999999</ele><time>2026-04-26T11:34:01Z</time></trkpt><trkpt lat="41.234700813975266" lon="14.473132065126412"><ele>92.0</ele><time>2026-04-26T11:34:02Z</time></trkpt><trkpt lat="41.234744707659544" lon="14.472978761270026"><ele>91.75</ele><time>2026-04-26T11:34:03Z</time></trkpt><trkpt lat="41.23479519795169" lon="14.472810626755447"><ele>91.5</ele><time>2026-04-26T11:34:04Z</time></trkpt><trkpt lat="41.23484915074468" lon="14.472640203677285"><ele>91.25</ele><time>2026-04-26T11:34:05Z</time></trkpt><trkpt lat="41.23490398142912" lon="14.472482400465788"><ele>91.0</ele><time>2026-04-26T11:34:06Z</time></trkpt><trkpt lat="41.23495250830505" lon="14.472371624163424"><ele>91.5</ele><time>2026-04-26T11:34:07Z</time></trkpt><trkpt lat="41.23499442466199" lon="14.472287868202148"><ele>92.0</ele><time>2026-04-26T11:34:08Z</time></trkpt><trkpt lat="41.23509414330205" lon="14.472316174876843"><ele>92.5</ele><time>2026-04-26T11:34:10Z</time></trkpt><trkpt lat="41.23522995403443" lon="14.472323158309115"><ele>93.0</ele><time>2026-04-26T11:34:11Z</time></trkpt><trkpt lat="41.23538263801434" lon="14.472307133231384"><ele>93.0</ele><time>2026-04-26T11:34:12Z</time></trkpt><trkpt lat="41.235527797679985" lon="14.472298777043642"><ele>93.0</ele><time>2026-04-26T11:34:13Z</time></trkpt><trkpt lat="41.23566967548449" lon="14.47226545055813"><ele>93.0</ele><time>2026-04-26T11:34:14Z</time></trkpt><trkpt lat="41.235813614314566" lon="14.47220155873413"><ele>93.0</ele><time>2026-04-26T11:34:15Z</time></trkpt><trkpt lat="41.23597393592873" lon="14.472166227235158"><ele>92.66666666666667</ele><time>2026-04-26T11:34:16Z</time></trkpt><trkpt lat="41.23612680748209" lon="14.472123134478958"><ele>92.33333333333334</ele><time>2026-04-26T11:34:17Z</time></trkpt><trkpt lat="41.23628676953371" lon="14.472085889333517"><ele>92.0</ele><time>2026-04-26T11:34:18Z</time></trkpt><trkpt lat="41.2364460742071" lon="14.47206118975704"><ele>93.0</ele><time>2026-04-26T11:34:19Z</time></trkpt><trkpt lat="41.23661086270237" lon="14.472033089153234"><ele>94.0</ele><time>2026-04-26T11:34:20Z</time></trkpt><trkpt lat="41.236777431656805" lon="14.472002011116487"><ele>95.0</ele><time>2026-04-26T11:34:21Z</time></trkpt><trkpt lat="41.23694554298806" lon="14.47195111698356"><ele>95.0</ele><time>2026-04-26T11:34:22Z</time></trkpt><trkpt lat="41.23710052121501" lon="14.471947481194803"><ele>95.0</ele><time>2026-04-26T11:34:23Z</time></trkpt><trkpt lat="41.23722764845818" lon="14.471927790269595"><ele>95.0</ele><time>2026-04-26T11:34:24Z</time></trkpt><trkpt lat="41.237312126187895" lon="14.471921101515221"><ele>95.0</ele><time>2026-04-26T11:34:25Z</time></trkpt><trkpt lat="41.237385806589714" lon="14.471910614157833"><ele>95.0</ele><time>2026-04-26T11:34:27Z</time></trkpt><trkpt lat="41.23747976152143" lon="14.471912152084428"><ele>96.0</ele><time>2026-04-26T11:34:45Z</time></trkpt><trkpt lat="41.23762257004544" lon="14.47186995406375"><ele>97.0</ele><time>2026-04-26T11:34:47Z</time></trkpt><trkpt lat="41.237728870188676" lon="14.471854967009637"><ele>98.0</ele><time>2026-04-26T11:34:48Z</time></trkpt><trkpt lat="41.23785046045942" lon="14.471826940663306"><ele>99.0</ele><time>2026-04-26T11:34:49Z</time></trkpt><trkpt lat="41.23798275744852" lon="14.471789192066531"><ele>99.0</ele><time>2026-04-26T11:34:50Z</time></trkpt><trkpt lat="41.238121144935675" lon="14.471736308374869"><ele>99.0</ele><time>2026-04-26T11:34:51Z</time></trkpt><trkpt lat="41.23825888984095" lon="14.471667780736704"><ele>99.0</ele><time>2026-04-26T11:34:52Z</time></trkpt><trkpt lat="41.238370466599115" lon="14.471597453031032"><ele>99.0</ele><time>2026-04-26T11:34:52.999Z</time></trkpt><trkpt lat="41.23847005194788" lon="14.471512516409586"><ele>99.4</ele><time>2026-04-26T11:34:53.999Z</time></trkpt><trkpt lat="41.238558278873" lon="14.471434966557252"><ele>99.80000000000001</ele><time>2026-04-26T11:34:54.999Z</time></trkpt><trkpt lat="41.23862815058502" lon="14.471380472048041"><ele>100.19999999999999</ele><time>2026-04-26T11:34:55.999Z</time></trkpt><trkpt lat="41.23867892366538" lon="14.471305071460801"><ele>100.6</ele><time>2026-04-26T11:34:56.999Z</time></trkpt><trkpt lat="41.23869972986516" lon="14.47119370676425"><ele>101.0</ele><time>2026-04-26T11:34:57.999Z</time></trkpt><trkpt lat="41.23863795770163" lon="14.471022814488977"><ele>101.0</ele><time>2026-04-26T11:34:58.999Z</time></trkpt><trkpt lat="41.23860614505044" lon="14.470825672782677"><ele>101.0</ele><time>2026-04-26T11:34:59.999Z</time></trkpt><trkpt lat="41.23857341233677" lon="14.470618907178979"><ele>101.0</ele><time>2026-04-26T11:35:00.999Z</time></trkpt><trkpt lat="41.23854005939648" lon="14.470408221986963"><ele>100.25</ele><time>2026-04-26T11:35:01.999Z</time></trkpt><trkpt lat="41.23851173217431" lon="14.470221703339933"><ele>99.5</ele><time>2026-04-26T11:35:02.999Z</time></trkpt><trkpt lat="41.23848805863863" lon="14.470041809320902"><ele>98.75</ele><time>2026-04-26T11:35:04Z</time></trkpt><trkpt lat="41.238460036905934" lon="14.469868435423074"><ele>98.0</ele><time>2026-04-26T11:35:05Z</time></trkpt><trkpt lat="41.23842394963577" lon="14.46970553189358"><ele>97.60000000000001</ele><time>2026-04-26T11:35:06Z</time></trkpt><trkpt lat="41.23839295044937" lon="14.469556286981991"><ele>97.2</ele><time>2026-04-26T11:35:07Z</time></trkpt><trkpt lat="41.23837071605716" lon="14.469413244952523"><ele>96.8</ele><time>2026-04-26T11:35:08Z</time></trkpt><trkpt lat="41.238350638620645" lon="14.469282186289036"><ele>96.4</ele><time>2026-04-26T11:35:09Z</time></trkpt><trkpt lat="41.23832131827096" lon="14.469186136507336"><ele>96.0</ele><time>2026-04-26T11:35:10Z</time></trkpt><trkpt lat="41.23833623261819" lon="14.46910240225437"><ele>96.0</ele><time>2026-04-26T11:35:11Z</time></trkpt><trkpt lat="41.23843302844492" lon="14.469014305402677"><ele>96.0</ele><time>2026-04-26T11:35:13Z</time></trkpt><trkpt lat="41.23851904934542" lon="14.468900663085012"><ele>96.0</ele><time>2026-04-26T11:35:14Z</time></trkpt><trkpt lat="41.238617479749145" lon="14.46873554887152"><ele>96.0</ele><time>2026-04-26T11:35:15Z</time></trkpt><trkpt lat="41.23871447943778" lon="14.4686189288066"><ele>95.8</ele><time>2026-04-26T11:35:16Z</time></trkpt><trkpt lat="41.23881520430169" lon="14.468556735025961"><ele>95.6</ele><time>2026-04-26T11:35:17Z</time></trkpt><trkpt lat="41.23888744726083" lon="14.468479727254156"><ele>95.4</ele><time>2026-04-26T11:35:18Z</time></trkpt><trkpt lat="41.23894499546791" lon="14.46838954300838"><ele>95.2</ele><time>2026-04-26T11:35:19Z</time></trkpt><trkpt lat="41.23895401616551" lon="14.468266124300687"><ele>95.0</ele><time>2026-04-26T11:35:20Z</time></trkpt><trkpt lat="41.2389516181362" lon="14.468145057272034"><ele>95.0</ele><time>2026-04-26T11:35:21Z</time></trkpt><trkpt lat="41.238958019655506" lon="14.468006882803715"><ele>95.0</ele><time>2026-04-26T11:35:22Z</time></trkpt><trkpt lat="41.23896713345489" lon="14.467860257775847"><ele>95.0</ele><time>2026-04-26T11:35:23Z</time></trkpt><trkpt lat="41.23899993446245" lon="14.467709792707634"><ele>95.0</ele><time>2026-04-26T11:35:24Z</time></trkpt><trkpt lat="41.2390624081617" lon="14.467537204888577"><ele>95.0</ele><time>2026-04-26T11:35:25Z</time></trkpt><trkpt lat="41.23913701455887" lon="14.467369911522203"><ele>95.0</ele><time>2026-04-26T11:35:26Z</time></trkpt><trkpt lat="41.23921208115503" lon="14.467195705729644"><ele>95.0</ele><time>2026-04-26T11:35:27Z</time></trkpt><trkpt lat="41.23927323676556" lon="14.4670412441785"><ele>95.0</ele><time>2026-04-26T11:35:28Z</time></trkpt><trkpt lat="41.23932799385038" lon="14.46687832562897"><ele>95.0</ele><time>2026-04-26T11:35:29Z</time></trkpt><trkpt lat="41.23937422013863" lon="14.466718308461191"><ele>95.0</ele><time>2026-04-26T11:35:30Z</time></trkpt><trkpt lat="41.239415879383664" lon="14.466568528465956"><ele>95.0</ele><time>2026-04-26T11:35:31Z</time></trkpt><trkpt lat="41.23944650303886" lon="14.46644689753834"><ele>95.0</ele><time>2026-04-26T11:35:32Z</time></trkpt><trkpt lat="41.239442559759055" lon="14.466347567375802"><ele>95.0</ele><time>2026-04-26T11:35:34Z</time></trkpt><trkpt lat="41.23947151098313" lon="14.466253650663356"><ele>94.75</ele><time>2026-04-26T11:35:36Z</time></trkpt><trkpt lat="41.23956775051195" lon="14.466163283079089"><ele>94.5</ele><time>2026-04-26T11:35:37Z</time></trkpt><trkpt lat="41.23966322860882" lon="14.466080745208032"><ele>94.25</ele><time>2026-04-26T11:35:38Z</time></trkpt><trkpt lat="41.23977043110387" lon="14.465976230488836"><ele>94.0</ele><time>2026-04-26T11:35:39Z</time></trkpt><trkpt lat="41.23989331125995" lon="14.46585387901996"><ele>94.0</ele><time>2026-04-26T11:35:40Z</time></trkpt><trkpt lat="41.24004009143434" lon="14.46573964814186"><ele>94.0</ele><time>2026-04-26T11:35:41Z</time></trkpt><trkpt lat="41.24020333795404" lon="14.465584119343458"><ele>94.0</ele><time>2026-04-26T11:35:42Z</time></trkpt><trkpt lat="41.24035958131335" lon="14.465435262455886"><ele>94.0</ele><time>2026-04-26T11:35:43Z</time></trkpt><trkpt lat="41.24052909444682" lon="14.465273763200093"><ele>94.0</ele><time>2026-04-26T11:35:44Z</time></trkpt><trkpt lat="41.240706690184105" lon="14.465104758090044"><ele>94.0</ele><time>2026-04-26T11:35:45Z</time></trkpt><trkpt lat="41.24089700143822" lon="14.46492388034112"><ele>94.0</ele><time>2026-04-26T11:35:46Z</time></trkpt><trkpt lat="41.24110018137175" lon="14.464728245544373"><ele>94.0</ele><time>2026-04-26T11:35:47Z</time></trkpt><trkpt lat="41.24130284240954" lon="14.46453084932657"><ele>94.5</ele><time>2026-04-26T11:35:48Z</time></trkpt><trkpt lat="41.241504143519414" lon="14.464334777750471"><ele>95.0</ele><time>2026-04-26T11:35:49Z</time></trkpt><trkpt lat="41.24170914045415" lon="14.46413776616751"><ele>95.0</ele><time>2026-04-26T11:35:50Z</time></trkpt><trkpt lat="41.241921898420415" lon="14.463933875237142"><ele>95.0</ele><time>2026-04-26T11:35:51Z</time></trkpt><trkpt lat="41.24214000800005" lon="14.463724855821841"><ele>93.5</ele><time>2026-04-26T11:35:52Z</time></trkpt><trkpt lat="41.24236188226124" lon="14.463512228620797"><ele>92.0</ele><time>2026-04-26T11:35:53Z</time></trkpt><trkpt lat="41.24257909313999" lon="14.463304070433189"><ele>92.0</ele><time>2026-04-26T11:35:54Z</time></trkpt><trkpt lat="41.24278840589004" lon="14.463103664399553"><ele>92.0</ele><time>2026-04-26T11:35:55Z</time></trkpt><trkpt lat="41.24299307195979" lon="14.46290847958353"><ele>91.5</ele><time>2026-04-26T11:35:56Z</time></trkpt><trkpt lat="41.243196514094976" lon="14.462714457847449"><ele>91.0</ele><time>2026-04-26T11:35:57Z</time></trkpt><trkpt lat="41.2433972693977" lon="14.462523747052526"><ele>91.0</ele><time>2026-04-26T11:35:58Z</time></trkpt><trkpt lat="41.243597674858144" lon="14.4623332221078"><ele>91.0</ele><time>2026-04-26T11:35:59Z</time></trkpt><trkpt lat="41.243803289887175" lon="14.462133773625062"><ele>90.0</ele><time>2026-04-26T11:36:00Z</time></trkpt><trkpt lat="41.243993156964095" lon="14.461918470210728"><ele>89.0</ele><time>2026-04-26T11:36:01Z</time></trkpt><trkpt lat="41.24419144093895" lon="14.461719042814027"><ele>89.0</ele><time>2026-04-26T11:36:02Z</time></trkpt><trkpt lat="41.24439832624091" lon="14.46153497092858"><ele>89.0</ele><time>2026-04-26T11:36:03Z</time></trkpt><trkpt lat="41.244597709412446" lon="14.4613301788329"><ele>88.5</ele><time>2026-04-26T11:36:04Z</time></trkpt><trkpt lat="41.24480008108078" lon="14.461121606748982"><ele>88.0</ele><time>2026-04-26T11:36:05Z</time></trkpt><trkpt lat="41.24500013385495" lon="14.460916316175103"><ele>88.0</ele><time>2026-04-26T11:36:06Z</time></trkpt><trkpt lat="41.24520002331308" lon="14.460711312260036"><ele>88.0</ele><time>2026-04-26T11:36:07Z</time></trkpt><trkpt lat="41.24540549834683" lon="14.460501470962507"><ele>88.0</ele><time>2026-04-26T11:36:08Z</time></trkpt><trkpt lat="41.24560256657473" lon="14.460279715827326"><ele>88.0</ele><time>2026-04-26T11:36:09Z</time></trkpt><trkpt lat="41.24580881073343" lon="14.460061871201255"><ele>88.0</ele><time>2026-04-26T11:36:10Z</time></trkpt><trkpt lat="41.246029654383385" lon="14.459854702578514"><ele>88.0</ele><time>2026-04-26T11:36:11Z</time></trkpt><trkpt lat="41.24623913666655" lon="14.459637179941302"><ele>87.0</ele><time>2026-04-26T11:36:12Z</time></trkpt><trkpt lat="41.246456328179086" lon="14.459415637230645"><ele>86.0</ele><time>2026-04-26T11:36:13Z</time></trkpt><trkpt lat="41.24666398641972" lon="14.45919979093001"><ele>86.0</ele><time>2026-04-26T11:36:14Z</time></trkpt><trkpt lat="41.24686755962102" lon="14.458986630160574"><ele>86.0</ele><time>2026-04-26T11:36:15Z</time></trkpt><trkpt lat="41.24706543760749" lon="14.458779223773899"><ele>86.0</ele><time>2026-04-26T11:36:16Z</time></trkpt><trkpt lat="41.24725648764335" lon="14.458579552051884"><ele>86.0</ele><time>2026-04-26T11:36:17Z</time></trkpt><trkpt lat="41.24742513709329" lon="14.458409609911369"><ele>86.0</ele><time>2026-04-26T11:36:18Z</time></trkpt><trkpt lat="41.24760625097834" lon="14.458231390239247"><ele>86.0</ele><time>2026-04-26T11:36:19Z</time></trkpt><trkpt lat="41.24779118507472" lon="14.458061243814344"><ele>85.5</ele><time>2026-04-26T11:36:20Z</time></trkpt><trkpt lat="41.247988734179735" lon="14.457891973630629"><ele>85.0</ele><time>2026-04-26T11:36:21Z</time></trkpt><trkpt lat="41.24819736561549" lon="14.457724026425723"><ele>86.0</ele><time>2026-04-26T11:36:22Z</time></trkpt><trkpt lat="41.24841118489384" lon="14.457556255588571"><ele>87.0</ele><time>2026-04-26T11:36:23Z</time></trkpt><trkpt lat="41.24864822345952" lon="14.457370263175868"><ele>87.0</ele><time>2026-04-26T11:36:24Z</time></trkpt><trkpt lat="41.24882675516772" lon="14.457230249921663"><ele>87.0</ele><time>2026-04-26T11:36:25Z</time></trkpt><trkpt lat="41.24893312171117" lon="14.457146832121493"><ele>87.0</ele><time>2026-04-26T11:36:26Z</time></trkpt><trkpt lat="41.249072834598266" lon="14.457013815118263"><ele>86.66666666666667</ele><time>2026-04-26T11:36:27Z</time></trkpt><trkpt lat="41.249229442299466" lon="14.456943151778683"><ele>86.33333333333334</ele><time>2026-04-26T11:36:28Z</time></trkpt><trkpt lat="41.2493535019844" lon="14.456822445599345"><ele>86.0</ele><time>2026-04-26T11:36:29Z</time></trkpt><trkpt lat="41.24947496437403" lon="14.456713427708593"><ele>86.0</ele><time>2026-04-26T11:36:30Z</time></trkpt><trkpt lat="41.24958666773064" lon="14.456624078035244"><ele>86.0</ele><time>2026-04-26T11:36:31Z</time></trkpt><trkpt lat="41.2496894329522" lon="14.456537955121341"><ele>86.0</ele><time>2026-04-26T11:36:32Z</time></trkpt><trkpt lat="41.24979018547292" lon="14.456460508912597"><ele>86.0</ele><time>2026-04-26T11:36:33Z</time></trkpt><trkpt lat="41.24988071266592" lon="14.456394076368172"><ele>86.6</ele><time>2026-04-26T11:36:34Z</time></trkpt><trkpt lat="41.24997248487588" lon="14.456319703728022"><ele>87.19999999999999</ele><time>2026-04-26T11:36:35Z</time></trkpt><trkpt lat="41.2500555355435" lon="14.45623796603431"><ele>87.80000000000001</ele><time>2026-04-26T11:36:36Z</time></trkpt><trkpt lat="41.250132502665195" lon="14.45618904068572"><ele>88.4</ele><time>2026-04-26T11:36:37Z</time></trkpt><trkpt lat="41.25020340683721" lon="14.456131582874482"><ele>89.0</ele><time>2026-04-26T11:36:38Z</time></trkpt><trkpt lat="41.25027224479709" lon="14.456099881944638"><ele>89.0</ele><time>2026-04-26T11:36:39Z</time></trkpt><trkpt lat="41.25035354127318" lon="14.456041613042348"><ele>89.0</ele><time>2026-04-26T11:36:41Z</time></trkpt><trkpt lat="41.250457908439515" lon="14.456018478208508"><ele>89.0</ele><time>2026-04-26T11:36:44Z</time></trkpt><trkpt lat="41.25054208218283" lon="14.456018997375738"><ele>89.0</ele><time>2026-04-26T11:36:46Z</time></trkpt><trkpt lat="41.25060129261665" lon="14.455901834391518"><ele>89.0</ele><time>2026-04-26T11:36:48Z</time></trkpt><trkpt lat="41.250648488135795" lon="14.455786184399749"><ele>88.99999999999999</ele><time>2026-04-26T11:36:50Z</time></trkpt><trkpt lat="41.25069635342191" lon="14.455725927999529"><ele>89.0</ele><time>2026-04-26T11:36:51Z</time></trkpt><trkpt lat="41.25077657659389" lon="14.455706627577799"><ele>89.0</ele><time>2026-04-26T11:36:52Z</time></trkpt><trkpt lat="41.25083959723998" lon="14.455655640001861"><ele>89.0</ele><time>2026-04-26T11:36:53Z</time></trkpt><trkpt lat="41.25089501174486" lon="14.45561080626737"><ele>89.0</ele><time>2026-04-26T11:36:54Z</time></trkpt><trkpt lat="41.25094907278429" lon="14.455567567133487"><ele>88.99999999999999</ele><time>2026-04-26T11:36:55Z</time></trkpt><trkpt lat="41.25103493946473" lon="14.455500285125732"><ele>89.0</ele><time>2026-04-26T11:36:57Z</time></trkpt><trkpt lat="41.251118961964536" lon="14.455426987553292"><ele>89.0</ele><time>2026-04-26T11:37:00Z</time></trkpt><trkpt lat="41.251197849404754" lon="14.455361860767756"><ele>89.0</ele><time>2026-04-26T11:37:01Z</time></trkpt><trkpt lat="41.25130489026251" lon="14.455264389707445"><ele>89.0</ele><time>2026-04-26T11:37:02Z</time></trkpt><trkpt lat="41.25145508680793" lon="14.455162153901016"><ele>89.0</ele><time>2026-04-26T11:37:03Z</time></trkpt><trkpt lat="41.2516426903806" lon="14.455008889160139"><ele>89.0</ele><time>2026-04-26T11:37:04Z</time></trkpt><trkpt lat="41.25186212798374" lon="14.454834461746227"><ele>89.0</ele><time>2026-04-26T11:37:05Z</time></trkpt><trkpt lat="41.252115683248206" lon="14.454657636830673"><ele>88.0</ele><time>2026-04-26T11:37:06Z</time></trkpt><trkpt lat="41.2523713300844" lon="14.45443586731749"><ele>87.0</ele><time>2026-04-26T11:37:07Z</time></trkpt><trkpt lat="41.25266003172642" lon="14.454216762286338"><ele>87.0</ele><time>2026-04-26T11:37:08Z</time></trkpt><trkpt lat="41.252950784157335" lon="14.453981485454067"><ele>87.0</ele><time>2026-04-26T11:37:09Z</time></trkpt><trkpt lat="41.25325090828623" lon="14.453756791620744"><ele>85.5</ele><time>2026-04-26T11:37:10Z</time></trkpt><trkpt lat="41.25353112959141" lon="14.453504128214238"><ele>84.0</ele><time>2026-04-26T11:37:11Z</time></trkpt><trkpt lat="41.25379500598014" lon="14.45332140608584"><ele>83.5</ele><time>2026-04-26T11:37:12Z</time></trkpt><trkpt lat="41.254025939161856" lon="14.453168696275643"><ele>83.0</ele><time>2026-04-26T11:37:13Z</time></trkpt><trkpt lat="41.25426581088346" lon="14.453040273424884"><ele>81.0</ele><time>2026-04-26T11:37:14Z</time></trkpt><trkpt lat="41.25450984509432" lon="14.452940844553796"><ele>79.0</ele><time>2026-04-26T11:37:15Z</time></trkpt><trkpt lat="41.25473485409858" lon="14.452837091906384"><ele>80.0</ele><time>2026-04-26T11:37:16Z</time></trkpt><trkpt lat="41.25493656561802" lon="14.452740513850413"><ele>81.0</ele><time>2026-04-26T11:37:17Z</time></trkpt><trkpt lat="41.2551177841576" lon="14.452654274821974"><ele>82.0</ele><time>2026-04-26T11:37:18Z</time></trkpt><trkpt lat="41.25528625327375" lon="14.452546540248068"><ele>82.0</ele><time>2026-04-26T11:37:19Z</time></trkpt><trkpt lat="41.255454092437674" lon="14.452379458422449"><ele>82.0</ele><time>2026-04-26T11:37:20Z</time></trkpt><trkpt lat="41.2556141947797" lon="14.45215496579411"><ele>82.0</ele><time>2026-04-26T11:37:21Z</time></trkpt><trkpt lat="41.25575254061312" lon="14.451918385953427"><ele>83.33333333333333</ele><time>2026-04-26T11:37:22Z</time></trkpt><trkpt lat="41.255863058325076" lon="14.451702533756906"><ele>84.66666666666667</ele><time>2026-04-26T11:37:23Z</time></trkpt><trkpt lat="41.25595654317311" lon="14.451467570042396"><ele>86.0</ele><time>2026-04-26T11:37:24Z</time></trkpt><trkpt lat="41.25603086257939" lon="14.45119007520885"><ele>86.0</ele><time>2026-04-26T11:37:25Z</time></trkpt><trkpt lat="41.25606493256872" lon="14.450862444082464"><ele>86.0</ele><time>2026-04-26T11:37:26Z</time></trkpt><trkpt lat="41.25606740316653" lon="14.450509408723871"><ele>85.5</ele><time>2026-04-26T11:37:27Z</time></trkpt><trkpt lat="41.25606449086188" lon="14.450123259097785"><ele>85.0</ele><time>2026-04-26T11:37:28Z</time></trkpt><trkpt lat="41.256070702543845" lon="14.449727869024501"><ele>84.0</ele><time>2026-04-26T11:37:29Z</time></trkpt><trkpt lat="41.25608625392752" lon="14.449352548465008"><ele>83.0</ele><time>2026-04-26T11:37:30Z</time></trkpt><trkpt lat="41.25609822486315" lon="14.449018299278004"><ele>83.33333333333334</ele><time>2026-04-26T11:37:31Z</time></trkpt><trkpt lat="41.25610614175763" lon="14.448719323588364"><ele>83.66666666666667</ele><time>2026-04-26T11:37:32Z</time></trkpt><trkpt lat="41.25611405644332" lon="14.448444685910111"><ele>84.0</ele><time>2026-04-26T11:37:33Z</time></trkpt><trkpt lat="41.256136127145645" lon="14.448177803034072"><ele>84.0</ele><time>2026-04-26T11:37:34Z</time></trkpt><trkpt lat="41.25618608370671" lon="14.447912751612813"><ele>84.0</ele><time>2026-04-26T11:37:35Z</time></trkpt><trkpt lat="41.25625785428647" lon="14.447652654343871"><ele>84.0</ele><time>2026-04-26T11:37:36Z</time></trkpt><trkpt lat="41.25633869283636" lon="14.447416500130297"><ele>84.0</ele><time>2026-04-26T11:37:37Z</time></trkpt><trkpt lat="41.256386766950506" lon="14.447203632115365"><ele>84.0</ele><time>2026-04-26T11:37:38Z</time></trkpt><trkpt lat="41.25642828484384" lon="14.447068215880675"><ele>84.0</ele><time>2026-04-26T11:37:39Z</time></trkpt><trkpt lat="41.25648237332971" lon="14.44702152446243"><ele>84.0</ele><time>2026-04-26T11:37:40Z</time></trkpt><trkpt lat="41.25657076542974" lon="14.446992957618836"><ele>84.0</ele><time>2026-04-26T11:37:41Z</time></trkpt><trkpt lat="41.25669501805276" lon="14.447008082687354"><ele>86.33333333333333</ele><time>2026-04-26T11:37:42Z</time></trkpt><trkpt lat="41.256854887182165" lon="14.447089795644201"><ele>88.66666666666666</ele><time>2026-04-26T11:37:43Z</time></trkpt><trkpt lat="41.25702475971095" lon="14.447206548896778"><ele>91.0</ele><time>2026-04-26T11:37:44Z</time></trkpt><trkpt lat="41.25718634467359" lon="14.4472987123788"><ele>93.33333333333333</ele><time>2026-04-26T11:37:45Z</time></trkpt><trkpt lat="41.25736201203359" lon="14.447369603069275"><ele>95.66666666666666</ele><time>2026-04-26T11:37:46Z</time></trkpt><trkpt lat="41.257527190329974" lon="14.44741124729393"><ele>98.0</ele><time>2026-04-26T11:37:47Z</time></trkpt><trkpt lat="41.25770132606794" lon="14.447452837922654"><ele>98.0</ele><time>2026-04-26T11:37:48Z</time></trkpt><trkpt lat="41.25787936490723" lon="14.447502045326297"><ele>98.0</ele><time>2026-04-26T11:37:49Z</time></trkpt><trkpt lat="41.25806623231036" lon="14.447558866134072"><ele>98.0</ele><time>2026-04-26T11:37:50Z</time></trkpt><trkpt lat="41.25824978563464" lon="14.447625157373349"><ele>98.66666666666666</ele><time>2026-04-26T11:37:51Z</time></trkpt><trkpt lat="41.25841014956036" lon="14.447714809624896"><ele>99.33333333333334</ele><time>2026-04-26T11:37:52Z</time></trkpt><trkpt lat="41.25856803435829" lon="14.447766581105336"><ele>100.0</ele><time>2026-04-26T11:37:53Z</time></trkpt><trkpt lat="41.258702164885676" lon="14.44784604112787"><ele>100.66666666666667</ele><time>2026-04-26T11:37:54Z</time></trkpt><trkpt lat="41.25881481622355" lon="14.447960841748104"><ele>101.33333333333334</ele><time>2026-04-26T11:37:55Z</time></trkpt><trkpt lat="41.25889547384955" lon="14.44814557684737"><ele>102.0</ele><time>2026-04-26T11:37:56Z</time></trkpt><trkpt lat="41.25899442841888" lon="14.448355570914801"><ele>103.33333333333334</ele><time>2026-04-26T11:37:57Z</time></trkpt><trkpt lat="41.25909448033681" lon="14.448555212152344"><ele>104.66666666666667</ele><time>2026-04-26T11:37:58Z</time></trkpt><trkpt lat="41.25922736986348" lon="14.44871597433761"><ele>106.0</ele><time>2026-04-26T11:37:59Z</time></trkpt><trkpt lat="41.25940730516919" lon="14.44886110612543"><ele>106.66666666666667</ele><time>2026-04-26T11:38:00Z</time></trkpt><trkpt lat="41.259576570948326" lon="14.448989162553943"><ele>107.33333333333334</ele><time>2026-04-26T11:38:01Z</time></trkpt><trkpt lat="41.259734305747685" lon="14.44911226274416"><ele>108.0</ele><time>2026-04-26T11:38:02Z</time></trkpt><trkpt lat="41.25989296027196" lon="14.449253020116712"><ele>108.33333333333334</ele><time>2026-04-26T11:38:03Z</time></trkpt><trkpt lat="41.26004673907111" lon="14.449415308487994"><ele>108.66666666666667</ele><time>2026-04-26T11:38:04Z</time></trkpt><trkpt lat="41.260186728024564" lon="14.449598456725985"><ele>109.0</ele><time>2026-04-26T11:38:05Z</time></trkpt><trkpt lat="41.26032366579717" lon="14.44978722454259"><ele>110.66666666666667</ele><time>2026-04-26T11:38:06Z</time></trkpt><trkpt lat="41.26046454230003" lon="14.449994145522782"><ele>112.33333333333334</ele><time>2026-04-26T11:38:07Z</time></trkpt><trkpt lat="41.2606317153371" lon="14.450149178944242"><ele>114.0</ele><time>2026-04-26T11:38:08Z</time></trkpt><trkpt lat="41.2608225036385" lon="14.45029526232732"><ele>114.66666666666666</ele><time>2026-04-26T11:38:09Z</time></trkpt><trkpt lat="41.26099923120834" lon="14.450435619849463"><ele>115.33333333333333</ele><time>2026-04-26T11:38:10Z</time></trkpt><trkpt lat="41.26115639036043" lon="14.450566177374181"><ele>116.0</ele><time>2026-04-26T11:38:11Z</time></trkpt><trkpt lat="41.26131033309742" lon="14.450759826719501"><ele>118.0</ele><time>2026-04-26T11:38:12Z</time></trkpt><trkpt lat="41.26148814779094" lon="14.450927707548963"><ele>120.0</ele><time>2026-04-26T11:38:13Z</time></trkpt><trkpt lat="41.26163925510051" lon="14.451101618367748"><ele>122.0</ele><time>2026-04-26T11:38:14Z</time></trkpt><trkpt lat="41.261789396521515" lon="14.451264507425973"><ele>123.66666666666666</ele><time>2026-04-26T11:38:15Z</time></trkpt><trkpt lat="41.261936086005846" lon="14.451426302122462"><ele>125.33333333333334</ele><time>2026-04-26T11:38:16Z</time></trkpt><trkpt lat="41.26210050810739" lon="14.451566401665385"><ele>127.0</ele><time>2026-04-26T11:38:17Z</time></trkpt><trkpt lat="41.26227420528542" lon="14.451684239825362"><ele>127.0</ele><time>2026-04-26T11:38:18Z</time></trkpt><trkpt lat="41.262465131036976" lon="14.451786406211264"><ele>127.0</ele><time>2026-04-26T11:38:19Z</time></trkpt><trkpt lat="41.26266400512517" lon="14.451878218838237"><ele>127.0</ele><time>2026-04-26T11:38:20Z</time></trkpt><trkpt lat="41.26286744714813" lon="14.451969878298923"><ele>127.0</ele><time>2026-04-26T11:38:21Z</time></trkpt><trkpt lat="41.263069651006695" lon="14.452064904563807"><ele>127.0</ele><time>2026-04-26T11:38:22Z</time></trkpt><trkpt lat="41.26327133425574" lon="14.452156255840771"><ele>127.0</ele><time>2026-04-26T11:38:23Z</time></trkpt><trkpt lat="41.26347645320811" lon="14.452236493131553"><ele>129.66666666666669</ele><time>2026-04-26T11:38:24Z</time></trkpt><trkpt lat="41.26368145088503" lon="14.452305554201141"><ele>132.33333333333334</ele><time>2026-04-26T11:38:25Z</time></trkpt><trkpt lat="41.26388664814692" lon="14.452356361962556"><ele>135.0</ele><time>2026-04-26T11:38:26Z</time></trkpt><trkpt lat="41.26408835512623" lon="14.452387990772587"><ele>137.0</ele><time>2026-04-26T11:38:27Z</time></trkpt><trkpt lat="41.2642820278048" lon="14.452397159511113"><ele>139.0</ele><time>2026-04-26T11:38:28Z</time></trkpt><trkpt lat="41.26445588928905" lon="14.45239306622087"><ele>141.0</ele><time>2026-04-26T11:38:29Z</time></trkpt><trkpt lat="41.2646214583189" lon="14.452367619534964"><ele>142.66666666666666</ele><time>2026-04-26T11:38:30Z</time></trkpt><trkpt lat="41.264792176563766" lon="14.452287427525174"><ele>144.33333333333331</ele><time>2026-04-26T11:38:31Z</time></trkpt><trkpt lat="41.264975447770496" lon="14.452158027055177"><ele>146.0</ele><time>2026-04-26T11:38:32Z</time></trkpt><trkpt lat="41.26517286485679" lon="14.452052874768823"><ele>146.0</ele><time>2026-04-26T11:38:33Z</time></trkpt><trkpt lat="41.265346956276026" lon="14.451945984563304"><ele>146.0</ele><time>2026-04-26T11:38:34Z</time></trkpt><trkpt lat="41.26550042931185" lon="14.451798132127966"><ele>146.0</ele><time>2026-04-26T11:38:35Z</time></trkpt><trkpt lat="41.265647723467396" lon="14.45169160768409"><ele>148.25</ele><time>2026-04-26T11:38:36Z</time></trkpt><trkpt lat="41.26576779268237" lon="14.451606724205904"><ele>150.5</ele><time>2026-04-26T11:38:37Z</time></trkpt><trkpt lat="41.26587676543035" lon="14.451598004282893"><ele>152.75</ele><time>2026-04-26T11:38:38Z</time></trkpt><trkpt lat="41.26597652120241" lon="14.45168695336469"><ele>155.0</ele><time>2026-04-26T11:38:39Z</time></trkpt><trkpt lat="41.26609811031138" lon="14.45183221244573"><ele>155.0</ele><time>2026-04-26T11:38:40Z</time></trkpt><trkpt lat="41.26622970790738" lon="14.451983090252181"><ele>155.0</ele><time>2026-04-26T11:38:41Z</time></trkpt><trkpt lat="41.26631258050613" lon="14.452159576793113"><ele>155.0</ele><time>2026-04-26T11:38:42Z</time></trkpt><trkpt lat="41.266338096534554" lon="14.452329420567244"><ele>156.6</ele><time>2026-04-26T11:38:43Z</time></trkpt><trkpt lat="41.266349521086475" lon="14.452473680266959"><ele>158.2</ele><time>2026-04-26T11:38:44Z</time></trkpt><trkpt lat="41.266336080419435" lon="14.452581898557328"><ele>159.8</ele><time>2026-04-26T11:38:45Z</time></trkpt><trkpt lat="41.26648357491409" lon="14.452594697715858"><ele>161.4</ele><time>2026-04-26T11:38:48Z</time></trkpt><trkpt lat="41.2665564655275" lon="14.45252475656297"><ele>163.0</ele><time>2026-04-26T11:38:49Z</time></trkpt><trkpt lat="41.26665450533435" lon="14.452414942819193"><ele>163.66666666666669</ele><time>2026-04-26T11:38:50Z</time></trkpt><trkpt lat="41.266762201814366" lon="14.452288955458561"><ele>164.33333333333334</ele><time>2026-04-26T11:38:51Z</time></trkpt><trkpt lat="41.266879825219135" lon="14.452170153761"><ele>165.0</ele><time>2026-04-26T11:38:52Z</time></trkpt><trkpt lat="41.26699986768827" lon="14.452023970443301"><ele>165.0</ele><time>2026-04-26T11:38:53Z</time></trkpt><trkpt lat="41.26710733733416" lon="14.451850075371485"><ele>165.0</ele><time>2026-04-26T11:38:54Z</time></trkpt><trkpt lat="41.26722926052208" lon="14.451691470610804"><ele>165.0</ele><time>2026-04-26T11:38:55Z</time></trkpt><trkpt lat="41.26735207304017" lon="14.451496363691076"><ele>165.33333333333334</ele><time>2026-04-26T11:38:56Z</time></trkpt><trkpt lat="41.267460389995136" lon="14.451291801854326"><ele>165.66666666666669</ele><time>2026-04-26T11:38:57Z</time></trkpt><trkpt lat="41.26756030167216" lon="14.451125028076552"><ele>166.0</ele><time>2026-04-26T11:38:58Z</time></trkpt><trkpt lat="41.267650896510624" lon="14.450951897074898"><ele>166.0</ele><time>2026-04-26T11:38:59Z</time></trkpt><trkpt lat="41.26771089796877" lon="14.450804976047657"><ele>166.0</ele><time>2026-04-26T11:39:00Z</time></trkpt><trkpt lat="41.26775250497936" lon="14.45069461272559"><ele>166.0</ele><time>2026-04-26T11:39:01Z</time></trkpt><trkpt lat="41.267749285500805" lon="14.45056531943403"><ele>166.0</ele><time>2026-04-26T11:39:02Z</time></trkpt><trkpt lat="41.26776966107772" lon="14.45045906629796"><ele>166.0</ele><time>2026-04-26T11:39:03Z</time></trkpt><trkpt lat="41.267761725242316" lon="14.450305276712848"><ele>166.33333333333334</ele><time>2026-04-26T11:39:05Z</time></trkpt><trkpt lat="41.267978277304756" lon="14.450168183491769"><ele>166.66666666666666</ele><time>2026-04-26T11:39:06Z</time></trkpt><trkpt lat="41.26807503116121" lon="14.450045374822782"><ele>167.0</ele><time>2026-04-26T11:39:07Z</time></trkpt><trkpt lat="41.2681819776658" lon="14.44990721534911"><ele>167.0</ele><time>2026-04-26T11:39:08Z</time></trkpt><trkpt lat="41.268273619637256" lon="14.449795287216459"><ele>167.0</ele><time>2026-04-26T11:39:09Z</time></trkpt><trkpt lat="41.26835503441876" lon="14.449694352754165"><ele>167.0</ele><time>2026-04-26T11:39:10Z</time></trkpt><trkpt lat="41.268416460783435" lon="14.44961998323419"><ele>167.0</ele><time>2026-04-26T11:39:11Z</time></trkpt><trkpt lat="41.26850611139863" lon="14.44959117670732"><ele>167.0</ele><time>2026-04-26T11:39:13Z</time></trkpt><trkpt lat="41.26860440493258" lon="14.449706378739297"><ele>167.0</ele><time>2026-04-26T11:39:15Z</time></trkpt><trkpt lat="41.26865820592294" lon="14.449850943532626"><ele>167.0</ele><time>2026-04-26T11:39:17Z</time></trkpt><trkpt lat="41.26866522622937" lon="14.449975234983484"><ele>167.0</ele><time>2026-04-26T11:39:18Z</time></trkpt><trkpt lat="41.268657324266364" lon="14.450104186719512"><ele>167.0</ele><time>2026-04-26T11:39:19Z</time></trkpt><trkpt lat="41.26866836071907" lon="14.45022766447892"><ele>167.0</ele><time>2026-04-26T11:39:20Z</time></trkpt><trkpt lat="41.268693780175646" lon="14.450335848834353"><ele>167.0</ele><time>2026-04-26T11:39:21Z</time></trkpt><trkpt lat="41.2687691561168" lon="14.45041563203663"><ele>167.0</ele><time>2026-04-26T11:39:23Z</time></trkpt><trkpt lat="41.268843567552025" lon="14.450416986287285"><ele>167.0</ele><time>2026-04-26T11:39:24Z</time></trkpt><trkpt lat="41.26891720739825" lon="14.4504167300367"><ele>167.0</ele><time>2026-04-26T11:39:25Z</time></trkpt><trkpt lat="41.26897787680145" lon="14.450450156468735"><ele>167.0</ele><time>2026-04-26T11:39:26Z</time></trkpt><trkpt lat="41.2690391534892" lon="14.450518421033854"><ele>167.0</ele><time>2026-04-26T11:39:27Z</time></trkpt><trkpt lat="41.26911128356389" lon="14.450625789604056"><ele>169.6</ele><time>2026-04-26T11:39:28Z</time></trkpt><trkpt lat="41.26918511280393" lon="14.450678112307976"><ele>172.2</ele><time>2026-04-26T11:39:29Z</time></trkpt><trkpt lat="41.269273394887016" lon="14.450695585044295"><ele>174.8</ele><time>2026-04-26T11:39:30Z</time></trkpt><trkpt lat="41.2693614025038" lon="14.45066752096568"><ele>177.4</ele><time>2026-04-26T11:39:31Z</time></trkpt><trkpt lat="41.26947669991991" lon="14.450608860265607"><ele>180.0</ele><time>2026-04-26T11:39:32Z</time></trkpt><trkpt lat="41.26957840376553" lon="14.450550771616513"><ele>180.0</ele><time>2026-04-26T11:39:33Z</time></trkpt><trkpt lat="41.26966608107693" lon="14.450489496545071"><ele>180.0</ele><time>2026-04-26T11:39:34Z</time></trkpt><trkpt lat="41.26976096595845" lon="14.450445244253446"><ele>180.0</ele><time>2026-04-26T11:39:35Z</time></trkpt><trkpt lat="41.26986148215208" lon="14.450437896995977"><ele>180.0</ele><time>2026-04-26T11:39:36Z</time></trkpt><trkpt lat="41.269965663099185" lon="14.450440134568812"><ele>180.0</ele><time>2026-04-26T11:39:37Z</time></trkpt><trkpt lat="41.27007246100992" lon="14.450434014669353"><ele>176.5</ele><time>2026-04-26T11:39:38Z</time></trkpt><trkpt lat="41.27016842090493" lon="14.450408821505777"><ele>173.0</ele><time>2026-04-26T11:39:39Z</time></trkpt><trkpt lat="41.27026988506804" lon="14.450355392655727"><ele>169.5</ele><time>2026-04-26T11:39:40Z</time></trkpt><trkpt lat="41.27040737699654" lon="14.450282820990212"><ele>166.0</ele><time>2026-04-26T11:39:41Z</time></trkpt><trkpt lat="41.27052708757755" lon="14.450235657903148"><ele>166.8</ele><time>2026-04-26T11:39:42Z</time></trkpt><trkpt lat="41.27061427760888" lon="14.450202886700337"><ele>167.60000000000002</ele><time>2026-04-26T11:39:43Z</time></trkpt><trkpt lat="41.27068473774815" lon="14.450160303187753"><ele>168.4</ele><time>2026-04-26T11:39:44Z</time></trkpt><trkpt lat="41.27079695805131" lon="14.450044433107442"><ele>169.2</ele><time>2026-04-26T11:39:46Z</time></trkpt><trkpt lat="41.27085252969012" lon="14.449960665082095"><ele>170.0</ele><time>2026-04-26T11:39:47Z</time></trkpt><trkpt lat="41.27088173979297" lon="14.449857057090671"><ele>170.0</ele><time>2026-04-26T11:39:48Z</time></trkpt><trkpt lat="41.270912140423924" lon="14.449716675445952"><ele>170.0</ele><time>2026-04-26T11:39:49Z</time></trkpt><trkpt lat="41.270937553811955" lon="14.449536452859864"><ele>170.0</ele><time>2026-04-26T11:39:50Z</time></trkpt><trkpt lat="41.270988929419545" lon="14.449392017095079"><ele>170.0</ele><time>2026-04-26T11:39:51Z</time></trkpt><trkpt lat="41.27102961515775" lon="14.4492712673969"><ele>167.83333333333331</ele><time>2026-04-26T11:39:52Z</time></trkpt><trkpt lat="41.271093155571386" lon="14.449168799034465"><ele>165.66666666666666</ele><time>2026-04-26T11:39:53Z</time></trkpt><trkpt lat="41.271152680526676" lon="14.449090816073673"><ele>163.5</ele><time>2026-04-26T11:39:54Z</time></trkpt><trkpt lat="41.27121946636103" lon="14.449021686357591"><ele>161.33333333333334</ele><time>2026-04-26T11:39:55Z</time></trkpt><trkpt lat="41.27127528942504" lon="14.448976943251449"><ele>159.16666666666669</ele><time>2026-04-26T11:39:56Z</time></trkpt><trkpt lat="41.271353833144694" lon="14.448967535995198"><ele>157.0</ele><time>2026-04-26T11:39:57Z</time></trkpt><trkpt lat="41.27143849368553" lon="14.448977707085566"><ele>159.25</ele><time>2026-04-26T11:39:58Z</time></trkpt><trkpt lat="41.27153103747278" lon="14.44891761773438"><ele>161.5</ele><time>2026-04-26T11:40:00Z</time></trkpt><trkpt lat="41.2715209196838" lon="14.4487539981998"><ele>163.75</ele><time>2026-04-26T11:40:02Z</time></trkpt><trkpt lat="41.27150445746913" lon="14.44860615537116"><ele>166.0</ele><time>2026-04-26T11:40:03Z</time></trkpt><trkpt lat="41.27149510859688" lon="14.448450337361672"><ele>166.0</ele><time>2026-04-26T11:40:04Z</time></trkpt><trkpt lat="41.27151767228717" lon="14.448339358897064"><ele>166.0</ele><time>2026-04-26T11:40:05Z</time></trkpt><trkpt lat="41.27153808538917" lon="14.448257374826971"><ele>166.0</ele><time>2026-04-26T11:40:06Z</time></trkpt><trkpt lat="41.27160776462838" lon="14.448131628820269"><ele>166.0</ele><time>2026-04-26T11:40:08Z</time></trkpt><trkpt lat="41.271714435827384" lon="14.448076540572368"><ele>166.0</ele><time>2026-04-26T11:40:10Z</time></trkpt><trkpt lat="41.27176190555572" lon="14.448159359091092"><ele>166.0</ele><time>2026-04-26T11:40:35Z</time></trkpt><trkpt lat="41.27177403816354" lon="14.44827051159113"><ele>166.0</ele><time>2026-04-26T11:40:36Z</time></trkpt><trkpt lat="41.271802349510416" lon="14.44835598035774"><ele>166.0</ele><time>2026-04-26T11:40:37Z</time></trkpt><trkpt lat="41.27183852387507" lon="14.448442384202668"><ele>166.0</ele><time>2026-04-26T11:40:38Z</time></trkpt><trkpt lat="41.271889674010055" lon="14.448538073382409"><ele>166.0</ele><time>2026-04-26T11:40:39Z</time></trkpt><trkpt lat="41.27193071472079" lon="14.44862855610558"><ele>166.0</ele><time>2026-04-26T11:40:40Z</time></trkpt><trkpt lat="41.271979314487716" lon="14.448722133061162"><ele>167.25</ele><time>2026-04-26T11:40:41Z</time></trkpt><trkpt lat="41.27203383668041" lon="14.448806297875866"><ele>168.5</ele><time>2026-04-26T11:40:42Z</time></trkpt><trkpt lat="41.27210536543628" lon="14.448898103848151"><ele>169.75</ele><time>2026-04-26T11:40:43Z</time></trkpt><trkpt lat="41.272225305665195" lon="14.44900952671327"><ele>171.0</ele><time>2026-04-26T11:40:44Z</time></trkpt><trkpt lat="41.27237066094414" lon="14.449105305619268"><ele>173.4</ele><time>2026-04-26T11:40:45Z</time></trkpt><trkpt lat="41.27246970864013" lon="14.449152799093056"><ele>175.8</ele><time>2026-04-26T11:40:46Z</time></trkpt><trkpt lat="41.272572110484916" lon="14.449187854115939"><ele>178.20000000000002</ele><time>2026-04-26T11:40:47Z</time></trkpt><trkpt lat="41.27266252478744" lon="14.449189340330754"><ele>180.60000000000002</ele><time>2026-04-26T11:40:48Z</time></trkpt><trkpt lat="41.272745643844296" lon="14.449181637868127"><ele>183.0</ele><time>2026-04-26T11:40:49Z</time></trkpt><trkpt lat="41.27285430733204" lon="14.449166330048916"><ele>183.0</ele><time>2026-04-26T11:40:50Z</time></trkpt><trkpt lat="41.272976134395" lon="14.449175415548051"><ele>183.0</ele><time>2026-04-26T11:40:52Z</time></trkpt><trkpt lat="41.27304536476483" lon="14.44931987772613"><ele>183.0</ele><time>2026-04-26T11:40:54Z</time></trkpt><trkpt lat="41.273109974918555" lon="14.44944308841928"><ele>183.0</ele><time>2026-04-26T11:40:55Z</time></trkpt><trkpt lat="41.27314467774422" lon="14.44959155570045"><ele>186.75</ele><time>2026-04-26T11:40:56Z</time></trkpt><trkpt lat="41.27320182049247" lon="14.449691938526785"><ele>190.5</ele><time>2026-04-26T11:40:57Z</time></trkpt><trkpt lat="41.27327670036233" lon="14.449860707098555"><ele>194.25</ele><time>2026-04-26T11:40:58Z</time></trkpt><trkpt lat="41.27334073866612" lon="14.450014068700941"><ele>198.0</ele><time>2026-04-26T11:40:59Z</time></trkpt><trkpt lat="41.273383608640216" lon="14.450148432119715"><ele>198.0</ele><time>2026-04-26T11:41:00Z</time></trkpt><trkpt lat="41.27342621058715" lon="14.450283759218072"><ele>198.0</ele><time>2026-04-26T11:41:01Z</time></trkpt><trkpt lat="41.273483586322996" lon="14.450429488735937"><ele>198.0</ele><time>2026-04-26T11:41:02Z</time></trkpt><trkpt lat="41.27356660392992" lon="14.450568504423481"><ele>198.0</ele><time>2026-04-26T11:41:03Z</time></trkpt><trkpt lat="41.27367638382727" lon="14.45069766733903"><ele>199.5</ele><time>2026-04-26T11:41:04Z</time></trkpt><trkpt lat="41.2737972154571" lon="14.450807725565"><ele>201.0</ele><time>2026-04-26T11:41:05Z</time></trkpt><trkpt lat="41.27389174235178" lon="14.450910970240882"><ele>202.5</ele><time>2026-04-26T11:41:06Z</time></trkpt><trkpt lat="41.273986545042604" lon="14.451003782331348"><ele>204.0</ele><time>2026-04-26T11:41:07Z</time></trkpt><trkpt lat="41.27403378356795" lon="14.451153796979426"><ele>204.79999999999998</ele><time>2026-04-26T11:41:08Z</time></trkpt><trkpt lat="41.274069869605505" lon="14.451315495129746"><ele>205.6</ele><time>2026-04-26T11:41:09Z</time></trkpt><trkpt lat="41.27409638256621" lon="14.451459296343327"><ele>206.4</ele><time>2026-04-26T11:41:10Z</time></trkpt><trkpt lat="41.2741729821524" lon="14.451540842584794"><ele>207.2</ele><time>2026-04-26T11:41:11.001Z</time></trkpt><trkpt lat="41.27426978749586" lon="14.4516159812233"><ele>208.0</ele><time>2026-04-26T11:41:12.001Z</time></trkpt><trkpt lat="41.27438025198385" lon="14.45166732850367"><ele>208.0</ele><time>2026-04-26T11:41:13.001Z</time></trkpt><trkpt lat="41.274481715593765" lon="14.451712903741164"><ele>208.0</ele><time>2026-04-26T11:41:14Z</time></trkpt><trkpt lat="41.27456362655123" lon="14.451719538297123"><ele>208.0</ele><time>2026-04-26T11:41:15Z</time></trkpt><trkpt lat="41.27463839021331" lon="14.4517775102928"><ele>208.0</ele><time>2026-04-26T11:41:16Z</time></trkpt><trkpt lat="41.27471667296588" lon="14.451844747713796"><ele>208.0</ele><time>2026-04-26T11:41:17Z</time></trkpt><trkpt lat="41.2748605580407" lon="14.451779041901807"><ele>207.60000000000002</ele><time>2026-04-26T11:41:18Z</time></trkpt><trkpt lat="41.27495242655443" lon="14.451783456225582"><ele>207.20000000000002</ele><time>2026-04-26T11:41:19Z</time></trkpt><trkpt lat="41.27502484150544" lon="14.451770866833556"><ele>206.8</ele><time>2026-04-26T11:41:20Z</time></trkpt><trkpt lat="41.27508971224598" lon="14.45178204629224"><ele>206.4</ele><time>2026-04-26T11:41:22Z</time></trkpt><trkpt lat="41.27513215687228" lon="14.451564189075873"><ele>206.0</ele><time>2026-04-26T11:41:23Z</time></trkpt><trkpt lat="41.27516515791042" lon="14.451429365759237"><ele>206.0</ele><time>2026-04-26T11:41:24Z</time></trkpt><trkpt lat="41.2752002282619" lon="14.451318081899878"><ele>206.0</ele><time>2026-04-26T11:41:25Z</time></trkpt><trkpt lat="41.27525982559581" lon="14.451238781416246"><ele>206.0</ele><time>2026-04-26T11:41:26Z</time></trkpt><trkpt lat="41.275345715253536" lon="14.451178554208335"><ele>206.0</ele><time>2026-04-26T11:41:27Z</time></trkpt><trkpt lat="41.27545333033274" lon="14.45115167610951"><ele>206.0</ele><time>2026-04-26T11:41:28Z</time></trkpt><trkpt lat="41.27557412487645" lon="14.451117653885104"><ele>206.5</ele><time>2026-04-26T11:41:29Z</time></trkpt><trkpt lat="41.27570645921064" lon="14.451141815101053"><ele>207.0</ele><time>2026-04-26T11:41:30Z</time></trkpt><trkpt lat="41.275846153972694" lon="14.451150014473969"><ele>207.5</ele><time>2026-04-26T11:41:31Z</time></trkpt><trkpt lat="41.27599844326923" lon="14.45113043457801"><ele>208.0</ele><time>2026-04-26T11:41:32Z</time></trkpt><trkpt lat="41.27614517173863" lon="14.451144652779606"><ele>208.0</ele><time>2026-04-26T11:41:33Z</time></trkpt><trkpt lat="41.276280440926" lon="14.451146280236857"><ele>208.0</ele><time>2026-04-26T11:41:34Z</time></trkpt><trkpt lat="41.27641344571626" lon="14.451133819963259"><ele>208.0</ele><time>2026-04-26T11:41:35Z</time></trkpt><trkpt lat="41.27655216362305" lon="14.45110595220241"><ele>208.0</ele><time>2026-04-26T11:41:36Z</time></trkpt><trkpt lat="41.276687024145765" lon="14.451041674904117"><ele>207.75</ele><time>2026-04-26T11:41:37Z</time></trkpt><trkpt lat="41.276820033999435" lon="14.450974010563536"><ele>207.5</ele><time>2026-04-26T11:41:38Z</time></trkpt><trkpt lat="41.27695373985531" lon="14.45088737200346"><ele>207.25</ele><time>2026-04-26T11:41:39Z</time></trkpt><trkpt lat="41.277071908478845" lon="14.450812637280935"><ele>207.0</ele><time>2026-04-26T11:41:40Z</time></trkpt><trkpt lat="41.27717895623981" lon="14.450749544144585"><ele>207.25</ele><time>2026-04-26T11:41:41Z</time></trkpt><trkpt lat="41.27728815961888" lon="14.450679082879681"><ele>207.5</ele><time>2026-04-26T11:41:42Z</time></trkpt><trkpt lat="41.27741666855727" lon="14.450622655781435"><ele>207.75</ele><time>2026-04-26T11:41:43Z</time></trkpt><trkpt lat="41.2775374678489" lon="14.450553938381848"><ele>208.0</ele><time>2026-04-26T11:41:44Z</time></trkpt><trkpt lat="41.277652969974554" lon="14.450524275726465"><ele>208.0</ele><time>2026-04-26T11:41:45Z</time></trkpt><trkpt lat="41.2777671747356" lon="14.450500751609724"><ele>208.0</ele><time>2026-04-26T11:41:46Z</time></trkpt><trkpt lat="41.277870479181495" lon="14.450494679967802"><ele>208.0</ele><time>2026-04-26T11:41:47Z</time></trkpt><trkpt lat="41.27795077882712" lon="14.45049267231244"><ele>208.0</ele><time>2026-04-26T11:41:48Z</time></trkpt><trkpt lat="41.2780508017961" lon="14.45055840204586"><ele>208.0</ele><time>2026-04-26T11:41:50Z</time></trkpt><trkpt lat="41.27815173602674" lon="14.450624311133776"><ele>207.66666666666666</ele><time>2026-04-26T11:41:51Z</time></trkpt><trkpt lat="41.27826635835753" lon="14.450770691386829"><ele>207.33333333333331</ele><time>2026-04-26T11:41:52Z</time></trkpt><trkpt lat="41.278389015459986" lon="14.450880973225868"><ele>207.0</ele><time>2026-04-26T11:41:53Z</time></trkpt><trkpt lat="41.278516969153365" lon="14.450994484235109"><ele>207.0</ele><time>2026-04-26T11:41:54Z</time></trkpt><trkpt lat="41.27862570539192" lon="14.451102897224786"><ele>207.0</ele><time>2026-04-26T11:41:55Z</time></trkpt><trkpt lat="41.27873371951311" lon="14.451201640282015"><ele>207.0</ele><time>2026-04-26T11:41:56Z</time></trkpt><trkpt lat="41.278830215249" lon="14.451309941031067"><ele>207.0</ele><time>2026-04-26T11:41:57Z</time></trkpt><trkpt lat="41.278919089129865" lon="14.451404844744662"><ele>206.39999999999998</ele><time>2026-04-26T11:41:58Z</time></trkpt><trkpt lat="41.27901501367927" lon="14.451492694444063"><ele>205.79999999999998</ele><time>2026-04-26T11:41:59Z</time></trkpt><trkpt lat="41.27910461044368" lon="14.45157210025812"><ele>205.2</ele><time>2026-04-26T11:42:00Z</time></trkpt><trkpt lat="41.27919672195282" lon="14.451653270251354"><ele>204.6</ele><time>2026-04-26T11:42:01Z</time></trkpt><trkpt lat="41.279275713599134" lon="14.451728842860392"><ele>204.0</ele><time>2026-04-26T11:42:02Z</time></trkpt><trkpt lat="41.279351328433115" lon="14.45181129723554"><ele>204.0</ele><time>2026-04-26T11:42:03Z</time></trkpt><trkpt lat="41.27941366859203" lon="14.45188213340267"><ele>204.0</ele><time>2026-04-26T11:42:04Z</time></trkpt><trkpt lat="41.27947841509155" lon="14.451959095044451"><ele>204.0</ele><time>2026-04-26T11:42:05Z</time></trkpt><trkpt lat="41.279547517112555" lon="14.452028722847619"><ele>204.0</ele><time>2026-04-26T11:42:06Z</time></trkpt><trkpt lat="41.27960907868995" lon="14.452106094114383"><ele>204.0</ele><time>2026-04-26T11:42:07Z</time></trkpt><trkpt lat="41.27966167946859" lon="14.452198883029011"><ele>204.0</ele><time>2026-04-26T11:42:08Z</time></trkpt><trkpt lat="41.279726591617205" lon="14.45232194103911"><ele>203.6</ele><time>2026-04-26T11:42:09Z</time></trkpt><trkpt lat="41.27978689467649" lon="14.452447571554147"><ele>203.2</ele><time>2026-04-26T11:42:10Z</time></trkpt><trkpt lat="41.27983199444237" lon="14.45254584393364"><ele>202.79999999999998</ele><time>2026-04-26T11:42:11Z</time></trkpt><trkpt lat="41.279869043056195" lon="14.452627063824274"><ele>202.39999999999998</ele><time>2026-04-26T11:42:12Z</time></trkpt><trkpt lat="41.2799395086717" lon="14.452759664384402"><ele>202.0</ele><time>2026-04-26T11:42:14Z</time></trkpt><trkpt lat="41.27998455611811" lon="14.45284941628906"><ele>202.0</ele><time>2026-04-26T11:42:15Z</time></trkpt><trkpt lat="41.28003599523662" lon="14.45293736981"><ele>202.0</ele><time>2026-04-26T11:42:16Z</time></trkpt><trkpt lat="41.28008710200329" lon="14.452988929089871"><ele>202.0</ele><time>2026-04-26T11:42:17Z</time></trkpt><trkpt lat="41.28019028394004" lon="14.452871735267328"><ele>202.0</ele><time>2026-04-26T11:42:20Z</time></trkpt><trkpt lat="41.28021535253964" lon="14.452735185956664"><ele>202.0</ele><time>2026-04-26T11:42:21Z</time></trkpt><trkpt lat="41.28022799405368" lon="14.452592547043878"><ele>202.0</ele><time>2026-04-26T11:42:22Z</time></trkpt><trkpt lat="41.28023559701349" lon="14.45244950026137"><ele>202.0</ele><time>2026-04-26T11:42:23Z</time></trkpt><trkpt lat="41.280244881361725" lon="14.452298463942906"><ele>202.0</ele><time>2026-04-26T11:42:24Z</time></trkpt><trkpt lat="41.28025569465669" lon="14.452128458837059"><ele>202.0</ele><time>2026-04-26T11:42:25Z</time></trkpt><trkpt lat="41.28026839369477" lon="14.45192880635304"><ele>202.0</ele><time>2026-04-26T11:42:26Z</time></trkpt><trkpt lat="41.28028166267701" lon="14.45172019328938"><ele>202.0</ele><time>2026-04-26T11:42:27Z</time></trkpt><trkpt lat="41.28028813859197" lon="14.45155812193507"><ele>202.0</ele><time>2026-04-26T11:42:28Z</time></trkpt><trkpt lat="41.280297364923335" lon="14.451432635967125"><ele>202.0</ele><time>2026-04-26T11:42:29Z</time></trkpt><trkpt lat="41.280321844731375" lon="14.451334055907413"><ele>201.6</ele><time>2026-04-26T11:42:30Z</time></trkpt><trkpt lat="41.280353448180215" lon="14.451251424529424"><ele>201.2</ele><time>2026-04-26T11:42:31Z</time></trkpt><trkpt lat="41.28043478171406" lon="14.451218566976513"><ele>200.8</ele><time>2026-04-26T11:42:32Z</time></trkpt><trkpt lat="41.28052760483422" lon="14.451233845087902"><ele>200.4</ele><time>2026-04-26T11:42:33Z</time></trkpt><trkpt lat="41.28062872426791" lon="14.451250944892731"><ele>200.0</ele><time>2026-04-26T11:42:34Z</time></trkpt><trkpt lat="41.28075034100659" lon="14.451252628268639"><ele>201.25</ele><time>2026-04-26T11:42:35Z</time></trkpt><trkpt lat="41.280887426454925" lon="14.451251129633546"><ele>202.5</ele><time>2026-04-26T11:42:36Z</time></trkpt><trkpt lat="41.281035700498194" lon="14.45125122388548"><ele>203.75</ele><time>2026-04-26T11:42:37Z</time></trkpt><trkpt lat="41.28118540649642" lon="14.451255465073741"><ele>205.0</ele><time>2026-04-26T11:42:38Z</time></trkpt><trkpt lat="41.281330781003746" lon="14.451262533722712"><ele>205.5</ele><time>2026-04-26T11:42:39Z</time></trkpt><trkpt lat="41.28147358377017" lon="14.451268115459989"><ele>206.0</ele><time>2026-04-26T11:42:40Z</time></trkpt><trkpt lat="41.28161321274505" lon="14.451272806629218"><ele>206.5</ele><time>2026-04-26T11:42:41Z</time></trkpt><trkpt lat="41.28175872257187" lon="14.451270610809548"><ele>207.0</ele><time>2026-04-26T11:42:42Z</time></trkpt><trkpt lat="41.28190815468201" lon="14.451296423118276"><ele>207.0</ele><time>2026-04-26T11:42:43Z</time></trkpt><trkpt lat="41.282057541163894" lon="14.451307226916956"><ele>207.0</ele><time>2026-04-26T11:42:44Z</time></trkpt><trkpt lat="41.2821856707507" lon="14.451323390607966"><ele>207.0</ele><time>2026-04-26T11:42:45Z</time></trkpt><trkpt lat="41.28230421321781" lon="14.451344843382703"><ele>207.0</ele><time>2026-04-26T11:42:46Z</time></trkpt><trkpt lat="41.28241152891891" lon="14.451378709988738"><ele>207.25</ele><time>2026-04-26T11:42:47Z</time></trkpt><trkpt lat="41.282501739296364" lon="14.451433179943376"><ele>207.5</ele><time>2026-04-26T11:42:48Z</time></trkpt><trkpt lat="41.28257991802239" lon="14.451530382244304"><ele>207.75</ele><time>2026-04-26T11:42:49Z</time></trkpt><trkpt lat="41.28267859862733" lon="14.451640775407371"><ele>208.0</ele><time>2026-04-26T11:42:50Z</time></trkpt><trkpt lat="41.282757924594705" lon="14.451799424141482"><ele>208.0</ele><time>2026-04-26T11:42:51Z</time></trkpt><trkpt lat="41.28286859408902" lon="14.45190999447299"><ele>208.0</ele><time>2026-04-26T11:42:52Z</time></trkpt><trkpt lat="41.28296696999117" lon="14.451998983041323"><ele>208.0</ele><time>2026-04-26T11:42:53Z</time></trkpt><trkpt lat="41.28307229837006" lon="14.4520493241045"><ele>208.0</ele><time>2026-04-26T11:42:54Z</time></trkpt><trkpt lat="41.28318712569557" lon="14.45206664640198"><ele>207.5</ele><time>2026-04-26T11:42:55Z</time></trkpt><trkpt lat="41.28330560296859" lon="14.452082383803637"><ele>207.0</ele><time>2026-04-26T11:42:56Z</time></trkpt><trkpt lat="41.283432601460994" lon="14.452070236355379"><ele>206.5</ele><time>2026-04-26T11:42:57Z</time></trkpt><trkpt lat="41.28354224597576" lon="14.452089692960007"><ele>206.0</ele><time>2026-04-26T11:42:58Z</time></trkpt><trkpt lat="41.28364106059892" lon="14.452164873666417"><ele>206.0</ele><time>2026-04-26T11:42:59Z</time></trkpt><trkpt lat="41.28373958821953" lon="14.452251665072565"><ele>206.0</ele><time>2026-04-26T11:43:00Z</time></trkpt><trkpt lat="41.28383827501042" lon="14.452379776238736"><ele>206.0</ele><time>2026-04-26T11:43:01Z</time></trkpt><trkpt lat="41.28394575708298" lon="14.452512828829969"><ele>206.0</ele><time>2026-04-26T11:43:02Z</time></trkpt><trkpt lat="41.284062111851384" lon="14.452659752285253"><ele>207.0</ele><time>2026-04-26T11:43:03Z</time></trkpt><trkpt lat="41.2841898213138" lon="14.452806029102046"><ele>208.0</ele><time>2026-04-26T11:43:04Z</time></trkpt><trkpt lat="41.28432668646672" lon="14.452943630088328"><ele>209.0</ele><time>2026-04-26T11:43:05Z</time></trkpt><trkpt lat="41.284480500315105" lon="14.45307347301521"><ele>209.0</ele><time>2026-04-26T11:43:06Z</time></trkpt><trkpt lat="41.284622455399315" lon="14.453183199079296"><ele>209.0</ele><time>2026-04-26T11:43:07Z</time></trkpt><trkpt lat="41.284741541234986" lon="14.453279015993049"><ele>209.0</ele><time>2026-04-26T11:43:08Z</time></trkpt><trkpt lat="41.28484941473161" lon="14.453371733892558"><ele>209.0</ele><time>2026-04-26T11:43:09Z</time></trkpt><trkpt lat="41.28494437398035" lon="14.453454903557184"><ele>210.79999999999998</ele><time>2026-04-26T11:43:10Z</time></trkpt><trkpt lat="41.28500916072563" lon="14.453520977250108"><ele>212.6</ele><time>2026-04-26T11:43:11Z</time></trkpt><trkpt lat="41.28507862986199" lon="14.453572324467123"><ele>214.4</ele><time>2026-04-26T11:43:13Z</time></trkpt><trkpt lat="41.285175785439506" lon="14.453469215885196"><ele>216.2</ele><time>2026-04-26T11:43:18Z</time></trkpt><trkpt lat="41.28521457332506" lon="14.453371232101555"><ele>218.0</ele><time>2026-04-26T11:43:19Z</time></trkpt><trkpt lat="41.28526428931108" lon="14.453271534722088"><ele>218.0</ele><time>2026-04-26T11:43:20Z</time></trkpt><trkpt lat="41.28530650378889" lon="14.453174029194775"><ele>218.0</ele><time>2026-04-26T11:43:21Z</time></trkpt><trkpt lat="41.28535660738828" lon="14.45307093102006"><ele>218.0</ele><time>2026-04-26T11:43:22Z</time></trkpt><trkpt lat="41.28542436058174" lon="14.452937988798181"><ele>218.0</ele><time>2026-04-26T11:43:23Z</time></trkpt><trkpt lat="41.28549637328678" lon="14.452802740820395"><ele>218.0</ele><time>2026-04-26T11:43:24Z</time></trkpt><trkpt lat="41.28557164702892" lon="14.45266779808609"><ele>219.33333333333334</ele><time>2026-04-26T11:43:25Z</time></trkpt><trkpt lat="41.28564833379711" lon="14.452538565890839"><ele>220.66666666666669</ele><time>2026-04-26T11:43:26Z</time></trkpt><trkpt lat="41.2857128124651" lon="14.452433788019869"><ele>222.0</ele><time>2026-04-26T11:43:27Z</time></trkpt><trkpt lat="41.28575453911303" lon="14.452335351771604"><ele>223.33333333333331</ele><time>2026-04-26T11:43:28Z</time></trkpt><trkpt lat="41.28579996008977" lon="14.452269887337541"><ele>224.66666666666666</ele><time>2026-04-26T11:43:29Z</time></trkpt><trkpt lat="41.285860890870936" lon="14.45223845832339"><ele>226.0</ele><time>2026-04-26T11:43:32Z</time></trkpt><trkpt lat="41.28597136652334" lon="14.452435056898478"><ele>226.0</ele><time>2026-04-26T11:43:34Z</time></trkpt><trkpt lat="41.2860244492927" lon="14.452513290859503"><ele>226.0</ele><time>2026-04-26T11:43:35Z</time></trkpt><trkpt lat="41.28604366425601" lon="14.452635325525682"><ele>226.0</ele><time>2026-04-26T11:43:37Z</time></trkpt><trkpt lat="41.28623332578034" lon="14.452578625674061"><ele>226.0</ele><time>2026-04-26T11:43:41Z</time></trkpt><trkpt lat="41.28634515982647" lon="14.452487436916423"><ele>228.0</ele><time>2026-04-26T11:43:42Z</time></trkpt><trkpt lat="41.286475522674" lon="14.45241175946018"><ele>230.0</ele><time>2026-04-26T11:43:43Z</time></trkpt><trkpt lat="41.28661681050881" lon="14.452375622010576"><ele>232.0</ele><time>2026-04-26T11:43:44Z</time></trkpt><trkpt lat="41.286781228310176" lon="14.452310785396543"><ele>232.0</ele><time>2026-04-26T11:43:45Z</time></trkpt><trkpt lat="41.28697247059205" lon="14.452249041605832"><ele>232.0</ele><time>2026-04-26T11:43:46Z</time></trkpt><trkpt lat="41.28718454939824" lon="14.452181671612122"><ele>232.0</ele><time>2026-04-26T11:43:47Z</time></trkpt><trkpt lat="41.287385116390865" lon="14.452113075439943"><ele>230.0</ele><time>2026-04-26T11:43:48Z</time></trkpt><trkpt lat="41.28762104139332" lon="14.452041507520239"><ele>228.0</ele><time>2026-04-26T11:43:49Z</time></trkpt><trkpt lat="41.2878642547227" lon="14.451966274412255"><ele>230.0</ele><time>2026-04-26T11:43:50Z</time></trkpt><trkpt lat="41.2881162665629" lon="14.4518899411916"><ele>232.0</ele><time>2026-04-26T11:43:51Z</time></trkpt><trkpt lat="41.2883665812713" lon="14.451804684711956"><ele>232.0</ele><time>2026-04-26T11:43:52Z</time></trkpt><trkpt lat="41.288625033398496" lon="14.451719366922338"><ele>232.0</ele><time>2026-04-26T11:43:53Z</time></trkpt><trkpt lat="41.288886117453615" lon="14.451655684787392"><ele>237.0</ele><time>2026-04-26T11:43:54Z</time></trkpt><trkpt lat="41.28913633588578" lon="14.45155997948725"><ele>242.0</ele><time>2026-04-26T11:43:55Z</time></trkpt><trkpt lat="41.289370598661705" lon="14.451495684125954"><ele>242.0</ele><time>2026-04-26T11:43:56Z</time></trkpt><trkpt lat="41.28960113234116" lon="14.451392560247774"><ele>242.0</ele><time>2026-04-26T11:43:57Z</time></trkpt><trkpt lat="41.28983958582451" lon="14.45126111024175"><ele>241.0</ele><time>2026-04-26T11:43:58Z</time></trkpt><trkpt lat="41.29007076904823" lon="14.451096824681985"><ele>240.0</ele><time>2026-04-26T11:43:59Z</time></trkpt><trkpt lat="41.29029157278439" lon="14.450932622366704"><ele>240.0</ele><time>2026-04-26T11:44:00Z</time></trkpt><trkpt lat="41.290508747830444" lon="14.45077204182793"><ele>240.0</ele><time>2026-04-26T11:44:01Z</time></trkpt><trkpt lat="41.29070736844304" lon="14.45061547511456"><ele>239.0</ele><time>2026-04-26T11:44:02Z</time></trkpt><trkpt lat="41.29092411593778" lon="14.450450166644707"><ele>238.0</ele><time>2026-04-26T11:44:03Z</time></trkpt><trkpt lat="41.29112752986305" lon="14.450292978075122"><ele>238.0</ele><time>2026-04-26T11:44:04Z</time></trkpt><trkpt lat="41.29132831287145" lon="14.450101347665694"><ele>238.0</ele><time>2026-04-26T11:44:05Z</time></trkpt><trkpt lat="41.29150889952609" lon="14.44987026699671"><ele>242.0</ele><time>2026-04-26T11:44:06Z</time></trkpt><trkpt lat="41.291669379243345" lon="14.449634156799217"><ele>246.0</ele><time>2026-04-26T11:44:07Z</time></trkpt><trkpt lat="41.29182796831027" lon="14.449414361860665"><ele>246.0</ele><time>2026-04-26T11:44:08Z</time></trkpt><trkpt lat="41.292006789964994" lon="14.449233948348775"><ele>246.0</ele><time>2026-04-26T11:44:09Z</time></trkpt><trkpt lat="41.29220090389517" lon="14.449093502131484"><ele>246.0</ele><time>2026-04-26T11:44:10Z</time></trkpt><trkpt lat="41.292413581953205" lon="14.448985153023896"><ele>251.0</ele><time>2026-04-26T11:44:11Z</time></trkpt><trkpt lat="41.292644859794635" lon="14.44888760305127"><ele>256.0</ele><time>2026-04-26T11:44:12Z</time></trkpt><trkpt lat="41.29285046416792" lon="14.44885203711135"><ele>256.0</ele><time>2026-04-26T11:44:13Z</time></trkpt><trkpt lat="41.29306882316108" lon="14.448859837040398"><ele>256.0</ele><time>2026-04-26T11:44:14Z</time></trkpt><trkpt lat="41.29330858895241" lon="14.448876208942554"><ele>259.5</ele><time>2026-04-26T11:44:15Z</time></trkpt><trkpt lat="41.29356890433136" lon="14.448896090179492"><ele>263.0</ele><time>2026-04-26T11:44:16Z</time></trkpt><trkpt lat="41.293799968080556" lon="14.448913560427298"><ele>263.6666666666667</ele><time>2026-04-26T11:44:17Z</time></trkpt><trkpt lat="41.29402280371415" lon="14.448927859933919"><ele>264.3333333333333</ele><time>2026-04-26T11:44:18Z</time></trkpt><trkpt lat="41.29422283160075" lon="14.448910850672162"><ele>265.0</ele><time>2026-04-26T11:44:19Z</time></trkpt><trkpt lat="41.29441413090705" lon="14.448895927949314"><ele>265.0</ele><time>2026-04-26T11:44:20Z</time></trkpt><trkpt lat="41.29459453938313" lon="14.448823566717925"><ele>265.0</ele><time>2026-04-26T11:44:21Z</time></trkpt><trkpt lat="41.294761674358526" lon="14.448704408903806"><ele>265.0</ele><time>2026-04-26T11:44:22Z</time></trkpt><trkpt lat="41.2948977512053" lon="14.448563818151907"><ele>263.75</ele><time>2026-04-26T11:44:23Z</time></trkpt><trkpt lat="41.29501813118669" lon="14.448383921487345"><ele>262.5</ele><time>2026-04-26T11:44:24Z</time></trkpt><trkpt lat="41.295108563292466" lon="14.448245903150532"><ele>261.25</ele><time>2026-04-26T11:44:25Z</time></trkpt><trkpt lat="41.29521192704772" lon="14.448147895932987"><ele>260.0</ele><time>2026-04-26T11:44:26Z</time></trkpt><trkpt lat="41.29529378026375" lon="14.448100932458964"><ele>260.0</ele><time>2026-04-26T11:44:27Z</time></trkpt><trkpt lat="41.295383898711755" lon="14.448121090443253"><ele>260.0</ele><time>2026-04-26T11:44:28Z</time></trkpt><trkpt lat="41.29547110698349" lon="14.44813396058702"><ele>260.0</ele><time>2026-04-26T11:44:29Z</time></trkpt><trkpt lat="41.29556366243827" lon="14.448177073601897"><ele>260.0</ele><time>2026-04-26T11:44:30Z</time></trkpt><trkpt lat="41.295667874951924" lon="14.448204943037346"><ele>260.0</ele><time>2026-04-26T11:44:31Z</time></trkpt><trkpt lat="41.29578657295947" lon="14.448249804813429"><ele>261.0</ele><time>2026-04-26T11:44:32Z</time></trkpt><trkpt lat="41.29591993765372" lon="14.448240316175495"><ele>262.0</ele><time>2026-04-26T11:44:33Z</time></trkpt><trkpt lat="41.29604860371907" lon="14.448179553871208"><ele>263.0</ele><time>2026-04-26T11:44:34Z</time></trkpt><trkpt lat="41.29615442409547" lon="14.448062524119306"><ele>264.0</ele><time>2026-04-26T11:44:35Z</time></trkpt><trkpt lat="41.29628352912158" lon="14.44790953378576"><ele>262.3333333333333</ele><time>2026-04-26T11:44:36Z</time></trkpt><trkpt lat="41.29641063684699" lon="14.447726530443823"><ele>260.66666666666663</ele><time>2026-04-26T11:44:37Z</time></trkpt><trkpt lat="41.29653813627345" lon="14.447543285294023"><ele>259.0</ele><time>2026-04-26T11:44:38Z</time></trkpt><trkpt lat="41.29666663471572" lon="14.447358604479495"><ele>259.0</ele><time>2026-04-26T11:44:39Z</time></trkpt><trkpt lat="41.296779043420834" lon="14.44719345355973"><ele>259.0</ele><time>2026-04-26T11:44:40Z</time></trkpt><trkpt lat="41.29688412540403" lon="14.447037776203041"><ele>259.0</ele><time>2026-04-26T11:44:41Z</time></trkpt><trkpt lat="41.29699026854088" lon="14.446893484089053"><ele>259.3333333333333</ele><time>2026-04-26T11:44:42Z</time></trkpt><trkpt lat="41.29710424239971" lon="14.446756565184545"><ele>259.6666666666667</ele><time>2026-04-26T11:44:43Z</time></trkpt><trkpt lat="41.29722508950395" lon="14.446633490997472"><ele>260.0</ele><time>2026-04-26T11:44:44Z</time></trkpt><trkpt lat="41.29735658492285" lon="14.446522403844932"><ele>260.0</ele><time>2026-04-26T11:44:45Z</time></trkpt><trkpt lat="41.29750099719193" lon="14.446409824921934"><ele>260.0</ele><time>2026-04-26T11:44:46Z</time></trkpt><trkpt lat="41.29762409577682" lon="14.446237369136103"><ele>260.0</ele><time>2026-04-26T11:44:47Z</time></trkpt><trkpt lat="41.29778541280879" lon="14.446132308408773"><ele>258.6666666666667</ele><time>2026-04-26T11:44:48Z</time></trkpt><trkpt lat="41.297938139622296" lon="14.44601576229074"><ele>257.3333333333333</ele><time>2026-04-26T11:44:49Z</time></trkpt><trkpt lat="41.29809448559704" lon="14.445899168540949"><ele>256.0</ele><time>2026-04-26T11:44:50Z</time></trkpt><trkpt lat="41.298249613535226" lon="14.445779686567997"><ele>255.33333333333331</ele><time>2026-04-26T11:44:51Z</time></trkpt><trkpt lat="41.298410552973245" lon="14.445704051059984"><ele>254.66666666666669</ele><time>2026-04-26T11:44:52Z</time></trkpt><trkpt lat="41.29853803325451" lon="14.445560310191707"><ele>254.0</ele><time>2026-04-26T11:44:53Z</time></trkpt><trkpt lat="41.29869243155656" lon="14.445458159333219"><ele>253.0</ele><time>2026-04-26T11:44:54Z</time></trkpt><trkpt lat="41.29883381791345" lon="14.445340780309465"><ele>252.0</ele><time>2026-04-26T11:44:55Z</time></trkpt><trkpt lat="41.298985499307705" lon="14.44523337168448"><ele>251.0</ele><time>2026-04-26T11:44:56Z</time></trkpt><trkpt lat="41.29914213421741" lon="14.44513931476687"><ele>251.0</ele><time>2026-04-26T11:44:57Z</time></trkpt><trkpt lat="41.29929862678275" lon="14.445017904943475"><ele>251.0</ele><time>2026-04-26T11:44:58Z</time></trkpt><trkpt lat="41.29944346689316" lon="14.444908404773779"><ele>251.0</ele><time>2026-04-26T11:44:59Z</time></trkpt><trkpt lat="41.29958041052566" lon="14.444806392809419"><ele>251.0</ele><time>2026-04-26T11:45:00Z</time></trkpt><trkpt lat="41.29970229845895" lon="14.444715598610102"><ele>251.0</ele><time>2026-04-26T11:45:01Z</time></trkpt><trkpt lat="41.29982126050724" lon="14.444628830887282"><ele>251.0</ele><time>2026-04-26T11:45:02Z</time></trkpt><trkpt lat="41.299944066889736" lon="14.444538085096989"><ele>251.0</ele><time>2026-04-26T11:45:03Z</time></trkpt><trkpt lat="41.300073946714065" lon="14.444446729054402"><ele>251.0</ele><time>2026-04-26T11:45:04Z</time></trkpt><trkpt lat="41.30021178067594" lon="14.444370153467272"><ele>251.0</ele><time>2026-04-26T11:45:05Z</time></trkpt><trkpt lat="41.30034126328173" lon="14.444280913780927"><ele>251.0</ele><time>2026-04-26T11:45:06Z</time></trkpt><trkpt lat="41.300453004616664" lon="14.444134580165345"><ele>251.0</ele><time>2026-04-26T11:45:07Z</time></trkpt><trkpt lat="41.30055726912764" lon="14.443968873359314"><ele>251.0</ele><time>2026-04-26T11:45:08Z</time></trkpt><trkpt lat="41.30063319787234" lon="14.443739193874995"><ele>251.0</ele><time>2026-04-26T11:45:09Z</time></trkpt><trkpt lat="41.30074365224572" lon="14.443523739905366"><ele>250.0</ele><time>2026-04-26T11:45:10Z</time></trkpt><trkpt lat="41.30084426547522" lon="14.443308439456132"><ele>249.0</ele><time>2026-04-26T11:45:11Z</time></trkpt><trkpt lat="41.300963980420676" lon="14.443117581196013"><ele>248.0</ele><time>2026-04-26T11:45:12Z</time></trkpt><trkpt lat="41.30109180582398" lon="14.44292663568423"><ele>247.66666666666669</ele><time>2026-04-26T11:45:13Z</time></trkpt><trkpt lat="41.30122770946502" lon="14.44276223429533"><ele>247.33333333333331</ele><time>2026-04-26T11:45:14Z</time></trkpt><trkpt lat="41.301386997537875" lon="14.442626912941067"><ele>247.0</ele><time>2026-04-26T11:45:15Z</time></trkpt><trkpt lat="41.3015676790196" lon="14.442532524523946"><ele>247.0</ele><time>2026-04-26T11:45:16Z</time></trkpt><trkpt lat="41.301765111341645" lon="14.44245246145016"><ele>247.0</ele><time>2026-04-26T11:45:17Z</time></trkpt><trkpt lat="41.30197278022318" lon="14.442365959721203"><ele>247.0</ele><time>2026-04-26T11:45:18Z</time></trkpt><trkpt lat="41.30217509356898" lon="14.442268855182121"><ele>246.0</ele><time>2026-04-26T11:45:19Z</time></trkpt><trkpt lat="41.30238179204348" lon="14.44215445953705"><ele>245.0</ele><time>2026-04-26T11:45:20Z</time></trkpt><trkpt lat="41.30259353045191" lon="14.442022007497695"><ele>245.0</ele><time>2026-04-26T11:45:21Z</time></trkpt><trkpt lat="41.30280211879437" lon="14.441887753008334"><ele>245.0</ele><time>2026-04-26T11:45:22Z</time></trkpt><trkpt lat="41.3029909134128" lon="14.441765771180963"><ele>245.0</ele><time>2026-04-26T11:45:23Z</time></trkpt><trkpt lat="41.30316530352692" lon="14.441659360696262"><ele>247.33333333333334</ele><time>2026-04-26T11:45:24Z</time></trkpt><trkpt lat="41.303325346153564" lon="14.44156990579472"><ele>249.66666666666669</ele><time>2026-04-26T11:45:25Z</time></trkpt><trkpt lat="41.30349478637418" lon="14.441487333054488"><ele>252.0</ele><time>2026-04-26T11:45:26Z</time></trkpt><trkpt lat="41.30366631795828" lon="14.441421341744933"><ele>252.0</ele><time>2026-04-26T11:45:27Z</time></trkpt><trkpt lat="41.30384787825257" lon="14.441372522850367"><ele>252.0</ele><time>2026-04-26T11:45:28Z</time></trkpt><trkpt lat="41.30403614931708" lon="14.441361085831392"><ele>252.0</ele><time>2026-04-26T11:45:29Z</time></trkpt><trkpt lat="41.30427639291731" lon="14.441364935738532"><ele>252.0</ele><time>2026-04-26T11:45:30Z</time></trkpt><trkpt lat="41.30451785250139" lon="14.441373689935789"><ele>252.0</ele><time>2026-04-26T11:45:31Z</time></trkpt><trkpt lat="41.30474924020016" lon="14.441390390345223"><ele>251.33333333333331</ele><time>2026-04-26T11:45:32Z</time></trkpt><trkpt lat="41.304953549165845" lon="14.441400530380797"><ele>250.66666666666666</ele><time>2026-04-26T11:45:33Z</time></trkpt><trkpt lat="41.305139072514294" lon="14.441407895697841"><ele>250.0</ele><time>2026-04-26T11:45:34Z</time></trkpt><trkpt lat="41.3052896162155" lon="14.441389835203056"><ele>250.0</ele><time>2026-04-26T11:45:35Z</time></trkpt><trkpt lat="41.30542256421428" lon="14.441376485307446"><ele>250.0</ele><time>2026-04-26T11:45:36Z</time></trkpt><trkpt lat="41.30556035331371" lon="14.441304019025871"><ele>250.0</ele><time>2026-04-26T11:45:37Z</time></trkpt><trkpt lat="41.30568702356918" lon="14.441191868172105"><ele>250.0</ele><time>2026-04-26T11:45:38Z</time></trkpt><trkpt lat="41.30579474461586" lon="14.441098573293333"><ele>249.2</ele><time>2026-04-26T11:45:39Z</time></trkpt><trkpt lat="41.30588507377743" lon="14.441025305390887"><ele>248.4</ele><time>2026-04-26T11:45:40Z</time></trkpt><trkpt lat="41.305936759296245" lon="14.440920275910022"><ele>247.60000000000002</ele><time>2026-04-26T11:45:41Z</time></trkpt><trkpt lat="41.30592578288072" lon="14.440792402814976"><ele>246.8</ele><time>2026-04-26T11:45:42Z</time></trkpt><trkpt lat="41.30586474638466" lon="14.440674551796256"><ele>246.0</ele><time>2026-04-26T11:45:43Z</time></trkpt><trkpt lat="41.3057623659326" lon="14.4405969001746"><ele>246.0</ele><time>2026-04-26T11:45:44Z</time></trkpt><trkpt lat="41.305600764119" lon="14.440547517345658"><ele>246.0</ele><time>2026-04-26T11:45:45Z</time></trkpt><trkpt lat="41.30547866130631" lon="14.440419157952638"><ele>246.0</ele><time>2026-04-26T11:45:46Z</time></trkpt><trkpt lat="41.305358119654606" lon="14.440232200786816"><ele>243.5</ele><time>2026-04-26T11:45:47Z</time></trkpt><trkpt lat="41.305217904120006" lon="14.43998246387081"><ele>241.0</ele><time>2026-04-26T11:45:48Z</time></trkpt><trkpt lat="41.305063675009514" lon="14.439761972841895"><ele>238.0</ele><time>2026-04-26T11:45:49Z</time></trkpt><trkpt lat="41.304895444395854" lon="14.43954974994456"><ele>235.0</ele><time>2026-04-26T11:45:50Z</time></trkpt><trkpt lat="41.304724180521454" lon="14.439322475805518"><ele>235.0</ele><time>2026-04-26T11:45:51Z</time></trkpt><trkpt lat="41.30454138684861" lon="14.439122585343283"><ele>235.0</ele><time>2026-04-26T11:45:52Z</time></trkpt><trkpt lat="41.3043676098343" lon="14.438922192845151"><ele>237.66666666666666</ele><time>2026-04-26T11:45:53Z</time></trkpt><trkpt lat="41.30422547099818" lon="14.43869071884555"><ele>240.33333333333331</ele><time>2026-04-26T11:45:54Z</time></trkpt><trkpt lat="41.30410588937867" lon="14.438463084145509"><ele>243.0</ele><time>2026-04-26T11:45:55Z</time></trkpt><trkpt lat="41.30401388592938" lon="14.438236649113042"><ele>243.0</ele><time>2026-04-26T11:45:56Z</time></trkpt><trkpt lat="41.30395110592218" lon="14.43798643756052"><ele>243.0</ele><time>2026-04-26T11:45:57Z</time></trkpt><trkpt lat="41.3039060322134" lon="14.437702711651337"><ele>243.0</ele><time>2026-04-26T11:45:58Z</time></trkpt><trkpt lat="41.30389255706527" lon="14.437433090933212"><ele>241.66666666666669</ele><time>2026-04-26T11:45:59Z</time></trkpt><trkpt lat="41.303909758498804" lon="14.437180087598843"><ele>240.33333333333334</ele><time>2026-04-26T11:46:00Z</time></trkpt><trkpt lat="41.30396963712575" lon="14.436913299674314"><ele>239.0</ele><time>2026-04-26T11:46:01Z</time></trkpt><trkpt lat="41.304057109529296" lon="14.43661793648194"><ele>239.0</ele><time>2026-04-26T11:46:02Z</time></trkpt><trkpt lat="41.30414478176274" lon="14.436334185130212"><ele>239.0</ele><time>2026-04-26T11:46:03Z</time></trkpt><trkpt lat="41.304222233475926" lon="14.436084458932113"><ele>239.0</ele><time>2026-04-26T11:46:04Z</time></trkpt><trkpt lat="41.304295503018004" lon="14.435863463316052"><ele>236.33333333333334</ele><time>2026-04-26T11:46:05Z</time></trkpt><trkpt lat="41.304371693484164" lon="14.435666777420064"><ele>233.66666666666669</ele><time>2026-04-26T11:46:06Z</time></trkpt><trkpt lat="41.30447026519652" lon="14.435511104609809"><ele>231.0</ele><time>2026-04-26T11:46:07Z</time></trkpt><trkpt lat="41.30458207501431" lon="14.435333376550492"><ele>232.0</ele><time>2026-04-26T11:46:08Z</time></trkpt><trkpt lat="41.30476608249696" lon="14.435201975623427"><ele>233.0</ele><time>2026-04-26T11:46:09Z</time></trkpt><trkpt lat="41.30495750510014" lon="14.435037013078514"><ele>234.0</ele><time>2026-04-26T11:46:10Z</time></trkpt><trkpt lat="41.3051117929568" lon="14.434820144315376"><ele>232.0</ele><time>2026-04-26T11:46:11Z</time></trkpt><trkpt lat="41.30523680166439" lon="14.43460849261881"><ele>230.0</ele><time>2026-04-26T11:46:12Z</time></trkpt><trkpt lat="41.30532475161437" lon="14.434427634977089"><ele>228.0</ele><time>2026-04-26T11:46:13Z</time></trkpt><trkpt lat="41.30537238542765" lon="14.43424293981503"><ele>228.0</ele><time>2026-04-26T11:46:14Z</time></trkpt><trkpt lat="41.30537346435925" lon="14.434009068768031"><ele>228.0</ele><time>2026-04-26T11:46:15Z</time></trkpt><trkpt lat="41.30533474029061" lon="14.433736228439622"><ele>228.0</ele><time>2026-04-26T11:46:16Z</time></trkpt><trkpt lat="41.305335766217134" lon="14.433431472212536"><ele>226.0</ele><time>2026-04-26T11:46:17Z</time></trkpt><trkpt lat="41.30535217621087" lon="14.433144401454848"><ele>224.0</ele><time>2026-04-26T11:46:18Z</time></trkpt><trkpt lat="41.305372746006064" lon="14.432894509653838"><ele>222.0</ele><time>2026-04-26T11:46:19Z</time></trkpt><trkpt lat="41.30539794715992" lon="14.432670199801088"><ele>221.25</ele><time>2026-04-26T11:46:20Z</time></trkpt><trkpt lat="41.305438669482754" lon="14.432478357338605"><ele>220.5</ele><time>2026-04-26T11:46:21Z</time></trkpt><trkpt lat="41.305524349685825" lon="14.432340699420132"><ele>219.75</ele><time>2026-04-26T11:46:22Z</time></trkpt><trkpt lat="41.305648698301" lon="14.432245251029364"><ele>219.0</ele><time>2026-04-26T11:46:23Z</time></trkpt><trkpt lat="41.30582136447942" lon="14.432168980355625"><ele>221.5</ele><time>2026-04-26T11:46:24Z</time></trkpt><trkpt lat="41.30603655883803" lon="14.432089137831513"><ele>224.0</ele><time>2026-04-26T11:46:25Z</time></trkpt><trkpt lat="41.30626893860619" lon="14.432004108789277"><ele>227.0</ele><time>2026-04-26T11:46:26Z</time></trkpt><trkpt lat="41.30649308499299" lon="14.431922092366642"><ele>230.0</ele><time>2026-04-26T11:46:27Z</time></trkpt><trkpt lat="41.30670662791439" lon="14.43185141712139"><ele>230.0</ele><time>2026-04-26T11:46:28Z</time></trkpt><trkpt lat="41.30689696469111" lon="14.431818029533726"><ele>230.0</ele><time>2026-04-26T11:46:29Z</time></trkpt><trkpt lat="41.307091775317595" lon="14.431831685568156"><ele>230.0</ele><time>2026-04-26T11:46:30Z</time></trkpt><trkpt lat="41.307309715580445" lon="14.431875611175634"><ele>230.33333333333334</ele><time>2026-04-26T11:46:31Z</time></trkpt><trkpt lat="41.30753504005953" lon="14.431943570116195"><ele>230.66666666666669</ele><time>2026-04-26T11:46:32Z</time></trkpt><trkpt lat="41.307738326657415" lon="14.432011470170433"><ele>231.0</ele><time>2026-04-26T11:46:33Z</time></trkpt><trkpt lat="41.30791086077955" lon="14.432079628601983"><ele>235.0</ele><time>2026-04-26T11:46:34Z</time></trkpt><trkpt lat="41.308079514959445" lon="14.432195957037523"><ele>239.0</ele><time>2026-04-26T11:46:35Z</time></trkpt><trkpt lat="41.3082472297841" lon="14.432374407272977"><ele>243.0</ele><time>2026-04-26T11:46:36Z</time></trkpt><trkpt lat="41.30843188355438" lon="14.43255647706594"><ele>243.0</ele><time>2026-04-26T11:46:37Z</time></trkpt><trkpt lat="41.30860506620571" lon="14.432687579010725"><ele>243.0</ele><time>2026-04-26T11:46:38Z</time></trkpt><trkpt lat="41.30876539967834" lon="14.432764533422759"><ele>243.0</ele><time>2026-04-26T11:46:39Z</time></trkpt><trkpt lat="41.308922778460555" lon="14.432804962261608"><ele>242.0</ele><time>2026-04-26T11:46:40Z</time></trkpt><trkpt lat="41.30909425866449" lon="14.432750973599916"><ele>241.0</ele><time>2026-04-26T11:46:41Z</time></trkpt><trkpt lat="41.30927578844155" lon="14.432647086563568"><ele>240.0</ele><time>2026-04-26T11:46:42Z</time></trkpt><trkpt lat="41.30944805121867" lon="14.432586546733893"><ele>240.0</ele><time>2026-04-26T11:46:43Z</time></trkpt><trkpt lat="41.30960275914007" lon="14.43256272958952"><ele>240.0</ele><time>2026-04-26T11:46:44Z</time></trkpt><trkpt lat="41.309775995034975" lon="14.432594053958104"><ele>240.0</ele><time>2026-04-26T11:46:45Z</time></trkpt><trkpt lat="41.3099726992801" lon="14.432675844463686"><ele>240.33333333333331</ele><time>2026-04-26T11:46:46Z</time></trkpt><trkpt lat="41.310155628449365" lon="14.432809886437806"><ele>240.66666666666666</ele><time>2026-04-26T11:46:47Z</time></trkpt><trkpt lat="41.31035062456057" lon="14.43298476953213"><ele>241.0</ele><time>2026-04-26T11:46:48Z</time></trkpt><trkpt lat="41.31055305476938" lon="14.433169828521443"><ele>245.0</ele><time>2026-04-26T11:46:49Z</time></trkpt><trkpt lat="41.310752224847406" lon="14.433341990022061"><ele>249.0</ele><time>2026-04-26T11:46:50Z</time></trkpt><trkpt lat="41.310918542577646" lon="14.433519122626107"><ele>249.0</ele><time>2026-04-26T11:46:51Z</time></trkpt><trkpt lat="41.31106602706448" lon="14.433689601994045"><ele>249.0</ele><time>2026-04-26T11:46:52Z</time></trkpt><trkpt lat="41.31120389482866" lon="14.433817365346615"><ele>249.0</ele><time>2026-04-26T11:46:53Z</time></trkpt><trkpt lat="41.31133765131106" lon="14.433914304269827"><ele>248.5</ele><time>2026-04-26T11:46:54Z</time></trkpt><trkpt lat="41.31146248394927" lon="14.433936467533421"><ele>248.0</ele><time>2026-04-26T11:46:55Z</time></trkpt><trkpt lat="41.31159336073094" lon="14.433877172479644"><ele>247.5</ele><time>2026-04-26T11:46:56Z</time></trkpt><trkpt lat="41.3117231595226" lon="14.433749474302997"><ele>247.0</ele><time>2026-04-26T11:46:57Z</time></trkpt><trkpt lat="41.311861501377535" lon="14.433600946914874"><ele>247.0</ele><time>2026-04-26T11:46:58Z</time></trkpt><trkpt lat="41.312000115078526" lon="14.433400273700538"><ele>247.0</ele><time>2026-04-26T11:46:59Z</time></trkpt><trkpt lat="41.312106348679706" lon="14.433159298133212"><ele>247.0</ele><time>2026-04-26T11:47:00Z</time></trkpt><trkpt lat="41.312177821490074" lon="14.43288897497046"><ele>249.33333333333331</ele><time>2026-04-26T11:47:01Z</time></trkpt><trkpt lat="41.3122458322584" lon="14.432613993829186"><ele>251.66666666666669</ele><time>2026-04-26T11:47:02Z</time></trkpt><trkpt lat="41.312315037354246" lon="14.432370968301491"><ele>254.0</ele><time>2026-04-26T11:47:03Z</time></trkpt><trkpt lat="41.31238514680978" lon="14.432172723433094"><ele>253.66666666666669</ele><time>2026-04-26T11:47:04Z</time></trkpt><trkpt lat="41.3124761512204" lon="14.432012591686208"><ele>253.33333333333331</ele><time>2026-04-26T11:47:05Z</time></trkpt><trkpt lat="41.31259808797637" lon="14.431852069906173"><ele>253.0</ele><time>2026-04-26T11:47:06Z</time></trkpt><trkpt lat="41.31276904530865" lon="14.431727502954567"><ele>253.0</ele><time>2026-04-26T11:47:07Z</time></trkpt><trkpt lat="41.31293231926937" lon="14.431568891442154"><ele>253.0</ele><time>2026-04-26T11:47:08Z</time></trkpt><trkpt lat="41.31308505444282" lon="14.431446724275"><ele>253.0</ele><time>2026-04-26T11:47:09Z</time></trkpt><trkpt lat="41.31321592116805" lon="14.431336438777949"><ele>254.0</ele><time>2026-04-26T11:47:10Z</time></trkpt><trkpt lat="41.31333570662386" lon="14.431236832272822"><ele>255.0</ele><time>2026-04-26T11:47:11Z</time></trkpt><trkpt lat="41.313442401995076" lon="14.431137451223771"><ele>256.0</ele><time>2026-04-26T11:47:12Z</time></trkpt><trkpt lat="41.313543359873464" lon="14.431018831368268"><ele>257.0</ele><time>2026-04-26T11:47:13Z</time></trkpt><trkpt lat="41.313669503476696" lon="14.430841086624847"><ele>257.0</ele><time>2026-04-26T11:47:14Z</time></trkpt><trkpt lat="41.313795461381766" lon="14.430627456530834"><ele>257.0</ele><time>2026-04-26T11:47:15Z</time></trkpt><trkpt lat="41.31390889865294" lon="14.430440463184409"><ele>257.0</ele><time>2026-04-26T11:47:16Z</time></trkpt><trkpt lat="41.31404074455061" lon="14.430272981138804"><ele>257.0</ele><time>2026-04-26T11:47:17Z</time></trkpt><trkpt lat="41.314162658586085" lon="14.43008917573148"><ele>257.0</ele><time>2026-04-26T11:47:18Z</time></trkpt><trkpt lat="41.31428998668744" lon="14.42989398619827"><ele>257.0</ele><time>2026-04-26T11:47:19Z</time></trkpt><trkpt lat="41.31440961764908" lon="14.429710596760108"><ele>255.0</ele><time>2026-04-26T11:47:20Z</time></trkpt><trkpt lat="41.31450880851951" lon="14.429525373346578"><ele>253.0</ele><time>2026-04-26T11:47:21Z</time></trkpt><trkpt lat="41.31460944860303" lon="14.429363370225886"><ele>251.0</ele><time>2026-04-26T11:47:22Z</time></trkpt><trkpt lat="41.314695566791016" lon="14.429204070845033"><ele>250.25</ele><time>2026-04-26T11:47:23Z</time></trkpt><trkpt lat="41.314759468505976" lon="14.429032109555006"><ele>249.5</ele><time>2026-04-26T11:47:24Z</time></trkpt><trkpt lat="41.31483806730431" lon="14.428877932776333"><ele>248.75</ele><time>2026-04-26T11:47:25Z</time></trkpt><trkpt lat="41.31492716591849" lon="14.428744274665226"><ele>248.0</ele><time>2026-04-26T11:47:26Z</time></trkpt><trkpt lat="41.315035963302314" lon="14.428652614714505"><ele>248.0</ele><time>2026-04-26T11:47:27Z</time></trkpt><trkpt lat="41.31516238275876" lon="14.428637217448891"><ele>248.0</ele><time>2026-04-26T11:47:28Z</time></trkpt><trkpt lat="41.31527652923062" lon="14.42863936357638"><ele>248.0</ele><time>2026-04-26T11:47:29.001Z</time></trkpt><trkpt lat="41.31535651199773" lon="14.428655570900231"><ele>248.0</ele><time>2026-04-26T11:47:30.001Z</time></trkpt><trkpt lat="41.31543439472614" lon="14.4286010550129"><ele>248.0</ele><time>2026-04-26T11:47:31.001Z</time></trkpt><trkpt lat="41.31546257580867" lon="14.428459296938607"><ele>248.0</ele><time>2026-04-26T11:47:32.001Z</time></trkpt><trkpt lat="41.31545749303911" lon="14.428332528926232"><ele>248.0</ele><time>2026-04-26T11:47:33.001Z</time></trkpt><trkpt lat="41.315356663765186" lon="14.428223405257219"><ele>248.0</ele><time>2026-04-26T11:47:34.001Z</time></trkpt><trkpt lat="41.31523666605325" lon="14.428123625999502"><ele>248.0</ele><time>2026-04-26T11:47:35.001Z</time></trkpt><trkpt lat="41.31513957496089" lon="14.427997213579793"><ele>247.66666666666669</ele><time>2026-04-26T11:47:36.001Z</time></trkpt><trkpt lat="41.31503478154815" lon="14.42784708007703"><ele>247.33333333333331</ele><time>2026-04-26T11:47:37.001Z</time></trkpt><trkpt lat="41.314965454404316" lon="14.427624030248888"><ele>247.0</ele><time>2026-04-26T11:47:38.001Z</time></trkpt><trkpt lat="41.314934964100985" lon="14.427395648334874"><ele>247.0</ele><time>2026-04-26T11:47:39.001Z</time></trkpt><trkpt lat="41.31491212866528" lon="14.427206981266878"><ele>247.0</ele><time>2026-04-26T11:47:40.001Z</time></trkpt><trkpt lat="41.3149270657864" lon="14.427009810267657"><ele>247.0</ele><time>2026-04-26T11:47:41.001Z</time></trkpt><trkpt lat="41.31500234272271" lon="14.426833791865102"><ele>247.0</ele><time>2026-04-26T11:47:42.001Z</time></trkpt><trkpt lat="41.31511189798329" lon="14.42671094293152"><ele>245.0</ele><time>2026-04-26T11:47:43.001Z</time></trkpt><trkpt lat="41.31522298225893" lon="14.42664092995709"><ele>243.0</ele><time>2026-04-26T11:47:44.001Z</time></trkpt><trkpt lat="41.31534286756812" lon="14.426607378853081"><ele>241.0</ele><time>2026-04-26T11:47:45.001Z</time></trkpt><trkpt lat="41.31543585460887" lon="14.426525265268337"><ele>239.0</ele><time>2026-04-26T11:47:46.001Z</time></trkpt><trkpt lat="41.31547688882351" lon="14.426390939533082"><ele>237.33333333333334</ele><time>2026-04-26T11:47:47.001Z</time></trkpt><trkpt lat="41.315449337149566" lon="14.426211648321217"><ele>235.66666666666669</ele><time>2026-04-26T11:47:48.001Z</time></trkpt><trkpt lat="41.315391450478685" lon="14.426033227080866"><ele>234.0</ele><time>2026-04-26T11:47:49.001Z</time></trkpt><trkpt lat="41.31532964586874" lon="14.425827340808562"><ele>234.0</ele><time>2026-04-26T11:47:50.001Z</time></trkpt><trkpt lat="41.31531075451381" lon="14.42556650440573"><ele>234.0</ele><time>2026-04-26T11:47:51Z</time></trkpt><trkpt lat="41.31531126440116" lon="14.425318334171234"><ele>234.0</ele><time>2026-04-26T11:47:52Z</time></trkpt><trkpt lat="41.31534897760428" lon="14.425049162075874"><ele>233.0</ele><time>2026-04-26T11:47:53Z</time></trkpt><trkpt lat="41.31537974379602" lon="14.424753862198843"><ele>232.0</ele><time>2026-04-26T11:47:54Z</time></trkpt><trkpt lat="41.31539959266825" lon="14.424428316342619"><ele>232.0</ele><time>2026-04-26T11:47:55Z</time></trkpt><trkpt lat="41.31542780073593" lon="14.42414907100735"><ele>232.0</ele><time>2026-04-26T11:47:56Z</time></trkpt><trkpt lat="41.31546487022315" lon="14.423877640356793"><ele>232.0</ele><time>2026-04-26T11:47:57Z</time></trkpt><trkpt lat="41.315550003875956" lon="14.42361082146878"><ele>235.33333333333331</ele><time>2026-04-26T11:47:58Z</time></trkpt><trkpt lat="41.31563328741536" lon="14.423333035843912"><ele>238.66666666666669</ele><time>2026-04-26T11:47:59Z</time></trkpt><trkpt lat="41.31571530492092" lon="14.423061101755788"><ele>242.0</ele><time>2026-04-26T11:48:00Z</time></trkpt><trkpt lat="41.31579685281222" lon="14.422790754561127"><ele>242.0</ele><time>2026-04-26T11:48:01Z</time></trkpt><trkpt lat="41.31586537410881" lon="14.422563593066082"><ele>242.0</ele><time>2026-04-26T11:48:02Z</time></trkpt><trkpt lat="41.31594842539402" lon="14.422288261822949"><ele>242.0</ele><time>2026-04-26T11:48:03Z</time></trkpt><trkpt lat="41.31603027472376" lon="14.422009798041879"><ele>242.0</ele><time>2026-04-26T11:48:04Z</time></trkpt><trkpt lat="41.316122037372274" lon="14.421693272537008"><ele>242.0</ele><time>2026-04-26T11:48:05Z</time></trkpt><trkpt lat="41.31621872202469" lon="14.42137902340611"><ele>240.5</ele><time>2026-04-26T11:48:06Z</time></trkpt><trkpt lat="41.31631879152164" lon="14.421053932938799"><ele>239.0</ele><time>2026-04-26T11:48:07Z</time></trkpt><trkpt lat="41.316414791392084" lon="14.42071888208478"><ele>242.5</ele><time>2026-04-26T11:48:08Z</time></trkpt><trkpt lat="41.316510108783405" lon="14.420391848588972"><ele>246.0</ele><time>2026-04-26T11:48:09Z</time></trkpt><trkpt lat="41.3166052832924" lon="14.420071073234707"><ele>246.0</ele><time>2026-04-26T11:48:10Z</time></trkpt><trkpt lat="41.31668995814662" lon="14.419782043362797"><ele>246.0</ele><time>2026-04-26T11:48:11Z</time></trkpt><trkpt lat="41.31677076769356" lon="14.419503765377621"><ele>246.5</ele><time>2026-04-26T11:48:12Z</time></trkpt><trkpt lat="41.316853598586874" lon="14.419220989259808"><ele>247.0</ele><time>2026-04-26T11:48:13Z</time></trkpt><trkpt lat="41.31693963431517" lon="14.418936676090432"><ele>247.5</ele><time>2026-04-26T11:48:14Z</time></trkpt><trkpt lat="41.31703697036244" lon="14.418658578355439"><ele>248.0</ele><time>2026-04-26T11:48:15Z</time></trkpt><trkpt lat="41.31715539317216" lon="14.418401111861598"><ele>250.5</ele><time>2026-04-26T11:48:16Z</time></trkpt><trkpt lat="41.31729525805831" lon="14.41814660717777"><ele>253.0</ele><time>2026-04-26T11:48:17Z</time></trkpt><trkpt lat="41.317449055258564" lon="14.417891481908267"><ele>253.0</ele><time>2026-04-26T11:48:18Z</time></trkpt><trkpt lat="41.31761262871638" lon="14.417628469099885"><ele>253.0</ele><time>2026-04-26T11:48:19Z</time></trkpt><trkpt lat="41.31778001788586" lon="14.417357881210703"><ele>252.5</ele><time>2026-04-26T11:48:20Z</time></trkpt><trkpt lat="41.3179464793312" lon="14.417081070911433"><ele>252.0</ele><time>2026-04-26T11:48:21Z</time></trkpt><trkpt lat="41.318111271442945" lon="14.41680703644094"><ele>254.5</ele><time>2026-04-26T11:48:22Z</time></trkpt><trkpt lat="41.318276465119126" lon="14.416532334203312"><ele>257.0</ele><time>2026-04-26T11:48:23Z</time></trkpt><trkpt lat="41.318407364127346" lon="14.416236621043856"><ele>257.0</ele><time>2026-04-26T11:48:24Z</time></trkpt><trkpt lat="41.31855807620071" lon="14.415997290484034"><ele>257.0</ele><time>2026-04-26T11:48:25Z</time></trkpt><trkpt lat="41.31870006875118" lon="14.415771560073319"><ele>257.0</ele><time>2026-04-26T11:48:26Z</time></trkpt><trkpt lat="41.3188363566808" lon="14.41554928364676"><ele>257.0</ele><time>2026-04-26T11:48:27Z</time></trkpt><trkpt lat="41.318968310116865" lon="14.415333338741924"><ele>257.0</ele><time>2026-04-26T11:48:28Z</time></trkpt><trkpt lat="41.319100774645015" lon="14.41512708419031"><ele>257.0</ele><time>2026-04-26T11:48:29Z</time></trkpt><trkpt lat="41.31923683104227" lon="14.414935364508349"><ele>257.0</ele><time>2026-04-26T11:48:30Z</time></trkpt><trkpt lat="41.319378371364095" lon="14.4147513215577"><ele>257.0</ele><time>2026-04-26T11:48:31Z</time></trkpt><trkpt lat="41.31955895485845" lon="14.41457579498489"><ele>259.0</ele><time>2026-04-26T11:48:32Z</time></trkpt><trkpt lat="41.319766006203" lon="14.41441137360678"><ele>261.0</ele><time>2026-04-26T11:48:33Z</time></trkpt><trkpt lat="41.3199837315328" lon="14.4142376084127"><ele>261.0</ele><time>2026-04-26T11:48:34Z</time></trkpt><trkpt lat="41.320172943662904" lon="14.414041366197084"><ele>261.0</ele><time>2026-04-26T11:48:35Z</time></trkpt><trkpt lat="41.320411546917995" lon="14.413881083818989"><ele>260.0</ele><time>2026-04-26T11:48:36Z</time></trkpt><trkpt lat="41.320628074068125" lon="14.413705675521909"><ele>259.0</ele><time>2026-04-26T11:48:37Z</time></trkpt><trkpt lat="41.320851788831085" lon="14.413545714638898"><ele>259.0</ele><time>2026-04-26T11:48:38Z</time></trkpt><trkpt lat="41.32106553621538" lon="14.413375679908164"><ele>259.0</ele><time>2026-04-26T11:48:39Z</time></trkpt><trkpt lat="41.321260579016084" lon="14.413225994760175"><ele>258.3333333333333</ele><time>2026-04-26T11:48:40Z</time></trkpt><trkpt lat="41.321445721765805" lon="14.413078608352402"><ele>257.6666666666667</ele><time>2026-04-26T11:48:41Z</time></trkpt><trkpt lat="41.321633181812224" lon="14.412919233839476"><ele>257.0</ele><time>2026-04-26T11:48:42Z</time></trkpt><trkpt lat="41.32180079410867" lon="14.41271544960913"><ele>257.0</ele><time>2026-04-26T11:48:43Z</time></trkpt><trkpt lat="41.32195874514355" lon="14.412486615032245"><ele>257.0</ele><time>2026-04-26T11:48:44Z</time></trkpt><trkpt lat="41.32211805411341" lon="14.412229718584415"><ele>256.5</ele><time>2026-04-26T11:48:45Z</time></trkpt><trkpt lat="41.32226623926525" lon="14.411956425057697"><ele>256.0</ele><time>2026-04-26T11:48:46Z</time></trkpt><trkpt lat="41.32240678784354" lon="14.4116729696839"><ele>256.0</ele><time>2026-04-26T11:48:47Z</time></trkpt><trkpt lat="41.32254242876456" lon="14.41139583275646"><ele>256.0</ele><time>2026-04-26T11:48:48Z</time></trkpt><trkpt lat="41.322663807380394" lon="14.411123902811926"><ele>253.0</ele><time>2026-04-26T11:48:49Z</time></trkpt><trkpt lat="41.322768083471985" lon="14.410842109417315"><ele>250.0</ele><time>2026-04-26T11:48:50Z</time></trkpt><trkpt lat="41.32284042756379" lon="14.410513317371127"><ele>249.5</ele><time>2026-04-26T11:48:51Z</time></trkpt><trkpt lat="41.322903830626075" lon="14.41017938375781"><ele>249.0</ele><time>2026-04-26T11:48:52Z</time></trkpt><trkpt lat="41.32297351842319" lon="14.409875594878002"><ele>248.0</ele><time>2026-04-26T11:48:53Z</time></trkpt><trkpt lat="41.32303759785471" lon="14.409600457127073"><ele>247.0</ele><time>2026-04-26T11:48:54Z</time></trkpt><trkpt lat="41.32309676097087" lon="14.409335731961784"><ele>246.0</ele><time>2026-04-26T11:48:55Z</time></trkpt><trkpt lat="41.32315601630217" lon="14.409096025486816"><ele>245.75</ele><time>2026-04-26T11:48:56Z</time></trkpt><trkpt lat="41.3232103510051" lon="14.408903405087656"><ele>245.5</ele><time>2026-04-26T11:48:57Z</time></trkpt><trkpt lat="41.323271611402674" lon="14.408764349230186"><ele>245.25</ele><time>2026-04-26T11:48:58Z</time></trkpt><trkpt lat="41.32336212964993" lon="14.40866725455593"><ele>245.0</ele><time>2026-04-26T11:48:59Z</time></trkpt><trkpt lat="41.32350148068975" lon="14.408631510539754"><ele>245.0</ele><time>2026-04-26T11:49:00Z</time></trkpt><trkpt lat="41.323667699117756" lon="14.408633884684697"><ele>245.0</ele><time>2026-04-26T11:49:01Z</time></trkpt><trkpt lat="41.32385685569859" lon="14.408668009925501"><ele>245.0</ele><time>2026-04-26T11:49:02Z</time></trkpt><trkpt lat="41.32403606465269" lon="14.408700923519623"><ele>246.25</ele><time>2026-04-26T11:49:03Z</time></trkpt><trkpt lat="41.32417672785042" lon="14.408727406319112"><ele>247.5</ele><time>2026-04-26T11:49:04Z</time></trkpt><trkpt lat="41.324300558969576" lon="14.408737389382836"><ele>248.75</ele><time>2026-04-26T11:49:05Z</time></trkpt><trkpt lat="41.32441741870296" lon="14.408687132443392"><ele>250.0</ele><time>2026-04-26T11:49:06Z</time></trkpt><trkpt lat="41.324526029488695" lon="14.408560545950582"><ele>250.0</ele><time>2026-04-26T11:49:07Z</time></trkpt><trkpt lat="41.324614525648094" lon="14.40841948800826"><ele>250.0</ele><time>2026-04-26T11:49:08Z</time></trkpt><trkpt lat="41.32467382476258" lon="14.40830773639774"><ele>250.0</ele><time>2026-04-26T11:49:09Z</time></trkpt><trkpt lat="41.32469301341014" lon="14.408200659641581"><ele>250.0</ele><time>2026-04-26T11:49:10Z</time></trkpt><trkpt lat="41.32464345196452" lon="14.408072475049467"><ele>250.0</ele><time>2026-04-26T11:49:11Z</time></trkpt><trkpt lat="41.32455536274016" lon="14.407959004587873"><ele>250.0</ele><time>2026-04-26T11:49:12Z</time></trkpt><trkpt lat="41.32442831304736" lon="14.40783063233485"><ele>250.0</ele><time>2026-04-26T11:49:13Z</time></trkpt><trkpt lat="41.324294345596" lon="14.407703244552708"><ele>250.0</ele><time>2026-04-26T11:49:14Z</time></trkpt><trkpt lat="41.32414620990177" lon="14.407551206282244"><ele>250.0</ele><time>2026-04-26T11:49:15Z</time></trkpt><trkpt lat="41.323996727029765" lon="14.407392538224551"><ele>250.0</ele><time>2026-04-26T11:49:16Z</time></trkpt><trkpt lat="41.32389354767533" lon="14.407240454606798"><ele>250.0</ele><time>2026-04-26T11:49:17Z</time></trkpt><trkpt lat="41.32379939768589" lon="14.407117238705666"><ele>246.0</ele><time>2026-04-26T11:49:18Z</time></trkpt><trkpt lat="41.32377034481674" lon="14.40694025542068"><ele>242.0</ele><time>2026-04-26T11:49:19Z</time></trkpt><trkpt lat="41.32377620039468" lon="14.406713519379077"><ele>238.0</ele><time>2026-04-26T11:49:20Z</time></trkpt><trkpt lat="41.32382609395869" lon="14.406485818568893"><ele>240.0</ele><time>2026-04-26T11:49:21Z</time></trkpt><trkpt lat="41.32391619005798" lon="14.406296098431461"><ele>242.0</ele><time>2026-04-26T11:49:22Z</time></trkpt><trkpt lat="41.32404946915243" lon="14.406100063716051"><ele>244.0</ele><time>2026-04-26T11:49:23Z</time></trkpt><trkpt lat="41.3241848975668" lon="14.40591066189132"><ele>244.0</ele><time>2026-04-26T11:49:24Z</time></trkpt><trkpt lat="41.324276436141496" lon="14.405656287565103"><ele>244.0</ele><time>2026-04-26T11:49:25Z</time></trkpt><trkpt lat="41.32436841091998" lon="14.405369198837084"><ele>244.0</ele><time>2026-04-26T11:49:26Z</time></trkpt><trkpt lat="41.3244622218827" lon="14.405082019972387"><ele>244.66666666666666</ele><time>2026-04-26T11:49:27Z</time></trkpt><trkpt lat="41.32454250424842" lon="14.404827225626114"><ele>245.33333333333331</ele><time>2026-04-26T11:49:28Z</time></trkpt><trkpt lat="41.32463990456058" lon="14.404619661962949"><ele>246.0</ele><time>2026-04-26T11:49:29Z</time></trkpt><trkpt lat="41.32471673448475" lon="14.404409263358906"><ele>246.66666666666669</ele><time>2026-04-26T11:49:30Z</time></trkpt><trkpt lat="41.32480345800646" lon="14.404200485013614"><ele>247.33333333333334</ele><time>2026-04-26T11:49:31Z</time></trkpt><trkpt lat="41.324912716769944" lon="14.404001204107006"><ele>248.0</ele><time>2026-04-26T11:49:32Z</time></trkpt><trkpt lat="41.32504214060484" lon="14.403809599980947"><ele>248.0</ele><time>2026-04-26T11:49:33Z</time></trkpt><trkpt lat="41.32519575016209" lon="14.403619705348445"><ele>248.0</ele><time>2026-04-26T11:49:34Z</time></trkpt><trkpt lat="41.32536847880893" lon="14.403420224649214"><ele>248.0</ele><time>2026-04-26T11:49:35.001Z</time></trkpt><trkpt lat="41.325549057097795" lon="14.40321632947021"><ele>249.5</ele><time>2026-04-26T11:49:36.001Z</time></trkpt><trkpt lat="41.32573092364785" lon="14.403013287615876"><ele>251.0</ele><time>2026-04-26T11:49:37.001Z</time></trkpt><trkpt lat="41.32591574742744" lon="14.402807076395014"><ele>251.0</ele><time>2026-04-26T11:49:38.001Z</time></trkpt><trkpt lat="41.326103796308665" lon="14.402595942548613"><ele>251.0</ele><time>2026-04-26T11:49:39.001Z</time></trkpt><trkpt lat="41.32629814420597" lon="14.402376293549423"><ele>254.0</ele><time>2026-04-26T11:49:40.001Z</time></trkpt><trkpt lat="41.32649523126479" lon="14.402152706559761"><ele>257.0</ele><time>2026-04-26T11:49:41.001Z</time></trkpt><trkpt lat="41.3266949886321" lon="14.401927924952226"><ele>257.0</ele><time>2026-04-26T11:49:42.001Z</time></trkpt><trkpt lat="41.326901482946354" lon="14.401697266890295"><ele>257.0</ele><time>2026-04-26T11:49:43.001Z</time></trkpt><trkpt lat="41.32710480390171" lon="14.401469558523047"><ele>257.5</ele><time>2026-04-26T11:49:44.001Z</time></trkpt><trkpt lat="41.32730852006657" lon="14.401239410363848"><ele>258.0</ele><time>2026-04-26T11:49:45.001Z</time></trkpt><trkpt lat="41.327507068779056" lon="14.401014656379827"><ele>258.0</ele><time>2026-04-26T11:49:46.001Z</time></trkpt><trkpt lat="41.32768559792438" lon="14.400812497134405"><ele>258.0</ele><time>2026-04-26T11:49:47.001Z</time></trkpt><trkpt lat="41.327855158219656" lon="14.400621634388454"><ele>256.6666666666667</ele><time>2026-04-26T11:49:48.001Z</time></trkpt><trkpt lat="41.32802135158068" lon="14.400435213912818"><ele>255.33333333333334</ele><time>2026-04-26T11:49:49.001Z</time></trkpt><trkpt lat="41.32817627123351" lon="14.400267501275087"><ele>254.0</ele><time>2026-04-26T11:49:50.001Z</time></trkpt><trkpt lat="41.32833107723391" lon="14.400106078203224"><ele>256.33333333333337</ele><time>2026-04-26T11:49:51.001Z</time></trkpt><trkpt lat="41.328500436586616" lon="14.399961192158974"><ele>258.6666666666667</ele><time>2026-04-26T11:49:52.001Z</time></trkpt><trkpt lat="41.32868847662735" lon="14.399813727604174"><ele>261.0</ele><time>2026-04-26T11:49:53.001Z</time></trkpt><trkpt lat="41.32889073980301" lon="14.399655107522854"><ele>262.0</ele><time>2026-04-26T11:49:54.001Z</time></trkpt><trkpt lat="41.329085748223164" lon="14.399506686763193"><ele>263.0</ele><time>2026-04-26T11:49:55.001Z</time></trkpt><trkpt lat="41.32926936174547" lon="14.399369827750851"><ele>264.0</ele><time>2026-04-26T11:49:56.001Z</time></trkpt><trkpt lat="41.32946111333515" lon="14.399234232238657"><ele>264.0</ele><time>2026-04-26T11:49:57.001Z</time></trkpt><trkpt lat="41.32966361946925" lon="14.399112814701896"><ele>264.0</ele><time>2026-04-26T11:49:58.001Z</time></trkpt><trkpt lat="41.329883420121405" lon="14.39900053867819"><ele>265.0</ele><time>2026-04-26T11:49:59.001Z</time></trkpt><trkpt lat="41.33011665427471" lon="14.39888704972981"><ele>266.0</ele><time>2026-04-26T11:50:00.001Z</time></trkpt><trkpt lat="41.33033907939726" lon="14.398779272300999"><ele>265.33333333333337</ele><time>2026-04-26T11:50:01.001Z</time></trkpt><trkpt lat="41.33054806527373" lon="14.398676184401479"><ele>264.6666666666667</ele><time>2026-04-26T11:50:02.001Z</time></trkpt><trkpt lat="41.330750058573095" lon="14.398576181729995"><ele>264.0</ele><time>2026-04-26T11:50:03Z</time></trkpt><trkpt lat="41.330951403858144" lon="14.398476579491657"><ele>264.0</ele><time>2026-04-26T11:50:04Z</time></trkpt><trkpt lat="41.33115363768003" lon="14.398378594209728"><ele>264.0</ele><time>2026-04-26T11:50:05Z</time></trkpt><trkpt lat="41.33135471830154" lon="14.39828116767446"><ele>264.0</ele><time>2026-04-26T11:50:06Z</time></trkpt><trkpt lat="41.331556292458295" lon="14.398183126220768"><ele>265.3333333333333</ele><time>2026-04-26T11:50:07Z</time></trkpt><trkpt lat="41.33175509392229" lon="14.398084410664762"><ele>266.66666666666663</ele><time>2026-04-26T11:50:08Z</time></trkpt><trkpt lat="41.33195466115418" lon="14.39798635526475"><ele>268.0</ele><time>2026-04-26T11:50:09Z</time></trkpt><trkpt lat="41.332148449272026" lon="14.397891146424971"><ele>267.3333333333333</ele><time>2026-04-26T11:50:10Z</time></trkpt><trkpt lat="41.33232810797101" lon="14.397802879447166"><ele>266.6666666666667</ele><time>2026-04-26T11:50:11Z</time></trkpt><trkpt lat="41.33248379472243" lon="14.397726389959429"><ele>266.0</ele><time>2026-04-26T11:50:12Z</time></trkpt><trkpt lat="41.33264141566036" lon="14.397648950187127"><ele>266.0</ele><time>2026-04-26T11:50:13Z</time></trkpt><trkpt lat="41.332797455101954" lon="14.397572570756772"><ele>266.0</ele><time>2026-04-26T11:50:14Z</time></trkpt><trkpt lat="41.33293407647047" lon="14.39750619543383"><ele>266.0</ele><time>2026-04-26T11:50:15Z</time></trkpt><trkpt lat="41.333046980314464" lon="14.39745134294124"><ele>266.0</ele><time>2026-04-26T11:50:16Z</time></trkpt><trkpt lat="41.333148373593446" lon="14.39740208265884"><ele>266.6</ele><time>2026-04-26T11:50:17Z</time></trkpt><trkpt lat="41.33323529392085" lon="14.397358117253606"><ele>267.20000000000005</ele><time>2026-04-26T11:50:18Z</time></trkpt><trkpt lat="41.33329613609542" lon="14.397324583980643"><ele>267.79999999999995</ele><time>2026-04-26T11:50:19Z</time></trkpt><trkpt lat="41.33336893167114" lon="14.397473028666285"><ele>268.4</ele><time>2026-04-26T11:50:21Z</time></trkpt><trkpt lat="41.33341854780129" lon="14.397593388254037"><ele>269.0</ele><time>2026-04-26T11:50:22Z</time></trkpt><trkpt lat="41.33346180515823" lon="14.397718338184736"><ele>269.0</ele><time>2026-04-26T11:50:23Z</time></trkpt><trkpt lat="41.333507045597585" lon="14.397873191721851"><ele>269.0</ele><time>2026-04-26T11:50:24Z</time></trkpt><trkpt lat="41.33354651888233" lon="14.398044978859025"><ele>269.0</ele><time>2026-04-26T11:50:25Z</time></trkpt><trkpt lat="41.33358356836562" lon="14.398215419857394"><ele>269.0</ele><time>2026-04-26T11:50:26Z</time></trkpt><trkpt lat="41.33362365701898" lon="14.398393815992538"><ele>270.75</ele><time>2026-04-26T11:50:27Z</time></trkpt><trkpt lat="41.33365346059505" lon="14.398583882825038"><ele>272.5</ele><time>2026-04-26T11:50:28Z</time></trkpt><trkpt lat="41.333658444101474" lon="14.398769723602683"><ele>274.25</ele><time>2026-04-26T11:50:29Z</time></trkpt><trkpt lat="41.3336481332776" lon="14.398918924523047"><ele>276.0</ele><time>2026-04-26T11:50:30Z</time></trkpt><trkpt lat="41.3336089487831" lon="14.39902232880122"><ele>277.5</ele><time>2026-04-26T11:50:31Z</time></trkpt><trkpt lat="41.33351587476222" lon="14.399079235150268"><ele>279.0</ele><time>2026-04-26T11:50:32Z</time></trkpt><trkpt lat="41.33344194197764" lon="14.399169546982728"><ele>280.5</ele><time>2026-04-26T11:50:33Z</time></trkpt><trkpt lat="41.33336264921748" lon="14.399274419996349"><ele>282.0</ele><time>2026-04-26T11:50:34Z</time></trkpt><trkpt lat="41.333283512282954" lon="14.399426432340414"><ele>282.0</ele><time>2026-04-26T11:50:35Z</time></trkpt><trkpt lat="41.33318630175539" lon="14.39959550029301"><ele>282.0</ele><time>2026-04-26T11:50:36Z</time></trkpt><trkpt lat="41.33307552016343" lon="14.399730066430006"><ele>282.0</ele><time>2026-04-26T11:50:37Z</time></trkpt><trkpt lat="41.33298725263915" lon="14.399852115233157"><ele>282.0</ele><time>2026-04-26T11:50:38Z</time></trkpt><trkpt lat="41.33293188943128" lon="14.399977570776265"><ele>283.0</ele><time>2026-04-26T11:50:39Z</time></trkpt><trkpt lat="41.332917230651404" lon="14.400115420449804"><ele>284.0</ele><time>2026-04-26T11:50:40Z</time></trkpt><trkpt lat="41.33294694129634" lon="14.400261068407866"><ele>285.0</ele><time>2026-04-26T11:50:41Z</time></trkpt><trkpt lat="41.33300528122684" lon="14.40041302843937"><ele>286.0</ele><time>2026-04-26T11:50:42Z</time></trkpt><trkpt lat="41.33304112678078" lon="14.400567090470835"><ele>287.5</ele><time>2026-04-26T11:50:43Z</time></trkpt><trkpt lat="41.33300296319609" lon="14.400697853939931"><ele>289.0</ele><time>2026-04-26T11:50:44Z</time></trkpt><trkpt lat="41.33294825085271" lon="14.40085824291854"><ele>290.5</ele><time>2026-04-26T11:50:45Z</time></trkpt><trkpt lat="41.33286583106822" lon="14.401048624651564"><ele>292.0</ele><time>2026-04-26T11:50:46Z</time></trkpt><trkpt lat="41.33280108100514" lon="14.401250738712555"><ele>294.25</ele><time>2026-04-26T11:50:47Z</time></trkpt><trkpt lat="41.33276785843723" lon="14.40145963932942"><ele>296.5</ele><time>2026-04-26T11:50:48Z</time></trkpt><trkpt lat="41.33274262511528" lon="14.401651418540462"><ele>298.75</ele><time>2026-04-26T11:50:49Z</time></trkpt><trkpt lat="41.332736888905636" lon="14.401816457207929"><ele>301.0</ele><time>2026-04-26T11:50:50Z</time></trkpt><trkpt lat="41.332768897270114" lon="14.401965386209705"><ele>301.0</ele><time>2026-04-26T11:50:51Z</time></trkpt><trkpt lat="41.33284514559856" lon="14.402108398584813"><ele>301.0</ele><time>2026-04-26T11:50:52Z</time></trkpt><trkpt lat="41.3329577321242" lon="14.402272895460019"><ele>301.0</ele><time>2026-04-26T11:50:53Z</time></trkpt><trkpt lat="41.333080683910524" lon="14.40247487861416"><ele>304.0</ele><time>2026-04-26T11:50:54Z</time></trkpt><trkpt lat="41.3331880579873" lon="14.402680809701407"><ele>307.0</ele><time>2026-04-26T11:50:55Z</time></trkpt><trkpt lat="41.33326080112188" lon="14.402903879742158"><ele>310.0</ele><time>2026-04-26T11:50:56Z</time></trkpt><trkpt lat="41.33335029437464" lon="14.403124695257791"><ele>313.0</ele><time>2026-04-26T11:50:57Z</time></trkpt><trkpt lat="41.33341440817708" lon="14.403337687154032"><ele>316.0</ele><time>2026-04-26T11:50:58Z</time></trkpt><trkpt lat="41.33347057116788" lon="14.403516775940986"><ele>319.0</ele><time>2026-04-26T11:50:59Z</time></trkpt><trkpt lat="41.33352687743218" lon="14.403680105973672"><ele>319.0</ele><time>2026-04-26T11:51:00Z</time></trkpt><trkpt lat="41.333572603627296" lon="14.403819712921074"><ele>319.0</ele><time>2026-04-26T11:51:01Z</time></trkpt><trkpt lat="41.33361366801364" lon="14.403929486799548"><ele>319.0</ele><time>2026-04-26T11:51:02Z</time></trkpt><trkpt lat="41.33364350968333" lon="14.404004035013152"><ele>319.0</ele><time>2026-04-26T11:51:03Z</time></trkpt><trkpt lat="41.333697188456696" lon="14.404148909103132"><ele>319.0</ele><time>2026-04-26T11:51:05Z</time></trkpt><trkpt lat="41.33372405780604" lon="14.404243737795452"><ele>320.6</ele><time>2026-04-26T11:51:06Z</time></trkpt><trkpt lat="41.33376617062284" lon="14.404353171924546"><ele>322.2</ele><time>2026-04-26T11:51:07Z</time></trkpt><trkpt lat="41.33379669786325" lon="14.404463919948782"><ele>323.8</ele><time>2026-04-26T11:51:08Z</time></trkpt><trkpt lat="41.333835911266505" lon="14.404587927506944"><ele>325.40000000000003</ele><time>2026-04-26T11:51:09Z</time></trkpt><trkpt lat="41.333874010634645" lon="14.40470740115728"><ele>327.0</ele><time>2026-04-26T11:51:10Z</time></trkpt><trkpt lat="41.33391564442174" lon="14.4048384741693"><ele>329.75</ele><time>2026-04-26T11:51:11Z</time></trkpt><trkpt lat="41.33395918867748" lon="14.404967841198022"><ele>332.5</ele><time>2026-04-26T11:51:12Z</time></trkpt><trkpt lat="41.33400282293027" lon="14.405099379547705"><ele>335.25</ele><time>2026-04-26T11:51:13Z</time></trkpt><trkpt lat="41.334051520307966" lon="14.405239477553586"><ele>338.0</ele><time>2026-04-26T11:51:14Z</time></trkpt><trkpt lat="41.334096662276025" lon="14.405390109533174"><ele>341.0</ele><time>2026-04-26T11:51:15Z</time></trkpt><trkpt lat="41.33414957438484" lon="14.405550876021813"><ele>344.0</ele><time>2026-04-26T11:51:16Z</time></trkpt><trkpt lat="41.33421779396646" lon="14.40573472744777"><ele>347.0</ele><time>2026-04-26T11:51:17Z</time></trkpt><trkpt lat="41.33427848374318" lon="14.405946822129472"><ele>347.0</ele><time>2026-04-26T11:51:18Z</time></trkpt><trkpt lat="41.33436797313835" lon="14.406194141686582"><ele>347.0</ele><time>2026-04-26T11:51:19Z</time></trkpt><trkpt lat="41.33445236435966" lon="14.406432782720639"><ele>347.0</ele><time>2026-04-26T11:51:20Z</time></trkpt><trkpt lat="41.334543320672175" lon="14.406687738309552"><ele>350.5</ele><time>2026-04-26T11:51:21Z</time></trkpt><trkpt lat="41.33465797903195" lon="14.406970511222928"><ele>354.0</ele><time>2026-04-26T11:51:22Z</time></trkpt><trkpt lat="41.334770435906364" lon="14.407211776186594"><ele>356.6666666666667</ele><time>2026-04-26T11:51:23Z</time></trkpt><trkpt lat="41.334862268307425" lon="14.407412670164028"><ele>359.33333333333337</ele><time>2026-04-26T11:51:24Z</time></trkpt><trkpt lat="41.33491003661672" lon="14.40759965548198"><ele>362.0</ele><time>2026-04-26T11:51:25Z</time></trkpt><trkpt lat="41.3349561124073" lon="14.407770404051597"><ele>362.0</ele><time>2026-04-26T11:51:26Z</time></trkpt><trkpt lat="41.33499805776086" lon="14.407946549754097"><ele>362.0</ele><time>2026-04-26T11:51:27Z</time></trkpt><trkpt lat="41.33504816795746" lon="14.408148092881087"><ele>362.0</ele><time>2026-04-26T11:51:28Z</time></trkpt><trkpt lat="41.33508270964943" lon="14.408358313319418"><ele>364.33333333333337</ele><time>2026-04-26T11:51:29Z</time></trkpt><trkpt lat="41.33515434345762" lon="14.408545730806"><ele>366.6666666666667</ele><time>2026-04-26T11:51:30Z</time></trkpt><trkpt lat="41.33522078815634" lon="14.408755753808117"><ele>369.0</ele><time>2026-04-26T11:51:31Z</time></trkpt><trkpt lat="41.33533484188454" lon="14.408970229841625"><ele>370.6666666666667</ele><time>2026-04-26T11:51:32Z</time></trkpt><trkpt lat="41.335440511935445" lon="14.409183685394481"><ele>372.33333333333337</ele><time>2026-04-26T11:51:33Z</time></trkpt><trkpt lat="41.33550426772303" lon="14.409371291654724"><ele>374.0</ele><time>2026-04-26T11:51:34Z</time></trkpt><trkpt lat="41.335594593466425" lon="14.409500014663013"><ele>375.0</ele><time>2026-04-26T11:51:35Z</time></trkpt><trkpt lat="41.33565451622302" lon="14.409617141148122"><ele>376.0</ele><time>2026-04-26T11:51:36Z</time></trkpt><trkpt lat="41.33570342954677" lon="14.409715258076751"><ele>377.0</ele><time>2026-04-26T11:51:37Z</time></trkpt><trkpt lat="41.33572444274899" lon="14.409808059387395"><ele>378.0</ele><time>2026-04-26T11:51:38Z</time></trkpt><trkpt lat="41.33550950621937" lon="14.40997336155158"><ele>379.3333333333333</ele><time>2026-04-26T11:51:41.001Z</time></trkpt><trkpt lat="41.335369268523024" lon="14.41009596655967"><ele>380.66666666666663</ele><time>2026-04-26T11:51:42.001Z</time></trkpt><trkpt lat="41.335248184905765" lon="14.410204475502008"><ele>382.0</ele><time>2026-04-26T11:51:43.001Z</time></trkpt><trkpt lat="41.335136138477836" lon="14.41030858124993"><ele>382.0</ele><time>2026-04-26T11:51:44.001Z</time></trkpt><trkpt lat="41.335025126818834" lon="14.410397339680987"><ele>382.0</ele><time>2026-04-26T11:51:45.001Z</time></trkpt><trkpt lat="41.334909566468504" lon="14.410486186014719"><ele>382.0</ele><time>2026-04-26T11:51:46.001Z</time></trkpt><trkpt lat="41.33479526828012" lon="14.410556441691183"><ele>382.0</ele><time>2026-04-26T11:51:47.001Z</time></trkpt><trkpt lat="41.33468276023862" lon="14.410586703110837"><ele>383.8</ele><time>2026-04-26T11:51:48.001Z</time></trkpt><trkpt lat="41.33457475678742" lon="14.41054711093109"><ele>385.6</ele><time>2026-04-26T11:51:49.001Z</time></trkpt><trkpt lat="41.3344669226567" lon="14.410548024356396"><ele>387.40000000000003</ele><time>2026-04-26T11:51:50.001Z</time></trkpt><trkpt lat="41.334363294700665" lon="14.410549960868687"><ele>389.20000000000005</ele><time>2026-04-26T11:51:51.001Z</time></trkpt><trkpt lat="41.33426284813705" lon="14.410591505600978"><ele>391.0</ele><time>2026-04-26T11:51:52.001Z</time></trkpt><trkpt lat="41.334166593482735" lon="14.41066028613232"><ele>391.0</ele><time>2026-04-26T11:51:53.001Z</time></trkpt><trkpt lat="41.33408347365607" lon="14.4107793163477"><ele>391.0</ele><time>2026-04-26T11:51:54.001Z</time></trkpt><trkpt lat="41.33400669082942" lon="14.410904181113812"><ele>391.0</ele><time>2026-04-26T11:51:55.001Z</time></trkpt><trkpt lat="41.333919866120155" lon="14.411042136437201"><ele>391.0</ele><time>2026-04-26T11:51:56.001Z</time></trkpt><trkpt lat="41.33386022254163" lon="14.41124992412552"><ele>392.0</ele><time>2026-04-26T11:51:57.001Z</time></trkpt><trkpt lat="41.33380374261656" lon="14.41145377662278"><ele>393.0</ele><time>2026-04-26T11:51:58.001Z</time></trkpt><trkpt lat="41.33378556364528" lon="14.411588091002377"><ele>394.0</ele><time>2026-04-26T11:51:59.001Z</time></trkpt><trkpt lat="41.33382692522043" lon="14.41174737354178"><ele>395.0</ele><time>2026-04-26T11:52:01.001Z</time></trkpt><trkpt lat="41.33391659267168" lon="14.411853555361331"><ele>397.0</ele><time>2026-04-26T11:52:02.001Z</time></trkpt><trkpt lat="41.33402571832699" lon="14.412004870487355"><ele>399.0</ele><time>2026-04-26T11:52:03.001Z</time></trkpt><trkpt lat="41.334116465866884" lon="14.41214430103294"><ele>401.0</ele><time>2026-04-26T11:52:04Z</time></trkpt><trkpt lat="41.334186628804936" lon="14.412219644058402"><ele>403.0</ele><time>2026-04-26T11:52:05Z</time></trkpt><trkpt lat="41.33432300911035" lon="14.412208870912934"><ele>403.00000000000006</ele><time>2026-04-26T11:52:07Z</time></trkpt><trkpt lat="41.33439703755871" lon="14.412094443728606"><ele>403.0</ele><time>2026-04-26T11:52:08Z</time></trkpt><trkpt lat="41.334477980308144" lon="14.412014279281486"><ele>403.0</ele><time>2026-04-26T11:52:09Z</time></trkpt><trkpt lat="41.33454172150193" lon="14.411962927031668"><ele>403.0</ele><time>2026-04-26T11:52:10Z</time></trkpt><trkpt lat="41.3345920110557" lon="14.41190746367152"><ele>403.00000000000006</ele><time>2026-04-26T11:52:11Z</time></trkpt><trkpt lat="41.334684358704" lon="14.4118940942396"><ele>403.0</ele><time>2026-04-26T11:52:13Z</time></trkpt><trkpt lat="41.33474329948874" lon="14.411985612394233"><ele>402.25</ele><time>2026-04-26T11:52:14Z</time></trkpt><trkpt lat="41.33481776719825" lon="14.412120374884356"><ele>401.5</ele><time>2026-04-26T11:52:15Z</time></trkpt><trkpt lat="41.33491019641278" lon="14.412237210090169"><ele>400.75</ele><time>2026-04-26T11:52:16Z</time></trkpt><trkpt lat="41.334992911164576" lon="14.41234473061668"><ele>400.0</ele><time>2026-04-26T11:52:17Z</time></trkpt><trkpt lat="41.33510054802026" lon="14.412476478426377"><ele>406.0</ele><time>2026-04-26T11:52:18Z</time></trkpt><trkpt lat="41.33521194597819" lon="14.412621284881633"><ele>412.0</ele><time>2026-04-26T11:52:19Z</time></trkpt><trkpt lat="41.33530051341292" lon="14.412793094193603"><ele>418.0</ele><time>2026-04-26T11:52:20Z</time></trkpt><trkpt lat="41.335393786103765" lon="14.412957177066055"><ele>421.0</ele><time>2026-04-26T11:52:21Z</time></trkpt><trkpt lat="41.33548547809633" lon="14.413137357955815"><ele>424.0</ele><time>2026-04-26T11:52:22Z</time></trkpt><trkpt lat="41.33557149899246" lon="14.413319545713435"><ele>427.0</ele><time>2026-04-26T11:52:23Z</time></trkpt><trkpt lat="41.33566013487461" lon="14.413507478791054"><ele>427.0</ele><time>2026-04-26T11:52:24Z</time></trkpt><trkpt lat="41.33576421380295" lon="14.413704082113998"><ele>427.0</ele><time>2026-04-26T11:52:25Z</time></trkpt><trkpt lat="41.335859665262404" lon="14.413861479048968"><ele>427.0</ele><time>2026-04-26T11:52:26Z</time></trkpt><trkpt lat="41.33594933341117" lon="14.413999088772579"><ele>432.33333333333337</ele><time>2026-04-26T11:52:27Z</time></trkpt><trkpt lat="41.33604820008054" lon="14.41417081999499"><ele>437.66666666666663</ele><time>2026-04-26T11:52:28Z</time></trkpt><trkpt lat="41.33617216105701" lon="14.414349310659679"><ele>443.0</ele><time>2026-04-26T11:52:29Z</time></trkpt><trkpt lat="41.33626995800559" lon="14.414522447322227"><ele>445.66666666666663</ele><time>2026-04-26T11:52:30Z</time></trkpt><trkpt lat="41.33637953942361" lon="14.414727636921235"><ele>448.33333333333337</ele><time>2026-04-26T11:52:31Z</time></trkpt><trkpt lat="41.33647213936182" lon="14.414910919688925"><ele>451.0</ele><time>2026-04-26T11:52:32Z</time></trkpt><trkpt lat="41.33653264988825" lon="14.415084910391245"><ele>451.0</ele><time>2026-04-26T11:52:33Z</time></trkpt><trkpt lat="41.33657245011785" lon="14.415248033533139"><ele>451.0</ele><time>2026-04-26T11:52:34Z</time></trkpt><trkpt lat="41.33656561094076" lon="14.415400550473452"><ele>451.0</ele><time>2026-04-26T11:52:35Z</time></trkpt><trkpt lat="41.336561515093365" lon="14.41559086145089"><ele>451.0</ele><time>2026-04-26T11:52:36Z</time></trkpt><trkpt lat="41.33656901497978" lon="14.415829883866238"><ele>453.75</ele><time>2026-04-26T11:52:37Z</time></trkpt><trkpt lat="41.336571230701324" lon="14.416000921463207"><ele>456.5</ele><time>2026-04-26T11:52:38Z</time></trkpt><trkpt lat="41.336604401984445" lon="14.416139819250596"><ele>459.25</ele><time>2026-04-26T11:52:39Z</time></trkpt><trkpt lat="41.336669831625606" lon="14.416303436700252"><ele>462.0</ele><time>2026-04-26T11:52:40Z</time></trkpt><trkpt lat="41.33676878794347" lon="14.41649314825808"><ele>465.5</ele><time>2026-04-26T11:52:41Z</time></trkpt><trkpt lat="41.3368689494691" lon="14.416694843617456"><ele>469.0</ele><time>2026-04-26T11:52:42Z</time></trkpt><trkpt lat="41.336933088735385" lon="14.416846039446844"><ele>472.5</ele><time>2026-04-26T11:52:43Z</time></trkpt><trkpt lat="41.336986377481736" lon="14.416984943250302"><ele>476.0</ele><time>2026-04-26T11:52:44Z</time></trkpt><trkpt lat="41.3370288595322" lon="14.417141776378225"><ele>479.25</ele><time>2026-04-26T11:52:45Z</time></trkpt><trkpt lat="41.33705485600339" lon="14.41732331266464"><ele>482.5</ele><time>2026-04-26T11:52:46Z</time></trkpt><trkpt lat="41.33703000215597" lon="14.417515300801018"><ele>485.75</ele><time>2026-04-26T11:52:47Z</time></trkpt><trkpt lat="41.33698984396386" lon="14.417715032983779"><ele>489.0</ele><time>2026-04-26T11:52:48Z</time></trkpt><trkpt lat="41.33693482189455" lon="14.417952844324333"><ele>490.5</ele><time>2026-04-26T11:52:49Z</time></trkpt><trkpt lat="41.33688196897865" lon="14.418209729289288"><ele>492.0</ele><time>2026-04-26T11:52:50Z</time></trkpt><trkpt lat="41.336840210753756" lon="14.418359062930245"><ele>493.5</ele><time>2026-04-26T11:52:51Z</time></trkpt><trkpt lat="41.336837009803446" lon="14.418508584241415"><ele>495.0</ele><time>2026-04-26T11:52:52Z</time></trkpt><trkpt lat="41.33682822474433" lon="14.41862953881394"><ele>495.0</ele><time>2026-04-26T11:52:53Z</time></trkpt><trkpt lat="41.33682579367379" lon="14.41874343929369"><ele>495.0</ele><time>2026-04-26T11:52:54Z</time></trkpt><trkpt lat="41.336839919219805" lon="14.418868748212864"><ele>495.0</ele><time>2026-04-26T11:52:55Z</time></trkpt><trkpt lat="41.336906958470784" lon="14.419044445527357"><ele>495.0</ele><time>2026-04-26T11:52:56Z</time></trkpt><trkpt lat="41.33698330091068" lon="14.419212993604082"><ele>496.4</ele><time>2026-04-26T11:52:57Z</time></trkpt><trkpt lat="41.33704014281486" lon="14.419335637630379"><ele>497.8</ele><time>2026-04-26T11:52:58Z</time></trkpt><trkpt lat="41.3370805304799" lon="14.419436140556929"><ele>499.20000000000005</ele><time>2026-04-26T11:52:59Z</time></trkpt><trkpt lat="41.337094884625756" lon="14.419540915756603"><ele>500.6</ele><time>2026-04-26T11:53:00Z</time></trkpt><trkpt lat="41.337077972737" lon="14.419659459222881"><ele>502.0</ele><time>2026-04-26T11:53:01Z</time></trkpt><trkpt lat="41.337018460958156" lon="14.419762609942898"><ele>506.0</ele><time>2026-04-26T11:53:02Z</time></trkpt><trkpt lat="41.33693763365698" lon="14.419876985226223"><ele>510.0</ele><time>2026-04-26T11:53:03Z</time></trkpt><trkpt lat="41.33684741009416" lon="14.420024319555303"><ele>514.0</ele><time>2026-04-26T11:53:04Z</time></trkpt><trkpt lat="41.33673667825638" lon="14.42014507665566"><ele>518.0</ele><time>2026-04-26T11:53:05Z</time></trkpt><trkpt lat="41.33663825582359" lon="14.420252664211635"><ele>518.0</ele><time>2026-04-26T11:53:06Z</time></trkpt><trkpt lat="41.336546442355875" lon="14.420341936753887"><ele>518.0</ele><time>2026-04-26T11:53:07Z</time></trkpt><trkpt lat="41.33647256935833" lon="14.420402932000009"><ele>518.0</ele><time>2026-04-26T11:53:08Z</time></trkpt><trkpt lat="41.33642787705063" lon="14.420480215321776"><ele>518.0</ele><time>2026-04-26T11:53:09Z</time></trkpt><trkpt lat="41.336374116520076" lon="14.420545226141678"><ele>518.0</ele><time>2026-04-26T11:53:10Z</time></trkpt><trkpt lat="41.336422309275875" lon="14.420628792838492"><ele>518.0</ele><time>2026-04-26T11:53:11Z</time></trkpt><trkpt lat="41.33652779714315" lon="14.420667475402125"><ele>520.25</ele><time>2026-04-26T11:53:13Z</time></trkpt><trkpt lat="41.33663150739368" lon="14.42070339954228"><ele>522.5</ele><time>2026-04-26T11:53:14Z</time></trkpt><trkpt lat="41.33678092488771" lon="14.42078389358169"><ele>524.75</ele><time>2026-04-26T11:53:15Z</time></trkpt><trkpt lat="41.33692884318051" lon="14.420848854999281"><ele>527.0</ele><time>2026-04-26T11:53:16Z</time></trkpt><trkpt lat="41.337073659010784" lon="14.420912510896152"><ele>531.3333333333333</ele><time>2026-04-26T11:53:17Z</time></trkpt><trkpt lat="41.33723870933245" lon="14.421007349569129"><ele>535.6666666666666</ele><time>2026-04-26T11:53:18Z</time></trkpt><trkpt lat="41.33739893390056" lon="14.421118705201721"><ele>540.0</ele><time>2026-04-26T11:53:19Z</time></trkpt><trkpt lat="41.337522797709646" lon="14.421222443030432"><ele>541.5</ele><time>2026-04-26T11:53:20Z</time></trkpt><trkpt lat="41.33761699669951" lon="14.421317627030717"><ele>543.0</ele><time>2026-04-26T11:53:21Z</time></trkpt><trkpt lat="41.337671989194014" lon="14.421429099025639"><ele>544.5</ele><time>2026-04-26T11:53:22Z</time></trkpt><trkpt lat="41.33766349473935" lon="14.421576460844069"><ele>546.0</ele><time>2026-04-26T11:53:23Z</time></trkpt><trkpt lat="41.337650936742705" lon="14.421753884695386"><ele>546.0</ele><time>2026-04-26T11:53:24Z</time></trkpt><trkpt lat="41.33768360853908" lon="14.421944172094221"><ele>546.0</ele><time>2026-04-26T11:53:25Z</time></trkpt><trkpt lat="41.33774255940018" lon="14.422088062370007"><ele>546.0</ele><time>2026-04-26T11:53:26Z</time></trkpt><trkpt lat="41.337765563581705" lon="14.42225099439513"><ele>546.0</ele><time>2026-04-26T11:53:27Z</time></trkpt><trkpt lat="41.33775515500607" lon="14.422391413739739"><ele>548.2</ele><time>2026-04-26T11:53:28Z</time></trkpt><trkpt lat="41.33774157995721" lon="14.422482764707238"><ele>550.4000000000001</ele><time>2026-04-26T11:53:29Z</time></trkpt><trkpt lat="41.337708581899605" lon="14.422613747085833"><ele>552.6</ele><time>2026-04-26T11:53:31Z</time></trkpt><trkpt lat="41.3377676191002" lon="14.422665875798081"><ele>554.8000000000001</ele><time>2026-04-26T11:53:33Z</time></trkpt><trkpt lat="41.33790429815127" lon="14.422603930938116"><ele>557.0</ele><time>2026-04-26T11:53:35Z</time></trkpt><trkpt lat="41.337970960568235" lon="14.422500669132345"><ele>557.0</ele><time>2026-04-26T11:53:36Z</time></trkpt><trkpt lat="41.33802539783132" lon="14.422377870609907"><ele>557.0</ele><time>2026-04-26T11:53:37Z</time></trkpt><trkpt lat="41.338119765217016" lon="14.422268907604895"><ele>557.0</ele><time>2026-04-26T11:53:38Z</time></trkpt><trkpt lat="41.33822013189068" lon="14.422212260931751"><ele>557.0</ele><time>2026-04-26T11:53:39Z</time></trkpt><trkpt lat="41.33831400449139" lon="14.422190313320918"><ele>557.0</ele><time>2026-04-26T11:53:40Z</time></trkpt><trkpt lat="41.33839635934991" lon="14.422218115024314"><ele>559.6</ele><time>2026-04-26T11:53:41Z</time></trkpt><trkpt lat="41.33847047990702" lon="14.422322165260377"><ele>562.2</ele><time>2026-04-26T11:53:42Z</time></trkpt><trkpt lat="41.33859425366887" lon="14.422416634030066"><ele>564.8</ele><time>2026-04-26T11:53:43Z</time></trkpt><trkpt lat="41.338678944990434" lon="14.422500189512938"><ele>567.4</ele><time>2026-04-26T11:53:44Z</time></trkpt><trkpt lat="41.338754460141786" lon="14.422527804690741"><ele>570.0</ele><time>2026-04-26T11:53:45Z</time></trkpt><trkpt lat="41.33887950662769" lon="14.422459808723895"><ele>570.25</ele><time>2026-04-26T11:53:47.001Z</time></trkpt><trkpt lat="41.338929987603066" lon="14.422311810985981"><ele>570.5</ele><time>2026-04-26T11:53:48.001Z</time></trkpt><trkpt lat="41.33889664322165" lon="14.422123674373823"><ele>570.75</ele><time>2026-04-26T11:53:49.001Z</time></trkpt><trkpt lat="41.33886225882672" lon="14.421931553432946"><ele>571.0</ele><time>2026-04-26T11:53:50.001Z</time></trkpt><trkpt lat="41.33881468587984" lon="14.421755271990785"><ele>571.0</ele><time>2026-04-26T11:53:51.001Z</time></trkpt><trkpt lat="41.338773537687096" lon="14.421598114852054"><ele>571.0</ele><time>2026-04-26T11:53:52.001Z</time></trkpt><trkpt lat="41.3387965996425" lon="14.421487470290124"><ele>571.0</ele><time>2026-04-26T11:53:53.001Z</time></trkpt><trkpt lat="41.33886415795234" lon="14.42144715385554"><ele>571.0</ele><time>2026-04-26T11:53:55.001Z</time></trkpt><trkpt lat="41.33892784573972" lon="14.421623763158841"><ele>571.0</ele><time>2026-04-26T11:53:57.001Z</time></trkpt><trkpt lat="41.33897123592615" lon="14.421761176527836"><ele>571.0</ele><time>2026-04-26T11:53:58.001Z</time></trkpt><trkpt lat="41.33903957415094" lon="14.42193312192392"><ele>571.0</ele><time>2026-04-26T11:53:59.001Z</time></trkpt><trkpt lat="41.33912453981469" lon="14.42209336209288"><ele>571.0</ele><time>2026-04-26T11:54:00.001Z</time></trkpt><trkpt lat="41.33924126256917" lon="14.422276996777416"><ele>573.5</ele><time>2026-04-26T11:54:01.001Z</time></trkpt><trkpt lat="41.33935100225568" lon="14.422479844804053"><ele>576.0</ele><time>2026-04-26T11:54:02.001Z</time></trkpt><trkpt lat="41.339425047239985" lon="14.422631653309937"><ele>578.5</ele><time>2026-04-26T11:54:03.001Z</time></trkpt><trkpt lat="41.33948849801377" lon="14.422765853430272"><ele>581.0</ele><time>2026-04-26T11:54:04.001Z</time></trkpt><trkpt lat="41.3395567990482" lon="14.42289216553541"><ele>585.5</ele><time>2026-04-26T11:54:05Z</time></trkpt><trkpt lat="41.33956751514691" lon="14.423061841266355"><ele>590.0</ele><time>2026-04-26T11:54:06Z</time></trkpt><trkpt lat="41.339585176801236" lon="14.423246510134415"><ele>594.5</ele><time>2026-04-26T11:54:07Z</time></trkpt><trkpt lat="41.33957288830167" lon="14.423416119851808"><ele>599.0</ele><time>2026-04-26T11:54:08Z</time></trkpt><trkpt lat="41.339626206508825" lon="14.423580237362362"><ele>599.0</ele><time>2026-04-26T11:54:09Z</time></trkpt><trkpt lat="41.33970058278182" lon="14.423747533916732"><ele>599.0</ele><time>2026-04-26T11:54:10Z</time></trkpt><trkpt lat="41.33975919069513" lon="14.423889601410359"><ele>599.0</ele><time>2026-04-26T11:54:11Z</time></trkpt><trkpt lat="41.33977963445563" lon="14.423983246308701"><ele>599.0</ele><time>2026-04-26T11:54:12Z</time></trkpt><trkpt lat="41.33968631551372" lon="14.424127616727931"><ele>605.25</ele><time>2026-04-26T11:54:14Z</time></trkpt><trkpt lat="41.33950931255775" lon="14.424097331716334"><ele>611.5</ele><time>2026-04-26T11:54:15Z</time></trkpt><trkpt lat="41.33940909086038" lon="14.424075855979686"><ele>617.75</ele><time>2026-04-26T11:54:16Z</time></trkpt><trkpt lat="41.33934008511132" lon="14.424030393167135"><ele>624.0</ele><time>2026-04-26T11:54:17Z</time></trkpt><trkpt lat="41.339255019583746" lon="14.423954397715947"><ele>624.0</ele><time>2026-04-26T11:54:18Z</time></trkpt><trkpt lat="41.3391518825209" lon="14.423863005610583"><ele>624.0</ele><time>2026-04-26T11:54:19Z</time></trkpt><trkpt lat="41.33906330258784" lon="14.423834000827778"><ele>624.0</ele><time>2026-04-26T11:54:20Z</time></trkpt><trkpt lat="41.33897013314712" lon="14.423839860473878"><ele>624.0</ele><time>2026-04-26T11:54:21Z</time></trkpt><trkpt lat="41.33887662372164" lon="14.423944725947454"><ele>624.0</ele><time>2026-04-26T11:54:22Z</time></trkpt><trkpt lat="41.338792593548426" lon="14.42406728582321"><ele>623.0</ele><time>2026-04-26T11:54:23Z</time></trkpt><trkpt lat="41.33873678671495" lon="14.424219761869603"><ele>622.0</ele><time>2026-04-26T11:54:24Z</time></trkpt><trkpt lat="41.33867362658459" lon="14.424314704752971"><ele>621.0</ele><time>2026-04-26T11:54:25Z</time></trkpt><trkpt lat="41.33861760332035" lon="14.42437343850437"><ele>620.0</ele><time>2026-04-26T11:54:26Z</time></trkpt><trkpt lat="41.338552825766236" lon="14.424414365491966"><ele>619.0</ele><time>2026-04-26T11:54:27Z</time></trkpt><trkpt lat="41.33840468208912" lon="14.424459206340579"><ele>619.0</ele><time>2026-04-26T11:54:28Z</time></trkpt><trkpt lat="41.338250159158285" lon="14.424507926535497"><ele>619.0</ele><time>2026-04-26T11:54:29Z</time></trkpt><trkpt lat="41.33814025414839" lon="14.42454555769464"><ele>619.0</ele><time>2026-04-26T11:54:30Z</time></trkpt><trkpt lat="41.33804690508944" lon="14.424587674833663"><ele>619.0</ele><time>2026-04-26T11:54:31Z</time></trkpt><trkpt lat="41.33795067109162" lon="14.42466147946391"><ele>618.2</ele><time>2026-04-26T11:54:32Z</time></trkpt><trkpt lat="41.33787735705393" lon="14.424766063463014"><ele>617.4</ele><time>2026-04-26T11:54:33Z</time></trkpt><trkpt lat="41.337854468900936" lon="14.424850960688616"><ele>616.6</ele><time>2026-04-26T11:54:34Z</time></trkpt><trkpt lat="41.3379427663548" lon="14.424890735455012"><ele>615.8</ele><time>2026-04-26T11:54:37Z</time></trkpt><trkpt lat="41.338042421662" lon="14.424876344353336"><ele>615.0</ele><time>2026-04-26T11:54:38Z</time></trkpt><trkpt lat="41.33816102631782" lon="14.424842203148268"><ele>622.75</ele><time>2026-04-26T11:54:39Z</time></trkpt><trkpt lat="41.338270697745045" lon="14.42481597807435"><ele>630.5</ele><time>2026-04-26T11:54:40Z</time></trkpt><trkpt lat="41.338404021672844" lon="14.424810699747855"><ele>638.25</ele><time>2026-04-26T11:54:41Z</time></trkpt><trkpt lat="41.33855332285869" lon="14.424825739503751"><ele>646.0</ele><time>2026-04-26T11:54:42Z</time></trkpt><trkpt lat="41.33867574703314" lon="14.424824310077245"><ele>646.0</ele><time>2026-04-26T11:54:43Z</time></trkpt><trkpt lat="41.33879290827063" lon="14.424829667124717"><ele>646.0</ele><time>2026-04-26T11:54:44Z</time></trkpt><trkpt lat="41.33890172355966" lon="14.424840605706997"><ele>646.0</ele><time>2026-04-26T11:54:45Z</time></trkpt><trkpt lat="41.33901096927182" lon="14.42484184110358"><ele>646.0</ele><time>2026-04-26T11:54:46Z</time></trkpt><trkpt lat="41.33914394779807" lon="14.424859908175165"><ele>648.5</ele><time>2026-04-26T11:54:47Z</time></trkpt><trkpt lat="41.33931984607864" lon="14.424906448008896"><ele>651.0</ele><time>2026-04-26T11:54:48Z</time></trkpt><trkpt lat="41.33945308696076" lon="14.42496894104122"><ele>653.5</ele><time>2026-04-26T11:54:49Z</time></trkpt><trkpt lat="41.33954791818844" lon="14.425045550383073"><ele>656.0</ele><time>2026-04-26T11:54:50Z</time></trkpt><trkpt lat="41.339617934398746" lon="14.425165213918989"><ele>656.0</ele><time>2026-04-26T11:54:51Z</time></trkpt><trkpt lat="41.3396981051102" lon="14.425343512750338"><ele>656.0</ele><time>2026-04-26T11:54:52Z</time></trkpt><trkpt lat="41.33977169344268" lon="14.425457354865785"><ele>656.0</ele><time>2026-04-26T11:54:53Z</time></trkpt><trkpt lat="41.339834966427006" lon="14.425528732518393"><ele>656.0</ele><time>2026-04-26T11:54:54Z</time></trkpt><trkpt lat="41.339936590747996" lon="14.425539331300275"><ele>656.75</ele><time>2026-04-26T11:54:55Z</time></trkpt><trkpt lat="41.34003855321387" lon="14.425506318661473"><ele>657.5</ele><time>2026-04-26T11:54:56Z</time></trkpt><trkpt lat="41.340132502037264" lon="14.425426569389224"><ele>658.25</ele><time>2026-04-26T11:54:57Z</time></trkpt><trkpt lat="41.34021940105703" lon="14.425314130251321"><ele>659.0</ele><time>2026-04-26T11:54:58Z</time></trkpt><trkpt lat="41.340318422177795" lon="14.425166713348242"><ele>659.0</ele><time>2026-04-26T11:54:59Z</time></trkpt><trkpt lat="41.340405120677026" lon="14.425042152943735"><ele>659.0</ele><time>2026-04-26T11:55:00Z</time></trkpt><trkpt lat="41.3405105825665" lon="14.424917458748048"><ele>659.0</ele><time>2026-04-26T11:55:01Z</time></trkpt><trkpt lat="41.34060847216457" lon="14.42484793592374"><ele>659.0</ele><time>2026-04-26T11:55:02Z</time></trkpt><trkpt lat="41.340694078831206" lon="14.42480709873422"><ele>661.4000000000001</ele><time>2026-04-26T11:55:03Z</time></trkpt><trkpt lat="41.34073858894084" lon="14.424879988193739"><ele>663.8</ele><time>2026-04-26T11:55:04Z</time></trkpt><trkpt lat="41.34078786600722" lon="14.424962711938061"><ele>666.2</ele><time>2026-04-26T11:55:05Z</time></trkpt><trkpt lat="41.340886801891635" lon="14.425083377555403"><ele>668.5999999999999</ele><time>2026-04-26T11:55:06Z</time></trkpt><trkpt lat="41.34100210958095" lon="14.42521378414938"><ele>671.0</ele><time>2026-04-26T11:55:07Z</time></trkpt><trkpt lat="41.34106697739318" lon="14.425333147359892"><ele>671.0</ele><time>2026-04-26T11:55:08Z</time></trkpt><trkpt lat="41.341152595303605" lon="14.425381697091376"><ele>671.0</ele><time>2026-04-26T11:55:09Z</time></trkpt><trkpt lat="41.3412405895168" lon="14.425480782161964"><ele>671.0</ele><time>2026-04-26T11:55:10Z</time></trkpt><trkpt lat="41.341358396538034" lon="14.425613016402634"><ele>671.0</ele><time>2026-04-26T11:55:11Z</time></trkpt><trkpt lat="41.34151476665344" lon="14.425774051925865"><ele>675.8</ele><time>2026-04-26T11:55:12Z</time></trkpt><trkpt lat="41.341654900286315" lon="14.425872383394905"><ele>680.5999999999999</ele><time>2026-04-26T11:55:13Z</time></trkpt><trkpt lat="41.34176190035831" lon="14.425907098988977"><ele>685.4</ele><time>2026-04-26T11:55:14Z</time></trkpt><trkpt lat="41.341841425041395" lon="14.425950814443128"><ele>690.2</ele><time>2026-04-26T11:55:15Z</time></trkpt><trkpt lat="41.341873786827904" lon="14.426030063356674"><ele>695.0</ele><time>2026-04-26T11:55:17Z</time></trkpt><trkpt lat="41.34181524073407" lon="14.426077603441469"><ele>695.0</ele><time>2026-04-26T11:55:18Z</time></trkpt><trkpt lat="41.34170908186793" lon="14.42597439687974"><ele>695.0</ele><time>2026-04-26T11:55:19Z</time></trkpt><trkpt lat="41.341601828419094" lon="14.425930023754539"><ele>695.0</ele><time>2026-04-26T11:55:20Z</time></trkpt><trkpt lat="41.34147594742221" lon="14.42585766066035"><ele>695.0</ele><time>2026-04-26T11:55:21Z</time></trkpt><trkpt lat="41.34133683399084" lon="14.425801601060801"><ele>697.5</ele><time>2026-04-26T11:55:22Z</time></trkpt><trkpt lat="41.34120590332118" lon="14.425741248598833"><ele>700.0</ele><time>2026-04-26T11:55:23Z</time></trkpt><trkpt lat="41.34110246329541" lon="14.425687571780305"><ele>702.5</ele><time>2026-04-26T11:55:24Z</time></trkpt><trkpt lat="41.34098202154387" lon="14.425657607749939"><ele>705.0</ele><time>2026-04-26T11:55:25Z</time></trkpt><trkpt lat="41.34087761268715" lon="14.42562780489334"><ele>705.0</ele><time>2026-04-26T11:55:26Z</time></trkpt><trkpt lat="41.34078861671997" lon="14.425569656852431"><ele>705.0</ele><time>2026-04-26T11:55:27Z</time></trkpt><trkpt lat="41.34070874148327" lon="14.425586700894787"><ele>705.0</ele><time>2026-04-26T11:55:28Z</time></trkpt><trkpt lat="41.34064114971194" lon="14.42564415427326"><ele>705.0</ele><time>2026-04-26T11:55:29Z</time></trkpt><trkpt lat="41.340610474396804" lon="14.42574896732799"><ele>705.0</ele><time>2026-04-26T11:55:30Z</time></trkpt><trkpt lat="41.340566695462115" lon="14.425851088519064"><ele>705.0</ele><time>2026-04-26T11:55:31Z</time></trkpt><trkpt lat="41.340517204368666" lon="14.425975758915236"><ele>702.2</ele><time>2026-04-26T11:55:32Z</time></trkpt><trkpt lat="41.34046110454811" lon="14.426099252296165"><ele>699.4</ele><time>2026-04-26T11:55:32.999Z</time></trkpt><trkpt lat="41.34041441285114" lon="14.426235852454885"><ele>696.5999999999999</ele><time>2026-04-26T11:55:33.999Z</time></trkpt><trkpt lat="41.34034369286816" lon="14.426369283846718"><ele>693.8</ele><time>2026-04-26T11:55:34.999Z</time></trkpt><trkpt lat="41.340280066755014" lon="14.426477792744208"><ele>691.0</ele><time>2026-04-26T11:55:35.999Z</time></trkpt><trkpt lat="41.34017011263005" lon="14.426546825324108"><ele>696.5</ele><time>2026-04-26T11:55:36.999Z</time></trkpt><trkpt lat="41.340066592426986" lon="14.426549717022024"><ele>702.0</ele><time>2026-04-26T11:55:37.999Z</time></trkpt><trkpt lat="41.339967277638856" lon="14.426510872002542"><ele>707.5</ele><time>2026-04-26T11:55:38.999Z</time></trkpt><trkpt lat="41.33984004253464" lon="14.426463663868635"><ele>713.0</ele><time>2026-04-26T11:55:39.999Z</time></trkpt><trkpt lat="41.33968197091482" lon="14.42636913627382"><ele>708.25</ele><time>2026-04-26T11:55:40.999Z</time></trkpt><trkpt lat="41.33955093121974" lon="14.426304457994013"><ele>703.5</ele><time>2026-04-26T11:55:41.999Z</time></trkpt><trkpt lat="41.33942496790524" lon="14.426241435048723"><ele>698.75</ele><time>2026-04-26T11:55:42.999Z</time></trkpt><trkpt lat="41.33931355019951" lon="14.426228638518186"><ele>694.0</ele><time>2026-04-26T11:55:43.999Z</time></trkpt><trkpt lat="41.33921443935614" lon="14.426258961183919"><ele>694.0</ele><time>2026-04-26T11:55:44.999Z</time></trkpt><trkpt lat="41.339137383181225" lon="14.426308905171894"><ele>694.0</ele><time>2026-04-26T11:55:45.999Z</time></trkpt></trkseg></trk></gpx>